<?xml version="1.0" encoding="UTF-8"?>
<gpx version="1.1" creator="2bulu-scraper" xmlns="http://www.topografix.com/GPX/1/1">
  <metadata><name>乐山峨眉山市</name><desc>source: 2bulu.com trackId=86482881; exported 2026-09-01T16:15:15.522Z</desc>
    <bounds minlat="29.5227469" minlon="103.3267846" maxlat="29.5830786" maxlon="103.4437384"/>
    <link href="https://www.2bulu.com/track/t-RhtA%252FLr9eVvp%252FR2KBg5Tzw%253D%253D.htm"><text>2bulu 源页面</text></link>
  </metadata>
  <wpt lat="29.568523" lon="103.4437384"><ele>478</ele><name>
        </name></wpt>
  <wpt lat="29.5649603" lon="103.4267501"><ele>611</ele><name>
        </name></wpt>
  <wpt lat="29.5652579" lon="103.4212765"><ele>773</ele><name>
        </name></wpt>
  <wpt lat="29.5698137" lon="103.419173"><ele>886</ele><name>
        </name></wpt>
  <wpt lat="29.5680618" lon="103.4090671"><ele>811</ele><name>
        </name></wpt>
  <wpt lat="29.5666575" lon="103.4077643"><ele>771</ele><name>
        </name></wpt>
  <wpt lat="29.5710439" lon="103.4025903"><ele>730</ele><name>
        </name></wpt>
  <wpt lat="29.5720685" lon="103.4013137"><ele>728</ele><name>
        </name></wpt>
  <wpt lat="29.5509252" lon="103.373813"><ele>1221</ele><name>
        </name></wpt>
  <wpt lat="29.5494191" lon="103.3663806"><ele>1450</ele><name>
        </name></wpt>
  <wpt lat="29.5503031" lon="103.3570285"><ele>1685</ele><name>
        </name></wpt>
  <wpt lat="29.5593951" lon="103.3507177"><ele>1537</ele><name>
        </name></wpt>
  <wpt lat="29.562818" lon="103.3508964"><ele>1779</ele><name>
        </name></wpt>
  <wpt lat="29.5634357" lon="103.3472139"><ele>1787</ele><name>
        </name></wpt>
  <wpt lat="29.561502" lon="103.3454568"><ele>1781</ele><name>
        </name></wpt>
  <wpt lat="29.5588566" lon="103.3442892"><ele>2013</ele><name>
        </name></wpt>
  <wpt lat="29.558145" lon="103.3440842"><ele>2034</ele><name>
        </name></wpt>
  <wpt lat="29.5573423" lon="103.3436189"><ele>2038</ele><name>
        </name></wpt>
  <wpt lat="29.5474341" lon="103.3409993"><ele>2303</ele><name>
        </name></wpt>
  <wpt lat="29.5465627" lon="103.3370217"><ele>2433</ele><name>
        </name></wpt>
  <wpt lat="29.5321572" lon="103.3301364"><ele>2641</ele><name>
        </name></wpt>
  <wpt lat="29.531222" lon="103.3296242"><ele>2686</ele><name>
        </name></wpt>
  <wpt lat="29.5300612" lon="103.3271637"><ele>2805</ele><name>
        </name></wpt>
  <wpt lat="29.5273703" lon="103.3325445"><ele>2904</ele><name>
        </name></wpt>
  <wpt lat="29.524002" lon="103.3349374"><ele>2982</ele><name>
        </name></wpt>
  <wpt lat="29.5227896" lon="103.3348007"><ele>2993</ele><name>
        </name></wpt>
  <wpt lat="29.5312574" lon="103.329701"><ele>2721</ele><name>
        </name></wpt>
  <wpt lat="29.5465896" lon="103.337344"><ele>2418</ele><name>
        </name></wpt>
  <wpt lat="29.55442" lon="103.3454006"><ele>2204</ele><name>
        </name></wpt>
  <wpt lat="29.5571049" lon="103.3436104"><ele>2058</ele><name>
        </name></wpt>
  <wpt lat="29.5627616" lon="103.350729"><ele>1780</ele><name>
        </name></wpt>
  <wpt lat="29.5736893" lon="103.3622807"><ele>1585</ele><name>
        </name></wpt>
  <wpt lat="29.5819438" lon="103.3824628"><ele>946</ele><name>
        </name></wpt>
  <wpt lat="29.5665921" lon="103.4076101"><ele>765</ele><name>
        </name></wpt>
  <wpt lat="29.5651748" lon="103.4261533"><ele>656</ele><name>
        </name></wpt>
  <wpt lat="29.5684499" lon="103.4434944"><ele>475</ele><name>
        </name></wpt>
  <wpt lat="29.5684499" lon="103.4434944"><ele>475</ele><name>
        </name></wpt>
  <trk><name>乐山峨眉山市</name>
      <trkseg>
        <trkpt lat="29.568523" lon="103.4437384"><ele>478.31</ele><time>2026-06-27T02:14:15.000Z</time></trkpt>
        <trkpt lat="29.5684836" lon="103.4436645"><ele>478.31</ele><time>2026-06-27T02:14:33.000Z</time></trkpt>
        <trkpt lat="29.5684815" lon="103.4435646"><ele>478.19</ele><time>2026-06-27T02:14:45.000Z</time></trkpt>
        <trkpt lat="29.5684968" lon="103.4434518"><ele>476.81</ele><time>2026-06-27T02:14:51.000Z</time></trkpt>
        <trkpt lat="29.5685318" lon="103.4433298"><ele>475.8</ele><time>2026-06-27T02:14:59.000Z</time></trkpt>
        <trkpt lat="29.5685963" lon="103.4432457"><ele>475.27</ele><time>2026-06-27T02:15:09.000Z</time></trkpt>
        <trkpt lat="29.568685" lon="103.4431834"><ele>477.07</ele><time>2026-06-27T02:15:19.000Z</time></trkpt>
        <trkpt lat="29.5687341" lon="103.4430805"><ele>478.61</ele><time>2026-06-27T02:15:27.000Z</time></trkpt>
        <trkpt lat="29.5687592" lon="103.4429543"><ele>479.17</ele><time>2026-06-27T02:15:35.000Z</time></trkpt>
        <trkpt lat="29.568784" lon="103.4428366"><ele>479.95</ele><time>2026-06-27T02:15:41.000Z</time></trkpt>
        <trkpt lat="29.5688246" lon="103.4427186"><ele>480.04</ele><time>2026-06-27T02:15:49.000Z</time></trkpt>
        <trkpt lat="29.5688533" lon="103.4425938"><ele>479.45</ele><time>2026-06-27T02:15:59.000Z</time></trkpt>
        <trkpt lat="29.5688678" lon="103.4424811"><ele>478.81</ele><time>2026-06-27T02:16:07.000Z</time></trkpt>
        <trkpt lat="29.5688843" lon="103.4423743"><ele>478.12</ele><time>2026-06-27T02:16:13.000Z</time></trkpt>
        <trkpt lat="29.5688984" lon="103.4422657"><ele>478.03</ele><time>2026-06-27T02:16:21.000Z</time></trkpt>
        <trkpt lat="29.5689166" lon="103.4421526"><ele>478.11</ele><time>2026-06-27T02:16:29.000Z</time></trkpt>
        <trkpt lat="29.5689353" lon="103.4420395"><ele>478.78</ele><time>2026-06-27T02:16:39.000Z</time></trkpt>
        <trkpt lat="29.5689655" lon="103.4419177"><ele>479.02</ele><time>2026-06-27T02:16:47.000Z</time></trkpt>
        <trkpt lat="29.5689817" lon="103.4418085"><ele>478.94</ele><time>2026-06-27T02:16:53.000Z</time></trkpt>
        <trkpt lat="29.5689942" lon="103.4417034"><ele>478.85</ele><time>2026-06-27T02:16:59.000Z</time></trkpt>
        <trkpt lat="29.5690011" lon="103.4415768"><ele>479.1</ele><time>2026-06-27T02:17:09.000Z</time></trkpt>
        <trkpt lat="29.569024" lon="103.441465"><ele>479.33</ele><time>2026-06-27T02:17:17.000Z</time></trkpt>
        <trkpt lat="29.5690568" lon="103.4413564"><ele>479.96</ele><time>2026-06-27T02:17:25.000Z</time></trkpt>
        <trkpt lat="29.5690782" lon="103.4412408"><ele>481.52</ele><time>2026-06-27T02:17:33.000Z</time></trkpt>
        <trkpt lat="29.5690675" lon="103.4411265"><ele>482.7</ele><time>2026-06-27T02:17:41.000Z</time></trkpt>
        <trkpt lat="29.5690536" lon="103.44101"><ele>483.44</ele><time>2026-06-27T02:17:49.000Z</time></trkpt>
        <trkpt lat="29.5690547" lon="103.44089"><ele>484.24</ele><time>2026-06-27T02:17:59.000Z</time></trkpt>
        <trkpt lat="29.5690492" lon="103.4407661"><ele>484.79</ele><time>2026-06-27T02:18:07.000Z</time></trkpt>
        <trkpt lat="29.5690156" lon="103.4406644"><ele>485.06</ele><time>2026-06-27T02:18:15.000Z</time></trkpt>
        <trkpt lat="29.5689944" lon="103.4405571"><ele>486.3</ele><time>2026-06-27T02:18:23.000Z</time></trkpt>
        <trkpt lat="29.568973" lon="103.4404512"><ele>487.91</ele><time>2026-06-27T02:18:29.000Z</time></trkpt>
        <trkpt lat="29.5689483" lon="103.440331"><ele>489.45</ele><time>2026-06-27T02:18:37.000Z</time></trkpt>
        <trkpt lat="29.5689045" lon="103.4402159"><ele>490.25</ele><time>2026-06-27T02:18:45.000Z</time></trkpt>
        <trkpt lat="29.5688758" lon="103.4401039"><ele>491.6</ele><time>2026-06-27T02:18:53.000Z</time></trkpt>
        <trkpt lat="29.5688132" lon="103.440017"><ele>493.47</ele><time>2026-06-27T02:19:01.000Z</time></trkpt>
        <trkpt lat="29.5687557" lon="103.4399318"><ele>495.77</ele><time>2026-06-27T02:19:09.000Z</time></trkpt>
        <trkpt lat="29.5687122" lon="103.4398264"><ele>498.73</ele><time>2026-06-27T02:19:17.000Z</time></trkpt>
        <trkpt lat="29.5686483" lon="103.4397366"><ele>500.86</ele><time>2026-06-27T02:19:27.000Z</time></trkpt>
        <trkpt lat="29.5685767" lon="103.4396484"><ele>503.08</ele><time>2026-06-27T02:19:37.000Z</time></trkpt>
        <trkpt lat="29.5685181" lon="103.4395547"><ele>505.36</ele><time>2026-06-27T02:19:45.000Z</time></trkpt>
        <trkpt lat="29.5684565" lon="103.4394641"><ele>506.84</ele><time>2026-06-27T02:19:55.000Z</time></trkpt>
        <trkpt lat="29.568379" lon="103.4393786"><ele>506.95</ele><time>2026-06-27T02:20:05.000Z</time></trkpt>
        <trkpt lat="29.5682992" lon="103.4393159"><ele>507.66</ele><time>2026-06-27T02:20:11.000Z</time></trkpt>
        <trkpt lat="29.5682237" lon="103.4392443"><ele>508.52</ele><time>2026-06-27T02:20:21.000Z</time></trkpt>
        <trkpt lat="29.5681539" lon="103.4391732"><ele>509.37</ele><time>2026-06-27T02:20:29.000Z</time></trkpt>
        <trkpt lat="29.5680881" lon="103.4391022"><ele>509.77</ele><time>2026-06-27T02:20:37.000Z</time></trkpt>
        <trkpt lat="29.5680162" lon="103.4390184"><ele>510.2</ele><time>2026-06-27T02:20:45.000Z</time></trkpt>
        <trkpt lat="29.5679436" lon="103.438925"><ele>510.42</ele><time>2026-06-27T02:20:53.000Z</time></trkpt>
        <trkpt lat="29.5678856" lon="103.4388298"><ele>510.72</ele><time>2026-06-27T02:21:03.000Z</time></trkpt>
        <trkpt lat="29.567814" lon="103.4387402"><ele>511.03</ele><time>2026-06-27T02:21:11.000Z</time></trkpt>
        <trkpt lat="29.5677408" lon="103.4386517"><ele>511.2</ele><time>2026-06-27T02:21:19.000Z</time></trkpt>
        <trkpt lat="29.5676752" lon="103.4385549"><ele>512.14</ele><time>2026-06-27T02:21:29.000Z</time></trkpt>
        <trkpt lat="29.5675999" lon="103.4384617"><ele>512.7</ele><time>2026-06-27T02:21:37.000Z</time></trkpt>
        <trkpt lat="29.5675402" lon="103.4383654"><ele>512.59</ele><time>2026-06-27T02:21:43.000Z</time></trkpt>
        <trkpt lat="29.5674842" lon="103.438275"><ele>512.5</ele><time>2026-06-27T02:21:49.000Z</time></trkpt>
        <trkpt lat="29.5674182" lon="103.438184"><ele>512.56</ele><time>2026-06-27T02:21:57.000Z</time></trkpt>
        <trkpt lat="29.5673533" lon="103.4380774"><ele>512.76</ele><time>2026-06-27T02:22:05.000Z</time></trkpt>
        <trkpt lat="29.5672955" lon="103.4379747"><ele>513.04</ele><time>2026-06-27T02:22:13.000Z</time></trkpt>
        <trkpt lat="29.5672431" lon="103.4378737"><ele>513.87</ele><time>2026-06-27T02:22:21.000Z</time></trkpt>
        <trkpt lat="29.5671765" lon="103.4377877"><ele>514.72</ele><time>2026-06-27T02:22:27.000Z</time></trkpt>
        <trkpt lat="29.5671167" lon="103.4376941"><ele>515.24</ele><time>2026-06-27T02:22:35.000Z</time></trkpt>
        <trkpt lat="29.5670631" lon="103.4375935"><ele>516</ele><time>2026-06-27T02:22:45.000Z</time></trkpt>
        <trkpt lat="29.567001" lon="103.4374955"><ele>516.65</ele><time>2026-06-27T02:22:53.000Z</time></trkpt>
        <trkpt lat="29.5669449" lon="103.4373913"><ele>517.91</ele><time>2026-06-27T02:23:01.000Z</time></trkpt>
        <trkpt lat="29.5668954" lon="103.4372901"><ele>518.93</ele><time>2026-06-27T02:23:11.000Z</time></trkpt>
        <trkpt lat="29.5668423" lon="103.4371924"><ele>519.92</ele><time>2026-06-27T02:23:21.000Z</time></trkpt>
        <trkpt lat="29.5667966" lon="103.4370977"><ele>520.41</ele><time>2026-06-27T02:23:29.000Z</time></trkpt>
        <trkpt lat="29.5667402" lon="103.4369994"><ele>520.81</ele><time>2026-06-27T02:23:37.000Z</time></trkpt>
        <trkpt lat="29.5666756" lon="103.4369139"><ele>521.21</ele><time>2026-06-27T02:23:43.000Z</time></trkpt>
        <trkpt lat="29.5666141" lon="103.4368096"><ele>521.72</ele><time>2026-06-27T02:23:51.000Z</time></trkpt>
        <trkpt lat="29.5665656" lon="103.436712"><ele>521.99</ele><time>2026-06-27T02:23:59.000Z</time></trkpt>
        <trkpt lat="29.566515" lon="103.436599"><ele>522.43</ele><time>2026-06-27T02:24:07.000Z</time></trkpt>
        <trkpt lat="29.5664547" lon="103.4364885"><ele>523.02</ele><time>2026-06-27T02:24:15.000Z</time></trkpt>
        <trkpt lat="29.5664104" lon="103.4363871"><ele>523.7</ele><time>2026-06-27T02:24:23.000Z</time></trkpt>
        <trkpt lat="29.566368" lon="103.4362844"><ele>524.17</ele><time>2026-06-27T02:24:31.000Z</time></trkpt>
        <trkpt lat="29.5663341" lon="103.436178"><ele>524.72</ele><time>2026-06-27T02:24:39.000Z</time></trkpt>
        <trkpt lat="29.5663118" lon="103.4360737"><ele>525.46</ele><time>2026-06-27T02:24:47.000Z</time></trkpt>
        <trkpt lat="29.5662749" lon="103.4359504"><ele>525.91</ele><time>2026-06-27T02:24:55.000Z</time></trkpt>
        <trkpt lat="29.5662308" lon="103.4358262"><ele>525.68</ele><time>2026-06-27T02:25:03.000Z</time></trkpt>
        <trkpt lat="29.5661911" lon="103.4357062"><ele>525.22</ele><time>2026-06-27T02:25:11.000Z</time></trkpt>
        <trkpt lat="29.5661683" lon="103.4355814"><ele>525.31</ele><time>2026-06-27T02:25:19.000Z</time></trkpt>
        <trkpt lat="29.5661422" lon="103.4354566"><ele>525.35</ele><time>2026-06-27T02:25:29.000Z</time></trkpt>
        <trkpt lat="29.5660968" lon="103.4353539"><ele>525.07</ele><time>2026-06-27T02:25:37.000Z</time></trkpt>
        <trkpt lat="29.566048" lon="103.4352508"><ele>525.44</ele><time>2026-06-27T02:25:45.000Z</time></trkpt>
        <trkpt lat="29.5660043" lon="103.4351358"><ele>525.91</ele><time>2026-06-27T02:25:53.000Z</time></trkpt>
        <trkpt lat="29.5659496" lon="103.4350241"><ele>526.67</ele><time>2026-06-27T02:26:03.000Z</time></trkpt>
        <trkpt lat="29.5658745" lon="103.4349318"><ele>527.36</ele><time>2026-06-27T02:26:11.000Z</time></trkpt>
        <trkpt lat="29.5657981" lon="103.4348535"><ele>528.83</ele><time>2026-06-27T02:26:19.000Z</time></trkpt>
        <trkpt lat="29.5657087" lon="103.434794"><ele>530.47</ele><time>2026-06-27T02:26:27.000Z</time></trkpt>
        <trkpt lat="29.5656385" lon="103.4347137"><ele>531.86</ele><time>2026-06-27T02:26:35.000Z</time></trkpt>
        <trkpt lat="29.5655949" lon="103.4346178"><ele>532.75</ele><time>2026-06-27T02:26:43.000Z</time></trkpt>
        <trkpt lat="29.5656013" lon="103.4344989"><ele>533.73</ele><time>2026-06-27T02:26:53.000Z</time></trkpt>
        <trkpt lat="29.5656533" lon="103.4343955"><ele>534.32</ele><time>2026-06-27T02:27:01.000Z</time></trkpt>
        <trkpt lat="29.565735" lon="103.4343036"><ele>534.64</ele><time>2026-06-27T02:27:11.000Z</time></trkpt>
        <trkpt lat="29.5657938" lon="103.4342075"><ele>534.92</ele><time>2026-06-27T02:27:17.000Z</time></trkpt>
        <trkpt lat="29.565806" lon="103.4341038"><ele>536.44</ele><time>2026-06-27T02:27:25.000Z</time></trkpt>
        <trkpt lat="29.5657945" lon="103.4339923"><ele>537.77</ele><time>2026-06-27T02:27:37.000Z</time></trkpt>
        <trkpt lat="29.565805" lon="103.4338829"><ele>539.4</ele><time>2026-06-27T02:27:47.000Z</time></trkpt>
        <trkpt lat="29.5658049" lon="103.4337768"><ele>541.63</ele><time>2026-06-27T02:27:55.000Z</time></trkpt>
        <trkpt lat="29.5658008" lon="103.4336591"><ele>542.42</ele><time>2026-06-27T02:28:05.000Z</time></trkpt>
        <trkpt lat="29.5657874" lon="103.4335353"><ele>543.25</ele><time>2026-06-27T02:28:11.000Z</time></trkpt>
        <trkpt lat="29.5657755" lon="103.4333975"><ele>543.41</ele><time>2026-06-27T02:28:17.000Z</time></trkpt>
        <trkpt lat="29.5657858" lon="103.433284"><ele>544.08</ele><time>2026-06-27T02:28:23.000Z</time></trkpt>
        <trkpt lat="29.5657599" lon="103.4331864"><ele>544.69</ele><time>2026-06-27T02:28:31.000Z</time></trkpt>
        <trkpt lat="29.565746" lon="103.4330774"><ele>544.77</ele><time>2026-06-27T02:28:39.000Z</time></trkpt>
        <trkpt lat="29.5657414" lon="103.4329571"><ele>545.66</ele><time>2026-06-27T02:28:47.000Z</time></trkpt>
        <trkpt lat="29.5657403" lon="103.4328478"><ele>546.68</ele><time>2026-06-27T02:28:55.000Z</time></trkpt>
        <trkpt lat="29.5656878" lon="103.4327396"><ele>547.24</ele><time>2026-06-27T02:29:05.000Z</time></trkpt>
        <trkpt lat="29.5656231" lon="103.4326381"><ele>547.75</ele><time>2026-06-27T02:29:13.000Z</time></trkpt>
        <trkpt lat="29.565575" lon="103.4325278"><ele>548.8</ele><time>2026-06-27T02:29:21.000Z</time></trkpt>
        <trkpt lat="29.5655298" lon="103.4324149"><ele>549.33</ele><time>2026-06-27T02:29:29.000Z</time></trkpt>
        <trkpt lat="29.565499" lon="103.4323004"><ele>549.65</ele><time>2026-06-27T02:29:37.000Z</time></trkpt>
        <trkpt lat="29.5654527" lon="103.4321985"><ele>549.88</ele><time>2026-06-27T02:29:45.000Z</time></trkpt>
        <trkpt lat="29.5654127" lon="103.4320813"><ele>550.71</ele><time>2026-06-27T02:29:55.000Z</time></trkpt>
        <trkpt lat="29.5653993" lon="103.4319703"><ele>552.19</ele><time>2026-06-27T02:30:03.000Z</time></trkpt>
        <trkpt lat="29.5653921" lon="103.4318552"><ele>553.38</ele><time>2026-06-27T02:30:17.000Z</time></trkpt>
        <trkpt lat="29.565423" lon="103.4317496"><ele>553.43</ele><time>2026-06-27T02:30:27.000Z</time></trkpt>
        <trkpt lat="29.5654488" lon="103.4316317"><ele>554.31</ele><time>2026-06-27T02:30:37.000Z</time></trkpt>
        <trkpt lat="29.5654776" lon="103.4315159"><ele>555.65</ele><time>2026-06-27T02:30:45.000Z</time></trkpt>
        <trkpt lat="29.5655118" lon="103.4314103"><ele>556.83</ele><time>2026-06-27T02:30:53.000Z</time></trkpt>
        <trkpt lat="29.5655293" lon="103.4313058"><ele>557.6</ele><time>2026-06-27T02:31:03.000Z</time></trkpt>
        <trkpt lat="29.5655536" lon="103.4312016"><ele>558.13</ele><time>2026-06-27T02:31:11.000Z</time></trkpt>
        <trkpt lat="29.5655745" lon="103.4310942"><ele>558.74</ele><time>2026-06-27T02:31:19.000Z</time></trkpt>
        <trkpt lat="29.5655406" lon="103.4309838"><ele>559.53</ele><time>2026-06-27T02:31:29.000Z</time></trkpt>
        <trkpt lat="29.5654692" lon="103.4308892"><ele>560.84</ele><time>2026-06-27T02:31:37.000Z</time></trkpt>
        <trkpt lat="29.5653969" lon="103.4307971"><ele>563.45</ele><time>2026-06-27T02:31:45.000Z</time></trkpt>
        <trkpt lat="29.5653891" lon="103.4306983"><ele>566.45</ele><time>2026-06-27T02:31:53.000Z</time></trkpt>
        <trkpt lat="29.5653674" lon="103.4305933"><ele>568.81</ele><time>2026-06-27T02:32:03.000Z</time></trkpt>
        <trkpt lat="29.5653527" lon="103.4304725"><ele>571.03</ele><time>2026-06-27T02:32:11.000Z</time></trkpt>
        <trkpt lat="29.5653417" lon="103.4303546"><ele>573.4</ele><time>2026-06-27T02:32:19.000Z</time></trkpt>
        <trkpt lat="29.5653373" lon="103.4302457"><ele>574.57</ele><time>2026-06-27T02:32:27.000Z</time></trkpt>
        <trkpt lat="29.5653258" lon="103.4301415"><ele>575.8</ele><time>2026-06-27T02:32:35.000Z</time></trkpt>
        <trkpt lat="29.565307" lon="103.4300198"><ele>577.03</ele><time>2026-06-27T02:32:45.000Z</time></trkpt>
        <trkpt lat="29.5652743" lon="103.4299067"><ele>577.8</ele><time>2026-06-27T02:32:53.000Z</time></trkpt>
        <trkpt lat="29.565222" lon="103.429789"><ele>578.76</ele><time>2026-06-27T02:33:03.000Z</time></trkpt>
        <trkpt lat="29.5651787" lon="103.429683"><ele>580.05</ele><time>2026-06-27T02:33:11.000Z</time></trkpt>
        <trkpt lat="29.5651399" lon="103.4295808"><ele>581.28</ele><time>2026-06-27T02:33:19.000Z</time></trkpt>
        <trkpt lat="29.5650945" lon="103.4294747"><ele>582.95</ele><time>2026-06-27T02:33:27.000Z</time></trkpt>
        <trkpt lat="29.565053" lon="103.4293728"><ele>584.18</ele><time>2026-06-27T02:33:37.000Z</time></trkpt>
        <trkpt lat="29.5650151" lon="103.4292652"><ele>586.15</ele><time>2026-06-27T02:33:45.000Z</time></trkpt>
        <trkpt lat="29.5649678" lon="103.429147"><ele>587.45</ele><time>2026-06-27T02:33:53.000Z</time></trkpt>
        <trkpt lat="29.5649447" lon="103.4290377"><ele>587.83</ele><time>2026-06-27T02:34:01.000Z</time></trkpt>
        <trkpt lat="29.5649199" lon="103.4289197"><ele>587.73</ele><time>2026-06-27T02:34:09.000Z</time></trkpt>
        <trkpt lat="29.5648898" lon="103.4288145"><ele>587.32</ele><time>2026-06-27T02:34:17.000Z</time></trkpt>
        <trkpt lat="29.5648487" lon="103.4287089"><ele>587.76</ele><time>2026-06-27T02:34:27.000Z</time></trkpt>
        <trkpt lat="29.5648542" lon="103.4285969"><ele>588.28</ele><time>2026-06-27T02:34:35.000Z</time></trkpt>
        <trkpt lat="29.5648565" lon="103.4284864"><ele>588.68</ele><time>2026-06-27T02:34:43.000Z</time></trkpt>
        <trkpt lat="29.5649143" lon="103.4284019"><ele>589.22</ele><time>2026-06-27T02:34:51.000Z</time></trkpt>
        <trkpt lat="29.5650139" lon="103.4283577"><ele>589.57</ele><time>2026-06-27T02:35:01.000Z</time></trkpt>
        <trkpt lat="29.565107" lon="103.4283156"><ele>589.44</ele><time>2026-06-27T02:35:09.000Z</time></trkpt>
        <trkpt lat="29.5651729" lon="103.4282431"><ele>589.68</ele><time>2026-06-27T02:35:17.000Z</time></trkpt>
        <trkpt lat="29.5652314" lon="103.4281606"><ele>589.95</ele><time>2026-06-27T02:35:25.000Z</time></trkpt>
        <trkpt lat="29.5653184" lon="103.4280954"><ele>589.92</ele><time>2026-06-27T02:35:35.000Z</time></trkpt>
        <trkpt lat="29.5654231" lon="103.4280592"><ele>590.55</ele><time>2026-06-27T02:35:43.000Z</time></trkpt>
        <trkpt lat="29.5655138" lon="103.4279977"><ele>590.32</ele><time>2026-06-27T02:36:03.000Z</time></trkpt>
        <trkpt lat="29.5655464" lon="103.4279039"><ele>591.26</ele><time>2026-06-27T02:36:11.000Z</time></trkpt>
        <trkpt lat="29.565524" lon="103.4277902"><ele>592.96</ele><time>2026-06-27T02:36:21.000Z</time></trkpt>
        <trkpt lat="29.5654738" lon="103.4276698"><ele>594.58</ele><time>2026-06-27T02:36:31.000Z</time></trkpt>
        <trkpt lat="29.5654168" lon="103.427555"><ele>595.84</ele><time>2026-06-27T02:36:39.000Z</time></trkpt>
        <trkpt lat="29.565352" lon="103.4274596"><ele>596.79</ele><time>2026-06-27T02:36:47.000Z</time></trkpt>
        <trkpt lat="29.5653441" lon="103.4273381"><ele>597.02</ele><time>2026-06-27T02:36:55.000Z</time></trkpt>
        <trkpt lat="29.565323" lon="103.42723"><ele>597.53</ele><time>2026-06-27T02:37:01.000Z</time></trkpt>
        <trkpt lat="29.565309" lon="103.4271101"><ele>598.62</ele><time>2026-06-27T02:37:09.000Z</time></trkpt>
        <trkpt lat="29.5652473" lon="103.4270189"><ele>600.58</ele><time>2026-06-27T02:37:21.000Z</time></trkpt>
        <trkpt lat="29.5651528" lon="103.4269603"><ele>602.62</ele><time>2026-06-27T02:37:31.000Z</time></trkpt>
        <trkpt lat="29.5650561" lon="103.426915"><ele>604.71</ele><time>2026-06-27T02:37:41.000Z</time></trkpt>
        <trkpt lat="29.5649706" lon="103.4268561"><ele>606.56</ele><time>2026-06-27T02:37:47.000Z</time></trkpt>
        <trkpt lat="29.5649603" lon="103.4267501"><ele>608.15</ele><time>2026-06-27T02:37:57.000Z</time></trkpt>
        <trkpt lat="29.5649808" lon="103.4266399"><ele>609.45</ele><time>2026-06-27T02:38:25.000Z</time></trkpt>
        <trkpt lat="29.5650531" lon="103.4265332"><ele>611.71</ele><time>2026-06-27T02:39:29.000Z</time></trkpt>
        <trkpt lat="29.5650612" lon="103.4264276"><ele>614.96</ele><time>2026-06-27T02:39:37.000Z</time></trkpt>
        <trkpt lat="29.565083" lon="103.426324"><ele>617.52</ele><time>2026-06-27T02:39:49.000Z</time></trkpt>
        <trkpt lat="29.5651407" lon="103.4261986"><ele>618.76</ele><time>2026-06-27T02:40:43.000Z</time></trkpt>
        <trkpt lat="29.5651841" lon="103.4260769"><ele>623.72</ele><time>2026-06-27T02:41:15.000Z</time></trkpt>
        <trkpt lat="29.565228" lon="103.4259699"><ele>626.81</ele><time>2026-06-27T02:41:27.000Z</time></trkpt>
        <trkpt lat="29.565223" lon="103.4258632"><ele>629.46</ele><time>2026-06-27T02:41:45.000Z</time></trkpt>
        <trkpt lat="29.5652531" lon="103.4257655"><ele>631.58</ele><time>2026-06-27T02:42:05.000Z</time></trkpt>
        <trkpt lat="29.5651905" lon="103.4257053"><ele>637.1</ele><time>2026-06-27T02:42:15.000Z</time></trkpt>
        <trkpt lat="29.565106" lon="103.4256438"><ele>640.24</ele><time>2026-06-27T02:42:21.000Z</time></trkpt>
        <trkpt lat="29.5650327" lon="103.4255547"><ele>641.5</ele><time>2026-06-27T02:42:29.000Z</time></trkpt>
        <trkpt lat="29.5649709" lon="103.4254502"><ele>641.05</ele><time>2026-06-27T02:42:35.000Z</time></trkpt>
        <trkpt lat="29.5649334" lon="103.4253197"><ele>640.49</ele><time>2026-06-27T02:42:43.000Z</time></trkpt>
        <trkpt lat="29.5648777" lon="103.4252178"><ele>639.68</ele><time>2026-06-27T02:42:51.000Z</time></trkpt>
        <trkpt lat="29.5648178" lon="103.4251234"><ele>639.83</ele><time>2026-06-27T02:42:57.000Z</time></trkpt>
        <trkpt lat="29.5647857" lon="103.4250235"><ele>641.38</ele><time>2026-06-27T02:43:11.000Z</time></trkpt>
        <trkpt lat="29.5647819" lon="103.4249198"><ele>643.77</ele><time>2026-06-27T02:43:31.000Z</time></trkpt>
        <trkpt lat="29.5647759" lon="103.4248164"><ele>646.29</ele><time>2026-06-27T02:43:39.000Z</time></trkpt>
        <trkpt lat="29.5647555" lon="103.424715"><ele>648.14</ele><time>2026-06-27T02:43:51.000Z</time></trkpt>
        <trkpt lat="29.5647297" lon="103.4246071"><ele>650.7</ele><time>2026-06-27T02:44:03.000Z</time></trkpt>
        <trkpt lat="29.5647115" lon="103.4245003"><ele>652.68</ele><time>2026-06-27T02:44:15.000Z</time></trkpt>
        <trkpt lat="29.5646715" lon="103.4244033"><ele>654.9</ele><time>2026-06-27T02:44:27.000Z</time></trkpt>
        <trkpt lat="29.5646167" lon="103.4243198"><ele>656.42</ele><time>2026-06-27T02:44:37.000Z</time></trkpt>
        <trkpt lat="29.5645887" lon="103.4242221"><ele>657.41</ele><time>2026-06-27T02:44:55.000Z</time></trkpt>
        <trkpt lat="29.5645731" lon="103.4241174"><ele>658.79</ele><time>2026-06-27T02:45:13.000Z</time></trkpt>
        <trkpt lat="29.564514" lon="103.4240329"><ele>660.69</ele><time>2026-06-27T02:45:31.000Z</time></trkpt>
        <trkpt lat="29.5644227" lon="103.4239939"><ele>662.41</ele><time>2026-06-27T02:45:47.000Z</time></trkpt>
        <trkpt lat="29.5643492" lon="103.4239209"><ele>663.48</ele><time>2026-06-27T02:45:59.000Z</time></trkpt>
        <trkpt lat="29.5643471" lon="103.4238186"><ele>664.55</ele><time>2026-06-27T02:46:11.000Z</time></trkpt>
        <trkpt lat="29.5643439" lon="103.4237029"><ele>666.18</ele><time>2026-06-27T02:46:23.000Z</time></trkpt>
        <trkpt lat="29.5643756" lon="103.4235942"><ele>667.53</ele><time>2026-06-27T02:46:33.000Z</time></trkpt>
        <trkpt lat="29.5644159" lon="103.423491"><ele>668.73</ele><time>2026-06-27T02:46:41.000Z</time></trkpt>
        <trkpt lat="29.564467" lon="103.4233958"><ele>670.39</ele><time>2026-06-27T02:46:53.000Z</time></trkpt>
        <trkpt lat="29.564511" lon="103.4232987"><ele>673.4</ele><time>2026-06-27T02:47:11.000Z</time></trkpt>
        <trkpt lat="29.5645476" lon="103.4232019"><ele>676.05</ele><time>2026-06-27T02:47:19.000Z</time></trkpt>
        <trkpt lat="29.5645763" lon="103.4231029"><ele>677.5</ele><time>2026-06-27T02:47:33.000Z</time></trkpt>
        <trkpt lat="29.5645739" lon="103.4229947"><ele>680.64</ele><time>2026-06-27T02:47:49.000Z</time></trkpt>
        <trkpt lat="29.5645773" lon="103.4228861"><ele>684.6</ele><time>2026-06-27T02:48:03.000Z</time></trkpt>
        <trkpt lat="29.5645676" lon="103.4227741"><ele>688.49</ele><time>2026-06-27T02:48:21.000Z</time></trkpt>
        <trkpt lat="29.5645264" lon="103.4226663"><ele>693</ele><time>2026-06-27T02:48:33.000Z</time></trkpt>
        <trkpt lat="29.5644696" lon="103.4225706"><ele>696.56</ele><time>2026-06-27T02:48:45.000Z</time></trkpt>
        <trkpt lat="29.5644431" lon="103.42247"><ele>698.86</ele><time>2026-06-27T02:49:01.000Z</time></trkpt>
        <trkpt lat="29.5644817" lon="103.4223861"><ele>700.51</ele><time>2026-06-27T02:49:29.000Z</time></trkpt>
        <trkpt lat="29.5644687" lon="103.4222959"><ele>702.88</ele><time>2026-06-27T02:49:49.000Z</time></trkpt>
        <trkpt lat="29.5644335" lon="103.422204"><ele>705.61</ele><time>2026-06-27T02:49:59.000Z</time></trkpt>
        <trkpt lat="29.5644102" lon="103.4220954"><ele>708.46</ele><time>2026-06-27T02:50:17.000Z</time></trkpt>
        <trkpt lat="29.5643671" lon="103.4220012"><ele>711.79</ele><time>2026-06-27T02:50:29.000Z</time></trkpt>
        <trkpt lat="29.5643685" lon="103.4219021"><ele>713.63</ele><time>2026-06-27T02:50:47.000Z</time></trkpt>
        <trkpt lat="29.5644083" lon="103.4218111"><ele>715.24</ele><time>2026-06-27T02:51:05.000Z</time></trkpt>
        <trkpt lat="29.5644125" lon="103.4217124"><ele>717.81</ele><time>2026-06-27T02:51:29.000Z</time></trkpt>
        <trkpt lat="29.564373" lon="103.421608"><ele>725.75</ele><time>2026-06-27T02:51:55.000Z</time></trkpt>
        <trkpt lat="29.5643391" lon="103.4215054"><ele>733.68</ele><time>2026-06-27T02:52:21.000Z</time></trkpt>
        <trkpt lat="29.5642795" lon="103.4214189"><ele>738.41</ele><time>2026-06-27T02:52:39.000Z</time></trkpt>
        <trkpt lat="29.5643056" lon="103.4213194"><ele>741.44</ele><time>2026-06-27T02:52:47.000Z</time></trkpt>
        <trkpt lat="29.5643995" lon="103.4212956"><ele>743.55</ele><time>2026-06-27T02:52:55.000Z</time></trkpt>
        <trkpt lat="29.5645054" lon="103.4212802"><ele>746.77</ele><time>2026-06-27T02:53:03.000Z</time></trkpt>
        <trkpt lat="29.5646125" lon="103.4212482"><ele>749.87</ele><time>2026-06-27T02:53:15.000Z</time></trkpt>
        <trkpt lat="29.5646858" lon="103.4211763"><ele>752.17</ele><time>2026-06-27T02:53:27.000Z</time></trkpt>
        <trkpt lat="29.5647851" lon="103.4211594"><ele>753.13</ele><time>2026-06-27T02:54:01.000Z</time></trkpt>
        <trkpt lat="29.5648656" lon="103.4212221"><ele>754.5</ele><time>2026-06-27T02:54:09.000Z</time></trkpt>
        <trkpt lat="29.5649119" lon="103.4213206"><ele>755.85</ele><time>2026-06-27T02:54:21.000Z</time></trkpt>
        <trkpt lat="29.5649926" lon="103.421354"><ele>757.53</ele><time>2026-06-27T02:54:39.000Z</time></trkpt>
        <trkpt lat="29.5650819" lon="103.4213578"><ele>760.04</ele><time>2026-06-27T02:55:01.000Z</time></trkpt>
        <trkpt lat="29.5651679" lon="103.4213087"><ele>763.06</ele><time>2026-06-27T02:55:15.000Z</time></trkpt>
        <trkpt lat="29.5652579" lon="103.4212765"><ele>765.26</ele><time>2026-06-27T02:55:37.000Z</time></trkpt>
        <trkpt lat="29.565368" lon="103.421243"><ele>768.75</ele><time>2026-06-27T02:56:17.000Z</time></trkpt>
        <trkpt lat="29.5654724" lon="103.4211788"><ele>776.15</ele><time>2026-06-27T02:56:23.000Z</time></trkpt>
        <trkpt lat="29.5655624" lon="103.4211288"><ele>780.19</ele><time>2026-06-27T02:56:29.000Z</time></trkpt>
        <trkpt lat="29.5656506" lon="103.4210766"><ele>782.4</ele><time>2026-06-27T02:56:37.000Z</time></trkpt>
        <trkpt lat="29.5657484" lon="103.4210611"><ele>783.57</ele><time>2026-06-27T02:56:47.000Z</time></trkpt>
        <trkpt lat="29.5658551" lon="103.421072"><ele>784.44</ele><time>2026-06-27T02:56:59.000Z</time></trkpt>
        <trkpt lat="29.5659531" lon="103.4211017"><ele>785.44</ele><time>2026-06-27T02:57:11.000Z</time></trkpt>
        <trkpt lat="29.5660514" lon="103.4211343"><ele>786.35</ele><time>2026-06-27T02:57:21.000Z</time></trkpt>
        <trkpt lat="29.5661433" lon="103.4211627"><ele>787.56</ele><time>2026-06-27T02:57:29.000Z</time></trkpt>
        <trkpt lat="29.5662349" lon="103.4211349"><ele>788.27</ele><time>2026-06-27T02:57:45.000Z</time></trkpt>
        <trkpt lat="29.5662756" lon="103.4210439"><ele>790.31</ele><time>2026-06-27T02:57:55.000Z</time></trkpt>
        <trkpt lat="29.5663073" lon="103.4209164"><ele>792.6</ele><time>2026-06-27T02:58:05.000Z</time></trkpt>
        <trkpt lat="29.5663362" lon="103.4207764"><ele>794.62</ele><time>2026-06-27T02:58:13.000Z</time></trkpt>
        <trkpt lat="29.5663695" lon="103.4206536"><ele>795.57</ele><time>2026-06-27T02:58:21.000Z</time></trkpt>
        <trkpt lat="29.5663951" lon="103.4205423"><ele>796.16</ele><time>2026-06-27T02:58:29.000Z</time></trkpt>
        <trkpt lat="29.5664451" lon="103.4204508"><ele>796.66</ele><time>2026-06-27T02:58:37.000Z</time></trkpt>
        <trkpt lat="29.566509" lon="103.4203502"><ele>797.72</ele><time>2026-06-27T02:58:43.000Z</time></trkpt>
        <trkpt lat="29.5665798" lon="103.4202737"><ele>799.61</ele><time>2026-06-27T02:58:49.000Z</time></trkpt>
        <trkpt lat="29.5666292" lon="103.4201771"><ele>800.73</ele><time>2026-06-27T02:58:59.000Z</time></trkpt>
        <trkpt lat="29.5666928" lon="103.4200828"><ele>800.74</ele><time>2026-06-27T02:59:09.000Z</time></trkpt>
        <trkpt lat="29.5667224" lon="103.419977"><ele>800.42</ele><time>2026-06-27T02:59:17.000Z</time></trkpt>
        <trkpt lat="29.5667452" lon="103.4198643"><ele>800.32</ele><time>2026-06-27T02:59:27.000Z</time></trkpt>
        <trkpt lat="29.566817" lon="103.4198612"><ele>800.49</ele><time>2026-06-27T02:59:39.000Z</time></trkpt>
        <trkpt lat="29.5669071" lon="103.4199061"><ele>801.02</ele><time>2026-06-27T03:00:01.000Z</time></trkpt>
        <trkpt lat="29.5669952" lon="103.4199782"><ele>802.24</ele><time>2026-06-27T03:00:19.000Z</time></trkpt>
        <trkpt lat="29.5670521" lon="103.4200798"><ele>803.9</ele><time>2026-06-27T03:00:43.000Z</time></trkpt>
        <trkpt lat="29.5670398" lon="103.4201893"><ele>806.17</ele><time>2026-06-27T03:00:51.000Z</time></trkpt>
        <trkpt lat="29.5670529" lon="103.4203008"><ele>808.11</ele><time>2026-06-27T03:00:59.000Z</time></trkpt>
        <trkpt lat="29.5671121" lon="103.4203919"><ele>810.21</ele><time>2026-06-27T03:01:15.000Z</time></trkpt>
        <trkpt lat="29.5671906" lon="103.4204576"><ele>812.79</ele><time>2026-06-27T03:01:33.000Z</time></trkpt>
        <trkpt lat="29.5672819" lon="103.4205048"><ele>815.16</ele><time>2026-06-27T03:01:51.000Z</time></trkpt>
        <trkpt lat="29.5673832" lon="103.420507"><ele>818</ele><time>2026-06-27T03:02:09.000Z</time></trkpt>
        <trkpt lat="29.5674775" lon="103.4204763"><ele>820.35</ele><time>2026-06-27T03:02:47.000Z</time></trkpt>
        <trkpt lat="29.5675678" lon="103.4204385"><ele>824.64</ele><time>2026-06-27T03:03:09.000Z</time></trkpt>
        <trkpt lat="29.5676498" lon="103.4203769"><ele>828.25</ele><time>2026-06-27T03:03:19.000Z</time></trkpt>
        <trkpt lat="29.5677512" lon="103.4203263"><ele>831.39</ele><time>2026-06-27T03:03:43.000Z</time></trkpt>
        <trkpt lat="29.567802" lon="103.4203003"><ele>834.98</ele><time>2026-06-27T03:03:45.000Z</time></trkpt>
        <trkpt lat="29.5678678" lon="103.4202561"><ele>837.28</ele><time>2026-06-27T03:04:07.000Z</time></trkpt>
        <trkpt lat="29.5679474" lon="103.4201968"><ele>839.84</ele><time>2026-06-27T03:04:29.000Z</time></trkpt>
        <trkpt lat="29.568032" lon="103.4201535"><ele>842.94</ele><time>2026-06-27T03:04:51.000Z</time></trkpt>
        <trkpt lat="29.5681218" lon="103.4201258"><ele>844.77</ele><time>2026-06-27T03:05:05.000Z</time></trkpt>
        <trkpt lat="29.5682221" lon="103.4201139"><ele>846.15</ele><time>2026-06-27T03:05:47.000Z</time></trkpt>
        <trkpt lat="29.5683174" lon="103.420096"><ele>853.55</ele><time>2026-06-27T03:05:53.000Z</time></trkpt>
        <trkpt lat="29.5684149" lon="103.4200859"><ele>859.44</ele><time>2026-06-27T03:06:17.000Z</time></trkpt>
        <trkpt lat="29.5685118" lon="103.4200874"><ele>864.75</ele><time>2026-06-27T03:06:37.000Z</time></trkpt>
        <trkpt lat="29.5686074" lon="103.4200763"><ele>870.83</ele><time>2026-06-27T03:06:57.000Z</time></trkpt>
        <trkpt lat="29.5687017" lon="103.4200915"><ele>875.99</ele><time>2026-06-27T03:07:09.000Z</time></trkpt>
        <trkpt lat="29.5687817" lon="103.4200534"><ele>880.12</ele><time>2026-06-27T03:07:23.000Z</time></trkpt>
        <trkpt lat="29.568879" lon="103.4200142"><ele>882.2</ele><time>2026-06-27T03:07:33.000Z</time></trkpt>
        <trkpt lat="29.5689603" lon="103.4199387"><ele>883.79</ele><time>2026-06-27T03:07:49.000Z</time></trkpt>
        <trkpt lat="29.5690524" lon="103.4198987"><ele>885.81</ele><time>2026-06-27T03:07:59.000Z</time></trkpt>
        <trkpt lat="29.5691572" lon="103.4198543"><ele>886.9</ele><time>2026-06-27T03:08:07.000Z</time></trkpt>
        <trkpt lat="29.5692612" lon="103.4198169"><ele>887.37</ele><time>2026-06-27T03:08:15.000Z</time></trkpt>
        <trkpt lat="29.5693487" lon="103.4197507"><ele>887.68</ele><time>2026-06-27T03:08:27.000Z</time></trkpt>
        <trkpt lat="29.5694384" lon="103.4196906"><ele>888.42</ele><time>2026-06-27T03:08:37.000Z</time></trkpt>
        <trkpt lat="29.5695324" lon="103.4196413"><ele>888.14</ele><time>2026-06-27T03:08:45.000Z</time></trkpt>
        <trkpt lat="29.5695977" lon="103.4195645"><ele>887.82</ele><time>2026-06-27T03:08:53.000Z</time></trkpt>
        <trkpt lat="29.5696678" lon="103.4194872"><ele>887.8</ele><time>2026-06-27T03:09:01.000Z</time></trkpt>
        <trkpt lat="29.5697316" lon="103.4193957"><ele>887.02</ele><time>2026-06-27T03:09:09.000Z</time></trkpt>
        <trkpt lat="29.5697833" lon="103.4192829"><ele>886.39</ele><time>2026-06-27T03:09:17.000Z</time></trkpt>
        <trkpt lat="29.5698137" lon="103.419173"><ele>886.31</ele><time>2026-06-27T03:09:25.000Z</time></trkpt>
        <trkpt lat="29.5698072" lon="103.4190447"><ele>886.28</ele><time>2026-06-27T03:09:41.000Z</time></trkpt>
        <trkpt lat="29.5698018" lon="103.4189187"><ele>886.67</ele><time>2026-06-27T03:09:51.000Z</time></trkpt>
        <trkpt lat="29.5698087" lon="103.4187962"><ele>886.54</ele><time>2026-06-27T03:09:59.000Z</time></trkpt>
        <trkpt lat="29.5698262" lon="103.4186852"><ele>887.21</ele><time>2026-06-27T03:10:07.000Z</time></trkpt>
        <trkpt lat="29.5698569" lon="103.4185687"><ele>887.57</ele><time>2026-06-27T03:10:15.000Z</time></trkpt>
        <trkpt lat="29.5698633" lon="103.4184512"><ele>887.63</ele><time>2026-06-27T03:10:23.000Z</time></trkpt>
        <trkpt lat="29.5698707" lon="103.4183356"><ele>886.93</ele><time>2026-06-27T03:10:31.000Z</time></trkpt>
        <trkpt lat="29.5698759" lon="103.4182211"><ele>886.56</ele><time>2026-06-27T03:10:41.000Z</time></trkpt>
        <trkpt lat="29.5698873" lon="103.4181125"><ele>885.81</ele><time>2026-06-27T03:10:51.000Z</time></trkpt>
        <trkpt lat="29.5699348" lon="103.4180146"><ele>885.18</ele><time>2026-06-27T03:10:59.000Z</time></trkpt>
        <trkpt lat="29.5699733" lon="103.4179068"><ele>885.2</ele><time>2026-06-27T03:11:09.000Z</time></trkpt>
        <trkpt lat="29.5700031" lon="103.4177982"><ele>885.01</ele><time>2026-06-27T03:11:17.000Z</time></trkpt>
        <trkpt lat="29.5700392" lon="103.4176825"><ele>883.98</ele><time>2026-06-27T03:11:27.000Z</time></trkpt>
        <trkpt lat="29.5700722" lon="103.417561"><ele>882.77</ele><time>2026-06-27T03:11:43.000Z</time></trkpt>
        <trkpt lat="29.5700889" lon="103.417451"><ele>885.13</ele><time>2026-06-27T03:11:51.000Z</time></trkpt>
        <trkpt lat="29.5700987" lon="103.4173397"><ele>886.48</ele><time>2026-06-27T03:12:01.000Z</time></trkpt>
        <trkpt lat="29.5701028" lon="103.4172266"><ele>886.26</ele><time>2026-06-27T03:12:09.000Z</time></trkpt>
        <trkpt lat="29.5701464" lon="103.4171217"><ele>885.53</ele><time>2026-06-27T03:12:19.000Z</time></trkpt>
        <trkpt lat="29.5702293" lon="103.4170693"><ele>884.84</ele><time>2026-06-27T03:12:27.000Z</time></trkpt>
        <trkpt lat="29.570333" lon="103.4170472"><ele>883.83</ele><time>2026-06-27T03:12:37.000Z</time></trkpt>
        <trkpt lat="29.5703875" lon="103.4169743"><ele>882.96</ele><time>2026-06-27T03:12:45.000Z</time></trkpt>
        <trkpt lat="29.5703899" lon="103.4168749"><ele>882.19</ele><time>2026-06-27T03:12:55.000Z</time></trkpt>
        <trkpt lat="29.5703801" lon="103.416754"><ele>881.09</ele><time>2026-06-27T03:13:05.000Z</time></trkpt>
        <trkpt lat="29.57039" lon="103.4166264"><ele>879.82</ele><time>2026-06-27T03:13:15.000Z</time></trkpt>
        <trkpt lat="29.5703862" lon="103.4165005"><ele>878.65</ele><time>2026-06-27T03:13:25.000Z</time></trkpt>
        <trkpt lat="29.570386" lon="103.41639"><ele>877.01</ele><time>2026-06-27T03:13:35.000Z</time></trkpt>
        <trkpt lat="29.5703755" lon="103.416271"><ele>875.25</ele><time>2026-06-27T03:13:45.000Z</time></trkpt>
        <trkpt lat="29.5704221" lon="103.416174"><ele>874.21</ele><time>2026-06-27T03:13:53.000Z</time></trkpt>
        <trkpt lat="29.5705165" lon="103.4161219"><ele>874.15</ele><time>2026-06-27T03:14:01.000Z</time></trkpt>
        <trkpt lat="29.5706175" lon="103.4160737"><ele>873.88</ele><time>2026-06-27T03:14:13.000Z</time></trkpt>
        <trkpt lat="29.5707086" lon="103.4160314"><ele>873.36</ele><time>2026-06-27T03:14:35.000Z</time></trkpt>
        <trkpt lat="29.5707228" lon="103.4159225"><ele>873.62</ele><time>2026-06-27T03:14:53.000Z</time></trkpt>
        <trkpt lat="29.5706678" lon="103.4158215"><ele>874.27</ele><time>2026-06-27T03:15:03.000Z</time></trkpt>
        <trkpt lat="29.5705719" lon="103.4157881"><ele>874.6</ele><time>2026-06-27T03:15:11.000Z</time></trkpt>
        <trkpt lat="29.5704701" lon="103.4157359"><ele>874.34</ele><time>2026-06-27T03:15:19.000Z</time></trkpt>
        <trkpt lat="29.5703814" lon="103.4156605"><ele>874.33</ele><time>2026-06-27T03:15:29.000Z</time></trkpt>
        <trkpt lat="29.5702929" lon="103.415603"><ele>873.58</ele><time>2026-06-27T03:15:37.000Z</time></trkpt>
        <trkpt lat="29.5702008" lon="103.4155641"><ele>873.84</ele><time>2026-06-27T03:15:51.000Z</time></trkpt>
        <trkpt lat="29.570112" lon="103.4155335"><ele>875.56</ele><time>2026-06-27T03:16:07.000Z</time></trkpt>
        <trkpt lat="29.5700368" lon="103.4154728"><ele>879</ele><time>2026-06-27T03:16:19.000Z</time></trkpt>
        <trkpt lat="29.5699646" lon="103.4153875"><ele>882.09</ele><time>2026-06-27T03:16:29.000Z</time></trkpt>
        <trkpt lat="29.5699155" lon="103.4152785"><ele>885.12</ele><time>2026-06-27T03:16:39.000Z</time></trkpt>
        <trkpt lat="29.569897" lon="103.4151544"><ele>887.26</ele><time>2026-06-27T03:16:51.000Z</time></trkpt>
        <trkpt lat="29.5698935" lon="103.4150274"><ele>888.49</ele><time>2026-06-27T03:16:59.000Z</time></trkpt>
        <trkpt lat="29.5698584" lon="103.4149158"><ele>889.29</ele><time>2026-06-27T03:17:09.000Z</time></trkpt>
        <trkpt lat="29.5698022" lon="103.4148164"><ele>889.91</ele><time>2026-06-27T03:17:19.000Z</time></trkpt>
        <trkpt lat="29.5697185" lon="103.4147407"><ele>891.15</ele><time>2026-06-27T03:17:29.000Z</time></trkpt>
        <trkpt lat="29.5696159" lon="103.4147256"><ele>891.78</ele><time>2026-06-27T03:17:39.000Z</time></trkpt>
        <trkpt lat="29.569518" lon="103.414755"><ele>891.84</ele><time>2026-06-27T03:17:47.000Z</time></trkpt>
        <trkpt lat="29.5694267" lon="103.4148041"><ele>892</ele><time>2026-06-27T03:17:55.000Z</time></trkpt>
        <trkpt lat="29.569326" lon="103.4148357"><ele>891.88</ele><time>2026-06-27T03:18:05.000Z</time></trkpt>
        <trkpt lat="29.5692404" lon="103.4147874"><ele>891.29</ele><time>2026-06-27T03:18:13.000Z</time></trkpt>
        <trkpt lat="29.569176" lon="103.4146825"><ele>890.32</ele><time>2026-06-27T03:18:19.000Z</time></trkpt>
        <trkpt lat="29.5691416" lon="103.4145679"><ele>889.06</ele><time>2026-06-27T03:18:23.000Z</time></trkpt>
        <trkpt lat="29.5691173" lon="103.4144512"><ele>887.9</ele><time>2026-06-27T03:18:33.000Z</time></trkpt>
        <trkpt lat="29.5691512" lon="103.4143361"><ele>887.55</ele><time>2026-06-27T03:18:45.000Z</time></trkpt>
        <trkpt lat="29.5691578" lon="103.4142153"><ele>887.64</ele><time>2026-06-27T03:18:53.000Z</time></trkpt>
        <trkpt lat="29.5691478" lon="103.4140927"><ele>886.78</ele><time>2026-06-27T03:19:03.000Z</time></trkpt>
        <trkpt lat="29.5691732" lon="103.4139859"><ele>884.96</ele><time>2026-06-27T03:19:11.000Z</time></trkpt>
        <trkpt lat="29.5691829" lon="103.4138749"><ele>884.11</ele><time>2026-06-27T03:19:21.000Z</time></trkpt>
        <trkpt lat="29.5691519" lon="103.4137727"><ele>883.32</ele><time>2026-06-27T03:19:31.000Z</time></trkpt>
        <trkpt lat="29.5691123" lon="103.4136649"><ele>882.93</ele><time>2026-06-27T03:19:41.000Z</time></trkpt>
        <trkpt lat="29.5690621" lon="103.4135692"><ele>883.49</ele><time>2026-06-27T03:19:53.000Z</time></trkpt>
        <trkpt lat="29.5690349" lon="103.41346"><ele>884.85</ele><time>2026-06-27T03:20:05.000Z</time></trkpt>
        <trkpt lat="29.5690249" lon="103.4133435"><ele>885.18</ele><time>2026-06-27T03:20:15.000Z</time></trkpt>
        <trkpt lat="29.5690015" lon="103.4132301"><ele>885.15</ele><time>2026-06-27T03:20:25.000Z</time></trkpt>
        <trkpt lat="29.569041" lon="103.4131384"><ele>884.81</ele><time>2026-06-27T03:20:33.000Z</time></trkpt>
        <trkpt lat="29.5691119" lon="103.4130513"><ele>884.35</ele><time>2026-06-27T03:20:43.000Z</time></trkpt>
        <trkpt lat="29.5691982" lon="103.4129683"><ele>884.12</ele><time>2026-06-27T03:20:53.000Z</time></trkpt>
        <trkpt lat="29.5692749" lon="103.4128778"><ele>883.93</ele><time>2026-06-27T03:21:07.000Z</time></trkpt>
        <trkpt lat="29.5693589" lon="103.4127923"><ele>884.46</ele><time>2026-06-27T03:21:17.000Z</time></trkpt>
        <trkpt lat="29.569434" lon="103.4127108"><ele>883.72</ele><time>2026-06-27T03:21:25.000Z</time></trkpt>
        <trkpt lat="29.569431" lon="103.4126135"><ele>882.45</ele><time>2026-06-27T03:21:35.000Z</time></trkpt>
        <trkpt lat="29.5693947" lon="103.412514"><ele>880.3</ele><time>2026-06-27T03:21:43.000Z</time></trkpt>
        <trkpt lat="29.5694018" lon="103.412341"><ele>879.21</ele><time>2026-06-27T03:25:49.000Z</time></trkpt>
        <trkpt lat="29.569423" lon="103.4122353"><ele>876.44</ele><time>2026-06-27T03:25:59.000Z</time></trkpt>
        <trkpt lat="29.569332" lon="103.4121846"><ele>873.65</ele><time>2026-06-27T03:26:19.000Z</time></trkpt>
        <trkpt lat="29.5692318" lon="103.4121564"><ele>870.23</ele><time>2026-06-27T03:26:25.000Z</time></trkpt>
        <trkpt lat="29.5691307" lon="103.4121505"><ele>867.32</ele><time>2026-06-27T03:26:37.000Z</time></trkpt>
        <trkpt lat="29.5690359" lon="103.4121265"><ele>863.78</ele><time>2026-06-27T03:26:49.000Z</time></trkpt>
        <trkpt lat="29.56897" lon="103.4120585"><ele>860.89</ele><time>2026-06-27T03:27:03.000Z</time></trkpt>
        <trkpt lat="29.5689194" lon="103.4119686"><ele>857.91</ele><time>2026-06-27T03:27:15.000Z</time></trkpt>
        <trkpt lat="29.5688641" lon="103.4118664"><ele>855.56</ele><time>2026-06-27T03:27:27.000Z</time></trkpt>
        <trkpt lat="29.5687808" lon="103.4118243"><ele>854.36</ele><time>2026-06-27T03:27:35.000Z</time></trkpt>
        <trkpt lat="29.5686801" lon="103.4118342"><ele>853.55</ele><time>2026-06-27T03:27:49.000Z</time></trkpt>
        <trkpt lat="29.5686042" lon="103.4117877"><ele>852.07</ele><time>2026-06-27T03:28:01.000Z</time></trkpt>
        <trkpt lat="29.5685215" lon="103.4117124"><ele>850.34</ele><time>2026-06-27T03:28:09.000Z</time></trkpt>
        <trkpt lat="29.5684648" lon="103.4116227"><ele>849.25</ele><time>2026-06-27T03:28:17.000Z</time></trkpt>
        <trkpt lat="29.5684044" lon="103.4115234"><ele>847.74</ele><time>2026-06-27T03:28:29.000Z</time></trkpt>
        <trkpt lat="29.568414" lon="103.4114202"><ele>845.3</ele><time>2026-06-27T03:28:41.000Z</time></trkpt>
        <trkpt lat="29.5684531" lon="103.4113121"><ele>843.16</ele><time>2026-06-27T03:28:51.000Z</time></trkpt>
        <trkpt lat="29.5685104" lon="103.4112018"><ele>841.39</ele><time>2026-06-27T03:28:59.000Z</time></trkpt>
        <trkpt lat="29.5685302" lon="103.4110835"><ele>840.18</ele><time>2026-06-27T03:29:13.000Z</time></trkpt>
        <trkpt lat="29.5685554" lon="103.4109681"><ele>839.82</ele><time>2026-06-27T03:29:19.000Z</time></trkpt>
        <trkpt lat="29.5685762" lon="103.4108598"><ele>838.63</ele><time>2026-06-27T03:29:27.000Z</time></trkpt>
        <trkpt lat="29.5686098" lon="103.4107628"><ele>837.49</ele><time>2026-06-27T03:29:37.000Z</time></trkpt>
        <trkpt lat="29.5686553" lon="103.4106721"><ele>835.7</ele><time>2026-06-27T03:29:45.000Z</time></trkpt>
        <trkpt lat="29.5686797" lon="103.4105566"><ele>834.82</ele><time>2026-06-27T03:29:53.000Z</time></trkpt>
        <trkpt lat="29.568675" lon="103.4104452"><ele>834.85</ele><time>2026-06-27T03:30:47.000Z</time></trkpt>
        <trkpt lat="29.5686618" lon="103.4103268"><ele>836.44</ele><time>2026-06-27T03:30:53.000Z</time></trkpt>
        <trkpt lat="29.5686506" lon="103.4102001"><ele>837.38</ele><time>2026-06-27T03:30:59.000Z</time></trkpt>
        <trkpt lat="29.5686523" lon="103.4100875"><ele>837.2</ele><time>2026-06-27T03:31:07.000Z</time></trkpt>
        <trkpt lat="29.5686065" lon="103.4100034"><ele>835.13</ele><time>2026-06-27T03:31:17.000Z</time></trkpt>
        <trkpt lat="29.5685162" lon="103.4099416"><ele>833.7</ele><time>2026-06-27T03:31:25.000Z</time></trkpt>
        <trkpt lat="29.5684295" lon="103.4098847"><ele>832.18</ele><time>2026-06-27T03:31:33.000Z</time></trkpt>
        <trkpt lat="29.5683574" lon="103.4098073"><ele>831.23</ele><time>2026-06-27T03:31:45.000Z</time></trkpt>
        <trkpt lat="29.5683045" lon="103.4097082"><ele>830.63</ele><time>2026-06-27T03:31:57.000Z</time></trkpt>
        <trkpt lat="29.5682632" lon="103.4096047"><ele>829.34</ele><time>2026-06-27T03:32:11.000Z</time></trkpt>
        <trkpt lat="29.5682286" lon="103.4094862"><ele>828</ele><time>2026-06-27T03:32:17.000Z</time></trkpt>
        <trkpt lat="29.568192" lon="103.4093751"><ele>826.2</ele><time>2026-06-27T03:32:27.000Z</time></trkpt>
        <trkpt lat="29.5681436" lon="103.4092835"><ele>824.72</ele><time>2026-06-27T03:32:41.000Z</time></trkpt>
        <trkpt lat="29.5681045" lon="103.4091726"><ele>822.58</ele><time>2026-06-27T03:32:49.000Z</time></trkpt>
        <trkpt lat="29.5680618" lon="103.4090671"><ele>820.03</ele><time>2026-06-27T03:33:01.000Z</time></trkpt>
        <trkpt lat="29.5679879" lon="103.4089715"><ele>816.15</ele><time>2026-06-27T03:33:37.000Z</time></trkpt>
        <trkpt lat="29.5679452" lon="103.4088713"><ele>812.4</ele><time>2026-06-27T03:33:45.000Z</time></trkpt>
        <trkpt lat="29.5679191" lon="103.4087419"><ele>809.54</ele><time>2026-06-27T03:33:53.000Z</time></trkpt>
        <trkpt lat="29.5678859" lon="103.4086329"><ele>805.38</ele><time>2026-06-27T03:34:07.000Z</time></trkpt>
        <trkpt lat="29.5678323" lon="103.4085476"><ele>801.58</ele><time>2026-06-27T03:34:17.000Z</time></trkpt>
        <trkpt lat="29.5677692" lon="103.4084739"><ele>798.4</ele><time>2026-06-27T03:34:29.000Z</time></trkpt>
        <trkpt lat="29.5676938" lon="103.4083982"><ele>795.56</ele><time>2026-06-27T03:34:37.000Z</time></trkpt>
        <trkpt lat="29.5676126" lon="103.4084353"><ele>793.39</ele><time>2026-06-27T03:34:47.000Z</time></trkpt>
        <trkpt lat="29.5675683" lon="103.4085385"><ele>789.78</ele><time>2026-06-27T03:34:53.000Z</time></trkpt>
        <trkpt lat="29.5675076" lon="103.4086341"><ele>786.53</ele><time>2026-06-27T03:35:03.000Z</time></trkpt>
        <trkpt lat="29.5674219" lon="103.4086419"><ele>784.12</ele><time>2026-06-27T03:35:13.000Z</time></trkpt>
        <trkpt lat="29.5673293" lon="103.4085824"><ele>782.36</ele><time>2026-06-27T03:35:21.000Z</time></trkpt>
        <trkpt lat="29.5672457" lon="103.4084999"><ele>780.57</ele><time>2026-06-27T03:35:29.000Z</time></trkpt>
        <trkpt lat="29.5671533" lon="103.408456"><ele>778.93</ele><time>2026-06-27T03:35:37.000Z</time></trkpt>
        <trkpt lat="29.5670591" lon="103.4084483"><ele>777.08</ele><time>2026-06-27T03:35:43.000Z</time></trkpt>
        <trkpt lat="29.5669513" lon="103.4084643"><ele>775.96</ele><time>2026-06-27T03:35:51.000Z</time></trkpt>
        <trkpt lat="29.5668542" lon="103.4084831"><ele>774.79</ele><time>2026-06-27T03:35:59.000Z</time></trkpt>
        <trkpt lat="29.5667527" lon="103.4084302"><ele>773.18</ele><time>2026-06-27T03:36:09.000Z</time></trkpt>
        <trkpt lat="29.5667082" lon="103.4083341"><ele>772.42</ele><time>2026-06-27T03:36:17.000Z</time></trkpt>
        <trkpt lat="29.566713" lon="103.4082225"><ele>771.96</ele><time>2026-06-27T03:36:25.000Z</time></trkpt>
        <trkpt lat="29.5667428" lon="103.4081112"><ele>772.21</ele><time>2026-06-27T03:36:33.000Z</time></trkpt>
        <trkpt lat="29.5667447" lon="103.407993"><ele>771.46</ele><time>2026-06-27T03:36:41.000Z</time></trkpt>
        <trkpt lat="29.5667179" lon="103.4078698"><ele>771.32</ele><time>2026-06-27T03:36:49.000Z</time></trkpt>
        <trkpt lat="29.5666575" lon="103.4077643"><ele>771.22</ele><time>2026-06-27T03:37:01.000Z</time></trkpt>
        <trkpt lat="29.5665999" lon="103.407659"><ele>771.32</ele><time>2026-06-27T03:37:21.000Z</time></trkpt>
        <trkpt lat="29.5665527" lon="103.4075426"><ele>772.05</ele><time>2026-06-27T03:37:29.000Z</time></trkpt>
        <trkpt lat="29.5665472" lon="103.4074258"><ele>772.69</ele><time>2026-06-27T03:37:37.000Z</time></trkpt>
        <trkpt lat="29.5665158" lon="103.4073155"><ele>773.21</ele><time>2026-06-27T03:37:45.000Z</time></trkpt>
        <trkpt lat="29.5664899" lon="103.4072069"><ele>773.85</ele><time>2026-06-27T03:37:53.000Z</time></trkpt>
        <trkpt lat="29.5664626" lon="103.4070927"><ele>773.7</ele><time>2026-06-27T03:38:01.000Z</time></trkpt>
        <trkpt lat="29.5664724" lon="103.4069743"><ele>772.95</ele><time>2026-06-27T03:38:09.000Z</time></trkpt>
        <trkpt lat="29.5665102" lon="103.4068573"><ele>772.5</ele><time>2026-06-27T03:38:17.000Z</time></trkpt>
        <trkpt lat="29.5665706" lon="103.4067474"><ele>772.15</ele><time>2026-06-27T03:38:25.000Z</time></trkpt>
        <trkpt lat="29.5666463" lon="103.4066571"><ele>771.41</ele><time>2026-06-27T03:38:33.000Z</time></trkpt>
        <trkpt lat="29.5667316" lon="103.4065661"><ele>771.21</ele><time>2026-06-27T03:38:43.000Z</time></trkpt>
        <trkpt lat="29.5668163" lon="103.4064815"><ele>770.98</ele><time>2026-06-27T03:38:51.000Z</time></trkpt>
        <trkpt lat="29.5668945" lon="103.4063962"><ele>770.76</ele><time>2026-06-27T03:39:01.000Z</time></trkpt>
        <trkpt lat="29.5669552" lon="103.406293"><ele>770.65</ele><time>2026-06-27T03:39:09.000Z</time></trkpt>
        <trkpt lat="29.5670157" lon="103.4061973"><ele>770.88</ele><time>2026-06-27T03:39:17.000Z</time></trkpt>
        <trkpt lat="29.5670815" lon="103.406104"><ele>770.89</ele><time>2026-06-27T03:39:25.000Z</time></trkpt>
        <trkpt lat="29.5671418" lon="103.4060071"><ele>770.05</ele><time>2026-06-27T03:39:33.000Z</time></trkpt>
        <trkpt lat="29.5672027" lon="103.4059171"><ele>768.99</ele><time>2026-06-27T03:39:41.000Z</time></trkpt>
        <trkpt lat="29.5672072" lon="103.4058048"><ele>767.76</ele><time>2026-06-27T03:39:51.000Z</time></trkpt>
        <trkpt lat="29.5671434" lon="103.4057249"><ele>766.81</ele><time>2026-06-27T03:39:59.000Z</time></trkpt>
        <trkpt lat="29.5670676" lon="103.4056453"><ele>765.85</ele><time>2026-06-27T03:40:07.000Z</time></trkpt>
        <trkpt lat="29.5669751" lon="103.405572"><ele>764.37</ele><time>2026-06-27T03:40:13.000Z</time></trkpt>
        <trkpt lat="29.5668926" lon="103.4055071"><ele>762.19</ele><time>2026-06-27T03:40:21.000Z</time></trkpt>
        <trkpt lat="29.5668241" lon="103.4054228"><ele>760.58</ele><time>2026-06-27T03:40:31.000Z</time></trkpt>
        <trkpt lat="29.5667942" lon="103.4053224"><ele>758.88</ele><time>2026-06-27T03:40:37.000Z</time></trkpt>
        <trkpt lat="29.5667841" lon="103.4051964"><ele>757.57</ele><time>2026-06-27T03:40:45.000Z</time></trkpt>
        <trkpt lat="29.5668427" lon="103.4051113"><ele>756.56</ele><time>2026-06-27T03:40:55.000Z</time></trkpt>
        <trkpt lat="29.566941" lon="103.4051156"><ele>755.9</ele><time>2026-06-27T03:41:05.000Z</time></trkpt>
        <trkpt lat="29.5670429" lon="103.4050991"><ele>755.47</ele><time>2026-06-27T03:41:13.000Z</time></trkpt>
        <trkpt lat="29.5671397" lon="103.4050626"><ele>754.61</ele><time>2026-06-27T03:41:21.000Z</time></trkpt>
        <trkpt lat="29.5672398" lon="103.4050383"><ele>753.34</ele><time>2026-06-27T03:41:29.000Z</time></trkpt>
        <trkpt lat="29.5673384" lon="103.4050228"><ele>752.05</ele><time>2026-06-27T03:41:37.000Z</time></trkpt>
        <trkpt lat="29.5674494" lon="103.4050009"><ele>751.05</ele><time>2026-06-27T03:41:45.000Z</time></trkpt>
        <trkpt lat="29.567548" lon="103.4049938"><ele>750.45</ele><time>2026-06-27T03:41:53.000Z</time></trkpt>
        <trkpt lat="29.5676534" lon="103.4050289"><ele>750.13</ele><time>2026-06-27T03:42:01.000Z</time></trkpt>
        <trkpt lat="29.5677535" lon="103.4050595"><ele>751.14</ele><time>2026-06-27T03:42:09.000Z</time></trkpt>
        <trkpt lat="29.567853" lon="103.4050601"><ele>751.63</ele><time>2026-06-27T03:42:15.000Z</time></trkpt>
        <trkpt lat="29.5679471" lon="103.4050266"><ele>751.54</ele><time>2026-06-27T03:42:23.000Z</time></trkpt>
        <trkpt lat="29.5680326" lon="103.4049603"><ele>751.45</ele><time>2026-06-27T03:42:33.000Z</time></trkpt>
        <trkpt lat="29.5681283" lon="103.4048987"><ele>751.21</ele><time>2026-06-27T03:42:41.000Z</time></trkpt>
        <trkpt lat="29.5682211" lon="103.4048507"><ele>751.95</ele><time>2026-06-27T03:42:49.000Z</time></trkpt>
        <trkpt lat="29.5683052" lon="103.404775"><ele>752.33</ele><time>2026-06-27T03:42:59.000Z</time></trkpt>
        <trkpt lat="29.5683863" lon="103.4046876"><ele>752.36</ele><time>2026-06-27T03:43:07.000Z</time></trkpt>
        <trkpt lat="29.5684512" lon="103.4045838"><ele>752.41</ele><time>2026-06-27T03:43:17.000Z</time></trkpt>
        <trkpt lat="29.5685025" lon="103.4044812"><ele>752.45</ele><time>2026-06-27T03:43:25.000Z</time></trkpt>
        <trkpt lat="29.5685598" lon="103.404393"><ele>752.21</ele><time>2026-06-27T03:43:33.000Z</time></trkpt>
        <trkpt lat="29.5685989" lon="103.4042847"><ele>752.05</ele><time>2026-06-27T03:43:43.000Z</time></trkpt>
        <trkpt lat="29.5686557" lon="103.4041666"><ele>751.03</ele><time>2026-06-27T03:43:51.000Z</time></trkpt>
        <trkpt lat="29.5687239" lon="103.4040724"><ele>749.77</ele><time>2026-06-27T03:43:59.000Z</time></trkpt>
        <trkpt lat="29.5687897" lon="103.4039806"><ele>748.86</ele><time>2026-06-27T03:44:07.000Z</time></trkpt>
        <trkpt lat="29.5688711" lon="103.4039126"><ele>748.19</ele><time>2026-06-27T03:44:15.000Z</time></trkpt>
        <trkpt lat="29.5689625" lon="103.4039017"><ele>747.01</ele><time>2026-06-27T03:44:23.000Z</time></trkpt>
        <trkpt lat="29.5690512" lon="103.4039403"><ele>746.62</ele><time>2026-06-27T03:44:31.000Z</time></trkpt>
        <trkpt lat="29.5691517" lon="103.4039585"><ele>746.87</ele><time>2026-06-27T03:44:41.000Z</time></trkpt>
        <trkpt lat="29.5692446" lon="103.4039345"><ele>746.19</ele><time>2026-06-27T03:44:49.000Z</time></trkpt>
        <trkpt lat="29.5693321" lon="103.4038865"><ele>745.48</ele><time>2026-06-27T03:44:59.000Z</time></trkpt>
        <trkpt lat="29.5694094" lon="103.4038182"><ele>744.55</ele><time>2026-06-27T03:45:07.000Z</time></trkpt>
        <trkpt lat="29.5694802" lon="103.4037439"><ele>743.21</ele><time>2026-06-27T03:45:13.000Z</time></trkpt>
        <trkpt lat="29.5695625" lon="103.4036796"><ele>742.13</ele><time>2026-06-27T03:45:21.000Z</time></trkpt>
        <trkpt lat="29.5696599" lon="103.4036202"><ele>741.53</ele><time>2026-06-27T03:45:31.000Z</time></trkpt>
        <trkpt lat="29.5697391" lon="103.403525"><ele>740.5</ele><time>2026-06-27T03:45:41.000Z</time></trkpt>
        <trkpt lat="29.5698223" lon="103.4034445"><ele>739.45</ele><time>2026-06-27T03:45:49.000Z</time></trkpt>
        <trkpt lat="29.569904" lon="103.4033589"><ele>739.13</ele><time>2026-06-27T03:45:59.000Z</time></trkpt>
        <trkpt lat="29.5699619" lon="103.4032543"><ele>739.23</ele><time>2026-06-27T03:46:09.000Z</time></trkpt>
        <trkpt lat="29.5700122" lon="103.4031495"><ele>739.2</ele><time>2026-06-27T03:46:19.000Z</time></trkpt>
        <trkpt lat="29.5700396" lon="103.4030279"><ele>738.94</ele><time>2026-06-27T03:46:29.000Z</time></trkpt>
        <trkpt lat="29.570088" lon="103.4029144"><ele>737.77</ele><time>2026-06-27T03:46:37.000Z</time></trkpt>
        <trkpt lat="29.5701608" lon="103.4028387"><ele>736.43</ele><time>2026-06-27T03:46:43.000Z</time></trkpt>
        <trkpt lat="29.5702469" lon="103.4028011"><ele>735.1</ele><time>2026-06-27T03:46:49.000Z</time></trkpt>
        <trkpt lat="29.5703482" lon="103.4027795"><ele>733.95</ele><time>2026-06-27T03:46:59.000Z</time></trkpt>
        <trkpt lat="29.570445" lon="103.4027389"><ele>733.58</ele><time>2026-06-27T03:47:07.000Z</time></trkpt>
        <trkpt lat="29.5705376" lon="103.4027205"><ele>733.06</ele><time>2026-06-27T03:47:15.000Z</time></trkpt>
        <trkpt lat="29.5706296" lon="103.4026979"><ele>732.32</ele><time>2026-06-27T03:47:23.000Z</time></trkpt>
        <trkpt lat="29.5707299" lon="103.4026696"><ele>731.44</ele><time>2026-06-27T03:47:33.000Z</time></trkpt>
        <trkpt lat="29.5708317" lon="103.402648"><ele>730.56</ele><time>2026-06-27T03:47:43.000Z</time></trkpt>
        <trkpt lat="29.5709399" lon="103.4026204"><ele>729.14</ele><time>2026-06-27T03:47:51.000Z</time></trkpt>
        <trkpt lat="29.5710439" lon="103.4025903"><ele>727.46</ele><time>2026-06-27T03:48:01.000Z</time></trkpt>
        <trkpt lat="29.5711124" lon="103.4025205"><ele>728.37</ele><time>2026-06-27T03:48:13.000Z</time></trkpt>
        <trkpt lat="29.5711833" lon="103.4024537"><ele>729.19</ele><time>2026-06-27T03:48:21.000Z</time></trkpt>
        <trkpt lat="29.5712515" lon="103.4023661"><ele>729.55</ele><time>2026-06-27T03:48:31.000Z</time></trkpt>
        <trkpt lat="29.5713198" lon="103.4022682"><ele>729.27</ele><time>2026-06-27T03:48:39.000Z</time></trkpt>
        <trkpt lat="29.5713846" lon="103.4021711"><ele>728.63</ele><time>2026-06-27T03:48:47.000Z</time></trkpt>
        <trkpt lat="29.571447" lon="103.4020815"><ele>728.38</ele><time>2026-06-27T03:48:57.000Z</time></trkpt>
        <trkpt lat="29.5715066" lon="103.4019971"><ele>728.16</ele><time>2026-06-27T03:49:05.000Z</time></trkpt>
        <trkpt lat="29.5715841" lon="103.4019163"><ele>728.57</ele><time>2026-06-27T03:49:15.000Z</time></trkpt>
        <trkpt lat="29.5716759" lon="103.4018584"><ele>728.51</ele><time>2026-06-27T03:49:23.000Z</time></trkpt>
        <trkpt lat="29.5717709" lon="103.4018225"><ele>727.83</ele><time>2026-06-27T03:49:31.000Z</time></trkpt>
        <trkpt lat="29.5718021" lon="103.4017339"><ele>726.82</ele><time>2026-06-27T03:49:43.000Z</time></trkpt>
        <trkpt lat="29.5718536" lon="103.4016513"><ele>725.38</ele><time>2026-06-27T03:49:57.000Z</time></trkpt>
        <trkpt lat="29.5719425" lon="103.4015832"><ele>724.91</ele><time>2026-06-27T03:50:05.000Z</time></trkpt>
        <trkpt lat="29.5720317" lon="103.4015153"><ele>724.94</ele><time>2026-06-27T03:50:13.000Z</time></trkpt>
        <trkpt lat="29.5720767" lon="103.4014231"><ele>724.51</ele><time>2026-06-27T03:50:25.000Z</time></trkpt>
        <trkpt lat="29.5720685" lon="103.4013137"><ele>726.21</ele><time>2026-06-27T03:50:43.000Z</time></trkpt>
        <trkpt lat="29.5720362" lon="103.4011956"><ele>727.06</ele><time>2026-06-27T03:51:37.000Z</time></trkpt>
        <trkpt lat="29.5720043" lon="103.401079"><ele>727.59</ele><time>2026-06-27T03:51:43.000Z</time></trkpt>
        <trkpt lat="29.5719624" lon="103.4012064"><ele>728.05</ele><time>2026-06-27T03:52:39.000Z</time></trkpt>
        <trkpt lat="29.5719858" lon="103.4011792"><ele>728.3</ele><time>2026-06-27T03:53:31.000Z</time></trkpt>
        <trkpt lat="29.5720572" lon="103.4011245"><ele>728.26</ele><time>2026-06-27T03:54:23.000Z</time></trkpt>
        <trkpt lat="29.572076" lon="103.4011869"><ele>728.17</ele><time>2026-06-27T03:54:47.000Z</time></trkpt>
        <trkpt lat="29.5720161" lon="103.4012513"><ele>728.53</ele><time>2026-06-27T03:55:01.000Z</time></trkpt>
        <trkpt lat="29.5720136" lon="103.4013595"><ele>728.42</ele><time>2026-06-27T03:55:13.000Z</time></trkpt>
        <trkpt lat="29.5720891" lon="103.4013496"><ele>730.44</ele><time>2026-06-27T03:55:27.000Z</time></trkpt>
        <trkpt lat="29.5721781" lon="103.40129"><ele>731.95</ele><time>2026-06-27T03:55:37.000Z</time></trkpt>
        <trkpt lat="29.5722575" lon="103.4011967"><ele>732.59</ele><time>2026-06-27T03:55:45.000Z</time></trkpt>
        <trkpt lat="29.5723051" lon="103.401073"><ele>731.9</ele><time>2026-06-27T03:55:55.000Z</time></trkpt>
        <trkpt lat="29.5723167" lon="103.400956"><ele>731.45</ele><time>2026-06-27T03:56:03.000Z</time></trkpt>
        <trkpt lat="29.5723124" lon="103.4008441"><ele>730.79</ele><time>2026-06-27T03:56:11.000Z</time></trkpt>
        <trkpt lat="29.57227" lon="103.4007415"><ele>730.18</ele><time>2026-06-27T03:56:25.000Z</time></trkpt>
        <trkpt lat="29.5721673" lon="103.4007958"><ele>729.3</ele><time>2026-06-27T03:57:51.000Z</time></trkpt>
        <trkpt lat="29.5720619" lon="103.4008136"><ele>732.67</ele><time>2026-06-27T03:58:25.000Z</time></trkpt>
        <trkpt lat="29.5719662" lon="103.4008444"><ele>736.32</ele><time>2026-06-27T03:58:35.000Z</time></trkpt>
        <trkpt lat="29.5719374" lon="103.4007712"><ele>737.74</ele><time>2026-06-27T03:59:19.000Z</time></trkpt>
        <trkpt lat="29.5719318" lon="103.4006556"><ele>739.17</ele><time>2026-06-27T03:59:39.000Z</time></trkpt>
        <trkpt lat="29.5719281" lon="103.4005256"><ele>739.74</ele><time>2026-06-27T03:59:53.000Z</time></trkpt>
        <trkpt lat="29.5719237" lon="103.4003998"><ele>741.1</ele><time>2026-06-27T04:00:25.000Z</time></trkpt>
        <trkpt lat="29.5719253" lon="103.4002819"><ele>743.13</ele><time>2026-06-27T04:00:57.000Z</time></trkpt>
        <trkpt lat="29.5719096" lon="103.4001706"><ele>747.22</ele><time>2026-06-27T04:01:13.000Z</time></trkpt>
        <trkpt lat="29.57189" lon="103.4000619"><ele>750.24</ele><time>2026-06-27T04:01:37.000Z</time></trkpt>
        <trkpt lat="29.571883" lon="103.3999486"><ele>751.59</ele><time>2026-06-27T04:01:59.000Z</time></trkpt>
        <trkpt lat="29.5718818" lon="103.3998417"><ele>753.63</ele><time>2026-06-27T04:02:19.000Z</time></trkpt>
        <trkpt lat="29.5718935" lon="103.3997358"><ele>757.06</ele><time>2026-06-27T04:02:49.000Z</time></trkpt>
        <trkpt lat="29.5718861" lon="103.3996321"><ele>768.13</ele><time>2026-06-27T04:03:07.000Z</time></trkpt>
        <trkpt lat="29.571865" lon="103.3995276"><ele>774.44</ele><time>2026-06-27T04:03:21.000Z</time></trkpt>
        <trkpt lat="29.5718582" lon="103.3994103"><ele>780.46</ele><time>2026-06-27T04:03:33.000Z</time></trkpt>
        <trkpt lat="29.5718648" lon="103.3992906"><ele>784.65</ele><time>2026-06-27T04:03:43.000Z</time></trkpt>
        <trkpt lat="29.5718106" lon="103.3992"><ele>788.19</ele><time>2026-06-27T04:03:57.000Z</time></trkpt>
        <trkpt lat="29.5717513" lon="103.3991166"><ele>790.99</ele><time>2026-06-27T04:04:15.000Z</time></trkpt>
        <trkpt lat="29.5717178" lon="103.3990143"><ele>791.96</ele><time>2026-06-27T04:04:29.000Z</time></trkpt>
        <trkpt lat="29.5716673" lon="103.3989085"><ele>792.2</ele><time>2026-06-27T04:04:41.000Z</time></trkpt>
        <trkpt lat="29.5716317" lon="103.3987997"><ele>792.51</ele><time>2026-06-27T04:04:49.000Z</time></trkpt>
        <trkpt lat="29.571631" lon="103.3986866"><ele>796.31</ele><time>2026-06-27T04:04:57.000Z</time></trkpt>
        <trkpt lat="29.5716398" lon="103.3985661"><ele>798.51</ele><time>2026-06-27T04:05:07.000Z</time></trkpt>
        <trkpt lat="29.5716345" lon="103.3984504"><ele>799.4</ele><time>2026-06-27T04:05:15.000Z</time></trkpt>
        <trkpt lat="29.571636" lon="103.3983333"><ele>803.59</ele><time>2026-06-27T04:05:29.000Z</time></trkpt>
        <trkpt lat="29.5716271" lon="103.3982246"><ele>805.53</ele><time>2026-06-27T04:05:39.000Z</time></trkpt>
        <trkpt lat="29.5716204" lon="103.3981178"><ele>806.4</ele><time>2026-06-27T04:05:53.000Z</time></trkpt>
        <trkpt lat="29.5715975" lon="103.3979933"><ele>804.96</ele><time>2026-06-27T04:06:05.000Z</time></trkpt>
        <trkpt lat="29.5715593" lon="103.397868"><ele>801.59</ele><time>2026-06-27T04:06:13.000Z</time></trkpt>
        <trkpt lat="29.5715208" lon="103.3977547"><ele>799.15</ele><time>2026-06-27T04:06:23.000Z</time></trkpt>
        <trkpt lat="29.5714908" lon="103.3976422"><ele>796.68</ele><time>2026-06-27T04:06:43.000Z</time></trkpt>
        <trkpt lat="29.5714776" lon="103.3975238"><ele>793.93</ele><time>2026-06-27T04:06:57.000Z</time></trkpt>
        <trkpt lat="29.5714987" lon="103.3974173"><ele>791.57</ele><time>2026-06-27T04:07:07.000Z</time></trkpt>
        <trkpt lat="29.5715313" lon="103.3973147"><ele>789.74</ele><time>2026-06-27T04:07:15.000Z</time></trkpt>
        <trkpt lat="29.5715742" lon="103.3972198"><ele>787.95</ele><time>2026-06-27T04:07:25.000Z</time></trkpt>
        <trkpt lat="29.5716286" lon="103.3971208"><ele>785.56</ele><time>2026-06-27T04:07:41.000Z</time></trkpt>
        <trkpt lat="29.571684" lon="103.3970294"><ele>782.35</ele><time>2026-06-27T04:07:51.000Z</time></trkpt>
        <trkpt lat="29.5717395" lon="103.3969448"><ele>778.87</ele><time>2026-06-27T04:08:01.000Z</time></trkpt>
        <trkpt lat="29.5717916" lon="103.3968514"><ele>775.48</ele><time>2026-06-27T04:08:15.000Z</time></trkpt>
        <trkpt lat="29.5718752" lon="103.3967904"><ele>771.18</ele><time>2026-06-27T04:08:29.000Z</time></trkpt>
        <trkpt lat="29.5719731" lon="103.3967649"><ele>767.85</ele><time>2026-06-27T04:08:41.000Z</time></trkpt>
        <trkpt lat="29.5720744" lon="103.3967408"><ele>763.62</ele><time>2026-06-27T04:08:55.000Z</time></trkpt>
        <trkpt lat="29.5721704" lon="103.3967157"><ele>759.32</ele><time>2026-06-27T04:09:09.000Z</time></trkpt>
        <trkpt lat="29.5722656" lon="103.3967148"><ele>755.23</ele><time>2026-06-27T04:09:21.000Z</time></trkpt>
        <trkpt lat="29.5723401" lon="103.3966515"><ele>752.47</ele><time>2026-06-27T04:09:33.000Z</time></trkpt>
        <trkpt lat="29.5723755" lon="103.3965559"><ele>748.01</ele><time>2026-06-27T04:09:43.000Z</time></trkpt>
        <trkpt lat="29.5723622" lon="103.3964142"><ele>744.82</ele><time>2026-06-27T04:09:55.000Z</time></trkpt>
        <trkpt lat="29.5723937" lon="103.3963021"><ele>745.08</ele><time>2026-06-27T04:10:05.000Z</time></trkpt>
        <trkpt lat="29.5724121" lon="103.3961921"><ele>744.19</ele><time>2026-06-27T04:10:17.000Z</time></trkpt>
        <trkpt lat="29.5724395" lon="103.3960872"><ele>742.27</ele><time>2026-06-27T04:10:27.000Z</time></trkpt>
        <trkpt lat="29.5724963" lon="103.3960059"><ele>740.56</ele><time>2026-06-27T04:10:39.000Z</time></trkpt>
        <trkpt lat="29.5725605" lon="103.39593"><ele>738.74</ele><time>2026-06-27T04:10:51.000Z</time></trkpt>
        <trkpt lat="29.5726335" lon="103.3958582"><ele>737.16</ele><time>2026-06-27T04:11:01.000Z</time></trkpt>
        <trkpt lat="29.572727" lon="103.3958141"><ele>734.99</ele><time>2026-06-27T04:11:11.000Z</time></trkpt>
        <trkpt lat="29.5727884" lon="103.3957272"><ele>732.95</ele><time>2026-06-27T04:11:23.000Z</time></trkpt>
        <trkpt lat="29.57284" lon="103.3956189"><ele>730.12</ele><time>2026-06-27T04:11:35.000Z</time></trkpt>
        <trkpt lat="29.5729028" lon="103.3955075"><ele>727.27</ele><time>2026-06-27T04:11:43.000Z</time></trkpt>
        <trkpt lat="29.5729563" lon="103.3954082"><ele>725.39</ele><time>2026-06-27T04:11:49.000Z</time></trkpt>
        <trkpt lat="29.5730093" lon="103.3953132"><ele>724.6</ele><time>2026-06-27T04:11:59.000Z</time></trkpt>
        <trkpt lat="29.5730008" lon="103.3951969"><ele>723.81</ele><time>2026-06-27T04:12:13.000Z</time></trkpt>
        <trkpt lat="29.5729751" lon="103.3950842"><ele>720.82</ele><time>2026-06-27T04:12:19.000Z</time></trkpt>
        <trkpt lat="29.5729725" lon="103.3949702"><ele>717.94</ele><time>2026-06-27T04:12:31.000Z</time></trkpt>
        <trkpt lat="29.5729828" lon="103.3948582"><ele>716.31</ele><time>2026-06-27T04:12:41.000Z</time></trkpt>
        <trkpt lat="29.572941" lon="103.394759"><ele>715.52</ele><time>2026-06-27T04:12:55.000Z</time></trkpt>
        <trkpt lat="29.5728658" lon="103.3946787"><ele>714.15</ele><time>2026-06-27T04:13:03.000Z</time></trkpt>
        <trkpt lat="29.572781" lon="103.3946017"><ele>712.55</ele><time>2026-06-27T04:13:13.000Z</time></trkpt>
        <trkpt lat="29.5727802" lon="103.3945046"><ele>709.83</ele><time>2026-06-27T04:13:25.000Z</time></trkpt>
        <trkpt lat="29.5728251" lon="103.3943997"><ele>707.88</ele><time>2026-06-27T04:13:37.000Z</time></trkpt>
        <trkpt lat="29.572865" lon="103.3942869"><ele>705.08</ele><time>2026-06-27T04:13:53.000Z</time></trkpt>
        <trkpt lat="29.5729049" lon="103.3941794"><ele>699.4</ele><time>2026-06-27T04:14:03.000Z</time></trkpt>
        <trkpt lat="29.5729255" lon="103.3940621"><ele>695.73</ele><time>2026-06-27T04:14:13.000Z</time></trkpt>
        <trkpt lat="29.572964" lon="103.3939531"><ele>693.46</ele><time>2026-06-27T04:14:23.000Z</time></trkpt>
        <trkpt lat="29.5729893" lon="103.3938335"><ele>691.99</ele><time>2026-06-27T04:14:31.000Z</time></trkpt>
        <trkpt lat="29.5730407" lon="103.3937256"><ele>690.89</ele><time>2026-06-27T04:14:39.000Z</time></trkpt>
        <trkpt lat="29.5731331" lon="103.3936672"><ele>689.68</ele><time>2026-06-27T04:14:47.000Z</time></trkpt>
        <trkpt lat="29.5732324" lon="103.3936897"><ele>689.69</ele><time>2026-06-27T04:14:59.000Z</time></trkpt>
        <trkpt lat="29.5733262" lon="103.3936793"><ele>689.26</ele><time>2026-06-27T04:15:09.000Z</time></trkpt>
        <trkpt lat="29.573423" lon="103.3936319"><ele>688.49</ele><time>2026-06-27T04:15:19.000Z</time></trkpt>
        <trkpt lat="29.5735234" lon="103.3935927"><ele>687.88</ele><time>2026-06-27T04:15:27.000Z</time></trkpt>
        <trkpt lat="29.5736177" lon="103.3935509"><ele>687.29</ele><time>2026-06-27T04:15:35.000Z</time></trkpt>
        <trkpt lat="29.5737065" lon="103.393475"><ele>686.63</ele><time>2026-06-27T04:15:43.000Z</time></trkpt>
        <trkpt lat="29.5738029" lon="103.3934015"><ele>686.1</ele><time>2026-06-27T04:15:51.000Z</time></trkpt>
        <trkpt lat="29.573892" lon="103.3933433"><ele>685.41</ele><time>2026-06-27T04:15:59.000Z</time></trkpt>
        <trkpt lat="29.5739662" lon="103.3932777"><ele>685.02</ele><time>2026-06-27T04:16:09.000Z</time></trkpt>
        <trkpt lat="29.5740101" lon="103.3931846"><ele>684.53</ele><time>2026-06-27T04:16:21.000Z</time></trkpt>
        <trkpt lat="29.5740405" lon="103.3930833"><ele>683.03</ele><time>2026-06-27T04:16:29.000Z</time></trkpt>
        <trkpt lat="29.5740786" lon="103.3929788"><ele>681.38</ele><time>2026-06-27T04:16:37.000Z</time></trkpt>
        <trkpt lat="29.5741215" lon="103.3928756"><ele>678.81</ele><time>2026-06-27T04:16:47.000Z</time></trkpt>
        <trkpt lat="29.5741686" lon="103.3927724"><ele>676.97</ele><time>2026-06-27T04:16:57.000Z</time></trkpt>
        <trkpt lat="29.5742047" lon="103.3926624"><ele>674.32</ele><time>2026-06-27T04:17:07.000Z</time></trkpt>
        <trkpt lat="29.5742404" lon="103.3925577"><ele>671.88</ele><time>2026-06-27T04:17:17.000Z</time></trkpt>
        <trkpt lat="29.5742099" lon="103.3924556"><ele>669.33</ele><time>2026-06-27T04:17:27.000Z</time></trkpt>
        <trkpt lat="29.5741596" lon="103.392364"><ele>667.32</ele><time>2026-06-27T04:17:37.000Z</time></trkpt>
        <trkpt lat="29.5741957" lon="103.3924073"><ele>665.43</ele><time>2026-06-27T04:17:51.000Z</time></trkpt>
        <trkpt lat="29.5742634" lon="103.3923774"><ele>663.96</ele><time>2026-06-27T04:18:03.000Z</time></trkpt>
        <trkpt lat="29.5742786" lon="103.3922833"><ele>662.42</ele><time>2026-06-27T04:18:15.000Z</time></trkpt>
        <trkpt lat="29.5742193" lon="103.3922187"><ele>661.63</ele><time>2026-06-27T04:18:21.000Z</time></trkpt>
        <trkpt lat="29.5741491" lon="103.3921393"><ele>660.38</ele><time>2026-06-27T04:18:37.000Z</time></trkpt>
        <trkpt lat="29.5740734" lon="103.3920656"><ele>659.33</ele><time>2026-06-27T04:18:51.000Z</time></trkpt>
        <trkpt lat="29.5739817" lon="103.3920611"><ele>659.21</ele><time>2026-06-27T04:18:57.000Z</time></trkpt>
        <trkpt lat="29.5738801" lon="103.3920824"><ele>658.71</ele><time>2026-06-27T04:19:09.000Z</time></trkpt>
        <trkpt lat="29.5737825" lon="103.3920731"><ele>658.14</ele><time>2026-06-27T04:19:19.000Z</time></trkpt>
        <trkpt lat="29.5736823" lon="103.3920286"><ele>656.82</ele><time>2026-06-27T04:19:29.000Z</time></trkpt>
        <trkpt lat="29.5736042" lon="103.3919337"><ele>656.02</ele><time>2026-06-27T04:19:37.000Z</time></trkpt>
        <trkpt lat="29.5735446" lon="103.3918285"><ele>655.2</ele><time>2026-06-27T04:19:45.000Z</time></trkpt>
        <trkpt lat="29.5734937" lon="103.3917276"><ele>654.68</ele><time>2026-06-27T04:19:55.000Z</time></trkpt>
        <trkpt lat="29.5734047" lon="103.3916789"><ele>655.13</ele><time>2026-06-27T04:20:07.000Z</time></trkpt>
        <trkpt lat="29.5732974" lon="103.3916605"><ele>656.37</ele><time>2026-06-27T04:20:15.000Z</time></trkpt>
        <trkpt lat="29.5731932" lon="103.3916603"><ele>656.65</ele><time>2026-06-27T04:20:33.000Z</time></trkpt>
        <trkpt lat="29.5730905" lon="103.391653"><ele>657.5</ele><time>2026-06-27T04:20:45.000Z</time></trkpt>
        <trkpt lat="29.5729915" lon="103.3917079"><ele>658.66</ele><time>2026-06-27T04:20:53.000Z</time></trkpt>
        <trkpt lat="29.5729064" lon="103.3917805"><ele>660.77</ele><time>2026-06-27T04:20:59.000Z</time></trkpt>
        <trkpt lat="29.5728282" lon="103.391848"><ele>662.86</ele><time>2026-06-27T04:21:07.000Z</time></trkpt>
        <trkpt lat="29.5727318" lon="103.3918788"><ele>664.34</ele><time>2026-06-27T04:21:19.000Z</time></trkpt>
        <trkpt lat="29.5726463" lon="103.3918479"><ele>665</ele><time>2026-06-27T04:21:31.000Z</time></trkpt>
        <trkpt lat="29.5725525" lon="103.3918323"><ele>665.83</ele><time>2026-06-27T04:21:45.000Z</time></trkpt>
        <trkpt lat="29.5724612" lon="103.3918132"><ele>666.98</ele><time>2026-06-27T04:21:57.000Z</time></trkpt>
        <trkpt lat="29.5723671" lon="103.3917625"><ele>667.55</ele><time>2026-06-27T04:22:09.000Z</time></trkpt>
        <trkpt lat="29.5722691" lon="103.3917165"><ele>668.24</ele><time>2026-06-27T04:22:17.000Z</time></trkpt>
        <trkpt lat="29.5721725" lon="103.3916506"><ele>670.15</ele><time>2026-06-27T04:22:27.000Z</time></trkpt>
        <trkpt lat="29.5720784" lon="103.3916323"><ele>671.99</ele><time>2026-06-27T04:22:35.000Z</time></trkpt>
        <trkpt lat="29.5719765" lon="103.3916283"><ele>673.51</ele><time>2026-06-27T04:22:45.000Z</time></trkpt>
        <trkpt lat="29.5718744" lon="103.3916051"><ele>673.73</ele><time>2026-06-27T04:22:51.000Z</time></trkpt>
        <trkpt lat="29.5717654" lon="103.3916112"><ele>674.09</ele><time>2026-06-27T04:23:03.000Z</time></trkpt>
        <trkpt lat="29.5716705" lon="103.3916308"><ele>673</ele><time>2026-06-27T04:23:13.000Z</time></trkpt>
        <trkpt lat="29.5715801" lon="103.3916306"><ele>672.42</ele><time>2026-06-27T04:23:23.000Z</time></trkpt>
        <trkpt lat="29.5714858" lon="103.3916384"><ele>671.58</ele><time>2026-06-27T04:23:31.000Z</time></trkpt>
        <trkpt lat="29.5713939" lon="103.3916535"><ele>670.8</ele><time>2026-06-27T04:23:43.000Z</time></trkpt>
        <trkpt lat="29.5712824" lon="103.3916661"><ele>670.6</ele><time>2026-06-27T04:23:51.000Z</time></trkpt>
        <trkpt lat="29.5711759" lon="103.3916713"><ele>669.74</ele><time>2026-06-27T04:23:57.000Z</time></trkpt>
        <trkpt lat="29.5710803" lon="103.391686"><ele>670.81</ele><time>2026-06-27T04:24:11.000Z</time></trkpt>
        <trkpt lat="29.5709886" lon="103.3916706"><ele>672.56</ele><time>2026-06-27T04:24:47.000Z</time></trkpt>
        <trkpt lat="29.5708949" lon="103.3916318"><ele>670.69</ele><time>2026-06-27T04:24:57.000Z</time></trkpt>
        <trkpt lat="29.5708021" lon="103.3915858"><ele>670.01</ele><time>2026-06-27T04:25:09.000Z</time></trkpt>
        <trkpt lat="29.570705" lon="103.3915483"><ele>669.85</ele><time>2026-06-27T04:25:17.000Z</time></trkpt>
        <trkpt lat="29.5706042" lon="103.3915387"><ele>670.54</ele><time>2026-06-27T04:25:25.000Z</time></trkpt>
        <trkpt lat="29.5705409" lon="103.3914613"><ele>669.27</ele><time>2026-06-27T04:25:39.000Z</time></trkpt>
        <trkpt lat="29.5704624" lon="103.3913819"><ele>667.76</ele><time>2026-06-27T04:25:49.000Z</time></trkpt>
        <trkpt lat="29.5703817" lon="103.3912975"><ele>666.79</ele><time>2026-06-27T04:25:57.000Z</time></trkpt>
        <trkpt lat="29.5703191" lon="103.3912009"><ele>665.29</ele><time>2026-06-27T04:26:03.000Z</time></trkpt>
        <trkpt lat="29.5702467" lon="103.3911184"><ele>663.85</ele><time>2026-06-27T04:26:11.000Z</time></trkpt>
        <trkpt lat="29.5701712" lon="103.3910495"><ele>662.69</ele><time>2026-06-27T04:26:19.000Z</time></trkpt>
        <trkpt lat="29.570073" lon="103.3910028"><ele>661.61</ele><time>2026-06-27T04:26:27.000Z</time></trkpt>
        <trkpt lat="29.5699891" lon="103.3910579"><ele>661.83</ele><time>2026-06-27T04:26:39.000Z</time></trkpt>
        <trkpt lat="29.5698908" lon="103.3911062"><ele>662.59</ele><time>2026-06-27T04:26:47.000Z</time></trkpt>
        <trkpt lat="29.5697856" lon="103.3911129"><ele>664.16</ele><time>2026-06-27T04:26:57.000Z</time></trkpt>
        <trkpt lat="29.5696738" lon="103.3911016"><ele>664.72</ele><time>2026-06-27T04:27:05.000Z</time></trkpt>
        <trkpt lat="29.5695722" lon="103.3911023"><ele>664.5</ele><time>2026-06-27T04:27:13.000Z</time></trkpt>
        <trkpt lat="29.5694759" lon="103.3910684"><ele>664.3</ele><time>2026-06-27T04:27:21.000Z</time></trkpt>
        <trkpt lat="29.5693846" lon="103.3910581"><ele>663.93</ele><time>2026-06-27T04:27:35.000Z</time></trkpt>
        <trkpt lat="29.5692952" lon="103.3910901"><ele>664.06</ele><time>2026-06-27T04:27:43.000Z</time></trkpt>
        <trkpt lat="29.5692095" lon="103.3910395"><ele>664.68</ele><time>2026-06-27T04:27:49.000Z</time></trkpt>
        <trkpt lat="29.5691093" lon="103.3910095"><ele>665</ele><time>2026-06-27T04:27:57.000Z</time></trkpt>
        <trkpt lat="29.5690426" lon="103.3910748"><ele>665.79</ele><time>2026-06-27T04:28:05.000Z</time></trkpt>
        <trkpt lat="29.5689736" lon="103.391165"><ele>665.57</ele><time>2026-06-27T04:28:17.000Z</time></trkpt>
        <trkpt lat="29.5688981" lon="103.3912476"><ele>666.67</ele><time>2026-06-27T04:28:25.000Z</time></trkpt>
        <trkpt lat="29.5688852" lon="103.3911919"><ele>669.45</ele><time>2026-06-27T04:29:01.000Z</time></trkpt>
        <trkpt lat="29.5688782" lon="103.3911579"><ele>671.12</ele><time>2026-06-27T04:29:03.000Z</time></trkpt>
        <trkpt lat="29.5688039" lon="103.3911173"><ele>671.95</ele><time>2026-06-27T04:29:15.000Z</time></trkpt>
        <trkpt lat="29.568742" lon="103.3910338"><ele>672.18</ele><time>2026-06-27T04:29:19.000Z</time></trkpt>
        <trkpt lat="29.568649" lon="103.3910159"><ele>672.23</ele><time>2026-06-27T04:29:29.000Z</time></trkpt>
        <trkpt lat="29.5686071" lon="103.3909263"><ele>672.92</ele><time>2026-06-27T04:29:35.000Z</time></trkpt>
        <trkpt lat="29.5685613" lon="103.3908318"><ele>674.34</ele><time>2026-06-27T04:29:39.000Z</time></trkpt>
        <trkpt lat="29.5685428" lon="103.3907256"><ele>675.15</ele><time>2026-06-27T04:29:43.000Z</time></trkpt>
        <trkpt lat="29.5684654" lon="103.3906603"><ele>675.53</ele><time>2026-06-27T04:29:51.000Z</time></trkpt>
        <trkpt lat="29.5684159" lon="103.3907218"><ele>675.63</ele><time>2026-06-27T04:29:55.000Z</time></trkpt>
        <trkpt lat="29.5683466" lon="103.3908581"><ele>676.22</ele><time>2026-06-27T04:29:59.000Z</time></trkpt>
        <trkpt lat="29.5682696" lon="103.3909565"><ele>677.11</ele><time>2026-06-27T04:30:03.000Z</time></trkpt>
        <trkpt lat="29.5681819" lon="103.3910035"><ele>678.89</ele><time>2026-06-27T04:30:15.000Z</time></trkpt>
        <trkpt lat="29.5681256" lon="103.3909372"><ele>680.77</ele><time>2026-06-27T04:30:27.000Z</time></trkpt>
        <trkpt lat="29.5680649" lon="103.3908425"><ele>682.8</ele><time>2026-06-27T04:30:39.000Z</time></trkpt>
        <trkpt lat="29.5680103" lon="103.3907413"><ele>684.25</ele><time>2026-06-27T04:30:45.000Z</time></trkpt>
        <trkpt lat="29.5679325" lon="103.3906739"><ele>684.82</ele><time>2026-06-27T04:30:57.000Z</time></trkpt>
        <trkpt lat="29.5678324" lon="103.3907339"><ele>687.23</ele><time>2026-06-27T04:31:05.000Z</time></trkpt>
        <trkpt lat="29.5677088" lon="103.3907582"><ele>688.36</ele><time>2026-06-27T04:31:19.000Z</time></trkpt>
        <trkpt lat="29.567588" lon="103.390748"><ele>688.28</ele><time>2026-06-27T04:31:25.000Z</time></trkpt>
        <trkpt lat="29.567486" lon="103.3907039"><ele>688.4</ele><time>2026-06-27T04:31:35.000Z</time></trkpt>
        <trkpt lat="29.5674715" lon="103.3905872"><ele>688.33</ele><time>2026-06-27T04:31:41.000Z</time></trkpt>
        <trkpt lat="29.5674665" lon="103.3904697"><ele>687.45</ele><time>2026-06-27T04:31:47.000Z</time></trkpt>
        <trkpt lat="29.567405" lon="103.3904188"><ele>686.24</ele><time>2026-06-27T04:31:55.000Z</time></trkpt>
        <trkpt lat="29.567318" lon="103.3903954"><ele>685.36</ele><time>2026-06-27T04:32:01.000Z</time></trkpt>
        <trkpt lat="29.5672456" lon="103.3903206"><ele>684.48</ele><time>2026-06-27T04:32:07.000Z</time></trkpt>
        <trkpt lat="29.5671841" lon="103.3902233"><ele>684.12</ele><time>2026-06-27T04:32:13.000Z</time></trkpt>
        <trkpt lat="29.5671171" lon="103.3901443"><ele>683.75</ele><time>2026-06-27T04:32:21.000Z</time></trkpt>
        <trkpt lat="29.5670275" lon="103.3901065"><ele>683.52</ele><time>2026-06-27T04:32:27.000Z</time></trkpt>
        <trkpt lat="29.5669274" lon="103.3900856"><ele>683.16</ele><time>2026-06-27T04:32:35.000Z</time></trkpt>
        <trkpt lat="29.5668391" lon="103.390047"><ele>683.48</ele><time>2026-06-27T04:32:49.000Z</time></trkpt>
        <trkpt lat="29.5667891" lon="103.3899671"><ele>685.43</ele><time>2026-06-27T04:32:57.000Z</time></trkpt>
        <trkpt lat="29.5667477" lon="103.3898683"><ele>687.92</ele><time>2026-06-27T04:33:09.000Z</time></trkpt>
        <trkpt lat="29.5666998" lon="103.389774"><ele>694.14</ele><time>2026-06-27T04:33:17.000Z</time></trkpt>
        <trkpt lat="29.5666287" lon="103.3897017"><ele>698.6</ele><time>2026-06-27T04:33:23.000Z</time></trkpt>
        <trkpt lat="29.5665398" lon="103.3896557"><ele>701.44</ele><time>2026-06-27T04:33:29.000Z</time></trkpt>
        <trkpt lat="29.5664414" lon="103.3896451"><ele>703.85</ele><time>2026-06-27T04:33:35.000Z</time></trkpt>
        <trkpt lat="29.5663466" lon="103.3896621"><ele>705.1</ele><time>2026-06-27T04:33:41.000Z</time></trkpt>
        <trkpt lat="29.5662494" lon="103.3897121"><ele>706.31</ele><time>2026-06-27T04:33:47.000Z</time></trkpt>
        <trkpt lat="29.5661601" lon="103.3897024"><ele>706.71</ele><time>2026-06-27T04:33:59.000Z</time></trkpt>
        <trkpt lat="29.5660504" lon="103.3896827"><ele>705.88</ele><time>2026-06-27T04:34:09.000Z</time></trkpt>
        <trkpt lat="29.5659467" lon="103.3896853"><ele>704.98</ele><time>2026-06-27T04:34:15.000Z</time></trkpt>
        <trkpt lat="29.5658467" lon="103.3897175"><ele>705.49</ele><time>2026-06-27T04:34:25.000Z</time></trkpt>
        <trkpt lat="29.565747" lon="103.3897411"><ele>705.6</ele><time>2026-06-27T04:34:35.000Z</time></trkpt>
        <trkpt lat="29.5656498" lon="103.3897533"><ele>705.07</ele><time>2026-06-27T04:34:49.000Z</time></trkpt>
        <trkpt lat="29.5656365" lon="103.3896773"><ele>705.06</ele><time>2026-06-27T04:35:05.000Z</time></trkpt>
        <trkpt lat="29.5655868" lon="103.3895846"><ele>705.16</ele><time>2026-06-27T04:35:17.000Z</time></trkpt>
        <trkpt lat="29.5655086" lon="103.389512"><ele>705.5</ele><time>2026-06-27T04:35:23.000Z</time></trkpt>
        <trkpt lat="29.5654146" lon="103.3894512"><ele>706.48</ele><time>2026-06-27T04:35:31.000Z</time></trkpt>
        <trkpt lat="29.56532" lon="103.3894252"><ele>707.87</ele><time>2026-06-27T04:35:39.000Z</time></trkpt>
        <trkpt lat="29.5652317" lon="103.3893686"><ele>708.24</ele><time>2026-06-27T04:35:51.000Z</time></trkpt>
        <trkpt lat="29.5651554" lon="103.3892994"><ele>708.13</ele><time>2026-06-27T04:36:01.000Z</time></trkpt>
        <trkpt lat="29.5651003" lon="103.3892152"><ele>707.76</ele><time>2026-06-27T04:36:09.000Z</time></trkpt>
        <trkpt lat="29.5650296" lon="103.3891297"><ele>707.09</ele><time>2026-06-27T04:36:17.000Z</time></trkpt>
        <trkpt lat="29.5649588" lon="103.389055"><ele>705.64</ele><time>2026-06-27T04:36:27.000Z</time></trkpt>
        <trkpt lat="29.5648784" lon="103.3889803"><ele>704.79</ele><time>2026-06-27T04:36:41.000Z</time></trkpt>
        <trkpt lat="29.5647664" lon="103.3889427"><ele>704.29</ele><time>2026-06-27T04:36:51.000Z</time></trkpt>
        <trkpt lat="29.5646646" lon="103.3889567"><ele>704.14</ele><time>2026-06-27T04:36:57.000Z</time></trkpt>
        <trkpt lat="29.5645829" lon="103.3889141"><ele>704.34</ele><time>2026-06-27T04:37:17.000Z</time></trkpt>
        <trkpt lat="29.5644908" lon="103.3889134"><ele>705.64</ele><time>2026-06-27T04:38:13.000Z</time></trkpt>
        <trkpt lat="29.5644029" lon="103.3888686"><ele>706.76</ele><time>2026-06-27T04:38:29.000Z</time></trkpt>
        <trkpt lat="29.564315" lon="103.3888383"><ele>707.64</ele><time>2026-06-27T04:38:41.000Z</time></trkpt>
        <trkpt lat="29.5642221" lon="103.3888335"><ele>708.18</ele><time>2026-06-27T04:38:55.000Z</time></trkpt>
        <trkpt lat="29.56413" lon="103.388862"><ele>709.24</ele><time>2026-06-27T04:39:09.000Z</time></trkpt>
        <trkpt lat="29.5640508" lon="103.3889219"><ele>711.33</ele><time>2026-06-27T04:39:17.000Z</time></trkpt>
        <trkpt lat="29.5639662" lon="103.3889584"><ele>712.73</ele><time>2026-06-27T04:39:27.000Z</time></trkpt>
        <trkpt lat="29.563865" lon="103.3889675"><ele>713.43</ele><time>2026-06-27T04:39:41.000Z</time></trkpt>
        <trkpt lat="29.5637711" lon="103.3889379"><ele>715.15</ele><time>2026-06-27T04:39:51.000Z</time></trkpt>
        <trkpt lat="29.5636813" lon="103.3888845"><ele>716.01</ele><time>2026-06-27T04:40:01.000Z</time></trkpt>
        <trkpt lat="29.5635876" lon="103.3888509"><ele>716.89</ele><time>2026-06-27T04:40:11.000Z</time></trkpt>
        <trkpt lat="29.563488" lon="103.3888648"><ele>718.2</ele><time>2026-06-27T04:40:23.000Z</time></trkpt>
        <trkpt lat="29.5633859" lon="103.3888884"><ele>718.76</ele><time>2026-06-27T04:40:35.000Z</time></trkpt>
        <trkpt lat="29.5632826" lon="103.3889024"><ele>719.17</ele><time>2026-06-27T04:40:47.000Z</time></trkpt>
        <trkpt lat="29.5631718" lon="103.3889163"><ele>720.06</ele><time>2026-06-27T04:40:57.000Z</time></trkpt>
        <trkpt lat="29.5630816" lon="103.3889554"><ele>721.4</ele><time>2026-06-27T04:41:07.000Z</time></trkpt>
        <trkpt lat="29.5629886" lon="103.3890092"><ele>721.79</ele><time>2026-06-27T04:41:13.000Z</time></trkpt>
        <trkpt lat="29.5628865" lon="103.38906"><ele>723.14</ele><time>2026-06-27T04:41:21.000Z</time></trkpt>
        <trkpt lat="29.5627936" lon="103.3891027"><ele>724.69</ele><time>2026-06-27T04:41:35.000Z</time></trkpt>
        <trkpt lat="29.5626985" lon="103.3891222"><ele>726.4</ele><time>2026-06-27T04:41:47.000Z</time></trkpt>
        <trkpt lat="29.5625992" lon="103.3891108"><ele>727.81</ele><time>2026-06-27T04:42:01.000Z</time></trkpt>
        <trkpt lat="29.5625047" lon="103.3890782"><ele>729.35</ele><time>2026-06-27T04:42:15.000Z</time></trkpt>
        <trkpt lat="29.562417" lon="103.3890221"><ele>730.99</ele><time>2026-06-27T04:42:27.000Z</time></trkpt>
        <trkpt lat="29.5623106" lon="103.3890041"><ele>731.9</ele><time>2026-06-27T04:42:37.000Z</time></trkpt>
        <trkpt lat="29.5622168" lon="103.3890459"><ele>732.46</ele><time>2026-06-27T04:42:43.000Z</time></trkpt>
        <trkpt lat="29.5621221" lon="103.389073"><ele>732.57</ele><time>2026-06-27T04:42:55.000Z</time></trkpt>
        <trkpt lat="29.5620356" lon="103.3891272"><ele>733.51</ele><time>2026-06-27T04:43:07.000Z</time></trkpt>
        <trkpt lat="29.5619646" lon="103.3892116"><ele>734.92</ele><time>2026-06-27T04:43:17.000Z</time></trkpt>
        <trkpt lat="29.5619992" lon="103.389291"><ele>736.01</ele><time>2026-06-27T04:43:29.000Z</time></trkpt>
        <trkpt lat="29.5620603" lon="103.3893844"><ele>736.66</ele><time>2026-06-27T04:43:37.000Z</time></trkpt>
        <trkpt lat="29.5620552" lon="103.3894807"><ele>736.79</ele><time>2026-06-27T04:43:47.000Z</time></trkpt>
        <trkpt lat="29.5619826" lon="103.3895198"><ele>737.19</ele><time>2026-06-27T04:43:57.000Z</time></trkpt>
        <trkpt lat="29.5618949" lon="103.389487"><ele>737.07</ele><time>2026-06-27T04:44:07.000Z</time></trkpt>
        <trkpt lat="29.561797" lon="103.389438"><ele>735.3</ele><time>2026-06-27T04:44:17.000Z</time></trkpt>
        <trkpt lat="29.561721" lon="103.3893557"><ele>732.81</ele><time>2026-06-27T04:44:25.000Z</time></trkpt>
        <trkpt lat="29.5616279" lon="103.3893047"><ele>730.79</ele><time>2026-06-27T04:44:35.000Z</time></trkpt>
        <trkpt lat="29.5615193" lon="103.3892763"><ele>729.63</ele><time>2026-06-27T04:44:43.000Z</time></trkpt>
        <trkpt lat="29.5614225" lon="103.3893122"><ele>728.71</ele><time>2026-06-27T04:44:51.000Z</time></trkpt>
        <trkpt lat="29.5613231" lon="103.3893176"><ele>729.06</ele><time>2026-06-27T04:45:01.000Z</time></trkpt>
        <trkpt lat="29.5612284" lon="103.389293"><ele>730.28</ele><time>2026-06-27T04:45:11.000Z</time></trkpt>
        <trkpt lat="29.5611361" lon="103.3893145"><ele>731.54</ele><time>2026-06-27T04:45:19.000Z</time></trkpt>
        <trkpt lat="29.561039" lon="103.3893357"><ele>732.9</ele><time>2026-06-27T04:45:31.000Z</time></trkpt>
        <trkpt lat="29.5609317" lon="103.3893555"><ele>733.67</ele><time>2026-06-27T04:45:43.000Z</time></trkpt>
        <trkpt lat="29.5608323" lon="103.3893813"><ele>734.35</ele><time>2026-06-27T04:45:49.000Z</time></trkpt>
        <trkpt lat="29.5607272" lon="103.389405"><ele>735.09</ele><time>2026-06-27T04:45:57.000Z</time></trkpt>
        <trkpt lat="29.5606212" lon="103.3894332"><ele>735.6</ele><time>2026-06-27T04:46:07.000Z</time></trkpt>
        <trkpt lat="29.5605379" lon="103.3894892"><ele>736.75</ele><time>2026-06-27T04:46:15.000Z</time></trkpt>
        <trkpt lat="29.5604527" lon="103.3894853"><ele>737.82</ele><time>2026-06-27T04:46:27.000Z</time></trkpt>
        <trkpt lat="29.5603687" lon="103.3894509"><ele>739.12</ele><time>2026-06-27T04:46:37.000Z</time></trkpt>
        <trkpt lat="29.5602885" lon="103.3893946"><ele>739.01</ele><time>2026-06-27T04:46:47.000Z</time></trkpt>
        <trkpt lat="29.5602695" lon="103.3892897"><ele>739.39</ele><time>2026-06-27T04:47:03.000Z</time></trkpt>
        <trkpt lat="29.5602029" lon="103.3892384"><ele>739.96</ele><time>2026-06-27T04:47:31.000Z</time></trkpt>
        <trkpt lat="29.5601835" lon="103.3891472"><ele>742.42</ele><time>2026-06-27T04:47:39.000Z</time></trkpt>
        <trkpt lat="29.5601825" lon="103.3890427"><ele>744.61</ele><time>2026-06-27T04:47:47.000Z</time></trkpt>
        <trkpt lat="29.5601421" lon="103.3889543"><ele>746.39</ele><time>2026-06-27T04:47:59.000Z</time></trkpt>
        <trkpt lat="29.5601356" lon="103.3888454"><ele>748.47</ele><time>2026-06-27T04:48:15.000Z</time></trkpt>
        <trkpt lat="29.5601922" lon="103.3887708"><ele>751.96</ele><time>2026-06-27T04:48:25.000Z</time></trkpt>
        <trkpt lat="29.5601525" lon="103.388691"><ele>755.14</ele><time>2026-06-27T04:48:33.000Z</time></trkpt>
        <trkpt lat="29.5600573" lon="103.3886455"><ele>760.24</ele><time>2026-06-27T04:48:41.000Z</time></trkpt>
        <trkpt lat="29.5599516" lon="103.3886021"><ele>762.79</ele><time>2026-06-27T04:48:55.000Z</time></trkpt>
        <trkpt lat="29.5598616" lon="103.3885369"><ele>763.84</ele><time>2026-06-27T04:49:05.000Z</time></trkpt>
        <trkpt lat="29.5597862" lon="103.3884608"><ele>764.04</ele><time>2026-06-27T04:49:15.000Z</time></trkpt>
        <trkpt lat="29.5597158" lon="103.3883886"><ele>765.1</ele><time>2026-06-27T04:49:23.000Z</time></trkpt>
        <trkpt lat="29.5596601" lon="103.3883026"><ele>765.92</ele><time>2026-06-27T04:49:35.000Z</time></trkpt>
        <trkpt lat="29.5596502" lon="103.3881901"><ele>766.41</ele><time>2026-06-27T04:49:41.000Z</time></trkpt>
        <trkpt lat="29.559608" lon="103.3880894"><ele>766.95</ele><time>2026-06-27T04:49:49.000Z</time></trkpt>
        <trkpt lat="29.5595469" lon="103.3880098"><ele>768.15</ele><time>2026-06-27T04:49:57.000Z</time></trkpt>
        <trkpt lat="29.5594804" lon="103.3879274"><ele>767.56</ele><time>2026-06-27T04:50:05.000Z</time></trkpt>
        <trkpt lat="29.5593938" lon="103.3878531"><ele>766.54</ele><time>2026-06-27T04:50:15.000Z</time></trkpt>
        <trkpt lat="29.5593222" lon="103.387768"><ele>764.42</ele><time>2026-06-27T04:50:23.000Z</time></trkpt>
        <trkpt lat="29.5592503" lon="103.3876813"><ele>762.97</ele><time>2026-06-27T04:50:33.000Z</time></trkpt>
        <trkpt lat="29.5591661" lon="103.3876758"><ele>762.61</ele><time>2026-06-27T04:50:39.000Z</time></trkpt>
        <trkpt lat="29.5590612" lon="103.3877185"><ele>761.88</ele><time>2026-06-27T04:50:45.000Z</time></trkpt>
        <trkpt lat="29.5589604" lon="103.3877726"><ele>760.98</ele><time>2026-06-27T04:50:53.000Z</time></trkpt>
        <trkpt lat="29.5588523" lon="103.3878034"><ele>760.51</ele><time>2026-06-27T04:51:03.000Z</time></trkpt>
        <trkpt lat="29.5587556" lon="103.3878019"><ele>760.9</ele><time>2026-06-27T04:51:11.000Z</time></trkpt>
        <trkpt lat="29.5586647" lon="103.3877575"><ele>761.26</ele><time>2026-06-27T04:51:19.000Z</time></trkpt>
        <trkpt lat="29.558573" lon="103.3877258"><ele>761.6</ele><time>2026-06-27T04:51:29.000Z</time></trkpt>
        <trkpt lat="29.5584832" lon="103.3876783"><ele>761.92</ele><time>2026-06-27T04:51:39.000Z</time></trkpt>
        <trkpt lat="29.5584245" lon="103.3875981"><ele>762.53</ele><time>2026-06-27T04:51:45.000Z</time></trkpt>
        <trkpt lat="29.5583537" lon="103.3875191"><ele>762.76</ele><time>2026-06-27T04:51:53.000Z</time></trkpt>
        <trkpt lat="29.5582873" lon="103.3874272"><ele>763.03</ele><time>2026-06-27T04:52:01.000Z</time></trkpt>
        <trkpt lat="29.5582177" lon="103.3873506"><ele>762.75</ele><time>2026-06-27T04:52:13.000Z</time></trkpt>
        <trkpt lat="29.5581731" lon="103.3872518"><ele>762.73</ele><time>2026-06-27T04:52:27.000Z</time></trkpt>
        <trkpt lat="29.5580957" lon="103.3872016"><ele>762.31</ele><time>2026-06-27T04:52:41.000Z</time></trkpt>
        <trkpt lat="29.5580398" lon="103.3871248"><ele>763.1</ele><time>2026-06-27T04:52:53.000Z</time></trkpt>
        <trkpt lat="29.5579596" lon="103.3870836"><ele>764.96</ele><time>2026-06-27T04:53:01.000Z</time></trkpt>
        <trkpt lat="29.5578754" lon="103.3870435"><ele>766.03</ele><time>2026-06-27T04:53:09.000Z</time></trkpt>
        <trkpt lat="29.5577823" lon="103.3870084"><ele>766.65</ele><time>2026-06-27T04:53:17.000Z</time></trkpt>
        <trkpt lat="29.557684" lon="103.386984"><ele>767.2</ele><time>2026-06-27T04:53:27.000Z</time></trkpt>
        <trkpt lat="29.5576752" lon="103.3868973"><ele>768.26</ele><time>2026-06-27T04:53:41.000Z</time></trkpt>
        <trkpt lat="29.5576568" lon="103.3867921"><ele>770.38</ele><time>2026-06-27T04:53:53.000Z</time></trkpt>
        <trkpt lat="29.5576023" lon="103.3867072"><ele>772.61</ele><time>2026-06-27T04:54:01.000Z</time></trkpt>
        <trkpt lat="29.5575215" lon="103.3866419"><ele>774.24</ele><time>2026-06-27T04:54:09.000Z</time></trkpt>
        <trkpt lat="29.557443" lon="103.3865636"><ele>775.19</ele><time>2026-06-27T04:54:21.000Z</time></trkpt>
        <trkpt lat="29.5573652" lon="103.3864839"><ele>776.12</ele><time>2026-06-27T04:54:33.000Z</time></trkpt>
        <trkpt lat="29.5572815" lon="103.3864217"><ele>776.42</ele><time>2026-06-27T04:54:45.000Z</time></trkpt>
        <trkpt lat="29.5572054" lon="103.3863594"><ele>776.39</ele><time>2026-06-27T04:54:55.000Z</time></trkpt>
        <trkpt lat="29.5571051" lon="103.3863498"><ele>776.73</ele><time>2026-06-27T04:55:07.000Z</time></trkpt>
        <trkpt lat="29.5570306" lon="103.3862781"><ele>778.3</ele><time>2026-06-27T04:55:23.000Z</time></trkpt>
        <trkpt lat="29.5569839" lon="103.3861752"><ele>780.09</ele><time>2026-06-27T04:55:33.000Z</time></trkpt>
        <trkpt lat="29.55691" lon="103.3861146"><ele>781.19</ele><time>2026-06-27T04:55:41.000Z</time></trkpt>
        <trkpt lat="29.5568378" lon="103.3860263"><ele>782.64</ele><time>2026-06-27T04:55:49.000Z</time></trkpt>
        <trkpt lat="29.5567541" lon="103.386029"><ele>782.78</ele><time>2026-06-27T04:56:03.000Z</time></trkpt>
        <trkpt lat="29.5567716" lon="103.3859476"><ele>782.39</ele><time>2026-06-27T04:57:15.000Z</time></trkpt>
        <trkpt lat="29.5567848" lon="103.3860723"><ele>779.86</ele><time>2026-06-27T04:57:47.000Z</time></trkpt>
        <trkpt lat="29.5568768" lon="103.3859864"><ele>778.42</ele><time>2026-06-27T04:58:39.000Z</time></trkpt>
        <trkpt lat="29.5568302" lon="103.3860188"><ele>778.14</ele><time>2026-06-27T04:59:25.000Z</time></trkpt>
        <trkpt lat="29.5568034" lon="103.3858838"><ele>778.58</ele><time>2026-06-27T05:01:11.000Z</time></trkpt>
        <trkpt lat="29.5568162" lon="103.3860049"><ele>778.94</ele><time>2026-06-27T05:01:55.000Z</time></trkpt>
        <trkpt lat="29.5568091" lon="103.3860347"><ele>778.72</ele><time>2026-06-27T05:01:59.000Z</time></trkpt>
        <trkpt lat="29.5568656" lon="103.385877"><ele>778.77</ele><time>2026-06-27T05:02:13.000Z</time></trkpt>
        <trkpt lat="29.5568656" lon="103.385877"><ele>778.77</ele><time>2026-06-27T05:02:13.000Z</time></trkpt>
        <trkpt lat="29.5567919" lon="103.3858723"><ele>781.26</ele><time>2026-06-27T05:02:53.000Z</time></trkpt>
        <trkpt lat="29.5567919" lon="103.3858723"><ele>781.26</ele><time>2026-06-27T05:02:55.000Z</time></trkpt>
        <trkpt lat="29.5566564" lon="103.3859504"><ele>781.26</ele><time>2026-06-27T05:02:59.000Z</time></trkpt>
        <trkpt lat="29.5566983" lon="103.3860134"><ele>781.12</ele><time>2026-06-27T05:03:53.000Z</time></trkpt>
        <trkpt lat="29.5566273" lon="103.3860694"><ele>779.75</ele><time>2026-06-27T05:04:13.000Z</time></trkpt>
        <trkpt lat="29.5565501" lon="103.3861406"><ele>778.92</ele><time>2026-06-27T05:04:25.000Z</time></trkpt>
        <trkpt lat="29.5564832" lon="103.3860926"><ele>781.68</ele><time>2026-06-27T05:04:51.000Z</time></trkpt>
        <trkpt lat="29.5564468" lon="103.3859846"><ele>784.98</ele><time>2026-06-27T05:05:07.000Z</time></trkpt>
        <trkpt lat="29.5564282" lon="103.3858571"><ele>786.24</ele><time>2026-06-27T05:05:31.000Z</time></trkpt>
        <trkpt lat="29.5563879" lon="103.3858831"><ele>789.37</ele><time>2026-06-27T05:05:41.000Z</time></trkpt>
        <trkpt lat="29.5563322" lon="103.3859636"><ele>792.7</ele><time>2026-06-27T05:05:55.000Z</time></trkpt>
        <trkpt lat="29.5562716" lon="103.3860678"><ele>795.26</ele><time>2026-06-27T05:06:17.000Z</time></trkpt>
        <trkpt lat="29.5561816" lon="103.386104"><ele>799.97</ele><time>2026-06-27T05:06:35.000Z</time></trkpt>
        <trkpt lat="29.556093" lon="103.386069"><ele>804.53</ele><time>2026-06-27T05:07:03.000Z</time></trkpt>
        <trkpt lat="29.5559962" lon="103.3860525"><ele>808.79</ele><time>2026-06-27T05:07:17.000Z</time></trkpt>
        <trkpt lat="29.5559423" lon="103.3859558"><ele>812.44</ele><time>2026-06-27T05:07:47.000Z</time></trkpt>
        <trkpt lat="29.5560079" lon="103.3859229"><ele>818.45</ele><time>2026-06-27T05:08:11.000Z</time></trkpt>
        <trkpt lat="29.5561127" lon="103.3859106"><ele>824.14</ele><time>2026-06-27T05:08:21.000Z</time></trkpt>
        <trkpt lat="29.5560861" lon="103.3858711"><ele>829.33</ele><time>2026-06-27T05:08:31.000Z</time></trkpt>
        <trkpt lat="29.556004" lon="103.3858322"><ele>832.84</ele><time>2026-06-27T05:08:45.000Z</time></trkpt>
        <trkpt lat="29.5560284" lon="103.385771"><ele>835.46</ele><time>2026-06-27T05:09:01.000Z</time></trkpt>
        <trkpt lat="29.556047" lon="103.3856718"><ele>836.52</ele><time>2026-06-27T05:09:21.000Z</time></trkpt>
        <trkpt lat="29.5561004" lon="103.3855695"><ele>840.69</ele><time>2026-06-27T05:09:33.000Z</time></trkpt>
        <trkpt lat="29.5561475" lon="103.385469"><ele>845.74</ele><time>2026-06-27T05:09:45.000Z</time></trkpt>
        <trkpt lat="29.5561012" lon="103.3854043"><ele>848.31</ele><time>2026-06-27T05:09:59.000Z</time></trkpt>
        <trkpt lat="29.5560276" lon="103.3854425"><ele>848.74</ele><time>2026-06-27T05:10:11.000Z</time></trkpt>
        <trkpt lat="29.555953" lon="103.3855341"><ele>848.35</ele><time>2026-06-27T05:10:25.000Z</time></trkpt>
        <trkpt lat="29.5558658" lon="103.3855321"><ele>849.11</ele><time>2026-06-27T05:11:07.000Z</time></trkpt>
        <trkpt lat="29.5557752" lon="103.3854883"><ele>852.8</ele><time>2026-06-27T05:11:37.000Z</time></trkpt>
        <trkpt lat="29.5557278" lon="103.3853943"><ele>858.45</ele><time>2026-06-27T05:12:05.000Z</time></trkpt>
        <trkpt lat="29.5556839" lon="103.3852946"><ele>863.34</ele><time>2026-06-27T05:12:27.000Z</time></trkpt>
        <trkpt lat="29.5556585" lon="103.3851706"><ele>867.33</ele><time>2026-06-27T05:15:17.000Z</time></trkpt>
        <trkpt lat="29.5556848" lon="103.3850659"><ele>877</ele><time>2026-06-27T05:15:29.000Z</time></trkpt>
        <trkpt lat="29.5556007" lon="103.385059"><ele>882.82</ele><time>2026-06-27T05:15:53.000Z</time></trkpt>
        <trkpt lat="29.5554992" lon="103.3850611"><ele>886.73</ele><time>2026-06-27T05:16:15.000Z</time></trkpt>
        <trkpt lat="29.5553991" lon="103.3850261"><ele>892.22</ele><time>2026-06-27T05:16:31.000Z</time></trkpt>
        <trkpt lat="29.5553002" lon="103.3849993"><ele>897.42</ele><time>2026-06-27T05:16:57.000Z</time></trkpt>
        <trkpt lat="29.5552027" lon="103.3849807"><ele>904.7</ele><time>2026-06-27T05:17:17.000Z</time></trkpt>
        <trkpt lat="29.5551118" lon="103.3849566"><ele>909.29</ele><time>2026-06-27T05:17:37.000Z</time></trkpt>
        <trkpt lat="29.5550297" lon="103.3848968"><ele>911.93</ele><time>2026-06-27T05:17:59.000Z</time></trkpt>
        <trkpt lat="29.5549527" lon="103.3848267"><ele>913.94</ele><time>2026-06-27T05:18:11.000Z</time></trkpt>
        <trkpt lat="29.5548763" lon="103.384764"><ele>915.75</ele><time>2026-06-27T05:18:23.000Z</time></trkpt>
        <trkpt lat="29.5548129" lon="103.3846867"><ele>917.32</ele><time>2026-06-27T05:18:39.000Z</time></trkpt>
        <trkpt lat="29.5547389" lon="103.3846205"><ele>920.71</ele><time>2026-06-27T05:18:53.000Z</time></trkpt>
        <trkpt lat="29.5546556" lon="103.3845675"><ele>924.35</ele><time>2026-06-27T05:19:05.000Z</time></trkpt>
        <trkpt lat="29.5546963" lon="103.3845259"><ele>927.48</ele><time>2026-06-27T05:19:45.000Z</time></trkpt>
        <trkpt lat="29.5547886" lon="103.3845074"><ele>932.04</ele><time>2026-06-27T05:20:15.000Z</time></trkpt>
        <trkpt lat="29.5548845" lon="103.3844369"><ele>939.21</ele><time>2026-06-27T05:21:47.000Z</time></trkpt>
        <trkpt lat="29.554992" lon="103.3844085"><ele>942.82</ele><time>2026-06-27T05:22:35.000Z</time></trkpt>
        <trkpt lat="29.5550895" lon="103.3843823"><ele>945.78</ele><time>2026-06-27T05:22:49.000Z</time></trkpt>
        <trkpt lat="29.5551547" lon="103.3842953"><ele>950.67</ele><time>2026-06-27T05:23:13.000Z</time></trkpt>
        <trkpt lat="29.5551084" lon="103.3841937"><ele>955.73</ele><time>2026-06-27T05:23:25.000Z</time></trkpt>
        <trkpt lat="29.5550213" lon="103.3840886"><ele>958.23</ele><time>2026-06-27T05:23:35.000Z</time></trkpt>
        <trkpt lat="29.55495" lon="103.383993"><ele>959.7</ele><time>2026-06-27T05:23:41.000Z</time></trkpt>
        <trkpt lat="29.5549437" lon="103.3838686"><ele>960.71</ele><time>2026-06-27T05:23:51.000Z</time></trkpt>
        <trkpt lat="29.5550121" lon="103.3837959"><ele>962.35</ele><time>2026-06-27T05:24:01.000Z</time></trkpt>
        <trkpt lat="29.5550751" lon="103.383712"><ele>964.39</ele><time>2026-06-27T05:24:09.000Z</time></trkpt>
        <trkpt lat="29.5550501" lon="103.3836241"><ele>965.41</ele><time>2026-06-27T05:24:23.000Z</time></trkpt>
        <trkpt lat="29.5549964" lon="103.3835226"><ele>965.9</ele><time>2026-06-27T05:24:33.000Z</time></trkpt>
        <trkpt lat="29.5548912" lon="103.3834578"><ele>965.55</ele><time>2026-06-27T05:24:41.000Z</time></trkpt>
        <trkpt lat="29.554788" lon="103.3834062"><ele>964.4</ele><time>2026-06-27T05:24:49.000Z</time></trkpt>
        <trkpt lat="29.5546801" lon="103.3833851"><ele>962.69</ele><time>2026-06-27T05:24:59.000Z</time></trkpt>
        <trkpt lat="29.5545849" lon="103.3833622"><ele>961.44</ele><time>2026-06-27T05:25:09.000Z</time></trkpt>
        <trkpt lat="29.5544963" lon="103.3833305"><ele>960.67</ele><time>2026-06-27T05:25:19.000Z</time></trkpt>
        <trkpt lat="29.5544234" lon="103.3832546"><ele>960.21</ele><time>2026-06-27T05:25:27.000Z</time></trkpt>
        <trkpt lat="29.5543874" lon="103.3831451"><ele>959.67</ele><time>2026-06-27T05:25:37.000Z</time></trkpt>
        <trkpt lat="29.5543606" lon="103.3830326"><ele>959.47</ele><time>2026-06-27T05:25:53.000Z</time></trkpt>
        <trkpt lat="29.5543683" lon="103.3829149"><ele>961.31</ele><time>2026-06-27T05:26:15.000Z</time></trkpt>
        <trkpt lat="29.5543894" lon="103.3828058"><ele>964.25</ele><time>2026-06-27T05:26:31.000Z</time></trkpt>
        <trkpt lat="29.5544217" lon="103.3826928"><ele>966.77</ele><time>2026-06-27T05:27:09.000Z</time></trkpt>
        <trkpt lat="29.5544084" lon="103.3825753"><ele>973.52</ele><time>2026-06-27T05:27:21.000Z</time></trkpt>
        <trkpt lat="29.5543325" lon="103.3825067"><ele>977.23</ele><time>2026-06-27T05:27:37.000Z</time></trkpt>
        <trkpt lat="29.5542543" lon="103.3824413"><ele>978.97</ele><time>2026-06-27T05:27:51.000Z</time></trkpt>
        <trkpt lat="29.5541791" lon="103.3823642"><ele>979.96</ele><time>2026-06-27T05:28:05.000Z</time></trkpt>
        <trkpt lat="29.5541774" lon="103.3822642"><ele>981.4</ele><time>2026-06-27T05:28:21.000Z</time></trkpt>
        <trkpt lat="29.5542092" lon="103.3821596"><ele>982.17</ele><time>2026-06-27T05:28:29.000Z</time></trkpt>
        <trkpt lat="29.5542418" lon="103.3820439"><ele>985.23</ele><time>2026-06-27T05:28:41.000Z</time></trkpt>
        <trkpt lat="29.5542032" lon="103.3819412"><ele>989.3</ele><time>2026-06-27T05:28:51.000Z</time></trkpt>
        <trkpt lat="29.5541587" lon="103.3818389"><ele>990.43</ele><time>2026-06-27T05:29:05.000Z</time></trkpt>
        <trkpt lat="29.5541313" lon="103.3817303"><ele>990.83</ele><time>2026-06-27T05:29:19.000Z</time></trkpt>
        <trkpt lat="29.5540752" lon="103.381634"><ele>991.76</ele><time>2026-06-27T05:29:31.000Z</time></trkpt>
        <trkpt lat="29.554034" lon="103.3815219"><ele>992.8</ele><time>2026-06-27T05:29:39.000Z</time></trkpt>
        <trkpt lat="29.5540366" lon="103.3814117"><ele>993.76</ele><time>2026-06-27T05:29:47.000Z</time></trkpt>
        <trkpt lat="29.5540391" lon="103.3813042"><ele>994.36</ele><time>2026-06-27T05:29:57.000Z</time></trkpt>
        <trkpt lat="29.5539989" lon="103.3812177"><ele>994.86</ele><time>2026-06-27T05:30:05.000Z</time></trkpt>
        <trkpt lat="29.5539376" lon="103.3811223"><ele>995.23</ele><time>2026-06-27T05:30:13.000Z</time></trkpt>
        <trkpt lat="29.5539002" lon="103.3810219"><ele>995.33</ele><time>2026-06-27T05:30:37.000Z</time></trkpt>
        <trkpt lat="29.5539482" lon="103.3809144"><ele>997.05</ele><time>2026-06-27T05:30:45.000Z</time></trkpt>
        <trkpt lat="29.5539822" lon="103.380798"><ele>999.73</ele><time>2026-06-27T05:30:57.000Z</time></trkpt>
        <trkpt lat="29.5540368" lon="103.3806995"><ele>1001.81</ele><time>2026-06-27T05:31:07.000Z</time></trkpt>
        <trkpt lat="29.5540615" lon="103.3805833"><ele>1003.71</ele><time>2026-06-27T05:31:23.000Z</time></trkpt>
        <trkpt lat="29.5540798" lon="103.3804707"><ele>1006.05</ele><time>2026-06-27T05:31:37.000Z</time></trkpt>
        <trkpt lat="29.5540554" lon="103.3803436"><ele>1007.86</ele><time>2026-06-27T05:31:47.000Z</time></trkpt>
        <trkpt lat="29.5540466" lon="103.3802315"><ele>1008.64</ele><time>2026-06-27T05:31:57.000Z</time></trkpt>
        <trkpt lat="29.5540231" lon="103.3801298"><ele>1009.46</ele><time>2026-06-27T05:32:07.000Z</time></trkpt>
        <trkpt lat="29.5539848" lon="103.3800337"><ele>1010.11</ele><time>2026-06-27T05:32:17.000Z</time></trkpt>
        <trkpt lat="29.5539598" lon="103.3799338"><ele>1010.23</ele><time>2026-06-27T05:32:29.000Z</time></trkpt>
        <trkpt lat="29.5539289" lon="103.3798313"><ele>1010.64</ele><time>2026-06-27T05:32:57.000Z</time></trkpt>
        <trkpt lat="29.5539643" lon="103.3797462"><ele>1014.68</ele><time>2026-06-27T05:33:17.000Z</time></trkpt>
        <trkpt lat="29.5539519" lon="103.37965"><ele>1019.56</ele><time>2026-06-27T05:33:55.000Z</time></trkpt>
        <trkpt lat="29.5539084" lon="103.3795614"><ele>1024.4</ele><time>2026-06-27T05:34:11.000Z</time></trkpt>
        <trkpt lat="29.5539248" lon="103.3794634"><ele>1027.7</ele><time>2026-06-27T05:34:25.000Z</time></trkpt>
        <trkpt lat="29.5538913" lon="103.3793605"><ele>1030.47</ele><time>2026-06-27T05:34:39.000Z</time></trkpt>
        <trkpt lat="29.5538528" lon="103.3792605"><ele>1031.82</ele><time>2026-06-27T05:34:51.000Z</time></trkpt>
        <trkpt lat="29.5538082" lon="103.3791633"><ele>1033.58</ele><time>2026-06-27T05:35:03.000Z</time></trkpt>
        <trkpt lat="29.5537588" lon="103.3790598"><ele>1035.46</ele><time>2026-06-27T05:35:11.000Z</time></trkpt>
        <trkpt lat="29.5537852" lon="103.378956"><ele>1036.5</ele><time>2026-06-27T05:35:19.000Z</time></trkpt>
        <trkpt lat="29.5538385" lon="103.3788594"><ele>1037.05</ele><time>2026-06-27T05:35:27.000Z</time></trkpt>
        <trkpt lat="29.5539024" lon="103.3787576"><ele>1038.5</ele><time>2026-06-27T05:35:35.000Z</time></trkpt>
        <trkpt lat="29.5538935" lon="103.3786495"><ele>1040.69</ele><time>2026-06-27T05:35:47.000Z</time></trkpt>
        <trkpt lat="29.553848" lon="103.3785478"><ele>1041.79</ele><time>2026-06-27T05:36:01.000Z</time></trkpt>
        <trkpt lat="29.553804" lon="103.3784482"><ele>1044.3</ele><time>2026-06-27T05:36:21.000Z</time></trkpt>
        <trkpt lat="29.5537539" lon="103.3783504"><ele>1044.94</ele><time>2026-06-27T05:36:39.000Z</time></trkpt>
        <trkpt lat="29.5536919" lon="103.3782696"><ele>1046.55</ele><time>2026-06-27T05:36:49.000Z</time></trkpt>
        <trkpt lat="29.553618" lon="103.3781961"><ele>1047.32</ele><time>2026-06-27T05:37:03.000Z</time></trkpt>
        <trkpt lat="29.5535403" lon="103.3781289"><ele>1048.42</ele><time>2026-06-27T05:37:17.000Z</time></trkpt>
        <trkpt lat="29.5534754" lon="103.378052"><ele>1049.58</ele><time>2026-06-27T05:37:31.000Z</time></trkpt>
        <trkpt lat="29.5534583" lon="103.3779549"><ele>1051.23</ele><time>2026-06-27T05:37:47.000Z</time></trkpt>
        <trkpt lat="29.5534351" lon="103.3778476"><ele>1054.48</ele><time>2026-06-27T05:38:11.000Z</time></trkpt>
        <trkpt lat="29.5533585" lon="103.3777734"><ele>1056.8</ele><time>2026-06-27T05:39:07.000Z</time></trkpt>
        <trkpt lat="29.5532714" lon="103.3777222"><ele>1064.42</ele><time>2026-06-27T05:39:29.000Z</time></trkpt>
        <trkpt lat="29.5532038" lon="103.3776461"><ele>1069.54</ele><time>2026-06-27T05:40:37.000Z</time></trkpt>
        <trkpt lat="29.5531117" lon="103.3775724"><ele>1076.26</ele><time>2026-06-27T05:40:57.000Z</time></trkpt>
        <trkpt lat="29.5530614" lon="103.3774777"><ele>1079.91</ele><time>2026-06-27T05:41:13.000Z</time></trkpt>
        <trkpt lat="29.5529782" lon="103.3774422"><ele>1081.6</ele><time>2026-06-27T05:41:37.000Z</time></trkpt>
        <trkpt lat="29.5529219" lon="103.3773649"><ele>1082.82</ele><time>2026-06-27T05:41:49.000Z</time></trkpt>
        <trkpt lat="29.5528487" lon="103.3772891"><ele>1084.14</ele><time>2026-06-27T05:43:29.000Z</time></trkpt>
        <trkpt lat="29.5527585" lon="103.3772847"><ele>1093.67</ele><time>2026-06-27T05:43:53.000Z</time></trkpt>
        <trkpt lat="29.552668" lon="103.3772955"><ele>1100.6</ele><time>2026-06-27T05:44:03.000Z</time></trkpt>
        <trkpt lat="29.5526037" lon="103.3772308"><ele>1105.31</ele><time>2026-06-27T05:44:29.000Z</time></trkpt>
        <trkpt lat="29.5525449" lon="103.3771453"><ele>1110.97</ele><time>2026-06-27T05:44:41.000Z</time></trkpt>
        <trkpt lat="29.5524727" lon="103.37716"><ele>1116.06</ele><time>2026-06-27T05:45:23.000Z</time></trkpt>
        <trkpt lat="29.5523966" lon="103.3771228"><ele>1121.85</ele><time>2026-06-27T05:45:43.000Z</time></trkpt>
        <trkpt lat="29.5523143" lon="103.377076"><ele>1126.66</ele><time>2026-06-27T05:45:53.000Z</time></trkpt>
        <trkpt lat="29.55221" lon="103.3770657"><ele>1129.4</ele><time>2026-06-27T05:46:23.000Z</time></trkpt>
        <trkpt lat="29.5521227" lon="103.37702"><ele>1130.85</ele><time>2026-06-27T05:46:45.000Z</time></trkpt>
        <trkpt lat="29.5520302" lon="103.3769809"><ele>1132.39</ele><time>2026-06-27T05:47:07.000Z</time></trkpt>
        <trkpt lat="29.5519657" lon="103.376905"><ele>1133.01</ele><time>2026-06-27T05:47:19.000Z</time></trkpt>
        <trkpt lat="29.5518968" lon="103.3768349"><ele>1133.61</ele><time>2026-06-27T05:47:39.000Z</time></trkpt>
        <trkpt lat="29.5518424" lon="103.3768807"><ele>1134.59</ele><time>2026-06-27T05:47:55.000Z</time></trkpt>
        <trkpt lat="29.5519071" lon="103.3769339"><ele>1135.49</ele><time>2026-06-27T05:48:01.000Z</time></trkpt>
        <trkpt lat="29.5518999" lon="103.3768733"><ele>1135.97</ele><time>2026-06-27T05:48:39.000Z</time></trkpt>
        <trkpt lat="29.551909" lon="103.3767563"><ele>1129.42</ele><time>2026-06-27T05:48:43.000Z</time></trkpt>
        <trkpt lat="29.5519582" lon="103.3767747"><ele>1125.72</ele><time>2026-06-27T05:48:47.000Z</time></trkpt>
        <trkpt lat="29.5518716" lon="103.3767807"><ele>1123.56</ele><time>2026-06-27T05:48:59.000Z</time></trkpt>
        <trkpt lat="29.5518581" lon="103.3768645"><ele>1122.27</ele><time>2026-06-27T05:49:07.000Z</time></trkpt>
        <trkpt lat="29.5517951" lon="103.3768367"><ele>1121.45</ele><time>2026-06-27T05:49:13.000Z</time></trkpt>
        <trkpt lat="29.5517109" lon="103.3767938"><ele>1120.85</ele><time>2026-06-27T05:49:39.000Z</time></trkpt>
        <trkpt lat="29.5516061" lon="103.3767674"><ele>1123.36</ele><time>2026-06-27T05:49:45.000Z</time></trkpt>
        <trkpt lat="29.5516167" lon="103.3768473"><ele>1125.64</ele><time>2026-06-27T05:50:15.000Z</time></trkpt>
        <trkpt lat="29.5516899" lon="103.376932"><ele>1127.92</ele><time>2026-06-27T05:50:23.000Z</time></trkpt>
        <trkpt lat="29.5516329" lon="103.376871"><ele>1128.29</ele><time>2026-06-27T05:50:41.000Z</time></trkpt>
        <trkpt lat="29.5515476" lon="103.376658"><ele>1127.36</ele><time>2026-06-27T05:50:47.000Z</time></trkpt>
        <trkpt lat="29.5516008" lon="103.3766597"><ele>1126.99</ele><time>2026-06-27T05:50:53.000Z</time></trkpt>
        <trkpt lat="29.5516239" lon="103.3767685"><ele>1127.71</ele><time>2026-06-27T05:50:57.000Z</time></trkpt>
        <trkpt lat="29.5516804" lon="103.3768866"><ele>1128.09</ele><time>2026-06-27T05:51:03.000Z</time></trkpt>
        <trkpt lat="29.5516842" lon="103.3769198"><ele>1128.07</ele><time>2026-06-27T05:51:11.000Z</time></trkpt>
        <trkpt lat="29.5516637" lon="103.3770055"><ele>1127.37</ele><time>2026-06-27T05:51:19.000Z</time></trkpt>
        <trkpt lat="29.5517257" lon="103.3771018"><ele>1126.66</ele><time>2026-06-27T05:51:27.000Z</time></trkpt>
        <trkpt lat="29.5518005" lon="103.377127"><ele>1126.31</ele><time>2026-06-27T05:51:31.000Z</time></trkpt>
        <trkpt lat="29.5517053" lon="103.376882"><ele>1128.67</ele><time>2026-06-27T05:51:39.000Z</time></trkpt>
        <trkpt lat="29.5516846" lon="103.3767073"><ele>1146.04</ele><time>2026-06-27T05:52:01.000Z</time></trkpt>
        <trkpt lat="29.5516604" lon="103.376578"><ele>1152.83</ele><time>2026-06-27T05:52:19.000Z</time></trkpt>
        <trkpt lat="29.5516666" lon="103.3764676"><ele>1158.43</ele><time>2026-06-27T05:52:45.000Z</time></trkpt>
        <trkpt lat="29.551725" lon="103.3763927"><ele>1161.72</ele><time>2026-06-27T05:53:01.000Z</time></trkpt>
        <trkpt lat="29.5516913" lon="103.376425"><ele>1163.67</ele><time>2026-06-27T05:53:21.000Z</time></trkpt>
        <trkpt lat="29.5516254" lon="103.3763839"><ele>1165.73</ele><time>2026-06-27T05:53:31.000Z</time></trkpt>
        <trkpt lat="29.5516502" lon="103.3763168"><ele>1167.19</ele><time>2026-06-27T05:54:05.000Z</time></trkpt>
        <trkpt lat="29.551666" lon="103.3762138"><ele>1169.24</ele><time>2026-06-27T05:54:29.000Z</time></trkpt>
        <trkpt lat="29.5517332" lon="103.376134"><ele>1172.69</ele><time>2026-06-27T05:54:47.000Z</time></trkpt>
        <trkpt lat="29.5517665" lon="103.3760326"><ele>1176.78</ele><time>2026-06-27T05:55:23.000Z</time></trkpt>
        <trkpt lat="29.5517695" lon="103.375927"><ele>1182.35</ele><time>2026-06-27T05:55:37.000Z</time></trkpt>
        <trkpt lat="29.5517346" lon="103.3758279"><ele>1185.8</ele><time>2026-06-27T05:56:09.000Z</time></trkpt>
        <trkpt lat="29.5516805" lon="103.3757381"><ele>1187.81</ele><time>2026-06-27T05:56:19.000Z</time></trkpt>
        <trkpt lat="29.5516021" lon="103.3756681"><ele>1188.79</ele><time>2026-06-27T05:56:25.000Z</time></trkpt>
        <trkpt lat="29.5515162" lon="103.3755884"><ele>1189.65</ele><time>2026-06-27T05:56:37.000Z</time></trkpt>
        <trkpt lat="29.5514298" lon="103.3755315"><ele>1190.23</ele><time>2026-06-27T05:56:51.000Z</time></trkpt>
        <trkpt lat="29.5513313" lon="103.3754829"><ele>1189.83</ele><time>2026-06-27T05:57:01.000Z</time></trkpt>
        <trkpt lat="29.5512499" lon="103.3754245"><ele>1188.46</ele><time>2026-06-27T05:57:15.000Z</time></trkpt>
        <trkpt lat="29.5511573" lon="103.3753891"><ele>1187.69</ele><time>2026-06-27T05:57:31.000Z</time></trkpt>
        <trkpt lat="29.5510845" lon="103.375322"><ele>1188.91</ele><time>2026-06-27T05:57:57.000Z</time></trkpt>
        <trkpt lat="29.5509952" lon="103.3752823"><ele>1191.92</ele><time>2026-06-27T05:58:13.000Z</time></trkpt>
        <trkpt lat="29.5508955" lon="103.375276"><ele>1194.37</ele><time>2026-06-27T05:58:47.000Z</time></trkpt>
        <trkpt lat="29.5507998" lon="103.3752335"><ele>1197.93</ele><time>2026-06-27T05:59:01.000Z</time></trkpt>
        <trkpt lat="29.5507158" lon="103.3751713"><ele>1201.7</ele><time>2026-06-27T05:59:11.000Z</time></trkpt>
        <trkpt lat="29.5506211" lon="103.3751526"><ele>1205.4</ele><time>2026-06-27T05:59:21.000Z</time></trkpt>
        <trkpt lat="29.5505323" lon="103.3751085"><ele>1209.84</ele><time>2026-06-27T05:59:33.000Z</time></trkpt>
        <trkpt lat="29.5504495" lon="103.3750613"><ele>1212.84</ele><time>2026-06-27T05:59:41.000Z</time></trkpt>
        <trkpt lat="29.5503494" lon="103.3750392"><ele>1214.91</ele><time>2026-06-27T05:59:47.000Z</time></trkpt>
        <trkpt lat="29.5502818" lon="103.374974"><ele>1215.53</ele><time>2026-06-27T05:59:59.000Z</time></trkpt>
        <trkpt lat="29.5502025" lon="103.374925"><ele>1216.7</ele><time>2026-06-27T06:00:13.000Z</time></trkpt>
        <trkpt lat="29.5501099" lon="103.3748857"><ele>1218.11</ele><time>2026-06-27T06:00:27.000Z</time></trkpt>
        <trkpt lat="29.5500142" lon="103.3748593"><ele>1219.47</ele><time>2026-06-27T06:00:45.000Z</time></trkpt>
        <trkpt lat="29.5499357" lon="103.3748006"><ele>1220.77</ele><time>2026-06-27T06:00:55.000Z</time></trkpt>
        <trkpt lat="29.5499628" lon="103.3746995"><ele>1221.85</ele><time>2026-06-27T06:01:23.000Z</time></trkpt>
        <trkpt lat="29.5500157" lon="103.3745976"><ele>1221.91</ele><time>2026-06-27T06:01:31.000Z</time></trkpt>
        <trkpt lat="29.5500267" lon="103.3744867"><ele>1221.21</ele><time>2026-06-27T06:02:21.000Z</time></trkpt>
        <trkpt lat="29.5501195" lon="103.3744487"><ele>1221.08</ele><time>2026-06-27T06:02:33.000Z</time></trkpt>
        <trkpt lat="29.5502034" lon="103.3743851"><ele>1221.29</ele><time>2026-06-27T06:02:43.000Z</time></trkpt>
        <trkpt lat="29.5502933" lon="103.3743143"><ele>1221.93</ele><time>2026-06-27T06:02:57.000Z</time></trkpt>
        <trkpt lat="29.5503749" lon="103.3742395"><ele>1223.14</ele><time>2026-06-27T06:03:05.000Z</time></trkpt>
        <trkpt lat="29.5504612" lon="103.3741695"><ele>1224.25</ele><time>2026-06-27T06:03:15.000Z</time></trkpt>
        <trkpt lat="29.550525" lon="103.3740832"><ele>1225.62</ele><time>2026-06-27T06:03:25.000Z</time></trkpt>
        <trkpt lat="29.550614" lon="103.374033"><ele>1226.55</ele><time>2026-06-27T06:03:35.000Z</time></trkpt>
        <trkpt lat="29.5507109" lon="103.3740038"><ele>1225.43</ele><time>2026-06-27T06:03:41.000Z</time></trkpt>
        <trkpt lat="29.5507921" lon="103.3739413"><ele>1224.63</ele><time>2026-06-27T06:03:49.000Z</time></trkpt>
        <trkpt lat="29.5508793" lon="103.3738962"><ele>1224.02</ele><time>2026-06-27T06:03:59.000Z</time></trkpt>
        <trkpt lat="29.5509252" lon="103.373813"><ele>1223.55</ele><time>2026-06-27T06:04:15.000Z</time></trkpt>
        <trkpt lat="29.5510026" lon="103.3738099"><ele>1222.53</ele><time>2026-06-27T06:04:25.000Z</time></trkpt>
        <trkpt lat="29.5510866" lon="103.3738542"><ele>1221.88</ele><time>2026-06-27T06:04:33.000Z</time></trkpt>
        <trkpt lat="29.5512118" lon="103.3738679"><ele>1221.67</ele><time>2026-06-27T06:04:49.000Z</time></trkpt>
        <trkpt lat="29.5512914" lon="103.3737842"><ele>1220.02</ele><time>2026-06-27T06:04:57.000Z</time></trkpt>
        <trkpt lat="29.5513496" lon="103.3736804"><ele>1220.41</ele><time>2026-06-27T06:05:07.000Z</time></trkpt>
        <trkpt lat="29.551339" lon="103.3735711"><ele>1221.4</ele><time>2026-06-27T06:05:17.000Z</time></trkpt>
        <trkpt lat="29.5513797" lon="103.3734881"><ele>1221.45</ele><time>2026-06-27T06:05:25.000Z</time></trkpt>
        <trkpt lat="29.5513819" lon="103.3733842"><ele>1221.99</ele><time>2026-06-27T06:05:35.000Z</time></trkpt>
        <trkpt lat="29.5513201" lon="103.373281"><ele>1222.72</ele><time>2026-06-27T06:05:43.000Z</time></trkpt>
        <trkpt lat="29.5512564" lon="103.3731846"><ele>1223.58</ele><time>2026-06-27T06:05:51.000Z</time></trkpt>
        <trkpt lat="29.5511861" lon="103.3730995"><ele>1224.86</ele><time>2026-06-27T06:06:03.000Z</time></trkpt>
        <trkpt lat="29.5511327" lon="103.3729946"><ele>1226.08</ele><time>2026-06-27T06:06:13.000Z</time></trkpt>
        <trkpt lat="29.5510396" lon="103.3729618"><ele>1227.27</ele><time>2026-06-27T06:06:23.000Z</time></trkpt>
        <trkpt lat="29.5509441" lon="103.3729654"><ele>1227.97</ele><time>2026-06-27T06:06:31.000Z</time></trkpt>
        <trkpt lat="29.5508494" lon="103.372985"><ele>1228.42</ele><time>2026-06-27T06:06:39.000Z</time></trkpt>
        <trkpt lat="29.5507451" lon="103.3730093"><ele>1228.98</ele><time>2026-06-27T06:06:47.000Z</time></trkpt>
        <trkpt lat="29.5506503" lon="103.3729948"><ele>1229.59</ele><time>2026-06-27T06:06:53.000Z</time></trkpt>
        <trkpt lat="29.5505612" lon="103.3729512"><ele>1230.07</ele><time>2026-06-27T06:07:01.000Z</time></trkpt>
        <trkpt lat="29.5504704" lon="103.3729072"><ele>1231.12</ele><time>2026-06-27T06:07:09.000Z</time></trkpt>
        <trkpt lat="29.5503891" lon="103.3729351"><ele>1231.92</ele><time>2026-06-27T06:07:19.000Z</time></trkpt>
        <trkpt lat="29.5503017" lon="103.372917"><ele>1232.7</ele><time>2026-06-27T06:07:31.000Z</time></trkpt>
        <trkpt lat="29.5501952" lon="103.3728699"><ele>1233.13</ele><time>2026-06-27T06:07:41.000Z</time></trkpt>
        <trkpt lat="29.5501426" lon="103.3728378"><ele>1233.51</ele><time>2026-06-27T06:07:45.000Z</time></trkpt>
        <trkpt lat="29.5501949" lon="103.3727765"><ele>1234.04</ele><time>2026-06-27T06:08:05.000Z</time></trkpt>
        <trkpt lat="29.550222" lon="103.3728127"><ele>1234.42</ele><time>2026-06-27T06:08:11.000Z</time></trkpt>
        <trkpt lat="29.5503176" lon="103.3727982"><ele>1234.48</ele><time>2026-06-27T06:08:21.000Z</time></trkpt>
        <trkpt lat="29.5503943" lon="103.3727254"><ele>1234.65</ele><time>2026-06-27T06:08:29.000Z</time></trkpt>
        <trkpt lat="29.5504501" lon="103.3726224"><ele>1234.63</ele><time>2026-06-27T06:08:45.000Z</time></trkpt>
        <trkpt lat="29.5505261" lon="103.372527"><ele>1230.92</ele><time>2026-06-27T06:08:55.000Z</time></trkpt>
        <trkpt lat="29.5505942" lon="103.3724385"><ele>1227.02</ele><time>2026-06-27T06:09:03.000Z</time></trkpt>
        <trkpt lat="29.5506463" lon="103.3723407"><ele>1225.84</ele><time>2026-06-27T06:09:13.000Z</time></trkpt>
        <trkpt lat="29.5506867" lon="103.3722392"><ele>1226.23</ele><time>2026-06-27T06:09:21.000Z</time></trkpt>
        <trkpt lat="29.5506532" lon="103.3721377"><ele>1226.45</ele><time>2026-06-27T06:09:33.000Z</time></trkpt>
        <trkpt lat="29.5505812" lon="103.3720486"><ele>1229.93</ele><time>2026-06-27T06:09:45.000Z</time></trkpt>
        <trkpt lat="29.5504951" lon="103.3719682"><ele>1231.18</ele><time>2026-06-27T06:09:53.000Z</time></trkpt>
        <trkpt lat="29.550439" lon="103.3718727"><ele>1231.64</ele><time>2026-06-27T06:10:03.000Z</time></trkpt>
        <trkpt lat="29.5504043" lon="103.37176"><ele>1231.74</ele><time>2026-06-27T06:10:15.000Z</time></trkpt>
        <trkpt lat="29.550351" lon="103.3716678"><ele>1231.18</ele><time>2026-06-27T06:10:27.000Z</time></trkpt>
        <trkpt lat="29.5502683" lon="103.3715926"><ele>1230.75</ele><time>2026-06-27T06:10:37.000Z</time></trkpt>
        <trkpt lat="29.5501688" lon="103.3715758"><ele>1230.52</ele><time>2026-06-27T06:10:49.000Z</time></trkpt>
        <trkpt lat="29.5501335" lon="103.3714936"><ele>1229.02</ele><time>2026-06-27T06:10:59.000Z</time></trkpt>
        <trkpt lat="29.5502035" lon="103.3714246"><ele>1228.18</ele><time>2026-06-27T06:11:09.000Z</time></trkpt>
        <trkpt lat="29.5502941" lon="103.3713554"><ele>1227.04</ele><time>2026-06-27T06:11:15.000Z</time></trkpt>
        <trkpt lat="29.5503707" lon="103.3712725"><ele>1225.26</ele><time>2026-06-27T06:11:21.000Z</time></trkpt>
        <trkpt lat="29.5504356" lon="103.3711728"><ele>1223.64</ele><time>2026-06-27T06:11:31.000Z</time></trkpt>
        <trkpt lat="29.5504648" lon="103.3710655"><ele>1222.57</ele><time>2026-06-27T06:11:41.000Z</time></trkpt>
        <trkpt lat="29.5504427" lon="103.3709635"><ele>1221.66</ele><time>2026-06-27T06:11:51.000Z</time></trkpt>
        <trkpt lat="29.5503685" lon="103.3708896"><ele>1220.88</ele><time>2026-06-27T06:12:03.000Z</time></trkpt>
        <trkpt lat="29.5502826" lon="103.3708097"><ele>1220.28</ele><time>2026-06-27T06:12:11.000Z</time></trkpt>
        <trkpt lat="29.550271" lon="103.3707095"><ele>1219.86</ele><time>2026-06-27T06:12:27.000Z</time></trkpt>
        <trkpt lat="29.5503024" lon="103.3706066"><ele>1218.7</ele><time>2026-06-27T06:12:35.000Z</time></trkpt>
        <trkpt lat="29.5503388" lon="103.3704897"><ele>1217.81</ele><time>2026-06-27T06:12:53.000Z</time></trkpt>
        <trkpt lat="29.5503828" lon="103.3703825"><ele>1217.44</ele><time>2026-06-27T06:13:25.000Z</time></trkpt>
        <trkpt lat="29.5503649" lon="103.37028"><ele>1213.17</ele><time>2026-06-27T06:13:45.000Z</time></trkpt>
        <trkpt lat="29.5503272" lon="103.3701807"><ele>1208.86</ele><time>2026-06-27T06:13:55.000Z</time></trkpt>
        <trkpt lat="29.5503182" lon="103.3700762"><ele>1206.35</ele><time>2026-06-27T06:14:05.000Z</time></trkpt>
        <trkpt lat="29.5502781" lon="103.3699791"><ele>1205.34</ele><time>2026-06-27T06:14:15.000Z</time></trkpt>
        <trkpt lat="29.5502446" lon="103.3698754"><ele>1205.27</ele><time>2026-06-27T06:14:25.000Z</time></trkpt>
        <trkpt lat="29.550203" lon="103.3697769"><ele>1205.52</ele><time>2026-06-27T06:14:47.000Z</time></trkpt>
        <trkpt lat="29.5501774" lon="103.3696733"><ele>1204.04</ele><time>2026-06-27T06:15:21.000Z</time></trkpt>
        <trkpt lat="29.550132" lon="103.369585"><ele>1205.15</ele><time>2026-06-27T06:16:49.000Z</time></trkpt>
        <trkpt lat="29.5500763" lon="103.3694948"><ele>1210.29</ele><time>2026-06-27T06:17:09.000Z</time></trkpt>
        <trkpt lat="29.5500057" lon="103.3694287"><ele>1217.08</ele><time>2026-06-27T06:17:21.000Z</time></trkpt>
        <trkpt lat="29.5499583" lon="103.3693411"><ele>1224.3</ele><time>2026-06-27T06:17:45.000Z</time></trkpt>
        <trkpt lat="29.5499123" lon="103.3692471"><ele>1230</ele><time>2026-06-27T06:18:03.000Z</time></trkpt>
        <trkpt lat="29.5499128" lon="103.3691391"><ele>1233.53</ele><time>2026-06-27T06:18:15.000Z</time></trkpt>
        <trkpt lat="29.5498786" lon="103.3690401"><ele>1236.11</ele><time>2026-06-27T06:18:27.000Z</time></trkpt>
        <trkpt lat="29.5499387" lon="103.3690044"><ele>1237.51</ele><time>2026-06-27T06:18:47.000Z</time></trkpt>
        <trkpt lat="29.5499071" lon="103.3689564"><ele>1239.35</ele><time>2026-06-27T06:19:07.000Z</time></trkpt>
        <trkpt lat="29.5499163" lon="103.3688657"><ele>1242.21</ele><time>2026-06-27T06:19:35.000Z</time></trkpt>
        <trkpt lat="29.5498281" lon="103.3688728"><ele>1244.48</ele><time>2026-06-27T06:22:35.000Z</time></trkpt>
        <trkpt lat="29.549764" lon="103.3687998"><ele>1246.97</ele><time>2026-06-27T06:23:11.000Z</time></trkpt>
        <trkpt lat="29.5496958" lon="103.3687231"><ele>1249.64</ele><time>2026-06-27T06:23:23.000Z</time></trkpt>
        <trkpt lat="29.5496183" lon="103.3686681"><ele>1251.02</ele><time>2026-06-27T06:23:35.000Z</time></trkpt>
        <trkpt lat="29.5495918" lon="103.3686521"><ele>1251.68</ele><time>2026-06-27T06:23:37.000Z</time></trkpt>
        <trkpt lat="29.5496044" lon="103.3685766"><ele>1252.04</ele><time>2026-06-27T06:24:03.000Z</time></trkpt>
        <trkpt lat="29.5496805" lon="103.3685263"><ele>1253.82</ele><time>2026-06-27T06:24:21.000Z</time></trkpt>
        <trkpt lat="29.5497974" lon="103.3684887"><ele>1255.83</ele><time>2026-06-27T06:25:47.000Z</time></trkpt>
        <trkpt lat="29.549838" lon="103.3684438"><ele>1264.27</ele><time>2026-06-27T06:25:51.000Z</time></trkpt>
        <trkpt lat="29.5497999" lon="103.36836"><ele>1269.18</ele><time>2026-06-27T06:26:27.000Z</time></trkpt>
        <trkpt lat="29.5497884" lon="103.3683307"><ele>1272.85</ele><time>2026-06-27T06:26:37.000Z</time></trkpt>
        <trkpt lat="29.5498466" lon="103.3683682"><ele>1275.12</ele><time>2026-06-27T06:26:47.000Z</time></trkpt>
        <trkpt lat="29.5498534" lon="103.368378"><ele>1276.39</ele><time>2026-06-27T06:26:53.000Z</time></trkpt>
        <trkpt lat="29.5498135" lon="103.3683082"><ele>1277.19</ele><time>2026-06-27T06:26:59.000Z</time></trkpt>
        <trkpt lat="29.549816" lon="103.3682686"><ele>1277.73</ele><time>2026-06-27T06:27:13.000Z</time></trkpt>
        <trkpt lat="29.5498864" lon="103.3682703"><ele>1279.15</ele><time>2026-06-27T06:28:11.000Z</time></trkpt>
        <trkpt lat="29.5499499" lon="103.3682051"><ele>1290.38</ele><time>2026-06-27T06:28:27.000Z</time></trkpt>
        <trkpt lat="29.5498987" lon="103.3681935"><ele>1296.16</ele><time>2026-06-27T06:29:05.000Z</time></trkpt>
        <trkpt lat="29.5498698" lon="103.3680989"><ele>1301.56</ele><time>2026-06-27T06:30:05.000Z</time></trkpt>
        <trkpt lat="29.5499414" lon="103.3680293"><ele>1307.4</ele><time>2026-06-27T06:30:21.000Z</time></trkpt>
        <trkpt lat="29.5498706" lon="103.3679945"><ele>1312.3</ele><time>2026-06-27T06:30:43.000Z</time></trkpt>
        <trkpt lat="29.549867" lon="103.3679089"><ele>1315.63</ele><time>2026-06-27T06:31:23.000Z</time></trkpt>
        <trkpt lat="29.5498147" lon="103.3678318"><ele>1319.41</ele><time>2026-06-27T06:32:09.000Z</time></trkpt>
        <trkpt lat="29.549892" lon="103.3678461"><ele>1326.28</ele><time>2026-06-27T06:34:11.000Z</time></trkpt>
        <trkpt lat="29.5499904" lon="103.3678329"><ele>1329.57</ele><time>2026-06-27T06:34:41.000Z</time></trkpt>
        <trkpt lat="29.5499555" lon="103.3677612"><ele>1335.71</ele><time>2026-06-27T06:35:05.000Z</time></trkpt>
        <trkpt lat="29.55002" lon="103.367746"><ele>1339.72</ele><time>2026-06-27T06:35:33.000Z</time></trkpt>
        <trkpt lat="29.5500966" lon="103.3676889"><ele>1344.11</ele><time>2026-06-27T06:36:11.000Z</time></trkpt>
        <trkpt lat="29.5501627" lon="103.3676114"><ele>1349.69</ele><time>2026-06-27T06:36:33.000Z</time></trkpt>
        <trkpt lat="29.5501685" lon="103.3675061"><ele>1353.78</ele><time>2026-06-27T06:36:47.000Z</time></trkpt>
        <trkpt lat="29.5502166" lon="103.3674191"><ele>1356.63</ele><time>2026-06-27T06:37:11.000Z</time></trkpt>
        <trkpt lat="29.5501992" lon="103.3673268"><ele>1359.44</ele><time>2026-06-27T06:37:51.000Z</time></trkpt>
        <trkpt lat="29.5501331" lon="103.367351"><ele>1364.52</ele><time>2026-06-27T06:38:05.000Z</time></trkpt>
        <trkpt lat="29.5500396" lon="103.3673522"><ele>1369.08</ele><time>2026-06-27T06:38:59.000Z</time></trkpt>
        <trkpt lat="29.5500752" lon="103.3673217"><ele>1376.7</ele><time>2026-06-27T06:39:19.000Z</time></trkpt>
        <trkpt lat="29.5501354" lon="103.3672478"><ele>1382.7</ele><time>2026-06-27T06:39:43.000Z</time></trkpt>
        <trkpt lat="29.5501767" lon="103.3671433"><ele>1387.23</ele><time>2026-06-27T06:39:57.000Z</time></trkpt>
        <trkpt lat="29.5502478" lon="103.3670604"><ele>1390.73</ele><time>2026-06-27T06:40:11.000Z</time></trkpt>
        <trkpt lat="29.5503036" lon="103.3669638"><ele>1393.18</ele><time>2026-06-27T06:40:23.000Z</time></trkpt>
        <trkpt lat="29.5503131" lon="103.3668598"><ele>1395.03</ele><time>2026-06-27T06:40:37.000Z</time></trkpt>
        <trkpt lat="29.5502842" lon="103.3667413"><ele>1396.52</ele><time>2026-06-27T06:42:19.000Z</time></trkpt>
        <trkpt lat="29.5501954" lon="103.3667613"><ele>1398.01</ele><time>2026-06-27T06:42:29.000Z</time></trkpt>
        <trkpt lat="29.5501121" lon="103.3667268"><ele>1398.38</ele><time>2026-06-27T06:43:09.000Z</time></trkpt>
        <trkpt lat="29.550042" lon="103.366644"><ele>1398.98</ele><time>2026-06-27T06:43:45.000Z</time></trkpt>
        <trkpt lat="29.5499586" lon="103.3665817"><ele>1401.02</ele><time>2026-06-27T06:44:19.000Z</time></trkpt>
        <trkpt lat="29.5498702" lon="103.3665961"><ele>1405.14</ele><time>2026-06-27T06:44:43.000Z</time></trkpt>
        <trkpt lat="29.5497831" lon="103.3666399"><ele>1410.35</ele><time>2026-06-27T06:45:05.000Z</time></trkpt>
        <trkpt lat="29.549691" lon="103.3666226"><ele>1415.8</ele><time>2026-06-27T06:45:21.000Z</time></trkpt>
        <trkpt lat="29.549641" lon="103.3665392"><ele>1419.46</ele><time>2026-06-27T06:45:33.000Z</time></trkpt>
        <trkpt lat="29.549562" lon="103.366527"><ele>1421.59</ele><time>2026-06-27T06:46:01.000Z</time></trkpt>
        <trkpt lat="29.5494838" lon="103.3664677"><ele>1424.31</ele><time>2026-06-27T06:46:43.000Z</time></trkpt>
        <trkpt lat="29.5494191" lon="103.3663806"><ele>1430.76</ele><time>2026-06-27T06:47:19.000Z</time></trkpt>
        <trkpt lat="29.549485" lon="103.3662834"><ele>1439.03</ele><time>2026-06-27T06:52:45.000Z</time></trkpt>
        <trkpt lat="29.5495591" lon="103.3661994"><ele>1446.19</ele><time>2026-06-27T06:53:01.000Z</time></trkpt>
        <trkpt lat="29.549634" lon="103.3661244"><ele>1450.51</ele><time>2026-06-27T06:53:15.000Z</time></trkpt>
        <trkpt lat="29.5497063" lon="103.3660572"><ele>1454.23</ele><time>2026-06-27T06:53:25.000Z</time></trkpt>
        <trkpt lat="29.5496874" lon="103.3659707"><ele>1456.13</ele><time>2026-06-27T06:53:43.000Z</time></trkpt>
        <trkpt lat="29.549679" lon="103.3658652"><ele>1457.87</ele><time>2026-06-27T06:53:59.000Z</time></trkpt>
        <trkpt lat="29.5496346" lon="103.3657656"><ele>1459.71</ele><time>2026-06-27T06:54:17.000Z</time></trkpt>
        <trkpt lat="29.5496227" lon="103.3656583"><ele>1460.76</ele><time>2026-06-27T06:54:35.000Z</time></trkpt>
        <trkpt lat="29.5495452" lon="103.3655808"><ele>1461.75</ele><time>2026-06-27T06:54:49.000Z</time></trkpt>
        <trkpt lat="29.5495353" lon="103.3654772"><ele>1463.17</ele><time>2026-06-27T06:55:03.000Z</time></trkpt>
        <trkpt lat="29.5496017" lon="103.3654004"><ele>1464.49</ele><time>2026-06-27T06:55:13.000Z</time></trkpt>
        <trkpt lat="29.5496777" lon="103.3653179"><ele>1465.11</ele><time>2026-06-27T06:55:25.000Z</time></trkpt>
        <trkpt lat="29.5497351" lon="103.3652231"><ele>1465.67</ele><time>2026-06-27T06:55:35.000Z</time></trkpt>
        <trkpt lat="29.5498024" lon="103.3651313"><ele>1466.18</ele><time>2026-06-27T06:55:45.000Z</time></trkpt>
        <trkpt lat="29.5498661" lon="103.3650404"><ele>1467.08</ele><time>2026-06-27T06:55:55.000Z</time></trkpt>
        <trkpt lat="29.5499214" lon="103.3649393"><ele>1467.72</ele><time>2026-06-27T06:56:07.000Z</time></trkpt>
        <trkpt lat="29.5499942" lon="103.3648719"><ele>1467.76</ele><time>2026-06-27T06:56:17.000Z</time></trkpt>
        <trkpt lat="29.5500331" lon="103.3647813"><ele>1468.61</ele><time>2026-06-27T06:56:27.000Z</time></trkpt>
        <trkpt lat="29.5500529" lon="103.3646641"><ele>1469.43</ele><time>2026-06-27T06:56:37.000Z</time></trkpt>
        <trkpt lat="29.5500864" lon="103.3645532"><ele>1470.28</ele><time>2026-06-27T06:56:49.000Z</time></trkpt>
        <trkpt lat="29.5501568" lon="103.3644859"><ele>1470.43</ele><time>2026-06-27T06:57:03.000Z</time></trkpt>
        <trkpt lat="29.5502313" lon="103.3644205"><ele>1470.06</ele><time>2026-06-27T06:57:15.000Z</time></trkpt>
        <trkpt lat="29.5503032" lon="103.364351"><ele>1469.4</ele><time>2026-06-27T06:57:25.000Z</time></trkpt>
        <trkpt lat="29.5503566" lon="103.3642649"><ele>1469.06</ele><time>2026-06-27T06:57:33.000Z</time></trkpt>
        <trkpt lat="29.550384" lon="103.3641496"><ele>1469.06</ele><time>2026-06-27T06:57:43.000Z</time></trkpt>
        <trkpt lat="29.5503979" lon="103.3640378"><ele>1469.95</ele><time>2026-06-27T06:58:09.000Z</time></trkpt>
        <trkpt lat="29.5504672" lon="103.3639802"><ele>1472.2</ele><time>2026-06-27T06:58:45.000Z</time></trkpt>
        <trkpt lat="29.5504556" lon="103.363886"><ele>1475.05</ele><time>2026-06-27T06:58:59.000Z</time></trkpt>
        <trkpt lat="29.5504976" lon="103.3638114"><ele>1477.32</ele><time>2026-06-27T06:59:21.000Z</time></trkpt>
        <trkpt lat="29.5505794" lon="103.3638013"><ele>1483.93</ele><time>2026-06-27T06:59:33.000Z</time></trkpt>
        <trkpt lat="29.5506724" lon="103.3637581"><ele>1487.03</ele><time>2026-06-27T06:59:51.000Z</time></trkpt>
        <trkpt lat="29.5507652" lon="103.3637169"><ele>1488.54</ele><time>2026-06-27T07:00:03.000Z</time></trkpt>
        <trkpt lat="29.5508183" lon="103.363626"><ele>1489.48</ele><time>2026-06-27T07:00:15.000Z</time></trkpt>
        <trkpt lat="29.5507719" lon="103.3635362"><ele>1491.15</ele><time>2026-06-27T07:00:25.000Z</time></trkpt>
        <trkpt lat="29.5506844" lon="103.363449"><ele>1493.24</ele><time>2026-06-27T07:00:39.000Z</time></trkpt>
        <trkpt lat="29.5506642" lon="103.3633397"><ele>1495.32</ele><time>2026-06-27T07:00:57.000Z</time></trkpt>
        <trkpt lat="29.5506979" lon="103.3632423"><ele>1496.69</ele><time>2026-06-27T07:01:21.000Z</time></trkpt>
        <trkpt lat="29.5507802" lon="103.3631945"><ele>1496.81</ele><time>2026-06-27T07:01:55.000Z</time></trkpt>
        <trkpt lat="29.5507876" lon="103.3631108"><ele>1499.69</ele><time>2026-06-27T07:02:21.000Z</time></trkpt>
        <trkpt lat="29.5507552" lon="103.3630143"><ele>1501.72</ele><time>2026-06-27T07:02:39.000Z</time></trkpt>
        <trkpt lat="29.5507445" lon="103.3630198"><ele>1503.4</ele><time>2026-06-27T07:02:47.000Z</time></trkpt>
        <trkpt lat="29.5507797" lon="103.3631014"><ele>1504.46</ele><time>2026-06-27T07:03:07.000Z</time></trkpt>
        <trkpt lat="29.5507922" lon="103.3631385"><ele>1505.29</ele><time>2026-06-27T07:03:15.000Z</time></trkpt>
        <trkpt lat="29.5507987" lon="103.3630611"><ele>1505.84</ele><time>2026-06-27T07:03:35.000Z</time></trkpt>
        <trkpt lat="29.5508353" lon="103.3629616"><ele>1507.7</ele><time>2026-06-27T07:04:11.000Z</time></trkpt>
        <trkpt lat="29.5508169" lon="103.3628554"><ele>1512.64</ele><time>2026-06-27T07:04:39.000Z</time></trkpt>
        <trkpt lat="29.5507356" lon="103.3627748"><ele>1516.06</ele><time>2026-06-27T07:04:49.000Z</time></trkpt>
        <trkpt lat="29.550635" lon="103.3627621"><ele>1518.16</ele><time>2026-06-27T07:05:13.000Z</time></trkpt>
        <trkpt lat="29.5506543" lon="103.362682"><ele>1519.84</ele><time>2026-06-27T07:06:23.000Z</time></trkpt>
        <trkpt lat="29.5506787" lon="103.3625757"><ele>1529.16</ele><time>2026-06-27T07:06:43.000Z</time></trkpt>
        <trkpt lat="29.5506124" lon="103.3624715"><ele>1538.12</ele><time>2026-06-27T07:07:45.000Z</time></trkpt>
        <trkpt lat="29.5506921" lon="103.3624165"><ele>1546.75</ele><time>2026-06-27T07:08:05.000Z</time></trkpt>
        <trkpt lat="29.5507134" lon="103.3623209"><ele>1551.95</ele><time>2026-06-27T07:08:31.000Z</time></trkpt>
        <trkpt lat="29.5506701" lon="103.3622363"><ele>1555.32</ele><time>2026-06-27T07:09:01.000Z</time></trkpt>
        <trkpt lat="29.5506108" lon="103.3621392"><ele>1557.4</ele><time>2026-06-27T07:09:19.000Z</time></trkpt>
        <trkpt lat="29.5505963" lon="103.3620187"><ele>1558.96</ele><time>2026-06-27T07:13:35.000Z</time></trkpt>
        <trkpt lat="29.5506229" lon="103.3619181"><ele>1561.17</ele><time>2026-06-27T07:13:51.000Z</time></trkpt>
        <trkpt lat="29.5505939" lon="103.3618223"><ele>1565.43</ele><time>2026-06-27T07:14:21.000Z</time></trkpt>
        <trkpt lat="29.5505496" lon="103.3617279"><ele>1568.81</ele><time>2026-06-27T07:14:39.000Z</time></trkpt>
        <trkpt lat="29.5504992" lon="103.3616357"><ele>1573.64</ele><time>2026-06-27T07:14:55.000Z</time></trkpt>
        <trkpt lat="29.5504304" lon="103.3615631"><ele>1579.68</ele><time>2026-06-27T07:15:15.000Z</time></trkpt>
        <trkpt lat="29.5503596" lon="103.3614919"><ele>1584.34</ele><time>2026-06-27T07:16:09.000Z</time></trkpt>
        <trkpt lat="29.5503013" lon="103.36141"><ele>1592.72</ele><time>2026-06-27T07:16:25.000Z</time></trkpt>
        <trkpt lat="29.5502443" lon="103.3613249"><ele>1598.06</ele><time>2026-06-27T07:16:51.000Z</time></trkpt>
        <trkpt lat="29.5501622" lon="103.3612708"><ele>1601.95</ele><time>2026-06-27T07:17:05.000Z</time></trkpt>
        <trkpt lat="29.5500805" lon="103.3612143"><ele>1604.7</ele><time>2026-06-27T07:17:25.000Z</time></trkpt>
        <trkpt lat="29.5499848" lon="103.3611779"><ele>1609.1</ele><time>2026-06-27T07:17:35.000Z</time></trkpt>
        <trkpt lat="29.5499203" lon="103.3610989"><ele>1612.09</ele><time>2026-06-27T07:17:55.000Z</time></trkpt>
        <trkpt lat="29.5499069" lon="103.3609917"><ele>1614.23</ele><time>2026-06-27T07:18:07.000Z</time></trkpt>
        <trkpt lat="29.5498653" lon="103.360899"><ele>1616.04</ele><time>2026-06-27T07:18:23.000Z</time></trkpt>
        <trkpt lat="29.5498389" lon="103.3607973"><ele>1618.08</ele><time>2026-06-27T07:18:37.000Z</time></trkpt>
        <trkpt lat="29.5498549" lon="103.3606863"><ele>1620.82</ele><time>2026-06-27T07:18:51.000Z</time></trkpt>
        <trkpt lat="29.5499021" lon="103.3605794"><ele>1622.56</ele><time>2026-06-27T07:19:03.000Z</time></trkpt>
        <trkpt lat="29.5499271" lon="103.3604729"><ele>1622.95</ele><time>2026-06-27T07:19:17.000Z</time></trkpt>
        <trkpt lat="29.5499426" lon="103.3603472"><ele>1622.72</ele><time>2026-06-27T07:19:25.000Z</time></trkpt>
        <trkpt lat="29.5499914" lon="103.3602459"><ele>1620.91</ele><time>2026-06-27T07:19:39.000Z</time></trkpt>
        <trkpt lat="29.5500651" lon="103.3601753"><ele>1619.6</ele><time>2026-06-27T07:19:53.000Z</time></trkpt>
        <trkpt lat="29.5501164" lon="103.3600891"><ele>1617.55</ele><time>2026-06-27T07:20:19.000Z</time></trkpt>
        <trkpt lat="29.550097" lon="103.3599905"><ele>1616.48</ele><time>2026-06-27T07:20:57.000Z</time></trkpt>
        <trkpt lat="29.5500373" lon="103.359892"><ele>1617.02</ele><time>2026-06-27T07:21:27.000Z</time></trkpt>
        <trkpt lat="29.5499826" lon="103.3597958"><ele>1618.53</ele><time>2026-06-27T07:21:53.000Z</time></trkpt>
        <trkpt lat="29.5499372" lon="103.3596914"><ele>1621.02</ele><time>2026-06-27T07:22:05.000Z</time></trkpt>
        <trkpt lat="29.5498763" lon="103.3595927"><ele>1624.56</ele><time>2026-06-27T07:22:45.000Z</time></trkpt>
        <trkpt lat="29.5498468" lon="103.3594828"><ele>1629.48</ele><time>2026-06-27T07:23:03.000Z</time></trkpt>
        <trkpt lat="29.5498366" lon="103.359374"><ele>1632.86</ele><time>2026-06-27T07:23:23.000Z</time></trkpt>
        <trkpt lat="29.5498887" lon="103.359292"><ele>1637.61</ele><time>2026-06-27T07:23:43.000Z</time></trkpt>
        <trkpt lat="29.5499722" lon="103.3592371"><ele>1641.27</ele><time>2026-06-27T07:23:59.000Z</time></trkpt>
        <trkpt lat="29.5500614" lon="103.3591725"><ele>1644.32</ele><time>2026-06-27T07:24:11.000Z</time></trkpt>
        <trkpt lat="29.5501667" lon="103.3591379"><ele>1646.68</ele><time>2026-06-27T07:24:25.000Z</time></trkpt>
        <trkpt lat="29.5502483" lon="103.3590749"><ele>1648.33</ele><time>2026-06-27T07:24:45.000Z</time></trkpt>
        <trkpt lat="29.5502363" lon="103.3589876"><ele>1649.8</ele><time>2026-06-27T07:24:57.000Z</time></trkpt>
        <trkpt lat="29.5502405" lon="103.3588732"><ele>1650.52</ele><time>2026-06-27T07:25:17.000Z</time></trkpt>
        <trkpt lat="29.5502192" lon="103.3587549"><ele>1651.29</ele><time>2026-06-27T07:25:35.000Z</time></trkpt>
        <trkpt lat="29.5502136" lon="103.3586414"><ele>1652.11</ele><time>2026-06-27T07:25:51.000Z</time></trkpt>
        <trkpt lat="29.5502402" lon="103.3585369"><ele>1653.03</ele><time>2026-06-27T07:26:15.000Z</time></trkpt>
        <trkpt lat="29.5503125" lon="103.3584794"><ele>1655.98</ele><time>2026-06-27T07:26:39.000Z</time></trkpt>
        <trkpt lat="29.550318" lon="103.3583929"><ele>1660.3</ele><time>2026-06-27T07:26:51.000Z</time></trkpt>
        <trkpt lat="29.5502712" lon="103.3582987"><ele>1663.75</ele><time>2026-06-27T07:27:03.000Z</time></trkpt>
        <trkpt lat="29.5502458" lon="103.3581871"><ele>1666.13</ele><time>2026-06-27T07:27:19.000Z</time></trkpt>
        <trkpt lat="29.5502617" lon="103.3580803"><ele>1667.84</ele><time>2026-06-27T07:27:29.000Z</time></trkpt>
        <trkpt lat="29.5502739" lon="103.3579741"><ele>1668.92</ele><time>2026-06-27T07:27:43.000Z</time></trkpt>
        <trkpt lat="29.5503004" lon="103.3578641"><ele>1670.16</ele><time>2026-06-27T07:28:01.000Z</time></trkpt>
        <trkpt lat="29.5503666" lon="103.3577932"><ele>1671.25</ele><time>2026-06-27T07:28:13.000Z</time></trkpt>
        <trkpt lat="29.5503712" lon="103.3577004"><ele>1673.09</ele><time>2026-06-27T07:28:31.000Z</time></trkpt>
        <trkpt lat="29.5503599" lon="103.3575865"><ele>1675.62</ele><time>2026-06-27T07:28:45.000Z</time></trkpt>
        <trkpt lat="29.5503512" lon="103.3574701"><ele>1677.1</ele><time>2026-06-27T07:28:59.000Z</time></trkpt>
        <trkpt lat="29.5503325" lon="103.3573567"><ele>1678.66</ele><time>2026-06-27T07:29:15.000Z</time></trkpt>
        <trkpt lat="29.5503376" lon="103.3572515"><ele>1679.7</ele><time>2026-06-27T07:29:33.000Z</time></trkpt>
        <trkpt lat="29.5503465" lon="103.3571314"><ele>1680.47</ele><time>2026-06-27T07:29:59.000Z</time></trkpt>
        <trkpt lat="29.5503031" lon="103.3570285"><ele>1681.98</ele><time>2026-06-27T07:30:07.000Z</time></trkpt>
        <trkpt lat="29.5502362" lon="103.3569401"><ele>1683.26</ele><time>2026-06-27T07:31:13.000Z</time></trkpt>
        <trkpt lat="29.550144" lon="103.356936"><ele>1686.48</ele><time>2026-06-27T07:31:33.000Z</time></trkpt>
        <trkpt lat="29.5500496" lon="103.3569215"><ele>1689.99</ele><time>2026-06-27T07:31:41.000Z</time></trkpt>
        <trkpt lat="29.5499537" lon="103.3569278"><ele>1692.41</ele><time>2026-06-27T07:38:31.000Z</time></trkpt>
        <trkpt lat="29.5500363" lon="103.3568588"><ele>1696.46</ele><time>2026-06-27T07:38:51.000Z</time></trkpt>
        <trkpt lat="29.5500449" lon="103.356945"><ele>1697.93</ele><time>2026-06-27T07:39:13.000Z</time></trkpt>
        <trkpt lat="29.5500449" lon="103.3568624"><ele>1698.93</ele><time>2026-06-27T07:44:01.000Z</time></trkpt>
        <trkpt lat="29.5499574" lon="103.3568881"><ele>1700.15</ele><time>2026-06-27T07:49:41.000Z</time></trkpt>
        <trkpt lat="29.5498748" lon="103.3569462"><ele>1701.45</ele><time>2026-06-27T07:49:51.000Z</time></trkpt>
        <trkpt lat="29.5497795" lon="103.3568944"><ele>1701.89</ele><time>2026-06-27T07:50:05.000Z</time></trkpt>
        <trkpt lat="29.5496878" lon="103.3568331"><ele>1701.88</ele><time>2026-06-27T07:50:13.000Z</time></trkpt>
        <trkpt lat="29.5496135" lon="103.3568744"><ele>1701.65</ele><time>2026-06-27T07:50:25.000Z</time></trkpt>
        <trkpt lat="29.5496082" lon="103.3569817"><ele>1701.01</ele><time>2026-06-27T07:50:35.000Z</time></trkpt>
        <trkpt lat="29.5495752" lon="103.3570839"><ele>1700.43</ele><time>2026-06-27T07:50:49.000Z</time></trkpt>
        <trkpt lat="29.5495869" lon="103.3571972"><ele>1700.46</ele><time>2026-06-27T07:50:59.000Z</time></trkpt>
        <trkpt lat="29.5495503" lon="103.3571561"><ele>1700.56</ele><time>2026-06-27T07:51:55.000Z</time></trkpt>
        <trkpt lat="29.5495322" lon="103.3571119"><ele>1700.56</ele><time>2026-06-27T07:52:03.000Z</time></trkpt>
        <trkpt lat="29.5495433" lon="103.3570128"><ele>1700.51</ele><time>2026-06-27T07:52:15.000Z</time></trkpt>
        <trkpt lat="29.5493217" lon="103.3569859"><ele>1700.33</ele><time>2026-06-27T07:52:32.000Z</time></trkpt>
        <trkpt lat="29.5493119" lon="103.3569826"><ele>1701.53</ele><time>2026-06-27T07:52:54.000Z</time></trkpt>
        <trkpt lat="29.5493697" lon="103.3570434"><ele>1702.63</ele><time>2026-06-27T07:53:06.000Z</time></trkpt>
        <trkpt lat="29.5494138" lon="103.3570966"><ele>1703.99</ele><time>2026-06-27T07:53:18.000Z</time></trkpt>
        <trkpt lat="29.5493689" lon="103.3570592"><ele>1705.31</ele><time>2026-06-27T07:53:28.000Z</time></trkpt>
        <trkpt lat="29.5493462" lon="103.35703"><ele>1706.43</ele><time>2026-06-27T07:53:30.000Z</time></trkpt>
        <trkpt lat="29.5493851" lon="103.3569555"><ele>1707.06</ele><time>2026-06-27T07:53:34.000Z</time></trkpt>
        <trkpt lat="29.5495465" lon="103.3570717"><ele>1707.4</ele><time>2026-06-27T07:53:42.000Z</time></trkpt>
        <trkpt lat="29.5496372" lon="103.3571203"><ele>1705.84</ele><time>2026-06-27T07:53:46.000Z</time></trkpt>
        <trkpt lat="29.5496842" lon="103.3570509"><ele>1705.62</ele><time>2026-06-27T07:53:58.000Z</time></trkpt>
        <trkpt lat="29.5496644" lon="103.3569371"><ele>1705.7</ele><time>2026-06-27T07:54:08.000Z</time></trkpt>
        <trkpt lat="29.5497055" lon="103.3568538"><ele>1705.16</ele><time>2026-06-27T07:54:22.000Z</time></trkpt>
        <trkpt lat="29.5497786" lon="103.3568908"><ele>1704.1</ele><time>2026-06-27T07:54:30.000Z</time></trkpt>
        <trkpt lat="29.5498732" lon="103.3569364"><ele>1703.42</ele><time>2026-06-27T07:54:38.000Z</time></trkpt>
        <trkpt lat="29.5499589" lon="103.3569093"><ele>1702.68</ele><time>2026-06-27T07:54:58.000Z</time></trkpt>
        <trkpt lat="29.549989" lon="103.3568093"><ele>1701.82</ele><time>2026-06-27T07:55:10.000Z</time></trkpt>
        <trkpt lat="29.5499647" lon="103.3566929"><ele>1700.94</ele><time>2026-06-27T07:55:18.000Z</time></trkpt>
        <trkpt lat="29.5499431" lon="103.3565732"><ele>1699.85</ele><time>2026-06-27T07:55:26.000Z</time></trkpt>
        <trkpt lat="29.5499756" lon="103.3564642"><ele>1698.61</ele><time>2026-06-27T07:55:36.000Z</time></trkpt>
        <trkpt lat="29.5500304" lon="103.3563628"><ele>1697.64</ele><time>2026-06-27T07:55:56.000Z</time></trkpt>
        <trkpt lat="29.5501043" lon="103.3562755"><ele>1696.16</ele><time>2026-06-27T07:56:08.000Z</time></trkpt>
        <trkpt lat="29.550155" lon="103.3561827"><ele>1694.63</ele><time>2026-06-27T07:56:18.000Z</time></trkpt>
        <trkpt lat="29.5501705" lon="103.3560701"><ele>1692.6</ele><time>2026-06-27T07:56:28.000Z</time></trkpt>
        <trkpt lat="29.5501909" lon="103.3559595"><ele>1691.05</ele><time>2026-06-27T07:56:36.000Z</time></trkpt>
        <trkpt lat="29.5502293" lon="103.3558535"><ele>1689.85</ele><time>2026-06-27T07:56:46.000Z</time></trkpt>
        <trkpt lat="29.5502904" lon="103.3557598"><ele>1687.9</ele><time>2026-06-27T07:56:58.000Z</time></trkpt>
        <trkpt lat="29.5503859" lon="103.3557436"><ele>1686.5</ele><time>2026-06-27T07:57:06.000Z</time></trkpt>
        <trkpt lat="29.5504921" lon="103.3557489"><ele>1685.5</ele><time>2026-06-27T07:57:16.000Z</time></trkpt>
        <trkpt lat="29.5505924" lon="103.3557661"><ele>1684.6</ele><time>2026-06-27T07:57:26.000Z</time></trkpt>
        <trkpt lat="29.5506914" lon="103.3557739"><ele>1683.78</ele><time>2026-06-27T07:57:36.000Z</time></trkpt>
        <trkpt lat="29.5507805" lon="103.3557454"><ele>1683.06</ele><time>2026-06-27T07:57:46.000Z</time></trkpt>
        <trkpt lat="29.5508661" lon="103.3557065"><ele>1682.51</ele><time>2026-06-27T07:57:54.000Z</time></trkpt>
        <trkpt lat="29.5509562" lon="103.3556643"><ele>1681.45</ele><time>2026-06-27T07:58:06.000Z</time></trkpt>
        <trkpt lat="29.551046" lon="103.355612"><ele>1680.2</ele><time>2026-06-27T07:58:18.000Z</time></trkpt>
        <trkpt lat="29.5511342" lon="103.3555654"><ele>1678.84</ele><time>2026-06-27T07:58:28.000Z</time></trkpt>
        <trkpt lat="29.5512089" lon="103.3555043"><ele>1677.37</ele><time>2026-06-27T07:58:40.000Z</time></trkpt>
        <trkpt lat="29.5512535" lon="103.3554143"><ele>1676.48</ele><time>2026-06-27T07:58:54.000Z</time></trkpt>
        <trkpt lat="29.5513047" lon="103.3553238"><ele>1673.77</ele><time>2026-06-27T07:59:08.000Z</time></trkpt>
        <trkpt lat="29.5513557" lon="103.3552323"><ele>1670.29</ele><time>2026-06-27T07:59:24.000Z</time></trkpt>
        <trkpt lat="29.5514081" lon="103.3551392"><ele>1666.18</ele><time>2026-06-27T07:59:46.000Z</time></trkpt>
        <trkpt lat="29.5514623" lon="103.3550431"><ele>1662.72</ele><time>2026-06-27T08:00:06.000Z</time></trkpt>
        <trkpt lat="29.5514839" lon="103.3549328"><ele>1659.87</ele><time>2026-06-27T08:00:16.000Z</time></trkpt>
        <trkpt lat="29.5515487" lon="103.3548318"><ele>1658.21</ele><time>2026-06-27T08:01:28.000Z</time></trkpt>
        <trkpt lat="29.5515803" lon="103.3547229"><ele>1655.56</ele><time>2026-06-27T08:01:38.000Z</time></trkpt>
        <trkpt lat="29.5516291" lon="103.354619"><ele>1653.25</ele><time>2026-06-27T08:01:50.000Z</time></trkpt>
        <trkpt lat="29.5516997" lon="103.3545375"><ele>1651.53</ele><time>2026-06-27T08:02:00.000Z</time></trkpt>
        <trkpt lat="29.5517835" lon="103.3544688"><ele>1650.5</ele><time>2026-06-27T08:02:14.000Z</time></trkpt>
        <trkpt lat="29.5518105" lon="103.3543668"><ele>1649.33</ele><time>2026-06-27T08:02:28.000Z</time></trkpt>
        <trkpt lat="29.5518231" lon="103.354254"><ele>1647.98</ele><time>2026-06-27T08:02:38.000Z</time></trkpt>
        <trkpt lat="29.5518899" lon="103.3541938"><ele>1647.15</ele><time>2026-06-27T08:02:50.000Z</time></trkpt>
        <trkpt lat="29.5519183" lon="103.3540973"><ele>1646.07</ele><time>2026-06-27T08:03:02.000Z</time></trkpt>
        <trkpt lat="29.5518889" lon="103.3539936"><ele>1644.51</ele><time>2026-06-27T08:03:12.000Z</time></trkpt>
        <trkpt lat="29.5518414" lon="103.3538959"><ele>1643.39</ele><time>2026-06-27T08:03:20.000Z</time></trkpt>
        <trkpt lat="29.5517854" lon="103.3538056"><ele>1642.59</ele><time>2026-06-27T08:03:28.000Z</time></trkpt>
        <trkpt lat="29.5517231" lon="103.3537243"><ele>1642.01</ele><time>2026-06-27T08:03:36.000Z</time></trkpt>
        <trkpt lat="29.5516713" lon="103.3536321"><ele>1641.38</ele><time>2026-06-27T08:03:44.000Z</time></trkpt>
        <trkpt lat="29.5516477" lon="103.3535231"><ele>1641.49</ele><time>2026-06-27T08:03:54.000Z</time></trkpt>
        <trkpt lat="29.5516883" lon="103.3534141"><ele>1641.44</ele><time>2026-06-27T08:04:04.000Z</time></trkpt>
        <trkpt lat="29.5517401" lon="103.3533174"><ele>1640.49</ele><time>2026-06-27T08:04:12.000Z</time></trkpt>
        <trkpt lat="29.5517876" lon="103.3532068"><ele>1639.44</ele><time>2026-06-27T08:04:22.000Z</time></trkpt>
        <trkpt lat="29.5518168" lon="103.3530969"><ele>1638.06</ele><time>2026-06-27T08:04:34.000Z</time></trkpt>
        <trkpt lat="29.5518539" lon="103.3529946"><ele>1636.69</ele><time>2026-06-27T08:04:48.000Z</time></trkpt>
        <trkpt lat="29.5518959" lon="103.3528886"><ele>1635.44</ele><time>2026-06-27T08:05:04.000Z</time></trkpt>
        <trkpt lat="29.5519396" lon="103.3527858"><ele>1633.85</ele><time>2026-06-27T08:05:20.000Z</time></trkpt>
        <trkpt lat="29.5520209" lon="103.3527734"><ele>1632.34</ele><time>2026-06-27T08:05:56.000Z</time></trkpt>
        <trkpt lat="29.5521194" lon="103.3527759"><ele>1628.25</ele><time>2026-06-27T08:06:10.000Z</time></trkpt>
        <trkpt lat="29.5522181" lon="103.3527927"><ele>1624.03</ele><time>2026-06-27T08:06:20.000Z</time></trkpt>
        <trkpt lat="29.5522707" lon="103.3527206"><ele>1618.29</ele><time>2026-06-27T08:06:40.000Z</time></trkpt>
        <trkpt lat="29.5522204" lon="103.3526374"><ele>1611.54</ele><time>2026-06-27T08:06:54.000Z</time></trkpt>
        <trkpt lat="29.552159" lon="103.3525435"><ele>1606.24</ele><time>2026-06-27T08:07:02.000Z</time></trkpt>
        <trkpt lat="29.5521728" lon="103.3524324"><ele>1601.94</ele><time>2026-06-27T08:07:14.000Z</time></trkpt>
        <trkpt lat="29.5522185" lon="103.352334"><ele>1598.66</ele><time>2026-06-27T08:07:38.000Z</time></trkpt>
        <trkpt lat="29.5523139" lon="103.3522902"><ele>1592.49</ele><time>2026-06-27T08:07:56.000Z</time></trkpt>
        <trkpt lat="29.552413" lon="103.3522992"><ele>1588.1</ele><time>2026-06-27T08:08:06.000Z</time></trkpt>
        <trkpt lat="29.552476" lon="103.3523817"><ele>1584.35</ele><time>2026-06-27T08:08:20.000Z</time></trkpt>
        <trkpt lat="29.55256" lon="103.3523879"><ele>1581.39</ele><time>2026-06-27T08:08:36.000Z</time></trkpt>
        <trkpt lat="29.5526212" lon="103.3523126"><ele>1580.87</ele><time>2026-06-27T08:08:50.000Z</time></trkpt>
        <trkpt lat="29.5527091" lon="103.3522637"><ele>1580.66</ele><time>2026-06-27T08:09:06.000Z</time></trkpt>
        <trkpt lat="29.5528018" lon="103.3522737"><ele>1581.86</ele><time>2026-06-27T08:09:20.000Z</time></trkpt>
        <trkpt lat="29.5528901" lon="103.3523265"><ele>1581.87</ele><time>2026-06-27T08:09:34.000Z</time></trkpt>
        <trkpt lat="29.5529044" lon="103.3524541"><ele>1581.92</ele><time>2026-06-27T08:09:44.000Z</time></trkpt>
        <trkpt lat="29.552944" lon="103.3525869"><ele>1582.21</ele><time>2026-06-27T08:09:52.000Z</time></trkpt>
        <trkpt lat="29.5530195" lon="103.3526699"><ele>1582.75</ele><time>2026-06-27T08:10:02.000Z</time></trkpt>
        <trkpt lat="29.5531213" lon="103.3526618"><ele>1583.54</ele><time>2026-06-27T08:10:10.000Z</time></trkpt>
        <trkpt lat="29.5532194" lon="103.3526509"><ele>1584.82</ele><time>2026-06-27T08:10:18.000Z</time></trkpt>
        <trkpt lat="29.5533163" lon="103.3526271"><ele>1586.39</ele><time>2026-06-27T08:10:28.000Z</time></trkpt>
        <trkpt lat="29.5534" lon="103.3525617"><ele>1586.46</ele><time>2026-06-27T08:10:38.000Z</time></trkpt>
        <trkpt lat="29.5534854" lon="103.3525113"><ele>1585.66</ele><time>2026-06-27T08:10:50.000Z</time></trkpt>
        <trkpt lat="29.5534112" lon="103.352591"><ele>1584.72</ele><time>2026-06-27T08:13:34.000Z</time></trkpt>
        <trkpt lat="29.5534977" lon="103.3525306"><ele>1583.95</ele><time>2026-06-27T08:14:16.000Z</time></trkpt>
        <trkpt lat="29.553598" lon="103.3524969"><ele>1582.63</ele><time>2026-06-27T08:14:24.000Z</time></trkpt>
        <trkpt lat="29.5536975" lon="103.3524453"><ele>1581.88</ele><time>2026-06-27T08:14:34.000Z</time></trkpt>
        <trkpt lat="29.553813" lon="103.3524275"><ele>1581.09</ele><time>2026-06-27T08:14:42.000Z</time></trkpt>
        <trkpt lat="29.5538647" lon="103.3525143"><ele>1580.72</ele><time>2026-06-27T08:14:56.000Z</time></trkpt>
        <trkpt lat="29.5539195" lon="103.3526253"><ele>1581.97</ele><time>2026-06-27T08:16:30.000Z</time></trkpt>
        <trkpt lat="29.5540135" lon="103.3525976"><ele>1582.67</ele><time>2026-06-27T08:16:40.000Z</time></trkpt>
        <trkpt lat="29.5541119" lon="103.3525758"><ele>1582.72</ele><time>2026-06-27T08:17:04.000Z</time></trkpt>
        <trkpt lat="29.5541868" lon="103.3526252"><ele>1583.23</ele><time>2026-06-27T08:17:14.000Z</time></trkpt>
        <trkpt lat="29.5542612" lon="103.3526853"><ele>1583.73</ele><time>2026-06-27T08:17:26.000Z</time></trkpt>
        <trkpt lat="29.5543556" lon="103.3527127"><ele>1584.22</ele><time>2026-06-27T08:17:36.000Z</time></trkpt>
        <trkpt lat="29.5544017" lon="103.3528062"><ele>1584.76</ele><time>2026-06-27T08:17:52.000Z</time></trkpt>
        <trkpt lat="29.5544088" lon="103.3529268"><ele>1585.26</ele><time>2026-06-27T08:18:00.000Z</time></trkpt>
        <trkpt lat="29.5544338" lon="103.3530405"><ele>1585.63</ele><time>2026-06-27T08:18:10.000Z</time></trkpt>
        <trkpt lat="29.5544692" lon="103.3531503"><ele>1586.12</ele><time>2026-06-27T08:18:24.000Z</time></trkpt>
        <trkpt lat="29.5545466" lon="103.3531948"><ele>1587.47</ele><time>2026-06-27T08:18:42.000Z</time></trkpt>
        <trkpt lat="29.5545959" lon="103.3532765"><ele>1588.92</ele><time>2026-06-27T08:18:56.000Z</time></trkpt>
        <trkpt lat="29.5545719" lon="103.3533747"><ele>1590.4</ele><time>2026-06-27T08:19:12.000Z</time></trkpt>
        <trkpt lat="29.5545594" lon="103.3534934"><ele>1592.52</ele><time>2026-06-27T08:19:32.000Z</time></trkpt>
        <trkpt lat="29.5545703" lon="103.3536024"><ele>1595.34</ele><time>2026-06-27T08:19:44.000Z</time></trkpt>
        <trkpt lat="29.5546374" lon="103.3536679"><ele>1597.18</ele><time>2026-06-27T08:19:50.000Z</time></trkpt>
        <trkpt lat="29.5547324" lon="103.3537002"><ele>1598.56</ele><time>2026-06-27T08:19:58.000Z</time></trkpt>
        <trkpt lat="29.5548433" lon="103.3537173"><ele>1599.35</ele><time>2026-06-27T08:20:10.000Z</time></trkpt>
        <trkpt lat="29.55494" lon="103.3536755"><ele>1599.49</ele><time>2026-06-27T08:20:30.000Z</time></trkpt>
        <trkpt lat="29.5550309" lon="103.3536154"><ele>1599.73</ele><time>2026-06-27T08:20:38.000Z</time></trkpt>
        <trkpt lat="29.5551174" lon="103.3535363"><ele>1600.89</ele><time>2026-06-27T08:20:52.000Z</time></trkpt>
        <trkpt lat="29.5551919" lon="103.3534597"><ele>1601.7</ele><time>2026-06-27T08:21:08.000Z</time></trkpt>
        <trkpt lat="29.5552859" lon="103.3534274"><ele>1601.91</ele><time>2026-06-27T08:21:20.000Z</time></trkpt>
        <trkpt lat="29.5553814" lon="103.3534051"><ele>1601.97</ele><time>2026-06-27T08:21:30.000Z</time></trkpt>
        <trkpt lat="29.5554801" lon="103.3533936"><ele>1601.73</ele><time>2026-06-27T08:21:42.000Z</time></trkpt>
        <trkpt lat="29.5555767" lon="103.3533719"><ele>1601.17</ele><time>2026-06-27T08:21:54.000Z</time></trkpt>
        <trkpt lat="29.5556804" lon="103.3533638"><ele>1599.49</ele><time>2026-06-27T08:22:04.000Z</time></trkpt>
        <trkpt lat="29.5557805" lon="103.353361"><ele>1597.23</ele><time>2026-06-27T08:22:12.000Z</time></trkpt>
        <trkpt lat="29.5558672" lon="103.3533972"><ele>1595.01</ele><time>2026-06-27T08:22:20.000Z</time></trkpt>
        <trkpt lat="29.5559466" lon="103.3534533"><ele>1592.79</ele><time>2026-06-27T08:22:28.000Z</time></trkpt>
        <trkpt lat="29.5560381" lon="103.3534859"><ele>1591.26</ele><time>2026-06-27T08:22:38.000Z</time></trkpt>
        <trkpt lat="29.556132" lon="103.3534925"><ele>1589.74</ele><time>2026-06-27T08:22:52.000Z</time></trkpt>
        <trkpt lat="29.556223" lon="103.3534825"><ele>1588.28</ele><time>2026-06-27T08:23:04.000Z</time></trkpt>
        <trkpt lat="29.556299" lon="103.3534203"><ele>1587.63</ele><time>2026-06-27T08:23:14.000Z</time></trkpt>
        <trkpt lat="29.5563694" lon="103.3533272"><ele>1587.16</ele><time>2026-06-27T08:23:26.000Z</time></trkpt>
        <trkpt lat="29.5564425" lon="103.3532308"><ele>1586.95</ele><time>2026-06-27T08:23:36.000Z</time></trkpt>
        <trkpt lat="29.5565084" lon="103.3531473"><ele>1586.69</ele><time>2026-06-27T08:23:44.000Z</time></trkpt>
        <trkpt lat="29.5565803" lon="103.3530818"><ele>1585.81</ele><time>2026-06-27T08:23:52.000Z</time></trkpt>
        <trkpt lat="29.5566721" lon="103.353031"><ele>1585.59</ele><time>2026-06-27T08:24:02.000Z</time></trkpt>
        <trkpt lat="29.5567611" lon="103.3529689"><ele>1585.86</ele><time>2026-06-27T08:24:14.000Z</time></trkpt>
        <trkpt lat="29.5568306" lon="103.3528789"><ele>1585.36</ele><time>2026-06-27T08:24:24.000Z</time></trkpt>
        <trkpt lat="29.556883" lon="103.3527679"><ele>1584.5</ele><time>2026-06-27T08:24:34.000Z</time></trkpt>
        <trkpt lat="29.5569423" lon="103.3526728"><ele>1583.17</ele><time>2026-06-27T08:24:44.000Z</time></trkpt>
        <trkpt lat="29.5570156" lon="103.3526086"><ele>1582.45</ele><time>2026-06-27T08:24:54.000Z</time></trkpt>
        <trkpt lat="29.5570924" lon="103.3525309"><ele>1582.18</ele><time>2026-06-27T08:25:08.000Z</time></trkpt>
        <trkpt lat="29.5571731" lon="103.3524745"><ele>1580.7</ele><time>2026-06-27T08:25:22.000Z</time></trkpt>
        <trkpt lat="29.5572371" lon="103.3524019"><ele>1579.23</ele><time>2026-06-27T08:25:32.000Z</time></trkpt>
        <trkpt lat="29.5572918" lon="103.3523121"><ele>1577.79</ele><time>2026-06-27T08:25:46.000Z</time></trkpt>
        <trkpt lat="29.5573678" lon="103.3522266"><ele>1576.03</ele><time>2026-06-27T08:25:54.000Z</time></trkpt>
        <trkpt lat="29.5574439" lon="103.3521454"><ele>1573.81</ele><time>2026-06-27T08:26:06.000Z</time></trkpt>
        <trkpt lat="29.5575079" lon="103.3520478"><ele>1572.03</ele><time>2026-06-27T08:26:18.000Z</time></trkpt>
        <trkpt lat="29.5575323" lon="103.3519314"><ele>1570.28</ele><time>2026-06-27T08:26:28.000Z</time></trkpt>
        <trkpt lat="29.5575485" lon="103.3518168"><ele>1569.07</ele><time>2026-06-27T08:26:44.000Z</time></trkpt>
        <trkpt lat="29.5575843" lon="103.3517179"><ele>1567.52</ele><time>2026-06-27T08:26:58.000Z</time></trkpt>
        <trkpt lat="29.5576256" lon="103.3516132"><ele>1565.71</ele><time>2026-06-27T08:27:14.000Z</time></trkpt>
        <trkpt lat="29.5576801" lon="103.3515244"><ele>1565.09</ele><time>2026-06-27T08:27:28.000Z</time></trkpt>
        <trkpt lat="29.5577747" lon="103.3515322"><ele>1564.47</ele><time>2026-06-27T08:27:52.000Z</time></trkpt>
        <trkpt lat="29.5578774" lon="103.3515683"><ele>1561.64</ele><time>2026-06-27T08:28:02.000Z</time></trkpt>
        <trkpt lat="29.5579816" lon="103.3516048"><ele>1559.47</ele><time>2026-06-27T08:28:16.000Z</time></trkpt>
        <trkpt lat="29.5580911" lon="103.351618"><ele>1557.92</ele><time>2026-06-27T08:28:30.000Z</time></trkpt>
        <trkpt lat="29.5581755" lon="103.3515715"><ele>1557.08</ele><time>2026-06-27T08:28:38.000Z</time></trkpt>
        <trkpt lat="29.5582673" lon="103.3515237"><ele>1555.94</ele><time>2026-06-27T08:28:50.000Z</time></trkpt>
        <trkpt lat="29.5583515" lon="103.351461"><ele>1554.42</ele><time>2026-06-27T08:29:02.000Z</time></trkpt>
        <trkpt lat="29.5584465" lon="103.3514274"><ele>1552.87</ele><time>2026-06-27T08:29:10.000Z</time></trkpt>
        <trkpt lat="29.5585357" lon="103.3513712"><ele>1551.37</ele><time>2026-06-27T08:29:18.000Z</time></trkpt>
        <trkpt lat="29.5586129" lon="103.3512957"><ele>1549.46</ele><time>2026-06-27T08:29:28.000Z</time></trkpt>
        <trkpt lat="29.5587044" lon="103.3512364"><ele>1547.31</ele><time>2026-06-27T08:29:40.000Z</time></trkpt>
        <trkpt lat="29.5587906" lon="103.3511769"><ele>1545.53</ele><time>2026-06-27T08:29:48.000Z</time></trkpt>
        <trkpt lat="29.5588823" lon="103.3511146"><ele>1543.56</ele><time>2026-06-27T08:29:56.000Z</time></trkpt>
        <trkpt lat="29.5589718" lon="103.3510435"><ele>1541.89</ele><time>2026-06-27T08:30:06.000Z</time></trkpt>
        <trkpt lat="29.5590437" lon="103.3509504"><ele>1541.15</ele><time>2026-06-27T08:30:16.000Z</time></trkpt>
        <trkpt lat="29.5591282" lon="103.3508741"><ele>1540.63</ele><time>2026-06-27T08:30:26.000Z</time></trkpt>
        <trkpt lat="29.5592215" lon="103.3508238"><ele>1540.48</ele><time>2026-06-27T08:30:38.000Z</time></trkpt>
        <trkpt lat="29.5593105" lon="103.3507755"><ele>1539.95</ele><time>2026-06-27T08:30:48.000Z</time></trkpt>
        <trkpt lat="29.5593951" lon="103.3507177"><ele>1539.27</ele><time>2026-06-27T08:31:00.000Z</time></trkpt>
        <trkpt lat="29.5594804" lon="103.3506464"><ele>1538.29</ele><time>2026-06-27T08:31:16.000Z</time></trkpt>
        <trkpt lat="29.5595772" lon="103.35059"><ele>1537.67</ele><time>2026-06-27T08:31:32.000Z</time></trkpt>
        <trkpt lat="29.5596604" lon="103.3505215"><ele>1536.94</ele><time>2026-06-27T08:31:46.000Z</time></trkpt>
        <trkpt lat="29.5597419" lon="103.3504563"><ele>1536.28</ele><time>2026-06-27T08:32:00.000Z</time></trkpt>
        <trkpt lat="29.5598245" lon="103.3504039"><ele>1535.99</ele><time>2026-06-27T08:32:28.000Z</time></trkpt>
        <trkpt lat="29.55992" lon="103.3503673"><ele>1535.96</ele><time>2026-06-27T08:33:16.000Z</time></trkpt>
        <trkpt lat="29.5600061" lon="103.3503953"><ele>1536.03</ele><time>2026-06-27T08:33:28.000Z</time></trkpt>
        <trkpt lat="29.5600764" lon="103.350504"><ele>1535.98</ele><time>2026-06-27T08:34:40.000Z</time></trkpt>
        <trkpt lat="29.5601378" lon="103.3505809"><ele>1536.48</ele><time>2026-06-27T08:35:22.000Z</time></trkpt>
        <trkpt lat="29.5601788" lon="103.3506785"><ele>1539.14</ele><time>2026-06-27T08:35:32.000Z</time></trkpt>
        <trkpt lat="29.5602029" lon="103.3507872"><ele>1541.13</ele><time>2026-06-27T08:36:32.000Z</time></trkpt>
        <trkpt lat="29.5602162" lon="103.3508962"><ele>1545.17</ele><time>2026-06-27T08:36:52.000Z</time></trkpt>
        <trkpt lat="29.5602155" lon="103.3510213"><ele>1548.4</ele><time>2026-06-27T08:37:18.000Z</time></trkpt>
        <trkpt lat="29.560209" lon="103.3511369"><ele>1553.81</ele><time>2026-06-27T08:37:34.000Z</time></trkpt>
        <trkpt lat="29.5602758" lon="103.351192"><ele>1558.61</ele><time>2026-06-27T08:38:16.000Z</time></trkpt>
        <trkpt lat="29.5603687" lon="103.3511927"><ele>1570.32</ele><time>2026-06-27T08:38:30.000Z</time></trkpt>
        <trkpt lat="29.5604693" lon="103.3511676"><ele>1576.56</ele><time>2026-06-27T08:39:12.000Z</time></trkpt>
        <trkpt lat="29.5605274" lon="103.3512238"><ele>1579.44</ele><time>2026-06-27T08:39:46.000Z</time></trkpt>
        <trkpt lat="29.5605886" lon="103.3511843"><ele>1581.75</ele><time>2026-06-27T08:40:10.000Z</time></trkpt>
        <trkpt lat="29.5605944" lon="103.3512477"><ele>1588.22</ele><time>2026-06-27T08:40:52.000Z</time></trkpt>
        <trkpt lat="29.560661" lon="103.3513043"><ele>1595.12</ele><time>2026-06-27T08:41:58.000Z</time></trkpt>
        <trkpt lat="29.5606137" lon="103.3513936"><ele>1604.81</ele><time>2026-06-27T08:42:36.000Z</time></trkpt>
        <trkpt lat="29.5605469" lon="103.3514813"><ele>1613.97</ele><time>2026-06-27T08:42:52.000Z</time></trkpt>
        <trkpt lat="29.5604989" lon="103.3515756"><ele>1620.59</ele><time>2026-06-27T08:43:00.000Z</time></trkpt>
        <trkpt lat="29.5605406" lon="103.3516505"><ele>1625.01</ele><time>2026-06-27T08:43:46.000Z</time></trkpt>
        <trkpt lat="29.5606136" lon="103.3516124"><ele>1632.78</ele><time>2026-06-27T08:44:22.000Z</time></trkpt>
        <trkpt lat="29.5607139" lon="103.3515866"><ele>1640.2</ele><time>2026-06-27T08:44:44.000Z</time></trkpt>
        <trkpt lat="29.5608114" lon="103.3515501"><ele>1644.81</ele><time>2026-06-27T08:45:02.000Z</time></trkpt>
        <trkpt lat="29.5606854" lon="103.351927"><ele>1648.4</ele><time>2026-06-27T08:50:12.000Z</time></trkpt>
        <trkpt lat="29.5607196" lon="103.3518623"><ele>1650.18</ele><time>2026-06-27T08:50:18.000Z</time></trkpt>
        <trkpt lat="29.5608467" lon="103.3516099"><ele>1651.42</ele><time>2026-06-27T08:50:26.000Z</time></trkpt>
        <trkpt lat="29.560878" lon="103.3515455"><ele>1652.29</ele><time>2026-06-27T08:50:38.000Z</time></trkpt>
        <trkpt lat="29.5608066" lon="103.3515105"><ele>1652.78</ele><time>2026-06-27T08:50:56.000Z</time></trkpt>
        <trkpt lat="29.5608008" lon="103.3515447"><ele>1653.07</ele><time>2026-06-27T08:51:04.000Z</time></trkpt>
        <trkpt lat="29.5608339" lon="103.3514751"><ele>1653.23</ele><time>2026-06-27T08:51:26.000Z</time></trkpt>
        <trkpt lat="29.5609204" lon="103.3514729"><ele>1653.32</ele><time>2026-06-27T08:51:52.000Z</time></trkpt>
        <trkpt lat="29.560939" lon="103.3515559"><ele>1653.37</ele><time>2026-06-27T08:52:42.000Z</time></trkpt>
        <trkpt lat="29.5610097" lon="103.3516036"><ele>1654.62</ele><time>2026-06-27T08:53:10.000Z</time></trkpt>
        <trkpt lat="29.5611037" lon="103.3516305"><ele>1656.37</ele><time>2026-06-27T08:53:40.000Z</time></trkpt>
        <trkpt lat="29.5612141" lon="103.3516541"><ele>1658.02</ele><time>2026-06-27T08:54:00.000Z</time></trkpt>
        <trkpt lat="29.5613221" lon="103.3516878"><ele>1659.43</ele><time>2026-06-27T08:54:22.000Z</time></trkpt>
        <trkpt lat="29.5613683" lon="103.3517919"><ele>1661.4</ele><time>2026-06-27T08:55:24.000Z</time></trkpt>
        <trkpt lat="29.5614009" lon="103.3518926"><ele>1663.54</ele><time>2026-06-27T08:56:16.000Z</time></trkpt>
        <trkpt lat="29.5614633" lon="103.3519718"><ele>1666.35</ele><time>2026-06-27T08:56:40.000Z</time></trkpt>
        <trkpt lat="29.5615506" lon="103.352018"><ele>1670.21</ele><time>2026-06-27T08:57:22.000Z</time></trkpt>
        <trkpt lat="29.5616394" lon="103.3520654"><ele>1674.84</ele><time>2026-06-27T08:57:44.000Z</time></trkpt>
        <trkpt lat="29.5617277" lon="103.3521038"><ele>1678.59</ele><time>2026-06-27T08:58:04.000Z</time></trkpt>
        <trkpt lat="29.5617433" lon="103.3521898"><ele>1682.25</ele><time>2026-06-27T08:58:40.000Z</time></trkpt>
        <trkpt lat="29.5617941" lon="103.3522619"><ele>1687.24</ele><time>2026-06-27T08:59:22.000Z</time></trkpt>
        <trkpt lat="29.5618649" lon="103.3523204"><ele>1691.14</ele><time>2026-06-27T08:59:36.000Z</time></trkpt>
        <trkpt lat="29.5619591" lon="103.3523645"><ele>1694.07</ele><time>2026-06-27T08:59:48.000Z</time></trkpt>
        <trkpt lat="29.5620382" lon="103.3523088"><ele>1696.47</ele><time>2026-06-27T09:00:06.000Z</time></trkpt>
        <trkpt lat="29.5621277" lon="103.3523238"><ele>1701.15</ele><time>2026-06-27T09:00:22.000Z</time></trkpt>
        <trkpt lat="29.562219" lon="103.3523129"><ele>1706.02</ele><time>2026-06-27T09:00:50.000Z</time></trkpt>
        <trkpt lat="29.5622989" lon="103.3522636"><ele>1709.02</ele><time>2026-06-27T09:01:08.000Z</time></trkpt>
        <trkpt lat="29.5624096" lon="103.3522994"><ele>1714.86</ele><time>2026-06-27T09:01:38.000Z</time></trkpt>
        <trkpt lat="29.5625163" lon="103.3523077"><ele>1719.35</ele><time>2026-06-27T09:02:24.000Z</time></trkpt>
        <trkpt lat="29.5626131" lon="103.3523365"><ele>1726.82</ele><time>2026-06-27T09:02:56.000Z</time></trkpt>
        <trkpt lat="29.5626714" lon="103.3522614"><ele>1737.52</ele><time>2026-06-27T09:03:16.000Z</time></trkpt>
        <trkpt lat="29.5626401" lon="103.3521649"><ele>1744.68</ele><time>2026-06-27T09:03:22.000Z</time></trkpt>
        <trkpt lat="29.5625968" lon="103.3520555"><ele>1749.18</ele><time>2026-06-27T09:03:30.000Z</time></trkpt>
        <trkpt lat="29.5625567" lon="103.3519365"><ele>1752.06</ele><time>2026-06-27T09:03:36.000Z</time></trkpt>
        <trkpt lat="29.5624752" lon="103.3518336"><ele>1754.65</ele><time>2026-06-27T09:03:48.000Z</time></trkpt>
        <trkpt lat="29.5624512" lon="103.3517269"><ele>1756.86</ele><time>2026-06-27T09:04:00.000Z</time></trkpt>
        <trkpt lat="29.5625193" lon="103.351673"><ele>1757.9</ele><time>2026-06-27T09:04:18.000Z</time></trkpt>
        <trkpt lat="29.5625977" lon="103.3515842"><ele>1758.99</ele><time>2026-06-27T09:05:14.000Z</time></trkpt>
        <trkpt lat="29.5626441" lon="103.3514751"><ele>1761.1</ele><time>2026-06-27T09:05:24.000Z</time></trkpt>
        <trkpt lat="29.5626777" lon="103.3513691"><ele>1762.56</ele><time>2026-06-27T09:05:32.000Z</time></trkpt>
        <trkpt lat="29.5627381" lon="103.3512827"><ele>1763.68</ele><time>2026-06-27T09:05:42.000Z</time></trkpt>
        <trkpt lat="29.5627964" lon="103.3511961"><ele>1764.88</ele><time>2026-06-27T09:05:54.000Z</time></trkpt>
        <trkpt lat="29.5628445" lon="103.3511055"><ele>1766.01</ele><time>2026-06-27T09:06:12.000Z</time></trkpt>
        <trkpt lat="29.5628392" lon="103.3510056"><ele>1769.96</ele><time>2026-06-27T09:06:26.000Z</time></trkpt>
        <trkpt lat="29.562818" lon="103.3508964"><ele>1772.56</ele><time>2026-06-27T09:06:46.000Z</time></trkpt>
        <trkpt lat="29.5627826" lon="103.3507916"><ele>1775.35</ele><time>2026-06-27T09:07:10.000Z</time></trkpt>
        <trkpt lat="29.562777" lon="103.3506719"><ele>1779.06</ele><time>2026-06-27T09:07:20.000Z</time></trkpt>
        <trkpt lat="29.5627756" lon="103.350562"><ele>1782.26</ele><time>2026-06-27T09:07:30.000Z</time></trkpt>
        <trkpt lat="29.5627834" lon="103.3504468"><ele>1784.57</ele><time>2026-06-27T09:07:40.000Z</time></trkpt>
        <trkpt lat="29.5628058" lon="103.3503271"><ele>1785.7</ele><time>2026-06-27T09:07:50.000Z</time></trkpt>
        <trkpt lat="29.5628336" lon="103.3502182"><ele>1785.18</ele><time>2026-06-27T09:07:58.000Z</time></trkpt>
        <trkpt lat="29.5628484" lon="103.3500907"><ele>1785.09</ele><time>2026-06-27T09:08:08.000Z</time></trkpt>
        <trkpt lat="29.5628669" lon="103.3499694"><ele>1784.6</ele><time>2026-06-27T09:08:18.000Z</time></trkpt>
        <trkpt lat="29.5628906" lon="103.3498556"><ele>1783.36</ele><time>2026-06-27T09:08:26.000Z</time></trkpt>
        <trkpt lat="29.562931" lon="103.3497371"><ele>1782.49</ele><time>2026-06-27T09:08:34.000Z</time></trkpt>
        <trkpt lat="29.5629704" lon="103.3496271"><ele>1782.3</ele><time>2026-06-27T09:08:42.000Z</time></trkpt>
        <trkpt lat="29.5630262" lon="103.3495396"><ele>1782.39</ele><time>2026-06-27T09:08:50.000Z</time></trkpt>
        <trkpt lat="29.5630899" lon="103.3494648"><ele>1782.64</ele><time>2026-06-27T09:08:58.000Z</time></trkpt>
        <trkpt lat="29.563125" lon="103.3493683"><ele>1782.67</ele><time>2026-06-27T09:09:06.000Z</time></trkpt>
        <trkpt lat="29.563154" lon="103.3492486"><ele>1782.69</ele><time>2026-06-27T09:09:16.000Z</time></trkpt>
        <trkpt lat="29.563196" lon="103.349147"><ele>1782.33</ele><time>2026-06-27T09:09:24.000Z</time></trkpt>
        <trkpt lat="29.5632015" lon="103.3490364"><ele>1782.24</ele><time>2026-06-27T09:09:34.000Z</time></trkpt>
        <trkpt lat="29.5632161" lon="103.3489303"><ele>1782.79</ele><time>2026-06-27T09:09:44.000Z</time></trkpt>
        <trkpt lat="29.5632251" lon="103.3488107"><ele>1783.65</ele><time>2026-06-27T09:09:56.000Z</time></trkpt>
        <trkpt lat="29.5632182" lon="103.3486894"><ele>1784.52</ele><time>2026-06-27T09:10:06.000Z</time></trkpt>
        <trkpt lat="29.5632178" lon="103.3485771"><ele>1784.89</ele><time>2026-06-27T09:10:14.000Z</time></trkpt>
        <trkpt lat="29.5632209" lon="103.3484639"><ele>1784.82</ele><time>2026-06-27T09:10:22.000Z</time></trkpt>
        <trkpt lat="29.5632446" lon="103.3483576"><ele>1784.75</ele><time>2026-06-27T09:10:32.000Z</time></trkpt>
        <trkpt lat="29.5632915" lon="103.3482672"><ele>1785.11</ele><time>2026-06-27T09:10:42.000Z</time></trkpt>
        <trkpt lat="29.5633584" lon="103.3481933"><ele>1785.55</ele><time>2026-06-27T09:10:52.000Z</time></trkpt>
        <trkpt lat="29.5633954" lon="103.3481007"><ele>1786.66</ele><time>2026-06-27T09:11:02.000Z</time></trkpt>
        <trkpt lat="29.5634465" lon="103.3480112"><ele>1787.4</ele><time>2026-06-27T09:11:10.000Z</time></trkpt>
        <trkpt lat="29.5635101" lon="103.3479285"><ele>1787.61</ele><time>2026-06-27T09:11:18.000Z</time></trkpt>
        <trkpt lat="29.5635577" lon="103.3478364"><ele>1788.15</ele><time>2026-06-27T09:11:28.000Z</time></trkpt>
        <trkpt lat="29.5635755" lon="103.3477355"><ele>1787.93</ele><time>2026-06-27T09:11:38.000Z</time></trkpt>
        <trkpt lat="29.5635757" lon="103.3476286"><ele>1787.18</ele><time>2026-06-27T09:11:48.000Z</time></trkpt>
        <trkpt lat="29.5635712" lon="103.3475148"><ele>1786.54</ele><time>2026-06-27T09:12:04.000Z</time></trkpt>
        <trkpt lat="29.5635485" lon="103.3474027"><ele>1785.95</ele><time>2026-06-27T09:12:12.000Z</time></trkpt>
        <trkpt lat="29.5635011" lon="103.3473"><ele>1785.16</ele><time>2026-06-27T09:12:22.000Z</time></trkpt>
        <trkpt lat="29.5634357" lon="103.3472139"><ele>1785.07</ele><time>2026-06-27T09:12:32.000Z</time></trkpt>
        <trkpt lat="29.5633545" lon="103.3471443"><ele>1785.95</ele><time>2026-06-27T09:12:44.000Z</time></trkpt>
        <trkpt lat="29.5632651" lon="103.3470732"><ele>1787.32</ele><time>2026-06-27T09:12:54.000Z</time></trkpt>
        <trkpt lat="29.563189" lon="103.3469977"><ele>1788.68</ele><time>2026-06-27T09:13:02.000Z</time></trkpt>
        <trkpt lat="29.5631227" lon="103.3469209"><ele>1789.19</ele><time>2026-06-27T09:13:12.000Z</time></trkpt>
        <trkpt lat="29.563062" lon="103.3468264"><ele>1789.13</ele><time>2026-06-27T09:13:26.000Z</time></trkpt>
        <trkpt lat="29.5629944" lon="103.3467438"><ele>1789.13</ele><time>2026-06-27T09:13:38.000Z</time></trkpt>
        <trkpt lat="29.562931" lon="103.3466649"><ele>1789.06</ele><time>2026-06-27T09:13:48.000Z</time></trkpt>
        <trkpt lat="29.562882" lon="103.3465654"><ele>1788.43</ele><time>2026-06-27T09:13:56.000Z</time></trkpt>
        <trkpt lat="29.5628235" lon="103.3464816"><ele>1787.9</ele><time>2026-06-27T09:14:04.000Z</time></trkpt>
        <trkpt lat="29.5627406" lon="103.3464391"><ele>1787.66</ele><time>2026-06-27T09:14:14.000Z</time></trkpt>
        <trkpt lat="29.5626537" lon="103.3463862"><ele>1787.87</ele><time>2026-06-27T09:14:22.000Z</time></trkpt>
        <trkpt lat="29.5625575" lon="103.3463273"><ele>1788.12</ele><time>2026-06-27T09:14:32.000Z</time></trkpt>
        <trkpt lat="29.5624801" lon="103.3462578"><ele>1788.29</ele><time>2026-06-27T09:14:40.000Z</time></trkpt>
        <trkpt lat="29.5624138" lon="103.3461783"><ele>1787.71</ele><time>2026-06-27T09:14:48.000Z</time></trkpt>
        <trkpt lat="29.5623481" lon="103.3461034"><ele>1786.8</ele><time>2026-06-27T09:14:58.000Z</time></trkpt>
        <trkpt lat="29.5622933" lon="103.3460161"><ele>1786.1</ele><time>2026-06-27T09:15:06.000Z</time></trkpt>
        <trkpt lat="29.5622516" lon="103.3459196"><ele>1785.33</ele><time>2026-06-27T09:15:14.000Z</time></trkpt>
        <trkpt lat="29.5622004" lon="103.3458127"><ele>1784.57</ele><time>2026-06-27T09:15:24.000Z</time></trkpt>
        <trkpt lat="29.5621411" lon="103.3457261"><ele>1783.63</ele><time>2026-06-27T09:15:32.000Z</time></trkpt>
        <trkpt lat="29.5620739" lon="103.3456512"><ele>1782.51</ele><time>2026-06-27T09:15:42.000Z</time></trkpt>
        <trkpt lat="29.5619914" lon="103.345592"><ele>1781.34</ele><time>2026-06-27T09:15:52.000Z</time></trkpt>
        <trkpt lat="29.5618945" lon="103.3455776"><ele>1780.68</ele><time>2026-06-27T09:16:04.000Z</time></trkpt>
        <trkpt lat="29.5617901" lon="103.3455855"><ele>1780.27</ele><time>2026-06-27T09:16:14.000Z</time></trkpt>
        <trkpt lat="29.5616833" lon="103.3455813"><ele>1780.08</ele><time>2026-06-27T09:16:24.000Z</time></trkpt>
        <trkpt lat="29.5615885" lon="103.3455377"><ele>1780.2</ele><time>2026-06-27T09:16:34.000Z</time></trkpt>
        <trkpt lat="29.561502" lon="103.3454568"><ele>1780.75</ele><time>2026-06-27T09:16:44.000Z</time></trkpt>
        <trkpt lat="29.5614386" lon="103.3453697"><ele>1781.06</ele><time>2026-06-27T09:16:56.000Z</time></trkpt>
        <trkpt lat="29.5613867" lon="103.3452674"><ele>1781.27</ele><time>2026-06-27T09:17:08.000Z</time></trkpt>
        <trkpt lat="29.5613255" lon="103.3451773"><ele>1781.9</ele><time>2026-06-27T09:17:26.000Z</time></trkpt>
        <trkpt lat="29.5612497" lon="103.3451095"><ele>1783.14</ele><time>2026-06-27T09:17:58.000Z</time></trkpt>
        <trkpt lat="29.5611792" lon="103.3450401"><ele>1785.33</ele><time>2026-06-27T09:18:36.000Z</time></trkpt>
        <trkpt lat="29.5610907" lon="103.3450138"><ele>1788.59</ele><time>2026-06-27T09:19:28.000Z</time></trkpt>
        <trkpt lat="29.5609989" lon="103.3449797"><ele>1792.25</ele><time>2026-06-27T09:20:02.000Z</time></trkpt>
        <trkpt lat="29.5609163" lon="103.3450175"><ele>1796.64</ele><time>2026-06-27T09:20:46.000Z</time></trkpt>
        <trkpt lat="29.5608494" lon="103.344973"><ele>1801.65</ele><time>2026-06-27T09:21:34.000Z</time></trkpt>
        <trkpt lat="29.5607756" lon="103.3449145"><ele>1808.62</ele><time>2026-06-27T09:22:16.000Z</time></trkpt>
        <trkpt lat="29.5607225" lon="103.3448251"><ele>1814.81</ele><time>2026-06-27T09:23:12.000Z</time></trkpt>
        <trkpt lat="29.5606951" lon="103.3447211"><ele>1822.53</ele><time>2026-06-27T09:23:38.000Z</time></trkpt>
        <trkpt lat="29.5606315" lon="103.3446478"><ele>1829.09</ele><time>2026-06-27T09:23:50.000Z</time></trkpt>
        <trkpt lat="29.5605489" lon="103.3446059"><ele>1833.59</ele><time>2026-06-27T09:24:12.000Z</time></trkpt>
        <trkpt lat="29.5604571" lon="103.3445684"><ele>1837.68</ele><time>2026-06-27T09:25:02.000Z</time></trkpt>
        <trkpt lat="29.5603666" lon="103.3445305"><ele>1843.63</ele><time>2026-06-27T09:25:30.000Z</time></trkpt>
        <trkpt lat="29.5602739" lon="103.3444928"><ele>1849.91</ele><time>2026-06-27T09:26:20.000Z</time></trkpt>
        <trkpt lat="29.5602165" lon="103.3444159"><ele>1856.89</ele><time>2026-06-27T09:26:36.000Z</time></trkpt>
        <trkpt lat="29.5601496" lon="103.3443399"><ele>1862.21</ele><time>2026-06-27T09:27:02.000Z</time></trkpt>
        <trkpt lat="29.5601712" lon="103.3442529"><ele>1867.92</ele><time>2026-06-27T09:27:50.000Z</time></trkpt>
        <trkpt lat="29.5601263" lon="103.3441879"><ele>1872.71</ele><time>2026-06-27T09:28:06.000Z</time></trkpt>
        <trkpt lat="29.5600438" lon="103.3441526"><ele>1877</ele><time>2026-06-27T09:28:32.000Z</time></trkpt>
        <trkpt lat="29.5600702" lon="103.3440955"><ele>1881.24</ele><time>2026-06-27T09:29:20.000Z</time></trkpt>
        <trkpt lat="29.5600586" lon="103.3440087"><ele>1885.46</ele><time>2026-06-27T09:29:42.000Z</time></trkpt>
        <trkpt lat="29.5601121" lon="103.3439374"><ele>1889.14</ele><time>2026-06-27T09:30:26.000Z</time></trkpt>
        <trkpt lat="29.560093" lon="103.3438537"><ele>1894.78</ele><time>2026-06-27T09:31:04.000Z</time></trkpt>
        <trkpt lat="29.5600118" lon="103.3438212"><ele>1901.51</ele><time>2026-06-27T09:31:36.000Z</time></trkpt>
        <trkpt lat="29.5599541" lon="103.3437443"><ele>1907.14</ele><time>2026-06-27T09:32:04.000Z</time></trkpt>
        <trkpt lat="29.5598695" lon="103.34371"><ele>1912.48</ele><time>2026-06-27T09:32:38.000Z</time></trkpt>
        <trkpt lat="29.5597938" lon="103.3436489"><ele>1917.07</ele><time>2026-06-27T09:33:02.000Z</time></trkpt>
        <trkpt lat="29.5597498" lon="103.3435496"><ele>1920.19</ele><time>2026-06-27T09:34:04.000Z</time></trkpt>
        <trkpt lat="29.5596732" lon="103.3434785"><ele>1923.78</ele><time>2026-06-27T09:34:20.000Z</time></trkpt>
        <trkpt lat="29.5596096" lon="103.34354"><ele>1927.01</ele><time>2026-06-27T09:34:40.000Z</time></trkpt>
        <trkpt lat="29.559532" lon="103.3435152"><ele>1930.74</ele><time>2026-06-27T09:35:40.000Z</time></trkpt>
        <trkpt lat="29.5594561" lon="103.3435793"><ele>1937.53</ele><time>2026-06-27T09:36:30.000Z</time></trkpt>
        <trkpt lat="29.5593644" lon="103.3435804"><ele>1944.92</ele><time>2026-06-27T09:37:00.000Z</time></trkpt>
        <trkpt lat="29.5592778" lon="103.3436373"><ele>1952.11</ele><time>2026-06-27T09:38:32.000Z</time></trkpt>
        <trkpt lat="29.5592286" lon="103.3437252"><ele>1959.35</ele><time>2026-06-27T09:39:14.000Z</time></trkpt>
        <trkpt lat="29.5591646" lon="103.3438058"><ele>1964.28</ele><time>2026-06-27T09:39:36.000Z</time></trkpt>
        <trkpt lat="29.5591437" lon="103.3437431"><ele>1969.11</ele><time>2026-06-27T09:40:14.000Z</time></trkpt>
        <trkpt lat="29.5590675" lon="103.3436558"><ele>1974.47</ele><time>2026-06-27T09:41:32.000Z</time></trkpt>
        <trkpt lat="29.5590016" lon="103.3437311"><ele>1981.82</ele><time>2026-06-27T09:42:02.000Z</time></trkpt>
        <trkpt lat="29.5589092" lon="103.3437731"><ele>1987.82</ele><time>2026-06-27T09:42:58.000Z</time></trkpt>
        <trkpt lat="29.558867" lon="103.343869"><ele>1993.78</ele><time>2026-06-27T09:43:08.000Z</time></trkpt>
        <trkpt lat="29.5588842" lon="103.3439702"><ele>1997.58</ele><time>2026-06-27T09:43:18.000Z</time></trkpt>
        <trkpt lat="29.5589008" lon="103.344086"><ele>1999.93</ele><time>2026-06-27T09:43:30.000Z</time></trkpt>
        <trkpt lat="29.5588775" lon="103.3441874"><ele>2001.14</ele><time>2026-06-27T09:44:22.000Z</time></trkpt>
        <trkpt lat="29.5588566" lon="103.3442892"><ele>2003.81</ele><time>2026-06-27T09:44:42.000Z</time></trkpt>
        <trkpt lat="29.5588069" lon="103.3441912"><ele>2007.67</ele><time>2026-06-27T09:47:34.000Z</time></trkpt>
        <trkpt lat="29.5587164" lon="103.3441976"><ele>2014.35</ele><time>2026-06-27T09:47:54.000Z</time></trkpt>
        <trkpt lat="29.5586188" lon="103.3441682"><ele>2019</ele><time>2026-06-27T09:48:10.000Z</time></trkpt>
        <trkpt lat="29.5585224" lon="103.3441359"><ele>2021.63</ele><time>2026-06-27T09:48:44.000Z</time></trkpt>
        <trkpt lat="29.5584256" lon="103.3441075"><ele>2024.67</ele><time>2026-06-27T09:49:18.000Z</time></trkpt>
        <trkpt lat="29.5583318" lon="103.3440805"><ele>2027.98</ele><time>2026-06-27T09:49:28.000Z</time></trkpt>
        <trkpt lat="29.5582351" lon="103.3440605"><ele>2030.88</ele><time>2026-06-27T09:49:48.000Z</time></trkpt>
        <trkpt lat="29.558145" lon="103.3440842"><ele>2032.53</ele><time>2026-06-27T09:49:56.000Z</time></trkpt>
        <trkpt lat="29.5575699" lon="103.3439059"><ele>2033.16</ele><time>2026-06-27T09:51:06.000Z</time></trkpt>
        <trkpt lat="29.5576968" lon="103.3439552"><ele>2033.7</ele><time>2026-06-27T09:51:12.000Z</time></trkpt>
        <trkpt lat="29.5576997" lon="103.3440198"><ele>2036.08</ele><time>2026-06-27T09:51:16.000Z</time></trkpt>
        <trkpt lat="29.5576124" lon="103.343922"><ele>2039.22</ele><time>2026-06-27T09:52:18.000Z</time></trkpt>
        <trkpt lat="29.5575445" lon="103.3438517"><ele>2040.16</ele><time>2026-06-27T09:52:32.000Z</time></trkpt>
        <trkpt lat="29.5575006" lon="103.3437476"><ele>2040.19</ele><time>2026-06-27T09:52:42.000Z</time></trkpt>
        <trkpt lat="29.5574359" lon="103.3436679"><ele>2039.93</ele><time>2026-06-27T09:52:56.000Z</time></trkpt>
        <trkpt lat="29.5573423" lon="103.3436189"><ele>2039.18</ele><time>2026-06-27T09:53:04.000Z</time></trkpt>
        <trkpt lat="29.5572436" lon="103.3436029"><ele>2038.51</ele><time>2026-06-27T09:54:00.000Z</time></trkpt>
        <trkpt lat="29.5571586" lon="103.3435552"><ele>2039.74</ele><time>2026-06-27T09:54:34.000Z</time></trkpt>
        <trkpt lat="29.5570865" lon="103.3435965"><ele>2041.74</ele><time>2026-06-27T09:54:58.000Z</time></trkpt>
        <trkpt lat="29.5569981" lon="103.34365"><ele>2044.49</ele><time>2026-06-27T09:55:32.000Z</time></trkpt>
        <trkpt lat="29.5569113" lon="103.3437058"><ele>2047.24</ele><time>2026-06-27T09:55:44.000Z</time></trkpt>
        <trkpt lat="29.5568237" lon="103.3437474"><ele>2049.29</ele><time>2026-06-27T09:56:08.000Z</time></trkpt>
        <trkpt lat="29.5567382" lon="103.3437264"><ele>2051.91</ele><time>2026-06-27T09:56:48.000Z</time></trkpt>
        <trkpt lat="29.5566545" lon="103.3437442"><ele>2055.02</ele><time>2026-06-27T09:57:20.000Z</time></trkpt>
        <trkpt lat="29.5565808" lon="103.3438035"><ele>2058.26</ele><time>2026-06-27T09:57:38.000Z</time></trkpt>
        <trkpt lat="29.556511" lon="103.3438736"><ele>2061.38</ele><time>2026-06-27T09:58:08.000Z</time></trkpt>
        <trkpt lat="29.5564869" lon="103.3439784"><ele>2066.7</ele><time>2026-06-27T09:59:02.000Z</time></trkpt>
        <trkpt lat="29.5564889" lon="103.3440897"><ele>2073.19</ele><time>2026-06-27T09:59:28.000Z</time></trkpt>
        <trkpt lat="29.5564357" lon="103.3441647"><ele>2079.03</ele><time>2026-06-27T10:00:04.000Z</time></trkpt>
        <trkpt lat="29.5563571" lon="103.344212"><ele>2084.06</ele><time>2026-06-27T10:00:28.000Z</time></trkpt>
        <trkpt lat="29.55627" lon="103.3442616"><ele>2088.44</ele><time>2026-06-27T10:00:50.000Z</time></trkpt>
        <trkpt lat="29.5561951" lon="103.3443373"><ele>2093.09</ele><time>2026-06-27T10:01:32.000Z</time></trkpt>
        <trkpt lat="29.5561419" lon="103.3444273"><ele>2097.76</ele><time>2026-06-27T10:01:52.000Z</time></trkpt>
        <trkpt lat="29.5560857" lon="103.3445252"><ele>2101.8</ele><time>2026-06-27T10:04:20.000Z</time></trkpt>
        <trkpt lat="29.5560027" lon="103.3445831"><ele>2104.77</ele><time>2026-06-27T10:04:40.000Z</time></trkpt>
        <trkpt lat="29.5559664" lon="103.3446773"><ele>2108.38</ele><time>2026-06-27T10:05:08.000Z</time></trkpt>
        <trkpt lat="29.5559035" lon="103.3447487"><ele>2112.26</ele><time>2026-06-27T10:05:24.000Z</time></trkpt>
        <trkpt lat="29.5558681" lon="103.3448431"><ele>2115.73</ele><time>2026-06-27T10:05:58.000Z</time></trkpt>
        <trkpt lat="29.5558117" lon="103.3449245"><ele>2119.63</ele><time>2026-06-27T10:06:12.000Z</time></trkpt>
        <trkpt lat="29.5557258" lon="103.3449638"><ele>2121.8</ele><time>2026-06-27T10:06:38.000Z</time></trkpt>
        <trkpt lat="29.5556374" lon="103.3449399"><ele>2124.38</ele><time>2026-06-27T10:07:14.000Z</time></trkpt>
        <trkpt lat="29.5555462" lon="103.3449505"><ele>2127.97</ele><time>2026-06-27T10:07:50.000Z</time></trkpt>
        <trkpt lat="29.5554947" lon="103.3450265"><ele>2131.37</ele><time>2026-06-27T10:08:12.000Z</time></trkpt>
        <trkpt lat="29.5554288" lon="103.3451202"><ele>2134.82</ele><time>2026-06-27T10:09:18.000Z</time></trkpt>
        <trkpt lat="29.5553616" lon="103.3450432"><ele>2141.57</ele><time>2026-06-27T10:09:48.000Z</time></trkpt>
        <trkpt lat="29.5552933" lon="103.3449729"><ele>2147.26</ele><time>2026-06-27T10:10:04.000Z</time></trkpt>
        <trkpt lat="29.5552287" lon="103.3450147"><ele>2151.63</ele><time>2026-06-27T10:10:24.000Z</time></trkpt>
        <trkpt lat="29.5551456" lon="103.3450777"><ele>2155.87</ele><time>2026-06-27T10:10:32.000Z</time></trkpt>
        <trkpt lat="29.5550471" lon="103.3451235"><ele>2158.48</ele><time>2026-06-27T10:10:46.000Z</time></trkpt>
        <trkpt lat="29.55495" lon="103.3451419"><ele>2159.89</ele><time>2026-06-27T10:11:00.000Z</time></trkpt>
        <trkpt lat="29.5548626" lon="103.3451819"><ele>2161.6</ele><time>2026-06-27T10:11:18.000Z</time></trkpt>
        <trkpt lat="29.5547725" lon="103.3452483"><ele>2164.03</ele><time>2026-06-27T10:11:42.000Z</time></trkpt>
        <trkpt lat="29.5547008" lon="103.3453257"><ele>2167.14</ele><time>2026-06-27T10:12:18.000Z</time></trkpt>
        <trkpt lat="29.5546186" lon="103.34538"><ele>2170.45</ele><time>2026-06-27T10:12:44.000Z</time></trkpt>
        <trkpt lat="29.5545282" lon="103.3454072"><ele>2173.58</ele><time>2026-06-27T10:13:10.000Z</time></trkpt>
        <trkpt lat="29.5544393" lon="103.345431"><ele>2177.37</ele><time>2026-06-27T10:13:56.000Z</time></trkpt>
        <trkpt lat="29.5543459" lon="103.3454558"><ele>2180.2</ele><time>2026-06-27T10:14:20.000Z</time></trkpt>
        <trkpt lat="29.5542528" lon="103.3454726"><ele>2183.19</ele><time>2026-06-27T10:14:36.000Z</time></trkpt>
        <trkpt lat="29.554161" lon="103.3454936"><ele>2185.92</ele><time>2026-06-27T10:15:20.000Z</time></trkpt>
        <trkpt lat="29.5540689" lon="103.3455262"><ele>2190.02</ele><time>2026-06-27T10:15:48.000Z</time></trkpt>
        <trkpt lat="29.5539721" lon="103.34552"><ele>2195.15</ele><time>2026-06-27T10:16:14.000Z</time></trkpt>
        <trkpt lat="29.553881" lon="103.3454717"><ele>2199.42</ele><time>2026-06-27T10:16:26.000Z</time></trkpt>
        <trkpt lat="29.5538004" lon="103.3454101"><ele>2203.18</ele><time>2026-06-27T10:16:48.000Z</time></trkpt>
        <trkpt lat="29.5537122" lon="103.3453699"><ele>2206.62</ele><time>2026-06-27T10:17:06.000Z</time></trkpt>
        <trkpt lat="29.5536202" lon="103.3453522"><ele>2210.36</ele><time>2026-06-27T10:17:26.000Z</time></trkpt>
        <trkpt lat="29.553527" lon="103.3453734"><ele>2213.57</ele><time>2026-06-27T10:17:38.000Z</time></trkpt>
        <trkpt lat="29.5534312" lon="103.3453765"><ele>2216.42</ele><time>2026-06-27T10:17:52.000Z</time></trkpt>
        <trkpt lat="29.5533293" lon="103.3454005"><ele>2218.81</ele><time>2026-06-27T10:18:18.000Z</time></trkpt>
        <trkpt lat="29.553228" lon="103.3454179"><ele>2221.98</ele><time>2026-06-27T10:18:38.000Z</time></trkpt>
        <trkpt lat="29.5531344" lon="103.3454025"><ele>2224.89</ele><time>2026-06-27T10:18:46.000Z</time></trkpt>
        <trkpt lat="29.5530344" lon="103.3454001"><ele>2226.88</ele><time>2026-06-27T10:18:56.000Z</time></trkpt>
        <trkpt lat="29.5529401" lon="103.3454346"><ele>2228.39</ele><time>2026-06-27T10:19:06.000Z</time></trkpt>
        <trkpt lat="29.5528395" lon="103.3454535"><ele>2229.73</ele><time>2026-06-27T10:19:18.000Z</time></trkpt>
        <trkpt lat="29.5527454" lon="103.3454534"><ele>2231</ele><time>2026-06-27T10:19:28.000Z</time></trkpt>
        <trkpt lat="29.552654" lon="103.3454576"><ele>2232.45</ele><time>2026-06-27T10:19:38.000Z</time></trkpt>
        <trkpt lat="29.5525712" lon="103.3454932"><ele>2233.67</ele><time>2026-06-27T10:19:46.000Z</time></trkpt>
        <trkpt lat="29.5524841" lon="103.3455178"><ele>2234.75</ele><time>2026-06-27T10:19:58.000Z</time></trkpt>
        <trkpt lat="29.5524143" lon="103.3454628"><ele>2235.52</ele><time>2026-06-27T10:20:10.000Z</time></trkpt>
        <trkpt lat="29.5524131" lon="103.3453638"><ele>2235.76</ele><time>2026-06-27T10:20:16.000Z</time></trkpt>
        <trkpt lat="29.5524038" lon="103.3452536"><ele>2236.28</ele><time>2026-06-27T10:20:34.000Z</time></trkpt>
        <trkpt lat="29.5523462" lon="103.3451777"><ele>2236.44</ele><time>2026-06-27T10:20:44.000Z</time></trkpt>
        <trkpt lat="29.5522554" lon="103.3451403"><ele>2236.05</ele><time>2026-06-27T10:20:54.000Z</time></trkpt>
        <trkpt lat="29.5521573" lon="103.3451197"><ele>2235.88</ele><time>2026-06-27T10:21:02.000Z</time></trkpt>
        <trkpt lat="29.5520595" lon="103.3450776"><ele>2235.78</ele><time>2026-06-27T10:21:12.000Z</time></trkpt>
        <trkpt lat="29.5520079" lon="103.3449923"><ele>2235.64</ele><time>2026-06-27T10:21:22.000Z</time></trkpt>
        <trkpt lat="29.5519882" lon="103.3448883"><ele>2235.89</ele><time>2026-06-27T10:21:34.000Z</time></trkpt>
        <trkpt lat="29.5519548" lon="103.3447866"><ele>2235.38</ele><time>2026-06-27T10:21:44.000Z</time></trkpt>
        <trkpt lat="29.5518923" lon="103.3446829"><ele>2234.38</ele><time>2026-06-27T10:21:54.000Z</time></trkpt>
        <trkpt lat="29.5518261" lon="103.3445894"><ele>2233.25</ele><time>2026-06-27T10:22:04.000Z</time></trkpt>
        <trkpt lat="29.5517708" lon="103.3444984"><ele>2232.53</ele><time>2026-06-27T10:22:14.000Z</time></trkpt>
        <trkpt lat="29.551703" lon="103.3444058"><ele>2232.3</ele><time>2026-06-27T10:22:28.000Z</time></trkpt>
        <trkpt lat="29.5516439" lon="103.3443201"><ele>2232.21</ele><time>2026-06-27T10:22:38.000Z</time></trkpt>
        <trkpt lat="29.5515668" lon="103.3442632"><ele>2232.93</ele><time>2026-06-27T10:22:52.000Z</time></trkpt>
        <trkpt lat="29.5514767" lon="103.3442277"><ele>2233.59</ele><time>2026-06-27T10:22:58.000Z</time></trkpt>
        <trkpt lat="29.551381" lon="103.3442125"><ele>2233.41</ele><time>2026-06-27T10:23:10.000Z</time></trkpt>
        <trkpt lat="29.551281" lon="103.3442085"><ele>2232.32</ele><time>2026-06-27T10:23:24.000Z</time></trkpt>
        <trkpt lat="29.5511773" lon="103.3442158"><ele>2230.88</ele><time>2026-06-27T10:23:36.000Z</time></trkpt>
        <trkpt lat="29.5510678" lon="103.344206"><ele>2229.6</ele><time>2026-06-27T10:23:46.000Z</time></trkpt>
        <trkpt lat="29.5509703" lon="103.3441669"><ele>2228.86</ele><time>2026-06-27T10:24:00.000Z</time></trkpt>
        <trkpt lat="29.5508665" lon="103.344158"><ele>2228.68</ele><time>2026-06-27T10:24:10.000Z</time></trkpt>
        <trkpt lat="29.5507752" lon="103.3441202"><ele>2228.25</ele><time>2026-06-27T10:24:22.000Z</time></trkpt>
        <trkpt lat="29.5507622" lon="103.3440215"><ele>2227.52</ele><time>2026-06-27T10:24:32.000Z</time></trkpt>
        <trkpt lat="29.5506957" lon="103.3439491"><ele>2226.95</ele><time>2026-06-27T10:24:50.000Z</time></trkpt>
        <trkpt lat="29.5506097" lon="103.343894"><ele>2227.41</ele><time>2026-06-27T10:24:58.000Z</time></trkpt>
        <trkpt lat="29.5505193" lon="103.3438253"><ele>2227.96</ele><time>2026-06-27T10:25:08.000Z</time></trkpt>
        <trkpt lat="29.5504536" lon="103.3437423"><ele>2228.53</ele><time>2026-06-27T10:25:18.000Z</time></trkpt>
        <trkpt lat="29.5503645" lon="103.343655"><ele>2229.27</ele><time>2026-06-27T10:25:30.000Z</time></trkpt>
        <trkpt lat="29.5503157" lon="103.3435578"><ele>2229.68</ele><time>2026-06-27T10:25:40.000Z</time></trkpt>
        <trkpt lat="29.5502839" lon="103.3434507"><ele>2229.42</ele><time>2026-06-27T10:25:52.000Z</time></trkpt>
        <trkpt lat="29.5502345" lon="103.3433542"><ele>2229.17</ele><time>2026-06-27T10:26:02.000Z</time></trkpt>
        <trkpt lat="29.5501714" lon="103.3432707"><ele>2228.33</ele><time>2026-06-27T10:26:12.000Z</time></trkpt>
        <trkpt lat="29.5500974" lon="103.3432062"><ele>2228.17</ele><time>2026-06-27T10:26:38.000Z</time></trkpt>
        <trkpt lat="29.5500255" lon="103.3431302"><ele>2229.51</ele><time>2026-06-27T10:26:50.000Z</time></trkpt>
        <trkpt lat="29.5499452" lon="103.3430344"><ele>2230.22</ele><time>2026-06-27T10:27:00.000Z</time></trkpt>
        <trkpt lat="29.5498991" lon="103.3429304"><ele>2230.44</ele><time>2026-06-27T10:27:12.000Z</time></trkpt>
        <trkpt lat="29.5498613" lon="103.3428229"><ele>2231.16</ele><time>2026-06-27T10:27:24.000Z</time></trkpt>
        <trkpt lat="29.5498195" lon="103.3427071"><ele>2232.06</ele><time>2026-06-27T10:27:36.000Z</time></trkpt>
        <trkpt lat="29.5497669" lon="103.3426123"><ele>2232.92</ele><time>2026-06-27T10:27:44.000Z</time></trkpt>
        <trkpt lat="29.5496918" lon="103.3425302"><ele>2233.02</ele><time>2026-06-27T10:27:56.000Z</time></trkpt>
        <trkpt lat="29.5496161" lon="103.3424649"><ele>2232.62</ele><time>2026-06-27T10:28:06.000Z</time></trkpt>
        <trkpt lat="29.5495275" lon="103.3423818"><ele>2232.78</ele><time>2026-06-27T10:28:16.000Z</time></trkpt>
        <trkpt lat="29.549438" lon="103.3423142"><ele>2233.12</ele><time>2026-06-27T10:28:22.000Z</time></trkpt>
        <trkpt lat="29.5493588" lon="103.3422398"><ele>2232.85</ele><time>2026-06-27T10:28:34.000Z</time></trkpt>
        <trkpt lat="29.5493541" lon="103.3421455"><ele>2231.69</ele><time>2026-06-27T10:28:48.000Z</time></trkpt>
        <trkpt lat="29.5493717" lon="103.3420356"><ele>2232.39</ele><time>2026-06-27T10:29:00.000Z</time></trkpt>
        <trkpt lat="29.5493555" lon="103.3419314"><ele>2233.88</ele><time>2026-06-27T10:29:10.000Z</time></trkpt>
        <trkpt lat="29.5493357" lon="103.3418277"><ele>2236.12</ele><time>2026-06-27T10:29:18.000Z</time></trkpt>
        <trkpt lat="29.549309" lon="103.3417195"><ele>2237.23</ele><time>2026-06-27T10:29:28.000Z</time></trkpt>
        <trkpt lat="29.5492799" lon="103.341601"><ele>2237.39</ele><time>2026-06-27T10:29:40.000Z</time></trkpt>
        <trkpt lat="29.5492404" lon="103.3414885"><ele>2238.03</ele><time>2026-06-27T10:29:54.000Z</time></trkpt>
        <trkpt lat="29.549204" lon="103.341388"><ele>2239.3</ele><time>2026-06-27T10:30:22.000Z</time></trkpt>
        <trkpt lat="29.5491587" lon="103.3412937"><ele>2241.92</ele><time>2026-06-27T10:30:44.000Z</time></trkpt>
        <trkpt lat="29.5490927" lon="103.3412146"><ele>2245.53</ele><time>2026-06-27T10:30:58.000Z</time></trkpt>
        <trkpt lat="29.5490026" lon="103.3412031"><ele>2247.3</ele><time>2026-06-27T10:31:08.000Z</time></trkpt>
        <trkpt lat="29.5488993" lon="103.3411922"><ele>2247.56</ele><time>2026-06-27T10:32:06.000Z</time></trkpt>
        <trkpt lat="29.5488023" lon="103.3411659"><ele>2247.79</ele><time>2026-06-27T10:32:12.000Z</time></trkpt>
        <trkpt lat="29.5487003" lon="103.341148"><ele>2247.79</ele><time>2026-06-27T10:33:06.000Z</time></trkpt>
        <trkpt lat="29.5486037" lon="103.341181"><ele>2251.05</ele><time>2026-06-27T10:33:38.000Z</time></trkpt>
        <trkpt lat="29.5485078" lon="103.3412234"><ele>2254.17</ele><time>2026-06-27T10:34:06.000Z</time></trkpt>
        <trkpt lat="29.5484202" lon="103.3412658"><ele>2256.82</ele><time>2026-06-27T10:34:38.000Z</time></trkpt>
        <trkpt lat="29.5483253" lon="103.3412722"><ele>2259.79</ele><time>2026-06-27T10:34:50.000Z</time></trkpt>
        <trkpt lat="29.5482342" lon="103.3412558"><ele>2263.07</ele><time>2026-06-27T10:35:26.000Z</time></trkpt>
        <trkpt lat="29.5481459" lon="103.3412127"><ele>2266.25</ele><time>2026-06-27T10:35:48.000Z</time></trkpt>
        <trkpt lat="29.5480456" lon="103.3412234"><ele>2269.76</ele><time>2026-06-27T10:36:00.000Z</time></trkpt>
        <trkpt lat="29.5479389" lon="103.3412583"><ele>2272.74</ele><time>2026-06-27T10:36:08.000Z</time></trkpt>
        <trkpt lat="29.5478734" lon="103.3411972"><ele>2274.62</ele><time>2026-06-27T10:36:26.000Z</time></trkpt>
        <trkpt lat="29.5477847" lon="103.3411352"><ele>2277.23</ele><time>2026-06-27T10:36:34.000Z</time></trkpt>
        <trkpt lat="29.5476919" lon="103.3410862"><ele>2279.09</ele><time>2026-06-27T10:36:44.000Z</time></trkpt>
        <trkpt lat="29.5475945" lon="103.3410721"><ele>2280.72</ele><time>2026-06-27T10:36:58.000Z</time></trkpt>
        <trkpt lat="29.5475002" lon="103.3410713"><ele>2282.44</ele><time>2026-06-27T10:37:14.000Z</time></trkpt>
        <trkpt lat="29.5474341" lon="103.3409993"><ele>2284.22</ele><time>2026-06-27T10:38:10.000Z</time></trkpt>
        <trkpt lat="29.5473956" lon="103.3408927"><ele>2292.19</ele><time>2026-06-27T10:38:48.000Z</time></trkpt>
        <trkpt lat="29.5473711" lon="103.3407758"><ele>2296.92</ele><time>2026-06-27T10:38:56.000Z</time></trkpt>
        <trkpt lat="29.5473575" lon="103.3406639"><ele>2299.64</ele><time>2026-06-27T10:39:10.000Z</time></trkpt>
        <trkpt lat="29.5472917" lon="103.3406096"><ele>2303.19</ele><time>2026-06-27T10:39:22.000Z</time></trkpt>
        <trkpt lat="29.5472418" lon="103.340524"><ele>2306.94</ele><time>2026-06-27T10:39:34.000Z</time></trkpt>
        <trkpt lat="29.54722" lon="103.3404231"><ele>2311.44</ele><time>2026-06-27T10:39:52.000Z</time></trkpt>
        <trkpt lat="29.5471699" lon="103.3403392"><ele>2315.76</ele><time>2026-06-27T10:40:12.000Z</time></trkpt>
        <trkpt lat="29.5472327" lon="103.3403058"><ele>2318.43</ele><time>2026-06-27T10:40:36.000Z</time></trkpt>
        <trkpt lat="29.5472311" lon="103.3402295"><ele>2320.82</ele><time>2026-06-27T10:41:10.000Z</time></trkpt>
        <trkpt lat="29.547283" lon="103.340137"><ele>2325.38</ele><time>2026-06-27T10:41:32.000Z</time></trkpt>
        <trkpt lat="29.5472663" lon="103.3400398"><ele>2332.89</ele><time>2026-06-27T10:42:18.000Z</time></trkpt>
        <trkpt lat="29.5471854" lon="103.3400039"><ele>2339.39</ele><time>2026-06-27T10:42:30.000Z</time></trkpt>
        <trkpt lat="29.5471386" lon="103.3399219"><ele>2343.39</ele><time>2026-06-27T10:43:00.000Z</time></trkpt>
        <trkpt lat="29.5471369" lon="103.3398145"><ele>2346.34</ele><time>2026-06-27T10:43:20.000Z</time></trkpt>
        <trkpt lat="29.5471085" lon="103.3397116"><ele>2348.37</ele><time>2026-06-27T10:43:44.000Z</time></trkpt>
        <trkpt lat="29.5470414" lon="103.3396337"><ele>2350.53</ele><time>2026-06-27T10:44:40.000Z</time></trkpt>
        <trkpt lat="29.5469669" lon="103.3395664"><ele>2353.08</ele><time>2026-06-27T10:45:04.000Z</time></trkpt>
        <trkpt lat="29.5469059" lon="103.3394854"><ele>2356.57</ele><time>2026-06-27T10:46:26.000Z</time></trkpt>
        <trkpt lat="29.5468645" lon="103.3393891"><ele>2360.75</ele><time>2026-06-27T10:46:58.000Z</time></trkpt>
        <trkpt lat="29.5467713" lon="103.3393456"><ele>2363.76</ele><time>2026-06-27T10:48:56.000Z</time></trkpt>
        <trkpt lat="29.5467254" lon="103.3392471"><ele>2366.39</ele><time>2026-06-27T10:49:22.000Z</time></trkpt>
        <trkpt lat="29.5466721" lon="103.3391607"><ele>2368.7</ele><time>2026-06-27T10:49:40.000Z</time></trkpt>
        <trkpt lat="29.5466231" lon="103.3390672"><ele>2370.51</ele><time>2026-06-27T10:50:04.000Z</time></trkpt>
        <trkpt lat="29.5465744" lon="103.3389763"><ele>2372.84</ele><time>2026-06-27T10:50:24.000Z</time></trkpt>
        <trkpt lat="29.5465011" lon="103.3388942"><ele>2376.15</ele><time>2026-06-27T10:50:50.000Z</time></trkpt>
        <trkpt lat="29.5464457" lon="103.338802"><ele>2381.5</ele><time>2026-06-27T10:51:34.000Z</time></trkpt>
        <trkpt lat="29.5463643" lon="103.3387512"><ele>2387.8</ele><time>2026-06-27T10:52:04.000Z</time></trkpt>
        <trkpt lat="29.546326" lon="103.3386622"><ele>2395.14</ele><time>2026-06-27T10:52:40.000Z</time></trkpt>
        <trkpt lat="29.5463108" lon="103.3385537"><ele>2400.72</ele><time>2026-06-27T10:52:56.000Z</time></trkpt>
        <trkpt lat="29.5462791" lon="103.3384497"><ele>2407.18</ele><time>2026-06-27T10:53:16.000Z</time></trkpt>
        <trkpt lat="29.5462318" lon="103.3383501"><ele>2410.87</ele><time>2026-06-27T10:53:32.000Z</time></trkpt>
        <trkpt lat="29.5462307" lon="103.3382481"><ele>2413.88</ele><time>2026-06-27T10:53:48.000Z</time></trkpt>
        <trkpt lat="29.5462511" lon="103.3381405"><ele>2416.43</ele><time>2026-06-27T10:54:08.000Z</time></trkpt>
        <trkpt lat="29.5462966" lon="103.3380282"><ele>2419.61</ele><time>2026-06-27T10:54:34.000Z</time></trkpt>
        <trkpt lat="29.5463376" lon="103.3379254"><ele>2424.17</ele><time>2026-06-27T10:54:44.000Z</time></trkpt>
        <trkpt lat="29.546397" lon="103.337831"><ele>2426.87</ele><time>2026-06-27T10:55:10.000Z</time></trkpt>
        <trkpt lat="29.5464409" lon="103.3377195"><ele>2427.87</ele><time>2026-06-27T10:55:20.000Z</time></trkpt>
        <trkpt lat="29.5464759" lon="103.3376061"><ele>2428.82</ele><time>2026-06-27T10:55:32.000Z</time></trkpt>
        <trkpt lat="29.5465156" lon="103.3375043"><ele>2429.6</ele><time>2026-06-27T10:55:40.000Z</time></trkpt>
        <trkpt lat="29.5465804" lon="103.3374177"><ele>2429.98</ele><time>2026-06-27T10:55:50.000Z</time></trkpt>
        <trkpt lat="29.5466083" lon="103.3373193"><ele>2429.96</ele><time>2026-06-27T10:56:02.000Z</time></trkpt>
        <trkpt lat="29.5466278" lon="103.3372095"><ele>2430.9</ele><time>2026-06-27T10:56:14.000Z</time></trkpt>
        <trkpt lat="29.5466533" lon="103.3370974"><ele>2431.22</ele><time>2026-06-27T10:56:28.000Z</time></trkpt>
        <trkpt lat="29.5465627" lon="103.3370217"><ele>2431.88</ele><time>2026-06-27T10:57:52.000Z</time></trkpt>
        <trkpt lat="29.5465092" lon="103.3369261"><ele>2432.55</ele><time>2026-06-27T10:58:16.000Z</time></trkpt>
        <trkpt lat="29.546467" lon="103.3368155"><ele>2432.22</ele><time>2026-06-27T10:58:26.000Z</time></trkpt>
        <trkpt lat="29.5464684" lon="103.3367105"><ele>2431.27</ele><time>2026-06-27T10:58:36.000Z</time></trkpt>
        <trkpt lat="29.5464879" lon="103.3365988"><ele>2430.02</ele><time>2026-06-27T10:58:52.000Z</time></trkpt>
        <trkpt lat="29.5465364" lon="103.336504"><ele>2428.61</ele><time>2026-06-27T10:59:06.000Z</time></trkpt>
        <trkpt lat="29.5465714" lon="103.3364007"><ele>2427.32</ele><time>2026-06-27T10:59:24.000Z</time></trkpt>
        <trkpt lat="29.5465726" lon="103.3362808"><ele>2425.42</ele><time>2026-06-27T10:59:34.000Z</time></trkpt>
        <trkpt lat="29.5466145" lon="103.3361709"><ele>2423.03</ele><time>2026-06-27T10:59:44.000Z</time></trkpt>
        <trkpt lat="29.5466569" lon="103.3360708"><ele>2421.32</ele><time>2026-06-27T10:59:54.000Z</time></trkpt>
        <trkpt lat="29.5466999" lon="103.3359711"><ele>2420.07</ele><time>2026-06-27T11:00:02.000Z</time></trkpt>
        <trkpt lat="29.5467356" lon="103.3358676"><ele>2418.7</ele><time>2026-06-27T11:00:10.000Z</time></trkpt>
        <trkpt lat="29.5467532" lon="103.3357591"><ele>2417.42</ele><time>2026-06-27T11:00:20.000Z</time></trkpt>
        <trkpt lat="29.5467826" lon="103.3356575"><ele>2416.31</ele><time>2026-06-27T11:00:28.000Z</time></trkpt>
        <trkpt lat="29.5468106" lon="103.3355496"><ele>2415.75</ele><time>2026-06-27T11:00:36.000Z</time></trkpt>
        <trkpt lat="29.5468334" lon="103.3354347"><ele>2415.66</ele><time>2026-06-27T11:00:48.000Z</time></trkpt>
        <trkpt lat="29.5468619" lon="103.335325"><ele>2415.04</ele><time>2026-06-27T11:00:58.000Z</time></trkpt>
        <trkpt lat="29.5468971" lon="103.3352152"><ele>2414.31</ele><time>2026-06-27T11:01:08.000Z</time></trkpt>
        <trkpt lat="29.5468702" lon="103.3351193"><ele>2413.38</ele><time>2026-06-27T11:01:18.000Z</time></trkpt>
        <trkpt lat="29.5468069" lon="103.3350439"><ele>2412.42</ele><time>2026-06-27T11:01:28.000Z</time></trkpt>
        <trkpt lat="29.5467081" lon="103.3349908"><ele>2410.92</ele><time>2026-06-27T11:01:38.000Z</time></trkpt>
        <trkpt lat="29.5466044" lon="103.3349441"><ele>2409.18</ele><time>2026-06-27T11:01:46.000Z</time></trkpt>
        <trkpt lat="29.5465169" lon="103.3348842"><ele>2407.06</ele><time>2026-06-27T11:02:00.000Z</time></trkpt>
        <trkpt lat="29.546436" lon="103.3348215"><ele>2404.16</ele><time>2026-06-27T11:02:16.000Z</time></trkpt>
        <trkpt lat="29.5463562" lon="103.334767"><ele>2402.21</ele><time>2026-06-27T11:02:24.000Z</time></trkpt>
        <trkpt lat="29.5462637" lon="103.33477"><ele>2401.83</ele><time>2026-06-27T11:02:54.000Z</time></trkpt>
        <trkpt lat="29.5461674" lon="103.3347958"><ele>2403.08</ele><time>2026-06-27T11:03:06.000Z</time></trkpt>
        <trkpt lat="29.5460637" lon="103.3347873"><ele>2404.23</ele><time>2026-06-27T11:03:18.000Z</time></trkpt>
        <trkpt lat="29.5459673" lon="103.3347717"><ele>2404.58</ele><time>2026-06-27T11:03:32.000Z</time></trkpt>
        <trkpt lat="29.545881" lon="103.3347205"><ele>2404</ele><time>2026-06-27T11:03:46.000Z</time></trkpt>
        <trkpt lat="29.5458282" lon="103.3346173"><ele>2402.28</ele><time>2026-06-27T11:03:56.000Z</time></trkpt>
        <trkpt lat="29.5457519" lon="103.3345344"><ele>2400.68</ele><time>2026-06-27T11:04:04.000Z</time></trkpt>
        <trkpt lat="29.5456777" lon="103.3344628"><ele>2398.84</ele><time>2026-06-27T11:04:14.000Z</time></trkpt>
        <trkpt lat="29.5455973" lon="103.3344043"><ele>2396.45</ele><time>2026-06-27T11:04:26.000Z</time></trkpt>
        <trkpt lat="29.5455271" lon="103.3343329"><ele>2394.53</ele><time>2026-06-27T11:04:42.000Z</time></trkpt>
        <trkpt lat="29.5454305" lon="103.3342969"><ele>2394.85</ele><time>2026-06-27T11:04:56.000Z</time></trkpt>
        <trkpt lat="29.5453481" lon="103.3342329"><ele>2395.07</ele><time>2026-06-27T11:05:10.000Z</time></trkpt>
        <trkpt lat="29.5452726" lon="103.3341653"><ele>2395.36</ele><time>2026-06-27T11:05:22.000Z</time></trkpt>
        <trkpt lat="29.5451803" lon="103.3341349"><ele>2395.88</ele><time>2026-06-27T11:05:32.000Z</time></trkpt>
        <trkpt lat="29.5450722" lon="103.3341211"><ele>2396.93</ele><time>2026-06-27T11:05:42.000Z</time></trkpt>
        <trkpt lat="29.5449722" lon="103.33412"><ele>2397.49</ele><time>2026-06-27T11:05:54.000Z</time></trkpt>
        <trkpt lat="29.5448772" lon="103.3341325"><ele>2396.22</ele><time>2026-06-27T11:06:02.000Z</time></trkpt>
        <trkpt lat="29.544785" lon="103.3341744"><ele>2395.48</ele><time>2026-06-27T11:06:12.000Z</time></trkpt>
        <trkpt lat="29.5446984" lon="103.3342335"><ele>2395.98</ele><time>2026-06-27T11:06:24.000Z</time></trkpt>
        <trkpt lat="29.5446087" lon="103.3342405"><ele>2396.21</ele><time>2026-06-27T11:06:36.000Z</time></trkpt>
        <trkpt lat="29.5445051" lon="103.3342287"><ele>2395.32</ele><time>2026-06-27T11:06:46.000Z</time></trkpt>
        <trkpt lat="29.5444062" lon="103.3342105"><ele>2395.27</ele><time>2026-06-27T11:06:56.000Z</time></trkpt>
        <trkpt lat="29.5443076" lon="103.3341977"><ele>2395.34</ele><time>2026-06-27T11:07:08.000Z</time></trkpt>
        <trkpt lat="29.5442076" lon="103.3341812"><ele>2395.3</ele><time>2026-06-27T11:07:22.000Z</time></trkpt>
        <trkpt lat="29.5441081" lon="103.3341466"><ele>2395.45</ele><time>2026-06-27T11:07:34.000Z</time></trkpt>
        <trkpt lat="29.544023" lon="103.3340832"><ele>2395.29</ele><time>2026-06-27T11:07:46.000Z</time></trkpt>
        <trkpt lat="29.5439492" lon="103.334002"><ele>2395.96</ele><time>2026-06-27T11:08:00.000Z</time></trkpt>
        <trkpt lat="29.5438597" lon="103.3339536"><ele>2397.06</ele><time>2026-06-27T11:08:14.000Z</time></trkpt>
        <trkpt lat="29.5437643" lon="103.3339617"><ele>2397.46</ele><time>2026-06-27T11:08:24.000Z</time></trkpt>
        <trkpt lat="29.5436784" lon="103.333922"><ele>2397.45</ele><time>2026-06-27T11:08:34.000Z</time></trkpt>
        <trkpt lat="29.5436171" lon="103.3338473"><ele>2397.08</ele><time>2026-06-27T11:08:44.000Z</time></trkpt>
        <trkpt lat="29.5435565" lon="103.333762"><ele>2397.1</ele><time>2026-06-27T11:08:56.000Z</time></trkpt>
        <trkpt lat="29.543481" lon="103.3337017"><ele>2397.29</ele><time>2026-06-27T11:09:08.000Z</time></trkpt>
        <trkpt lat="29.5434175" lon="103.3336237"><ele>2396.69</ele><time>2026-06-27T11:09:22.000Z</time></trkpt>
        <trkpt lat="29.5433901" lon="103.3335183"><ele>2395.3</ele><time>2026-06-27T11:09:34.000Z</time></trkpt>
        <trkpt lat="29.5433994" lon="103.3334057"><ele>2393.5</ele><time>2026-06-27T11:09:50.000Z</time></trkpt>
        <trkpt lat="29.543384" lon="103.3332912"><ele>2392.99</ele><time>2026-06-27T11:10:04.000Z</time></trkpt>
        <trkpt lat="29.5433334" lon="103.3331899"><ele>2392.99</ele><time>2026-06-27T11:10:16.000Z</time></trkpt>
        <trkpt lat="29.5432888" lon="103.3330855"><ele>2392.11</ele><time>2026-06-27T11:10:34.000Z</time></trkpt>
        <trkpt lat="29.5432138" lon="103.3330028"><ele>2392.53</ele><time>2026-06-27T11:10:46.000Z</time></trkpt>
        <trkpt lat="29.5431084" lon="103.3329786"><ele>2392.29</ele><time>2026-06-27T11:10:56.000Z</time></trkpt>
        <trkpt lat="29.5430037" lon="103.3329845"><ele>2391.37</ele><time>2026-06-27T11:11:06.000Z</time></trkpt>
        <trkpt lat="29.5429186" lon="103.3329453"><ele>2391.09</ele><time>2026-06-27T11:11:16.000Z</time></trkpt>
        <trkpt lat="29.5428529" lon="103.3328743"><ele>2391.06</ele><time>2026-06-27T11:11:32.000Z</time></trkpt>
        <trkpt lat="29.5428023" lon="103.3327765"><ele>2390.48</ele><time>2026-06-27T11:11:44.000Z</time></trkpt>
        <trkpt lat="29.5427548" lon="103.3326736"><ele>2390.21</ele><time>2026-06-27T11:11:56.000Z</time></trkpt>
        <trkpt lat="29.5426675" lon="103.3326363"><ele>2389.6</ele><time>2026-06-27T11:12:06.000Z</time></trkpt>
        <trkpt lat="29.5425856" lon="103.3325718"><ele>2389.43</ele><time>2026-06-27T11:12:18.000Z</time></trkpt>
        <trkpt lat="29.5425612" lon="103.3324659"><ele>2389.61</ele><time>2026-06-27T11:12:32.000Z</time></trkpt>
        <trkpt lat="29.5425118" lon="103.3323657"><ele>2389.77</ele><time>2026-06-27T11:12:48.000Z</time></trkpt>
        <trkpt lat="29.5424636" lon="103.3322607"><ele>2388.83</ele><time>2026-06-27T11:13:00.000Z</time></trkpt>
        <trkpt lat="29.5423981" lon="103.3321641"><ele>2388.51</ele><time>2026-06-27T11:13:12.000Z</time></trkpt>
        <trkpt lat="29.5423076" lon="103.3320878"><ele>2387.64</ele><time>2026-06-27T11:13:20.000Z</time></trkpt>
        <trkpt lat="29.5422228" lon="103.3320276"><ele>2386.53</ele><time>2026-06-27T11:13:28.000Z</time></trkpt>
        <trkpt lat="29.5421211" lon="103.3320154"><ele>2385.44</ele><time>2026-06-27T11:13:38.000Z</time></trkpt>
        <trkpt lat="29.5420213" lon="103.3320548"><ele>2384.89</ele><time>2026-06-27T11:13:54.000Z</time></trkpt>
        <trkpt lat="29.5419678" lon="103.331981"><ele>2383.35</ele><time>2026-06-27T11:14:04.000Z</time></trkpt>
        <trkpt lat="29.5419228" lon="103.3318846"><ele>2382.02</ele><time>2026-06-27T11:14:12.000Z</time></trkpt>
        <trkpt lat="29.5418949" lon="103.331775"><ele>2381.7</ele><time>2026-06-27T11:14:20.000Z</time></trkpt>
        <trkpt lat="29.54184" lon="103.3316745"><ele>2381.45</ele><time>2026-06-27T11:14:30.000Z</time></trkpt>
        <trkpt lat="29.5417409" lon="103.3316625"><ele>2381.58</ele><time>2026-06-27T11:14:38.000Z</time></trkpt>
        <trkpt lat="29.5416425" lon="103.331687"><ele>2381.6</ele><time>2026-06-27T11:14:46.000Z</time></trkpt>
        <trkpt lat="29.5415394" lon="103.3317009"><ele>2381.3</ele><time>2026-06-27T11:14:56.000Z</time></trkpt>
        <trkpt lat="29.5414325" lon="103.3317214"><ele>2381.25</ele><time>2026-06-27T11:15:06.000Z</time></trkpt>
        <trkpt lat="29.5413383" lon="103.3317837"><ele>2380.88</ele><time>2026-06-27T11:15:16.000Z</time></trkpt>
        <trkpt lat="29.5412483" lon="103.331833"><ele>2381.86</ele><time>2026-06-27T11:15:26.000Z</time></trkpt>
        <trkpt lat="29.5411368" lon="103.3318257"><ele>2381.65</ele><time>2026-06-27T11:15:44.000Z</time></trkpt>
        <trkpt lat="29.5410302" lon="103.3318081"><ele>2381.49</ele><time>2026-06-27T11:16:22.000Z</time></trkpt>
        <trkpt lat="29.5409271" lon="103.3317944"><ele>2383.16</ele><time>2026-06-27T11:16:36.000Z</time></trkpt>
        <trkpt lat="29.540838" lon="103.331754"><ele>2385.1</ele><time>2026-06-27T11:16:46.000Z</time></trkpt>
        <trkpt lat="29.5407441" lon="103.3317409"><ele>2386.97</ele><time>2026-06-27T11:16:58.000Z</time></trkpt>
        <trkpt lat="29.5406456" lon="103.3317572"><ele>2388.17</ele><time>2026-06-27T11:17:10.000Z</time></trkpt>
        <trkpt lat="29.5405508" lon="103.3318112"><ele>2389.77</ele><time>2026-06-27T11:17:20.000Z</time></trkpt>
        <trkpt lat="29.540465" lon="103.3318662"><ele>2390.62</ele><time>2026-06-27T11:17:36.000Z</time></trkpt>
        <trkpt lat="29.5403769" lon="103.3319175"><ele>2392.12</ele><time>2026-06-27T11:17:50.000Z</time></trkpt>
        <trkpt lat="29.5402819" lon="103.3319388"><ele>2392.71</ele><time>2026-06-27T11:18:00.000Z</time></trkpt>
        <trkpt lat="29.5402084" lon="103.3320071"><ele>2393.4</ele><time>2026-06-27T11:18:12.000Z</time></trkpt>
        <trkpt lat="29.5401564" lon="103.332099"><ele>2394.22</ele><time>2026-06-27T11:18:24.000Z</time></trkpt>
        <trkpt lat="29.5400739" lon="103.3321636"><ele>2395.26</ele><time>2026-06-27T11:18:36.000Z</time></trkpt>
        <trkpt lat="29.539988" lon="103.3322241"><ele>2395.54</ele><time>2026-06-27T11:18:48.000Z</time></trkpt>
        <trkpt lat="29.5398969" lon="103.3322639"><ele>2396.21</ele><time>2026-06-27T11:19:02.000Z</time></trkpt>
        <trkpt lat="29.5398112" lon="103.3323088"><ele>2396.83</ele><time>2026-06-27T11:19:32.000Z</time></trkpt>
        <trkpt lat="29.5397378" lon="103.3323802"><ele>2397.66</ele><time>2026-06-27T11:19:42.000Z</time></trkpt>
        <trkpt lat="29.5396595" lon="103.3324368"><ele>2397.21</ele><time>2026-06-27T11:19:56.000Z</time></trkpt>
        <trkpt lat="29.5395817" lon="103.3325057"><ele>2397.75</ele><time>2026-06-27T11:20:14.000Z</time></trkpt>
        <trkpt lat="29.539508" lon="103.3325724"><ele>2399</ele><time>2026-06-27T11:20:32.000Z</time></trkpt>
        <trkpt lat="29.5394278" lon="103.3326214"><ele>2399.48</ele><time>2026-06-27T11:20:50.000Z</time></trkpt>
        <trkpt lat="29.5393437" lon="103.332687"><ele>2401.02</ele><time>2026-06-27T11:21:04.000Z</time></trkpt>
        <trkpt lat="29.5392739" lon="103.3327597"><ele>2401.83</ele><time>2026-06-27T11:21:28.000Z</time></trkpt>
        <trkpt lat="29.5392013" lon="103.332845"><ele>2404.21</ele><time>2026-06-27T11:21:40.000Z</time></trkpt>
        <trkpt lat="29.5391221" lon="103.3329078"><ele>2405.75</ele><time>2026-06-27T11:21:52.000Z</time></trkpt>
        <trkpt lat="29.5390382" lon="103.3329696"><ele>2406.75</ele><time>2026-06-27T11:22:02.000Z</time></trkpt>
        <trkpt lat="29.5389581" lon="103.3330389"><ele>2407.68</ele><time>2026-06-27T11:22:14.000Z</time></trkpt>
        <trkpt lat="29.5388611" lon="103.3330933"><ele>2408.73</ele><time>2026-06-27T11:22:26.000Z</time></trkpt>
        <trkpt lat="29.5387509" lon="103.3331223"><ele>2409.97</ele><time>2026-06-27T11:22:34.000Z</time></trkpt>
        <trkpt lat="29.5386513" lon="103.333158"><ele>2410.25</ele><time>2026-06-27T11:22:44.000Z</time></trkpt>
        <trkpt lat="29.5385628" lon="103.3331987"><ele>2410.64</ele><time>2026-06-27T11:22:56.000Z</time></trkpt>
        <trkpt lat="29.5384684" lon="103.3332229"><ele>2410.98</ele><time>2026-06-27T11:23:10.000Z</time></trkpt>
        <trkpt lat="29.5383691" lon="103.333244"><ele>2411.34</ele><time>2026-06-27T11:23:24.000Z</time></trkpt>
        <trkpt lat="29.5382796" lon="103.3332806"><ele>2412.08</ele><time>2026-06-27T11:23:34.000Z</time></trkpt>
        <trkpt lat="29.5381898" lon="103.3333276"><ele>2413.04</ele><time>2026-06-27T11:23:42.000Z</time></trkpt>
        <trkpt lat="29.5380971" lon="103.3333776"><ele>2414.79</ele><time>2026-06-27T11:23:52.000Z</time></trkpt>
        <trkpt lat="29.5380129" lon="103.3334397"><ele>2416.47</ele><time>2026-06-27T11:24:00.000Z</time></trkpt>
        <trkpt lat="29.5379238" lon="103.3334999"><ele>2418.08</ele><time>2026-06-27T11:24:10.000Z</time></trkpt>
        <trkpt lat="29.5378389" lon="103.3335516"><ele>2419.1</ele><time>2026-06-27T11:24:20.000Z</time></trkpt>
        <trkpt lat="29.5377495" lon="103.3335968"><ele>2420.18</ele><time>2026-06-27T11:24:28.000Z</time></trkpt>
        <trkpt lat="29.5376699" lon="103.3336581"><ele>2421.63</ele><time>2026-06-27T11:24:40.000Z</time></trkpt>
        <trkpt lat="29.5375892" lon="103.3337283"><ele>2423.37</ele><time>2026-06-27T11:24:54.000Z</time></trkpt>
        <trkpt lat="29.5375031" lon="103.3337721"><ele>2424.79</ele><time>2026-06-27T11:25:12.000Z</time></trkpt>
        <trkpt lat="29.5374119" lon="103.3337791"><ele>2425.76</ele><time>2026-06-27T11:25:28.000Z</time></trkpt>
        <trkpt lat="29.5373101" lon="103.3337968"><ele>2426.92</ele><time>2026-06-27T11:25:42.000Z</time></trkpt>
        <trkpt lat="29.5372479" lon="103.3338803"><ele>2427.8</ele><time>2026-06-27T11:26:14.000Z</time></trkpt>
        <trkpt lat="29.5372076" lon="103.3339834"><ele>2429.59</ele><time>2026-06-27T11:26:34.000Z</time></trkpt>
        <trkpt lat="29.537172" lon="103.3340855"><ele>2431.12</ele><time>2026-06-27T11:26:44.000Z</time></trkpt>
        <trkpt lat="29.5371037" lon="103.334156"><ele>2432.65</ele><time>2026-06-27T11:27:04.000Z</time></trkpt>
        <trkpt lat="29.537014" lon="103.3341926"><ele>2434.69</ele><time>2026-06-27T11:27:20.000Z</time></trkpt>
        <trkpt lat="29.5369108" lon="103.3342325"><ele>2436.11</ele><time>2026-06-27T11:27:44.000Z</time></trkpt>
        <trkpt lat="29.5368121" lon="103.3342721"><ele>2437.75</ele><time>2026-06-27T11:28:00.000Z</time></trkpt>
        <trkpt lat="29.5367099" lon="103.3343088"><ele>2438.46</ele><time>2026-06-27T11:28:22.000Z</time></trkpt>
        <trkpt lat="29.5366178" lon="103.3343441"><ele>2441.51</ele><time>2026-06-27T11:28:34.000Z</time></trkpt>
        <trkpt lat="29.5365235" lon="103.3343637"><ele>2442.73</ele><time>2026-06-27T11:28:46.000Z</time></trkpt>
        <trkpt lat="29.5364168" lon="103.3343576"><ele>2444.26</ele><time>2026-06-27T11:28:58.000Z</time></trkpt>
        <trkpt lat="29.5363216" lon="103.3343664"><ele>2445</ele><time>2026-06-27T11:29:12.000Z</time></trkpt>
        <trkpt lat="29.5362216" lon="103.334318"><ele>2445.78</ele><time>2026-06-27T11:29:40.000Z</time></trkpt>
        <trkpt lat="29.5361166" lon="103.3342645"><ele>2446.12</ele><time>2026-06-27T11:29:46.000Z</time></trkpt>
        <trkpt lat="29.536019" lon="103.3342016"><ele>2446.38</ele><time>2026-06-27T11:30:24.000Z</time></trkpt>
        <trkpt lat="29.5359235" lon="103.33416"><ele>2449.24</ele><time>2026-06-27T11:30:36.000Z</time></trkpt>
        <trkpt lat="29.5358451" lon="103.3340956"><ele>2451.84</ele><time>2026-06-27T11:30:52.000Z</time></trkpt>
        <trkpt lat="29.5357647" lon="103.3340399"><ele>2454</ele><time>2026-06-27T11:31:10.000Z</time></trkpt>
        <trkpt lat="29.5356731" lon="103.3339952"><ele>2455.14</ele><time>2026-06-27T11:31:20.000Z</time></trkpt>
        <trkpt lat="29.5356059" lon="103.3339214"><ele>2456.55</ele><time>2026-06-27T11:31:38.000Z</time></trkpt>
        <trkpt lat="29.5355811" lon="103.3338187"><ele>2458.45</ele><time>2026-06-27T11:32:14.000Z</time></trkpt>
        <trkpt lat="29.5355053" lon="103.3337542"><ele>2462.29</ele><time>2026-06-27T11:32:28.000Z</time></trkpt>
        <trkpt lat="29.5354389" lon="103.3336697"><ele>2464.57</ele><time>2026-06-27T11:32:38.000Z</time></trkpt>
        <trkpt lat="29.5353949" lon="103.3335593"><ele>2466.61</ele><time>2026-06-27T11:32:50.000Z</time></trkpt>
        <trkpt lat="29.5353372" lon="103.3334682"><ele>2467.76</ele><time>2026-06-27T11:33:10.000Z</time></trkpt>
        <trkpt lat="29.5353057" lon="103.3333647"><ele>2470.4</ele><time>2026-06-27T11:33:26.000Z</time></trkpt>
        <trkpt lat="29.5352675" lon="103.3332571"><ele>2473.02</ele><time>2026-06-27T11:33:46.000Z</time></trkpt>
        <trkpt lat="29.5352246" lon="103.3331584"><ele>2476.74</ele><time>2026-06-27T11:34:16.000Z</time></trkpt>
        <trkpt lat="29.5351852" lon="103.3330615"><ele>2479.5</ele><time>2026-06-27T11:34:38.000Z</time></trkpt>
        <trkpt lat="29.5351373" lon="103.3329612"><ele>2483.05</ele><time>2026-06-27T11:34:58.000Z</time></trkpt>
        <trkpt lat="29.5350784" lon="103.3328621"><ele>2486.1</ele><time>2026-06-27T11:35:14.000Z</time></trkpt>
        <trkpt lat="29.5349875" lon="103.3328184"><ele>2487.95</ele><time>2026-06-27T11:35:28.000Z</time></trkpt>
        <trkpt lat="29.5348975" lon="103.3328694"><ele>2489.15</ele><time>2026-06-27T11:35:40.000Z</time></trkpt>
        <trkpt lat="29.5347086" lon="103.3327057"><ele>2490.04</ele><time>2026-06-27T11:36:28.000Z</time></trkpt>
        <trkpt lat="29.5347808" lon="103.3328573"><ele>2492.46</ele><time>2026-06-27T11:36:43.000Z</time></trkpt>
        <trkpt lat="29.5347545" lon="103.3329372"><ele>2494.21</ele><time>2026-06-27T11:37:19.000Z</time></trkpt>
        <trkpt lat="29.5346853" lon="103.3329894"><ele>2496.88</ele><time>2026-06-27T11:37:35.000Z</time></trkpt>
        <trkpt lat="29.5345959" lon="103.3330025"><ele>2497.68</ele><time>2026-06-27T11:37:49.000Z</time></trkpt>
        <trkpt lat="29.5344971" lon="103.3330325"><ele>2499.24</ele><time>2026-06-27T11:38:07.000Z</time></trkpt>
        <trkpt lat="29.5344021" lon="103.3330676"><ele>2501.52</ele><time>2026-06-27T11:38:23.000Z</time></trkpt>
        <trkpt lat="29.5343142" lon="103.3331277"><ele>2503.26</ele><time>2026-06-27T11:39:07.000Z</time></trkpt>
        <trkpt lat="29.5342238" lon="103.3331213"><ele>2505.11</ele><time>2026-06-27T11:39:37.000Z</time></trkpt>
        <trkpt lat="29.5341304" lon="103.3331239"><ele>2506.95</ele><time>2026-06-27T11:39:47.000Z</time></trkpt>
        <trkpt lat="29.534053" lon="103.3331802"><ele>2509.14</ele><time>2026-06-27T11:40:13.000Z</time></trkpt>
        <trkpt lat="29.5339745" lon="103.3331643"><ele>2511.99</ele><time>2026-06-27T11:40:31.000Z</time></trkpt>
        <trkpt lat="29.534083" lon="103.3332374"><ele>2513.8</ele><time>2026-06-27T12:41:20.000Z</time></trkpt>
        <trkpt lat="29.5338641" lon="103.3330495"><ele>2520.07</ele><time>2026-06-27T12:41:30.000Z</time></trkpt>
        <trkpt lat="29.5338995" lon="103.333132"><ele>2522.87</ele><time>2026-06-27T12:41:38.000Z</time></trkpt>
        <trkpt lat="29.5339268" lon="103.3331722"><ele>2524.47</ele><time>2026-06-27T12:41:40.000Z</time></trkpt>
        <trkpt lat="29.5339326" lon="103.3331105"><ele>2525.38</ele><time>2026-06-27T12:42:08.000Z</time></trkpt>
        <trkpt lat="29.5339965" lon="103.3331842"><ele>2525.9</ele><time>2026-06-27T12:44:44.000Z</time></trkpt>
        <trkpt lat="29.5339158" lon="103.3331149"><ele>2526.19</ele><time>2026-06-27T12:48:10.000Z</time></trkpt>
        <trkpt lat="29.5338152" lon="103.3330719"><ele>2526.36</ele><time>2026-06-27T13:00:52.000Z</time></trkpt>
        <trkpt lat="29.5337427" lon="103.3330105"><ele>2524.39</ele><time>2026-06-27T13:01:50.000Z</time></trkpt>
        <trkpt lat="29.5336557" lon="103.33292"><ele>2523.91</ele><time>2026-06-27T13:02:24.000Z</time></trkpt>
        <trkpt lat="29.5335588" lon="103.3328226"><ele>2524.12</ele><time>2026-06-27T13:03:20.000Z</time></trkpt>
        <trkpt lat="29.5334283" lon="103.3327206"><ele>2524.32</ele><time>2026-06-27T13:03:34.000Z</time></trkpt>
        <trkpt lat="29.533343" lon="103.3326305"><ele>2524.72</ele><time>2026-06-27T13:04:04.000Z</time></trkpt>
        <trkpt lat="29.5332556" lon="103.3325736"><ele>2525.09</ele><time>2026-06-27T13:04:14.000Z</time></trkpt>
        <trkpt lat="29.5331765" lon="103.332506"><ele>2525.79</ele><time>2026-06-27T13:04:18.000Z</time></trkpt>
        <trkpt lat="29.5331026" lon="103.3324396"><ele>2526.25</ele><time>2026-06-27T13:04:32.000Z</time></trkpt>
        <trkpt lat="29.533033" lon="103.3323742"><ele>2526.93</ele><time>2026-06-27T13:04:36.000Z</time></trkpt>
        <trkpt lat="29.5329447" lon="103.3323042"><ele>2527.8</ele><time>2026-06-27T13:04:44.000Z</time></trkpt>
        <trkpt lat="29.5328711" lon="103.3322286"><ele>2529.95</ele><time>2026-06-27T13:05:00.000Z</time></trkpt>
        <trkpt lat="29.5327935" lon="103.3321295"><ele>2531.97</ele><time>2026-06-27T13:05:44.000Z</time></trkpt>
        <trkpt lat="29.5327274" lon="103.3320251"><ele>2538.03</ele><time>2026-06-27T13:05:54.000Z</time></trkpt>
        <trkpt lat="29.5326435" lon="103.3319639"><ele>2543.09</ele><time>2026-06-27T13:06:14.000Z</time></trkpt>
        <trkpt lat="29.5325774" lon="103.3318929"><ele>2549.14</ele><time>2026-06-27T13:06:40.000Z</time></trkpt>
        <trkpt lat="29.5325092" lon="103.3318155"><ele>2559.26</ele><time>2026-06-27T13:07:02.000Z</time></trkpt>
        <trkpt lat="29.5324773" lon="103.3317202"><ele>2567.58</ele><time>2026-06-27T13:07:34.000Z</time></trkpt>
        <trkpt lat="29.5324785" lon="103.3316139"><ele>2572.64</ele><time>2026-06-27T13:08:00.000Z</time></trkpt>
        <trkpt lat="29.5324436" lon="103.3315134"><ele>2575.62</ele><time>2026-06-27T13:08:36.000Z</time></trkpt>
        <trkpt lat="29.5324222" lon="103.3313992"><ele>2577.93</ele><time>2026-06-27T13:08:58.000Z</time></trkpt>
        <trkpt lat="29.5323811" lon="103.3312879"><ele>2580.16</ele><time>2026-06-27T13:09:22.000Z</time></trkpt>
        <trkpt lat="29.5323287" lon="103.3311946"><ele>2582.59</ele><time>2026-06-27T13:09:48.000Z</time></trkpt>
        <trkpt lat="29.5322596" lon="103.3311195"><ele>2585.76</ele><time>2026-06-27T13:10:08.000Z</time></trkpt>
        <trkpt lat="29.5322002" lon="103.3311681"><ele>2594.06</ele><time>2026-06-27T13:10:22.000Z</time></trkpt>
        <trkpt lat="29.5321402" lon="103.331262"><ele>2600.3</ele><time>2026-06-27T13:10:44.000Z</time></trkpt>
        <trkpt lat="29.5321149" lon="103.3312217"><ele>2603.72</ele><time>2026-06-27T13:11:34.000Z</time></trkpt>
        <trkpt lat="29.5321651" lon="103.3311374"><ele>2607.49</ele><time>2026-06-27T13:11:50.000Z</time></trkpt>
        <trkpt lat="29.53218" lon="103.3310278"><ele>2609.51</ele><time>2026-06-27T13:12:08.000Z</time></trkpt>
        <trkpt lat="29.5321618" lon="103.3309166"><ele>2613.72</ele><time>2026-06-27T13:12:24.000Z</time></trkpt>
        <trkpt lat="29.5321509" lon="103.3308044"><ele>2618.06</ele><time>2026-06-27T13:12:44.000Z</time></trkpt>
        <trkpt lat="29.5321346" lon="103.3306969"><ele>2621.15</ele><time>2026-06-27T13:12:58.000Z</time></trkpt>
        <trkpt lat="29.5321334" lon="103.3305797"><ele>2622.59</ele><time>2026-06-27T13:13:10.000Z</time></trkpt>
        <trkpt lat="29.5321475" lon="103.3304727"><ele>2623.23</ele><time>2026-06-27T13:13:28.000Z</time></trkpt>
        <trkpt lat="29.5321139" lon="103.3303833"><ele>2624.27</ele><time>2026-06-27T13:14:04.000Z</time></trkpt>
        <trkpt lat="29.5321132" lon="103.3302807"><ele>2628.34</ele><time>2026-06-27T13:14:48.000Z</time></trkpt>
        <trkpt lat="29.5321528" lon="103.3301867"><ele>2631.24</ele><time>2026-06-27T13:15:14.000Z</time></trkpt>
        <trkpt lat="29.532137" lon="103.3300892"><ele>2634.03</ele><time>2026-06-27T13:15:26.000Z</time></trkpt>
        <trkpt lat="29.5321572" lon="103.3301364"><ele>2636.41</ele><time>2026-06-27T13:16:00.000Z</time></trkpt>
        <trkpt lat="29.5320698" lon="103.3301978"><ele>2638.53</ele><time>2026-06-27T13:18:08.000Z</time></trkpt>
        <trkpt lat="29.5319746" lon="103.3302181"><ele>2641.29</ele><time>2026-06-27T13:19:02.000Z</time></trkpt>
        <trkpt lat="29.5318814" lon="103.3301925"><ele>2644.21</ele><time>2026-06-27T13:19:26.000Z</time></trkpt>
        <trkpt lat="29.5318081" lon="103.3301285"><ele>2647.54</ele><time>2026-06-27T13:20:12.000Z</time></trkpt>
        <trkpt lat="29.5317269" lon="103.3300736"><ele>2651.06</ele><time>2026-06-27T13:20:56.000Z</time></trkpt>
        <trkpt lat="29.5316608" lon="103.329999"><ele>2657.08</ele><time>2026-06-27T13:21:14.000Z</time></trkpt>
        <trkpt lat="29.5315757" lon="103.3299454"><ele>2660.96</ele><time>2026-06-27T13:21:46.000Z</time></trkpt>
        <trkpt lat="29.5314876" lon="103.3299076"><ele>2664.83</ele><time>2026-06-27T13:22:14.000Z</time></trkpt>
        <trkpt lat="29.5314161" lon="103.329837"><ele>2666.96</ele><time>2026-06-27T13:23:04.000Z</time></trkpt>
        <trkpt lat="29.5313377" lon="103.3297838"><ele>2668.39</ele><time>2026-06-27T13:23:50.000Z</time></trkpt>
        <trkpt lat="29.531295" lon="103.3296854"><ele>2670.5</ele><time>2026-06-27T13:24:50.000Z</time></trkpt>
        <trkpt lat="29.531222" lon="103.3296242"><ele>2673.87</ele><time>2026-06-27T13:25:14.000Z</time></trkpt>
        <trkpt lat="29.5311842" lon="103.3295258"><ele>2679.02</ele><time>2026-06-27T13:26:16.000Z</time></trkpt>
        <trkpt lat="29.5311292" lon="103.329441"><ele>2689.05</ele><time>2026-06-27T13:26:34.000Z</time></trkpt>
        <trkpt lat="29.5311255" lon="103.3293351"><ele>2697.53</ele><time>2026-06-27T13:26:52.000Z</time></trkpt>
        <trkpt lat="29.5311006" lon="103.329229"><ele>2704.25</ele><time>2026-06-27T13:27:08.000Z</time></trkpt>
        <trkpt lat="29.531089" lon="103.3291215"><ele>2709.18</ele><time>2026-06-27T13:27:18.000Z</time></trkpt>
        <trkpt lat="29.5310782" lon="103.3290047"><ele>2713.73</ele><time>2026-06-27T13:27:30.000Z</time></trkpt>
        <trkpt lat="29.531086" lon="103.3288846"><ele>2717.48</ele><time>2026-06-27T13:28:00.000Z</time></trkpt>
        <trkpt lat="29.5310956" lon="103.3287741"><ele>2722.6</ele><time>2026-06-27T13:28:08.000Z</time></trkpt>
        <trkpt lat="29.5311096" lon="103.3286619"><ele>2726.56</ele><time>2026-06-27T13:28:22.000Z</time></trkpt>
        <trkpt lat="29.5311307" lon="103.3285505"><ele>2729.88</ele><time>2026-06-27T13:28:40.000Z</time></trkpt>
        <trkpt lat="29.5311639" lon="103.3284387"><ele>2732.75</ele><time>2026-06-27T13:29:00.000Z</time></trkpt>
        <trkpt lat="29.5311943" lon="103.3283349"><ele>2735.58</ele><time>2026-06-27T13:29:12.000Z</time></trkpt>
        <trkpt lat="29.5312265" lon="103.3282326"><ele>2738.67</ele><time>2026-06-27T13:29:20.000Z</time></trkpt>
        <trkpt lat="29.5312528" lon="103.3281268"><ele>2741.2</ele><time>2026-06-27T13:29:28.000Z</time></trkpt>
        <trkpt lat="29.5312557" lon="103.328008"><ele>2743.27</ele><time>2026-06-27T13:29:40.000Z</time></trkpt>
        <trkpt lat="29.5312566" lon="103.3278984"><ele>2744.93</ele><time>2026-06-27T13:29:52.000Z</time></trkpt>
        <trkpt lat="29.5312276" lon="103.3277931"><ele>2746.59</ele><time>2026-06-27T13:30:12.000Z</time></trkpt>
        <trkpt lat="29.5312184" lon="103.3276808"><ele>2748.88</ele><time>2026-06-27T13:30:26.000Z</time></trkpt>
        <trkpt lat="29.5312381" lon="103.3275758"><ele>2750.7</ele><time>2026-06-27T13:30:44.000Z</time></trkpt>
        <trkpt lat="29.5312316" lon="103.3274665"><ele>2752.6</ele><time>2026-06-27T13:30:58.000Z</time></trkpt>
        <trkpt lat="29.5312178" lon="103.3273597"><ele>2754.13</ele><time>2026-06-27T13:31:30.000Z</time></trkpt>
        <trkpt lat="29.5312117" lon="103.3272547"><ele>2755.78</ele><time>2026-06-27T13:31:46.000Z</time></trkpt>
        <trkpt lat="29.5312024" lon="103.3271516"><ele>2758.15</ele><time>2026-06-27T13:32:04.000Z</time></trkpt>
        <trkpt lat="29.5311671" lon="103.3270479"><ele>2760.79</ele><time>2026-06-27T13:32:24.000Z</time></trkpt>
        <trkpt lat="29.5310919" lon="103.3269946"><ele>2762.75</ele><time>2026-06-27T13:32:50.000Z</time></trkpt>
        <trkpt lat="29.5309984" lon="103.3269701"><ele>2764.05</ele><time>2026-06-27T13:33:16.000Z</time></trkpt>
        <trkpt lat="29.5309071" lon="103.326939"><ele>2765.21</ele><time>2026-06-27T13:33:24.000Z</time></trkpt>
        <trkpt lat="29.5308304" lon="103.3268802"><ele>2766.34</ele><time>2026-06-27T13:33:58.000Z</time></trkpt>
        <trkpt lat="29.5307769" lon="103.3267914"><ele>2771.01</ele><time>2026-06-27T13:34:12.000Z</time></trkpt>
        <trkpt lat="29.5306866" lon="103.3267846"><ele>2774.03</ele><time>2026-06-27T13:35:00.000Z</time></trkpt>
        <trkpt lat="29.5305891" lon="103.3268402"><ele>2779.04</ele><time>2026-06-27T13:35:22.000Z</time></trkpt>
        <trkpt lat="29.5304993" lon="103.3268983"><ele>2783.69</ele><time>2026-06-27T13:35:40.000Z</time></trkpt>
        <trkpt lat="29.5303997" lon="103.3269384"><ele>2787.49</ele><time>2026-06-27T13:35:52.000Z</time></trkpt>
        <trkpt lat="29.5303068" lon="103.3269778"><ele>2789.69</ele><time>2026-06-27T13:36:10.000Z</time></trkpt>
        <trkpt lat="29.530215" lon="103.3270231"><ele>2795.09</ele><time>2026-06-27T13:36:26.000Z</time></trkpt>
        <trkpt lat="29.5301361" lon="103.3270932"><ele>2798.17</ele><time>2026-06-27T13:36:44.000Z</time></trkpt>
        <trkpt lat="29.5300612" lon="103.3271637"><ele>2800.08</ele><time>2026-06-27T13:36:56.000Z</time></trkpt>
        <trkpt lat="29.5299924" lon="103.3272476"><ele>2802.34</ele><time>2026-06-27T13:37:12.000Z</time></trkpt>
        <trkpt lat="29.5299252" lon="103.3273271"><ele>2804.09</ele><time>2026-06-27T13:37:20.000Z</time></trkpt>
        <trkpt lat="29.529873" lon="103.3274232"><ele>2805.06</ele><time>2026-06-27T13:37:32.000Z</time></trkpt>
        <trkpt lat="29.5298278" lon="103.3275193"><ele>2806.47</ele><time>2026-06-27T13:37:38.000Z</time></trkpt>
        <trkpt lat="29.5297805" lon="103.3276147"><ele>2807.03</ele><time>2026-06-27T13:37:48.000Z</time></trkpt>
        <trkpt lat="29.5297346" lon="103.327723"><ele>2807.18</ele><time>2026-06-27T13:38:00.000Z</time></trkpt>
        <trkpt lat="29.5296603" lon="103.3277985"><ele>2806.6</ele><time>2026-06-27T13:38:10.000Z</time></trkpt>
        <trkpt lat="29.5295611" lon="103.3278098"><ele>2806.15</ele><time>2026-06-27T13:38:24.000Z</time></trkpt>
        <trkpt lat="29.5294528" lon="103.3277992"><ele>2806.65</ele><time>2026-06-27T13:38:34.000Z</time></trkpt>
        <trkpt lat="29.5293437" lon="103.3277922"><ele>2806.92</ele><time>2026-06-27T13:38:50.000Z</time></trkpt>
        <trkpt lat="29.5292706" lon="103.3278565"><ele>2806.9</ele><time>2026-06-27T13:39:06.000Z</time></trkpt>
        <trkpt lat="29.5292228" lon="103.3279511"><ele>2806.8</ele><time>2026-06-27T13:39:22.000Z</time></trkpt>
        <trkpt lat="29.5291924" lon="103.3280598"><ele>2807.12</ele><time>2026-06-27T13:39:36.000Z</time></trkpt>
        <trkpt lat="29.529161" lon="103.3281711"><ele>2807.76</ele><time>2026-06-27T13:39:48.000Z</time></trkpt>
        <trkpt lat="29.529143" lon="103.3282876"><ele>2808.98</ele><time>2026-06-27T13:40:02.000Z</time></trkpt>
        <trkpt lat="29.529123" lon="103.3283975"><ele>2811.3</ele><time>2026-06-27T13:40:40.000Z</time></trkpt>
        <trkpt lat="29.5290867" lon="103.3285021"><ele>2813.47</ele><time>2026-06-27T13:40:50.000Z</time></trkpt>
        <trkpt lat="29.5290528" lon="103.3286021"><ele>2815.21</ele><time>2026-06-27T13:41:08.000Z</time></trkpt>
        <trkpt lat="29.5290151" lon="103.3286999"><ele>2817.77</ele><time>2026-06-27T13:41:34.000Z</time></trkpt>
        <trkpt lat="29.5289684" lon="103.3288023"><ele>2820.29</ele><time>2026-06-27T13:41:46.000Z</time></trkpt>
        <trkpt lat="29.5289288" lon="103.3289082"><ele>2824.96</ele><time>2026-06-27T13:41:58.000Z</time></trkpt>
        <trkpt lat="29.5288763" lon="103.3289971"><ele>2827.69</ele><time>2026-06-27T13:42:10.000Z</time></trkpt>
        <trkpt lat="29.5288298" lon="103.3290932"><ele>2829.68</ele><time>2026-06-27T13:42:28.000Z</time></trkpt>
        <trkpt lat="29.5287784" lon="103.3291964"><ele>2831.36</ele><time>2026-06-27T13:42:46.000Z</time></trkpt>
        <trkpt lat="29.5287182" lon="103.3292814"><ele>2832.62</ele><time>2026-06-27T13:42:56.000Z</time></trkpt>
        <trkpt lat="29.5286735" lon="103.3293768"><ele>2834.22</ele><time>2026-06-27T13:43:12.000Z</time></trkpt>
        <trkpt lat="29.5286438" lon="103.3294808"><ele>2838.58</ele><time>2026-06-27T13:43:22.000Z</time></trkpt>
        <trkpt lat="29.5286156" lon="103.3295848"><ele>2841.82</ele><time>2026-06-27T13:43:34.000Z</time></trkpt>
        <trkpt lat="29.5285842" lon="103.3296876"><ele>2844.52</ele><time>2026-06-27T13:43:46.000Z</time></trkpt>
        <trkpt lat="29.5285761" lon="103.329794"><ele>2847.32</ele><time>2026-06-27T13:43:58.000Z</time></trkpt>
        <trkpt lat="29.5285511" lon="103.329904"><ele>2849.81</ele><time>2026-06-27T13:44:10.000Z</time></trkpt>
        <trkpt lat="29.5285049" lon="103.3300112"><ele>2851.86</ele><time>2026-06-27T13:44:20.000Z</time></trkpt>
        <trkpt lat="29.5284401" lon="103.3301031"><ele>2854.25</ele><time>2026-06-27T13:44:30.000Z</time></trkpt>
        <trkpt lat="29.528355" lon="103.3301775"><ele>2855.84</ele><time>2026-06-27T13:44:40.000Z</time></trkpt>
        <trkpt lat="29.5282899" lon="103.330269"><ele>2856.22</ele><time>2026-06-27T13:44:48.000Z</time></trkpt>
        <trkpt lat="29.5282536" lon="103.3303677"><ele>2856.21</ele><time>2026-06-27T13:44:56.000Z</time></trkpt>
        <trkpt lat="29.5282635" lon="103.3304745"><ele>2856.09</ele><time>2026-06-27T13:45:06.000Z</time></trkpt>
        <trkpt lat="29.5282896" lon="103.330583"><ele>2855.92</ele><time>2026-06-27T13:45:34.000Z</time></trkpt>
        <trkpt lat="29.5282468" lon="103.3306713"><ele>2856.99</ele><time>2026-06-27T13:45:46.000Z</time></trkpt>
        <trkpt lat="29.528184" lon="103.3307607"><ele>2857.94</ele><time>2026-06-27T13:45:56.000Z</time></trkpt>
        <trkpt lat="29.5281245" lon="103.3308473"><ele>2858.89</ele><time>2026-06-27T13:46:10.000Z</time></trkpt>
        <trkpt lat="29.5280866" lon="103.3309463"><ele>2859.8</ele><time>2026-06-27T13:46:42.000Z</time></trkpt>
        <trkpt lat="29.5280463" lon="103.3310433"><ele>2863.42</ele><time>2026-06-27T13:46:54.000Z</time></trkpt>
        <trkpt lat="29.5280051" lon="103.3311437"><ele>2865.92</ele><time>2026-06-27T13:47:02.000Z</time></trkpt>
        <trkpt lat="29.5279513" lon="103.3312435"><ele>2868.09</ele><time>2026-06-27T13:47:14.000Z</time></trkpt>
        <trkpt lat="29.5278727" lon="103.3313205"><ele>2869.62</ele><time>2026-06-27T13:47:32.000Z</time></trkpt>
        <trkpt lat="29.5278074" lon="103.3314035"><ele>2871.97</ele><time>2026-06-27T13:47:46.000Z</time></trkpt>
        <trkpt lat="29.5277497" lon="103.3314956"><ele>2874.23</ele><time>2026-06-27T13:48:02.000Z</time></trkpt>
        <trkpt lat="29.5277159" lon="103.3316004"><ele>2876.45</ele><time>2026-06-27T13:48:18.000Z</time></trkpt>
        <trkpt lat="29.5277096" lon="103.3317119"><ele>2878.31</ele><time>2026-06-27T13:48:32.000Z</time></trkpt>
        <trkpt lat="29.5276829" lon="103.331826"><ele>2881.15</ele><time>2026-06-27T13:48:40.000Z</time></trkpt>
        <trkpt lat="29.5276788" lon="103.3319391"><ele>2886.02</ele><time>2026-06-27T13:48:52.000Z</time></trkpt>
        <trkpt lat="29.5276231" lon="103.3320224"><ele>2888.91</ele><time>2026-06-27T13:49:06.000Z</time></trkpt>
        <trkpt lat="29.527568" lon="103.3321203"><ele>2891.03</ele><time>2026-06-27T13:49:48.000Z</time></trkpt>
        <trkpt lat="29.5275409" lon="103.3322252"><ele>2895.57</ele><time>2026-06-27T13:49:58.000Z</time></trkpt>
        <trkpt lat="29.5275477" lon="103.3323298"><ele>2897.98</ele><time>2026-06-27T13:50:16.000Z</time></trkpt>
        <trkpt lat="29.5275139" lon="103.3324184"><ele>2899.94</ele><time>2026-06-27T13:50:28.000Z</time></trkpt>
        <trkpt lat="29.5274551" lon="103.3325066"><ele>2900.5</ele><time>2026-06-27T13:50:38.000Z</time></trkpt>
        <trkpt lat="29.5273703" lon="103.3325445"><ele>2901.29</ele><time>2026-06-27T13:50:52.000Z</time></trkpt>
        <trkpt lat="29.5273095" lon="103.3324721"><ele>2902.35</ele><time>2026-06-27T13:51:02.000Z</time></trkpt>
        <trkpt lat="29.5272503" lon="103.3323726"><ele>2904.64</ele><time>2026-06-27T13:51:14.000Z</time></trkpt>
        <trkpt lat="29.5271675" lon="103.3323123"><ele>2906.06</ele><time>2026-06-27T13:51:24.000Z</time></trkpt>
        <trkpt lat="29.5270748" lon="103.3322715"><ele>2905.75</ele><time>2026-06-27T13:51:30.000Z</time></trkpt>
        <trkpt lat="29.52705" lon="103.3323431"><ele>2905.54</ele><time>2026-06-27T13:51:48.000Z</time></trkpt>
        <trkpt lat="29.5270563" lon="103.3324582"><ele>2906.77</ele><time>2026-06-27T13:52:02.000Z</time></trkpt>
        <trkpt lat="29.5270773" lon="103.3325793"><ele>2909.56</ele><time>2026-06-27T13:52:12.000Z</time></trkpt>
        <trkpt lat="29.5270823" lon="103.3327156"><ele>2910.73</ele><time>2026-06-27T13:52:22.000Z</time></trkpt>
        <trkpt lat="29.5270771" lon="103.3328397"><ele>2910.9</ele><time>2026-06-27T13:52:36.000Z</time></trkpt>
        <trkpt lat="29.5270696" lon="103.3329573"><ele>2911.23</ele><time>2026-06-27T13:52:48.000Z</time></trkpt>
        <trkpt lat="29.5270974" lon="103.3330682"><ele>2911.35</ele><time>2026-06-27T13:53:00.000Z</time></trkpt>
        <trkpt lat="29.5271242" lon="103.333182"><ele>2911.4</ele><time>2026-06-27T13:53:10.000Z</time></trkpt>
        <trkpt lat="29.5271023" lon="103.333287"><ele>2911.51</ele><time>2026-06-27T13:53:20.000Z</time></trkpt>
        <trkpt lat="29.5270293" lon="103.3333703"><ele>2911.8</ele><time>2026-06-27T13:53:30.000Z</time></trkpt>
        <trkpt lat="29.5269456" lon="103.3334302"><ele>2912.34</ele><time>2026-06-27T13:53:40.000Z</time></trkpt>
        <trkpt lat="29.5268482" lon="103.3334541"><ele>2914.76</ele><time>2026-06-27T13:54:26.000Z</time></trkpt>
        <trkpt lat="29.5267445" lon="103.3334547"><ele>2915.98</ele><time>2026-06-27T13:54:40.000Z</time></trkpt>
        <trkpt lat="29.5266596" lon="103.3335005"><ele>2919</ele><time>2026-06-27T13:54:56.000Z</time></trkpt>
        <trkpt lat="29.5265727" lon="103.3335393"><ele>2924.33</ele><time>2026-06-27T13:55:16.000Z</time></trkpt>
        <trkpt lat="29.5264835" lon="103.3335594"><ele>2928.82</ele><time>2026-06-27T13:55:32.000Z</time></trkpt>
        <trkpt lat="29.5263852" lon="103.3335949"><ele>2932.38</ele><time>2026-06-27T13:55:42.000Z</time></trkpt>
        <trkpt lat="29.5262976" lon="103.3336558"><ele>2934.84</ele><time>2026-06-27T13:55:50.000Z</time></trkpt>
        <trkpt lat="29.5262198" lon="103.333719"><ele>2937.52</ele><time>2026-06-27T13:56:00.000Z</time></trkpt>
        <trkpt lat="29.5261272" lon="103.3337757"><ele>2939.03</ele><time>2026-06-27T13:56:12.000Z</time></trkpt>
        <trkpt lat="29.5260468" lon="103.3338355"><ele>2940.41</ele><time>2026-06-27T13:56:30.000Z</time></trkpt>
        <trkpt lat="29.5259626" lon="103.3338931"><ele>2941.58</ele><time>2026-06-27T13:56:42.000Z</time></trkpt>
        <trkpt lat="29.5258741" lon="103.3339446"><ele>2942.75</ele><time>2026-06-27T13:56:54.000Z</time></trkpt>
        <trkpt lat="29.5257927" lon="103.3340135"><ele>2944.81</ele><time>2026-06-27T13:57:08.000Z</time></trkpt>
        <trkpt lat="29.5257237" lon="103.3340907"><ele>2946.9</ele><time>2026-06-27T13:57:18.000Z</time></trkpt>
        <trkpt lat="29.5256516" lon="103.3341762"><ele>2947.98</ele><time>2026-06-27T13:57:40.000Z</time></trkpt>
        <trkpt lat="29.525568" lon="103.3342608"><ele>2948.54</ele><time>2026-06-27T13:57:54.000Z</time></trkpt>
        <trkpt lat="29.5254907" lon="103.3343521"><ele>2949.2</ele><time>2026-06-27T13:58:04.000Z</time></trkpt>
        <trkpt lat="29.5254252" lon="103.3344664"><ele>2949.78</ele><time>2026-06-27T13:58:18.000Z</time></trkpt>
        <trkpt lat="29.5253527" lon="103.3345433"><ele>2951.91</ele><time>2026-06-27T13:58:28.000Z</time></trkpt>
        <trkpt lat="29.5253017" lon="103.3346301"><ele>2955.92</ele><time>2026-06-27T13:58:54.000Z</time></trkpt>
        <trkpt lat="29.5252361" lon="103.3347123"><ele>2959.35</ele><time>2026-06-27T13:59:02.000Z</time></trkpt>
        <trkpt lat="29.5251439" lon="103.3347542"><ele>2961.74</ele><time>2026-06-27T13:59:14.000Z</time></trkpt>
        <trkpt lat="29.5250759" lon="103.3348215"><ele>2962.66</ele><time>2026-06-27T13:59:42.000Z</time></trkpt>
        <trkpt lat="29.5249823" lon="103.334811"><ele>2964.76</ele><time>2026-06-27T13:59:56.000Z</time></trkpt>
        <trkpt lat="29.524883" lon="103.334774"><ele>2966</ele><time>2026-06-27T14:00:04.000Z</time></trkpt>
        <trkpt lat="29.5247762" lon="103.3347627"><ele>2966.79</ele><time>2026-06-27T14:00:14.000Z</time></trkpt>
        <trkpt lat="29.5246824" lon="103.3347908"><ele>2967.11</ele><time>2026-06-27T14:00:28.000Z</time></trkpt>
        <trkpt lat="29.5245887" lon="103.3348169"><ele>2967.88</ele><time>2026-06-27T14:00:42.000Z</time></trkpt>
        <trkpt lat="29.524488" lon="103.3348591"><ele>2969</ele><time>2026-06-27T14:00:54.000Z</time></trkpt>
        <trkpt lat="29.5243997" lon="103.3349075"><ele>2969.25</ele><time>2026-06-27T14:01:02.000Z</time></trkpt>
        <trkpt lat="29.5243081" lon="103.3349301"><ele>2970.32</ele><time>2026-06-27T14:01:10.000Z</time></trkpt>
        <trkpt lat="29.5242052" lon="103.3349566"><ele>2971.93</ele><time>2026-06-27T14:01:20.000Z</time></trkpt>
        <trkpt lat="29.5241" lon="103.3349559"><ele>2974.38</ele><time>2026-06-27T14:01:28.000Z</time></trkpt>
        <trkpt lat="29.524002" lon="103.3349374"><ele>2976.82</ele><time>2026-06-27T14:01:36.000Z</time></trkpt>
        <trkpt lat="29.5239244" lon="103.3349852"><ele>2979.09</ele><time>2026-06-27T14:02:10.000Z</time></trkpt>
        <trkpt lat="29.523909" lon="103.3350815"><ele>2983.04</ele><time>2026-06-27T14:02:22.000Z</time></trkpt>
        <trkpt lat="29.5239883" lon="103.3351221"><ele>2987.13</ele><time>2026-06-27T14:02:38.000Z</time></trkpt>
        <trkpt lat="29.5239074" lon="103.3351795"><ele>2989.73</ele><time>2026-06-27T14:03:12.000Z</time></trkpt>
        <trkpt lat="29.5238234" lon="103.3351596"><ele>2990.37</ele><time>2026-06-27T14:03:22.000Z</time></trkpt>
        <trkpt lat="29.5237434" lon="103.3350887"><ele>2992.26</ele><time>2026-06-27T14:03:32.000Z</time></trkpt>
        <trkpt lat="29.5236578" lon="103.3350061"><ele>2993.49</ele><time>2026-06-27T14:03:44.000Z</time></trkpt>
        <trkpt lat="29.5235695" lon="103.3349351"><ele>2994.48</ele><time>2026-06-27T14:03:52.000Z</time></trkpt>
        <trkpt lat="29.5234796" lon="103.3348819"><ele>2994.97</ele><time>2026-06-27T14:04:00.000Z</time></trkpt>
        <trkpt lat="29.5233854" lon="103.3348536"><ele>2995.02</ele><time>2026-06-27T14:04:10.000Z</time></trkpt>
        <trkpt lat="29.5232815" lon="103.3348289"><ele>2995.05</ele><time>2026-06-27T14:04:20.000Z</time></trkpt>
        <trkpt lat="29.5231808" lon="103.3347943"><ele>2994.59</ele><time>2026-06-27T14:04:30.000Z</time></trkpt>
        <trkpt lat="29.523082" lon="103.3347671"><ele>2994.9</ele><time>2026-06-27T14:04:40.000Z</time></trkpt>
        <trkpt lat="29.5229878" lon="103.334786"><ele>2994.78</ele><time>2026-06-27T14:04:50.000Z</time></trkpt>
        <trkpt lat="29.5228822" lon="103.3348116"><ele>2993.63</ele><time>2026-06-27T14:05:00.000Z</time></trkpt>
        <trkpt lat="29.5227896" lon="103.3348007"><ele>2992.45</ele><time>2026-06-27T14:05:16.000Z</time></trkpt>
        <trkpt lat="29.5227489" lon="103.3348833"><ele>2992.72</ele><time>2026-06-27T14:05:36.000Z</time></trkpt>
        <trkpt lat="29.5227628" lon="103.3349958"><ele>2994.95</ele><time>2026-06-27T14:05:52.000Z</time></trkpt>
        <trkpt lat="29.5227797" lon="103.3351229"><ele>2996.36</ele><time>2026-06-27T14:06:04.000Z</time></trkpt>
        <trkpt lat="29.5227968" lon="103.3352485"><ele>2997.84</ele><time>2026-06-27T14:06:16.000Z</time></trkpt>
        <trkpt lat="29.522802" lon="103.3353712"><ele>2999.28</ele><time>2026-06-27T14:06:26.000Z</time></trkpt>
        <trkpt lat="29.5228211" lon="103.3354948"><ele>3000.72</ele><time>2026-06-27T14:06:42.000Z</time></trkpt>
        <trkpt lat="29.5228305" lon="103.3356073"><ele>3003.73</ele><time>2026-06-27T14:06:56.000Z</time></trkpt>
        <trkpt lat="29.5228311" lon="103.3357168"><ele>3007.42</ele><time>2026-06-27T14:07:32.000Z</time></trkpt>
        <trkpt lat="29.5228491" lon="103.335818"><ele>3011.46</ele><time>2026-06-27T14:07:46.000Z</time></trkpt>
        <trkpt lat="29.5229259" lon="103.3358592"><ele>3014.03</ele><time>2026-06-27T14:08:04.000Z</time></trkpt>
        <trkpt lat="29.5230192" lon="103.3358852"><ele>3016.62</ele><time>2026-06-27T14:08:20.000Z</time></trkpt>
        <trkpt lat="29.5230707" lon="103.335961"><ele>3018.42</ele><time>2026-06-27T14:08:38.000Z</time></trkpt>
        <trkpt lat="29.5230865" lon="103.3360635"><ele>3019.69</ele><time>2026-06-27T14:08:46.000Z</time></trkpt>
        <trkpt lat="29.5231297" lon="103.3361674"><ele>3020.02</ele><time>2026-06-27T14:08:56.000Z</time></trkpt>
        <trkpt lat="29.5231721" lon="103.3362794"><ele>3021.13</ele><time>2026-06-27T14:09:06.000Z</time></trkpt>
        <trkpt lat="29.5231918" lon="103.3364037"><ele>3022.61</ele><time>2026-06-27T14:09:18.000Z</time></trkpt>
        <trkpt lat="29.523269" lon="103.3364036"><ele>3023.7</ele><time>2026-06-27T14:09:30.000Z</time></trkpt>
        <trkpt lat="29.523365" lon="103.3363869"><ele>3023.96</ele><time>2026-06-27T14:09:38.000Z</time></trkpt>
        <trkpt lat="29.5234716" lon="103.3363666"><ele>3024.11</ele><time>2026-06-27T14:10:02.000Z</time></trkpt>
        <trkpt lat="29.523577" lon="103.3363251"><ele>3024.2</ele><time>2026-06-27T14:10:12.000Z</time></trkpt>
        <trkpt lat="29.523682" lon="103.3363112"><ele>3024.15</ele><time>2026-06-27T14:10:22.000Z</time></trkpt>
        <trkpt lat="29.5237802" lon="103.3363346"><ele>3023.91</ele><time>2026-06-27T14:10:30.000Z</time></trkpt>
        <trkpt lat="29.5238464" lon="103.3364068"><ele>3023.57</ele><time>2026-06-27T14:10:38.000Z</time></trkpt>
        <trkpt lat="29.5239234" lon="103.336461"><ele>3023.37</ele><time>2026-06-27T14:10:48.000Z</time></trkpt>
        <trkpt lat="29.523993" lon="103.3365423"><ele>3023.08</ele><time>2026-06-27T14:10:58.000Z</time></trkpt>
        <trkpt lat="29.5239756" lon="103.3366611"><ele>3022.27</ele><time>2026-06-27T14:11:18.000Z</time></trkpt>
        <trkpt lat="29.5239267" lon="103.3367731"><ele>3022.17</ele><time>2026-06-27T14:11:30.000Z</time></trkpt>
        <trkpt lat="29.5238509" lon="103.3368545"><ele>3021.64</ele><time>2026-06-27T14:11:50.000Z</time></trkpt>
        <trkpt lat="29.5237518" lon="103.3368842"><ele>3021.45</ele><time>2026-06-27T14:11:58.000Z</time></trkpt>
        <trkpt lat="29.5237009" lon="103.3369626"><ele>3020.48</ele><time>2026-06-27T14:12:08.000Z</time></trkpt>
        <trkpt lat="29.5237811" lon="103.3368961"><ele>3021.1</ele><time>2026-06-27T14:34:58.000Z</time></trkpt>
        <trkpt lat="29.5238766" lon="103.3368738"><ele>3022.43</ele><time>2026-06-27T14:35:18.000Z</time></trkpt>
        <trkpt lat="29.5239344" lon="103.3367969"><ele>3023.63</ele><time>2026-06-27T14:35:28.000Z</time></trkpt>
        <trkpt lat="29.5240016" lon="103.3367183"><ele>3024.15</ele><time>2026-06-27T14:35:54.000Z</time></trkpt>
        <trkpt lat="29.5240016" lon="103.3367183"><ele>3024.15</ele><time>2026-06-27T14:35:54.000Z</time></trkpt>
        <trkpt lat="29.5240102" lon="103.3366032"><ele>3022.68</ele><time>2026-06-27T14:36:42.000Z</time></trkpt>
        <trkpt lat="29.5239435" lon="103.3365131"><ele>3022.04</ele><time>2026-06-27T14:36:58.000Z</time></trkpt>
        <trkpt lat="29.5238627" lon="103.3364452"><ele>3023.51</ele><time>2026-06-27T14:37:10.000Z</time></trkpt>
        <trkpt lat="29.5237697" lon="103.3363939"><ele>3023.33</ele><time>2026-06-27T14:37:26.000Z</time></trkpt>
        <trkpt lat="29.5236822" lon="103.3363536"><ele>3022.63</ele><time>2026-06-27T14:37:40.000Z</time></trkpt>
        <trkpt lat="29.5235823" lon="103.3363329"><ele>3021.9</ele><time>2026-06-27T14:37:54.000Z</time></trkpt>
        <trkpt lat="29.5234756" lon="103.3363436"><ele>3023.11</ele><time>2026-06-27T14:38:04.000Z</time></trkpt>
        <trkpt lat="29.5233765" lon="103.3363799"><ele>3021.41</ele><time>2026-06-27T14:38:20.000Z</time></trkpt>
        <trkpt lat="29.5232705" lon="103.3363786"><ele>3022.22</ele><time>2026-06-27T14:38:30.000Z</time></trkpt>
        <trkpt lat="29.5231796" lon="103.3363454"><ele>3021.57</ele><time>2026-06-27T14:38:40.000Z</time></trkpt>
        <trkpt lat="29.5231471" lon="103.3362476"><ele>3022.74</ele><time>2026-06-27T14:38:50.000Z</time></trkpt>
        <trkpt lat="29.5230885" lon="103.3361578"><ele>3023.03</ele><time>2026-06-27T14:39:02.000Z</time></trkpt>
        <trkpt lat="29.5230544" lon="103.3360578"><ele>3024.85</ele><time>2026-06-27T14:39:12.000Z</time></trkpt>
        <trkpt lat="29.5230345" lon="103.3359479"><ele>3025.32</ele><time>2026-06-27T14:39:22.000Z</time></trkpt>
        <trkpt lat="29.5229843" lon="103.3358527"><ele>3026.42</ele><time>2026-06-27T14:39:34.000Z</time></trkpt>
        <trkpt lat="29.52289" lon="103.3358476"><ele>3025.19</ele><time>2026-06-27T14:40:04.000Z</time></trkpt>
        <trkpt lat="29.5228534" lon="103.3357405"><ele>3022.7</ele><time>2026-06-27T14:40:20.000Z</time></trkpt>
        <trkpt lat="29.5228143" lon="103.3356356"><ele>3020.41</ele><time>2026-06-27T14:40:32.000Z</time></trkpt>
        <trkpt lat="29.5227923" lon="103.3355252"><ele>3018.16</ele><time>2026-06-27T14:40:46.000Z</time></trkpt>
        <trkpt lat="29.5228041" lon="103.3354225"><ele>3015.95</ele><time>2026-06-27T14:40:58.000Z</time></trkpt>
        <trkpt lat="29.5227891" lon="103.3353056"><ele>3016.13</ele><time>2026-06-27T14:41:12.000Z</time></trkpt>
        <trkpt lat="29.5227816" lon="103.335194"><ele>3015.22</ele><time>2026-06-27T14:41:26.000Z</time></trkpt>
        <trkpt lat="29.5227469" lon="103.3350972"><ele>3013.36</ele><time>2026-06-27T14:41:38.000Z</time></trkpt>
        <trkpt lat="29.5227591" lon="103.3349787"><ele>3010</ele><time>2026-06-27T14:41:52.000Z</time></trkpt>
        <trkpt lat="29.5238054" lon="103.3349709"><ele>2975.83</ele><time>2026-06-27T15:05:17.000Z</time></trkpt>
        <trkpt lat="29.5239333" lon="103.3349545"><ele>2975.83</ele><time>2026-06-27T15:05:23.000Z</time></trkpt>
        <trkpt lat="29.5240347" lon="103.3349518"><ele>2980.09</ele><time>2026-06-27T15:05:43.000Z</time></trkpt>
        <trkpt lat="29.5241285" lon="103.3349614"><ele>2985.34</ele><time>2026-06-27T15:05:51.000Z</time></trkpt>
        <trkpt lat="29.5242319" lon="103.3349674"><ele>2987.78</ele><time>2026-06-27T15:06:01.000Z</time></trkpt>
        <trkpt lat="29.5243418" lon="103.3349476"><ele>2988.48</ele><time>2026-06-27T15:06:11.000Z</time></trkpt>
        <trkpt lat="29.5244372" lon="103.3349147"><ele>2988.26</ele><time>2026-06-27T15:06:19.000Z</time></trkpt>
        <trkpt lat="29.5245387" lon="103.3349076"><ele>2987.94</ele><time>2026-06-27T15:06:29.000Z</time></trkpt>
        <trkpt lat="29.5246306" lon="103.3349242"><ele>2987.27</ele><time>2026-06-27T15:06:39.000Z</time></trkpt>
        <trkpt lat="29.5247263" lon="103.3349521"><ele>2985.99</ele><time>2026-06-27T15:06:49.000Z</time></trkpt>
        <trkpt lat="29.5247376" lon="103.3348715"><ele>2985.56</ele><time>2026-06-27T15:07:29.000Z</time></trkpt>
        <trkpt lat="29.5248001" lon="103.3348279"><ele>2985.87</ele><time>2026-06-27T15:08:19.000Z</time></trkpt>
        <trkpt lat="29.5249005" lon="103.3348369"><ele>2986.9</ele><time>2026-06-27T15:08:27.000Z</time></trkpt>
        <trkpt lat="29.5250069" lon="103.3348418"><ele>2987.17</ele><time>2026-06-27T15:08:37.000Z</time></trkpt>
        <trkpt lat="29.5250956" lon="103.3347874"><ele>2987.04</ele><time>2026-06-27T15:08:53.000Z</time></trkpt>
        <trkpt lat="29.5251787" lon="103.3347299"><ele>2985.1</ele><time>2026-06-27T15:09:05.000Z</time></trkpt>
        <trkpt lat="29.525265" lon="103.3346677"><ele>2983.58</ele><time>2026-06-27T15:09:17.000Z</time></trkpt>
        <trkpt lat="29.5253407" lon="103.3346015"><ele>2982.34</ele><time>2026-06-27T15:09:29.000Z</time></trkpt>
        <trkpt lat="29.5254055" lon="103.3345119"><ele>2980.67</ele><time>2026-06-27T15:09:37.000Z</time></trkpt>
        <trkpt lat="29.5254788" lon="103.3344447"><ele>2979.54</ele><time>2026-06-27T15:09:49.000Z</time></trkpt>
        <trkpt lat="29.5255259" lon="103.3343586"><ele>2980.6</ele><time>2026-06-27T15:09:59.000Z</time></trkpt>
        <trkpt lat="29.5255802" lon="103.3342772"><ele>2979.95</ele><time>2026-06-27T15:10:11.000Z</time></trkpt>
        <trkpt lat="29.5256437" lon="103.3341912"><ele>2979.42</ele><time>2026-06-27T15:10:27.000Z</time></trkpt>
        <trkpt lat="29.5257165" lon="103.3341102"><ele>2978.46</ele><time>2026-06-27T15:10:39.000Z</time></trkpt>
        <trkpt lat="29.5257931" lon="103.3340433"><ele>2976.6</ele><time>2026-06-27T15:10:51.000Z</time></trkpt>
        <trkpt lat="29.5258784" lon="103.3339906"><ele>2974.74</ele><time>2026-06-27T15:11:03.000Z</time></trkpt>
        <trkpt lat="29.5259645" lon="103.3339501"><ele>2972.08</ele><time>2026-06-27T15:11:15.000Z</time></trkpt>
        <trkpt lat="29.5260487" lon="103.3338949"><ele>2969.99</ele><time>2026-06-27T15:11:29.000Z</time></trkpt>
        <trkpt lat="29.5261373" lon="103.3338552"><ele>2967.94</ele><time>2026-06-27T15:11:39.000Z</time></trkpt>
        <trkpt lat="29.5262247" lon="103.3337984"><ele>2966.18</ele><time>2026-06-27T15:11:53.000Z</time></trkpt>
        <trkpt lat="29.5263048" lon="103.3337283"><ele>2964.01</ele><time>2026-06-27T15:12:05.000Z</time></trkpt>
        <trkpt lat="29.5263941" lon="103.3336635"><ele>2961.53</ele><time>2026-06-27T15:12:15.000Z</time></trkpt>
        <trkpt lat="29.5264812" lon="103.3336161"><ele>2959.67</ele><time>2026-06-27T15:12:23.000Z</time></trkpt>
        <trkpt lat="29.5265754" lon="103.333581"><ele>2957.6</ele><time>2026-06-27T15:12:39.000Z</time></trkpt>
        <trkpt lat="29.5266577" lon="103.333533"><ele>2956.02</ele><time>2026-06-27T15:12:55.000Z</time></trkpt>
        <trkpt lat="29.5267453" lon="103.3334856"><ele>2954.71</ele><time>2026-06-27T15:13:07.000Z</time></trkpt>
        <trkpt lat="29.52685" lon="103.3334728"><ele>2953.97</ele><time>2026-06-27T15:13:27.000Z</time></trkpt>
        <trkpt lat="29.526948" lon="103.3334605"><ele>2953.32</ele><time>2026-06-27T15:13:45.000Z</time></trkpt>
        <trkpt lat="29.5270343" lon="103.3334249"><ele>2952.98</ele><time>2026-06-27T15:13:55.000Z</time></trkpt>
        <trkpt lat="29.5271026" lon="103.3333559"><ele>2948.81</ele><time>2026-06-27T15:14:09.000Z</time></trkpt>
        <trkpt lat="29.527158" lon="103.3332708"><ele>2944.67</ele><time>2026-06-27T15:14:19.000Z</time></trkpt>
        <trkpt lat="29.5271492" lon="103.3331675"><ele>2941.25</ele><time>2026-06-27T15:14:31.000Z</time></trkpt>
        <trkpt lat="29.5271103" lon="103.3330646"><ele>2939.21</ele><time>2026-06-27T15:14:43.000Z</time></trkpt>
        <trkpt lat="29.5270755" lon="103.332961"><ele>2936.73</ele><time>2026-06-27T15:15:05.000Z</time></trkpt>
        <trkpt lat="29.5271049" lon="103.3328516"><ele>2934.77</ele><time>2026-06-27T15:15:19.000Z</time></trkpt>
        <trkpt lat="29.5271216" lon="103.3327437"><ele>2931.03</ele><time>2026-06-27T15:15:25.000Z</time></trkpt>
        <trkpt lat="29.5271006" lon="103.3326188"><ele>2928.93</ele><time>2026-06-27T15:15:35.000Z</time></trkpt>
        <trkpt lat="29.5270655" lon="103.3324979"><ele>2927.15</ele><time>2026-06-27T15:15:41.000Z</time></trkpt>
        <trkpt lat="29.527046" lon="103.3323887"><ele>2926</ele><time>2026-06-27T15:15:55.000Z</time></trkpt>
        <trkpt lat="29.5270798" lon="103.332292"><ele>2924.65</ele><time>2026-06-27T15:16:13.000Z</time></trkpt>
        <trkpt lat="29.5271645" lon="103.3322746"><ele>2923.8</ele><time>2026-06-27T15:16:29.000Z</time></trkpt>
        <trkpt lat="29.5272384" lon="103.3323632"><ele>2923.66</ele><time>2026-06-27T15:16:41.000Z</time></trkpt>
        <trkpt lat="29.5273189" lon="103.3324522"><ele>2923.42</ele><time>2026-06-27T15:16:45.000Z</time></trkpt>
        <trkpt lat="29.5274017" lon="103.332533"><ele>2922.95</ele><time>2026-06-27T15:16:55.000Z</time></trkpt>
        <trkpt lat="29.5274778" lon="103.3324999"><ele>2923.6</ele><time>2026-06-27T15:17:07.000Z</time></trkpt>
        <trkpt lat="29.5275532" lon="103.3324374"><ele>2922.89</ele><time>2026-06-27T15:17:21.000Z</time></trkpt>
        <trkpt lat="29.5275968" lon="103.3323199"><ele>2921.87</ele><time>2026-06-27T15:17:35.000Z</time></trkpt>
        <trkpt lat="29.5275851" lon="103.3322"><ele>2918.88</ele><time>2026-06-27T15:17:49.000Z</time></trkpt>
        <trkpt lat="29.527556" lon="103.3320806"><ele>2915.88</ele><time>2026-06-27T15:17:59.000Z</time></trkpt>
        <trkpt lat="29.5276118" lon="103.3320436"><ele>2913.07</ele><time>2026-06-27T15:18:15.000Z</time></trkpt>
        <trkpt lat="29.5276945" lon="103.3320045"><ele>2910.22</ele><time>2026-06-27T15:18:33.000Z</time></trkpt>
        <trkpt lat="29.5277458" lon="103.3319262"><ele>2909.09</ele><time>2026-06-27T15:18:43.000Z</time></trkpt>
        <trkpt lat="29.5277506" lon="103.3318143"><ele>2907.48</ele><time>2026-06-27T15:18:53.000Z</time></trkpt>
        <trkpt lat="29.5277517" lon="103.3316934"><ele>2904.99</ele><time>2026-06-27T15:19:01.000Z</time></trkpt>
        <trkpt lat="29.5277571" lon="103.3315665"><ele>2902.38</ele><time>2026-06-27T15:19:13.000Z</time></trkpt>
        <trkpt lat="29.527801" lon="103.3314659"><ele>2900.7</ele><time>2026-06-27T15:19:23.000Z</time></trkpt>
        <trkpt lat="29.5278367" lon="103.3313624"><ele>2899</ele><time>2026-06-27T15:19:41.000Z</time></trkpt>
        <trkpt lat="29.5279156" lon="103.3312875"><ele>2897.18</ele><time>2026-06-27T15:19:55.000Z</time></trkpt>
        <trkpt lat="29.5279987" lon="103.3312228"><ele>2895.93</ele><time>2026-06-27T15:20:05.000Z</time></trkpt>
        <trkpt lat="29.5280625" lon="103.3311324"><ele>2895.69</ele><time>2026-06-27T15:20:17.000Z</time></trkpt>
        <trkpt lat="29.5280819" lon="103.3310197"><ele>2893.78</ele><time>2026-06-27T15:20:27.000Z</time></trkpt>
        <trkpt lat="29.5281323" lon="103.3309037"><ele>2890.76</ele><time>2026-06-27T15:20:41.000Z</time></trkpt>
        <trkpt lat="29.5281822" lon="103.3307975"><ele>2887.72</ele><time>2026-06-27T15:20:51.000Z</time></trkpt>
        <trkpt lat="29.5282588" lon="103.3307143"><ele>2884.52</ele><time>2026-06-27T15:21:07.000Z</time></trkpt>
        <trkpt lat="29.5283276" lon="103.3306366"><ele>2879.84</ele><time>2026-06-27T15:21:21.000Z</time></trkpt>
        <trkpt lat="29.5283691" lon="103.3305456"><ele>2875.76</ele><time>2026-06-27T15:21:39.000Z</time></trkpt>
        <trkpt lat="29.5283649" lon="103.3304385"><ele>2873.19</ele><time>2026-06-27T15:21:55.000Z</time></trkpt>
        <trkpt lat="29.528328" lon="103.3303341"><ele>2871.78</ele><time>2026-06-27T15:22:07.000Z</time></trkpt>
        <trkpt lat="29.5283255" lon="103.3302173"><ele>2870.16</ele><time>2026-06-27T15:22:21.000Z</time></trkpt>
        <trkpt lat="29.5283798" lon="103.3301288"><ele>2868.33</ele><time>2026-06-27T15:22:31.000Z</time></trkpt>
        <trkpt lat="29.5284578" lon="103.3300465"><ele>2867.07</ele><time>2026-06-27T15:22:39.000Z</time></trkpt>
        <trkpt lat="29.5285362" lon="103.3299755"><ele>2866.85</ele><time>2026-06-27T15:22:45.000Z</time></trkpt>
        <trkpt lat="29.5286025" lon="103.3298912"><ele>2867.1</ele><time>2026-06-27T15:22:55.000Z</time></trkpt>
        <trkpt lat="29.5286258" lon="103.3297885"><ele>2868.28</ele><time>2026-06-27T15:23:11.000Z</time></trkpt>
        <trkpt lat="29.5286308" lon="103.329662"><ele>2868.38</ele><time>2026-06-27T15:23:19.000Z</time></trkpt>
        <trkpt lat="29.5286486" lon="103.3295521"><ele>2867.01</ele><time>2026-06-27T15:23:27.000Z</time></trkpt>
        <trkpt lat="29.5286882" lon="103.3294533"><ele>2866.28</ele><time>2026-06-27T15:23:37.000Z</time></trkpt>
        <trkpt lat="29.5287088" lon="103.3293329"><ele>2866.34</ele><time>2026-06-27T15:23:49.000Z</time></trkpt>
        <trkpt lat="29.5287599" lon="103.3292292"><ele>2864.22</ele><time>2026-06-27T15:23:59.000Z</time></trkpt>
        <trkpt lat="29.528833" lon="103.3291532"><ele>2861.37</ele><time>2026-06-27T15:24:19.000Z</time></trkpt>
        <trkpt lat="29.5288904" lon="103.3290456"><ele>2859.45</ele><time>2026-06-27T15:24:27.000Z</time></trkpt>
        <trkpt lat="29.5289537" lon="103.3289369"><ele>2858.76</ele><time>2026-06-27T15:24:41.000Z</time></trkpt>
        <trkpt lat="29.5290123" lon="103.3288432"><ele>2857.54</ele><time>2026-06-27T15:24:53.000Z</time></trkpt>
        <trkpt lat="29.5290388" lon="103.3287407"><ele>2855.06</ele><time>2026-06-27T15:25:01.000Z</time></trkpt>
        <trkpt lat="29.5290801" lon="103.3286492"><ele>2851.96</ele><time>2026-06-27T15:25:11.000Z</time></trkpt>
        <trkpt lat="29.529116" lon="103.3285528"><ele>2848.77</ele><time>2026-06-27T15:25:21.000Z</time></trkpt>
        <trkpt lat="29.5291456" lon="103.3284472"><ele>2846.34</ele><time>2026-06-27T15:25:39.000Z</time></trkpt>
        <trkpt lat="29.5291878" lon="103.3283356"><ele>2843.6</ele><time>2026-06-27T15:25:59.000Z</time></trkpt>
        <trkpt lat="29.5292186" lon="103.3282273"><ele>2841.07</ele><time>2026-06-27T15:26:17.000Z</time></trkpt>
        <trkpt lat="29.5292387" lon="103.3281156"><ele>2836.57</ele><time>2026-06-27T15:26:35.000Z</time></trkpt>
        <trkpt lat="29.5292598" lon="103.3279919"><ele>2831.67</ele><time>2026-06-27T15:27:05.000Z</time></trkpt>
        <trkpt lat="29.5292797" lon="103.3278765"><ele>2829.01</ele><time>2026-06-27T15:27:21.000Z</time></trkpt>
        <trkpt lat="29.5293552" lon="103.3278061"><ele>2826.58</ele><time>2026-06-27T15:27:47.000Z</time></trkpt>
        <trkpt lat="29.5294638" lon="103.3277927"><ele>2825.52</ele><time>2026-06-27T15:27:57.000Z</time></trkpt>
        <trkpt lat="29.5295708" lon="103.3278018"><ele>2825.42</ele><time>2026-06-27T15:28:09.000Z</time></trkpt>
        <trkpt lat="29.5296781" lon="103.3277928"><ele>2825.49</ele><time>2026-06-27T15:28:21.000Z</time></trkpt>
        <trkpt lat="29.5297754" lon="103.3277527"><ele>2825.07</ele><time>2026-06-27T15:28:35.000Z</time></trkpt>
        <trkpt lat="29.5298333" lon="103.3276607"><ele>2824.49</ele><time>2026-06-27T15:28:47.000Z</time></trkpt>
        <trkpt lat="29.5298694" lon="103.3275494"><ele>2823.43</ele><time>2026-06-27T15:28:57.000Z</time></trkpt>
        <trkpt lat="29.5299057" lon="103.3274403"><ele>2822.21</ele><time>2026-06-27T15:29:07.000Z</time></trkpt>
        <trkpt lat="29.5299574" lon="103.3273469"><ele>2821.5</ele><time>2026-06-27T15:29:19.000Z</time></trkpt>
        <trkpt lat="29.5300128" lon="103.3272476"><ele>2821.46</ele><time>2026-06-27T15:29:27.000Z</time></trkpt>
        <trkpt lat="29.5300901" lon="103.3271792"><ele>2820.79</ele><time>2026-06-27T15:29:39.000Z</time></trkpt>
        <trkpt lat="29.5301715" lon="103.3271154"><ele>2819.52</ele><time>2026-06-27T15:29:51.000Z</time></trkpt>
        <trkpt lat="29.5302539" lon="103.3270558"><ele>2818.47</ele><time>2026-06-27T15:30:01.000Z</time></trkpt>
        <trkpt lat="29.5303426" lon="103.3270084"><ele>2816.39</ele><time>2026-06-27T15:30:17.000Z</time></trkpt>
        <trkpt lat="29.5304261" lon="103.3269541"><ele>2814.86</ele><time>2026-06-27T15:30:31.000Z</time></trkpt>
        <trkpt lat="29.5305137" lon="103.3269034"><ele>2812.69</ele><time>2026-06-27T15:30:47.000Z</time></trkpt>
        <trkpt lat="29.530604" lon="103.3268746"><ele>2811.16</ele><time>2026-06-27T15:31:03.000Z</time></trkpt>
        <trkpt lat="29.5306878" lon="103.3268343"><ele>2809.39</ele><time>2026-06-27T15:31:23.000Z</time></trkpt>
        <trkpt lat="29.5307716" lon="103.3267944"><ele>2806.46</ele><time>2026-06-27T15:31:41.000Z</time></trkpt>
        <trkpt lat="29.5308342" lon="103.3268497"><ele>2803.2</ele><time>2026-06-27T15:32:05.000Z</time></trkpt>
        <trkpt lat="29.5308715" lon="103.3269476"><ele>2800.38</ele><time>2026-06-27T15:32:21.000Z</time></trkpt>
        <trkpt lat="29.5309526" lon="103.3269896"><ele>2797.37</ele><time>2026-06-27T15:32:35.000Z</time></trkpt>
        <trkpt lat="29.5310415" lon="103.3270443"><ele>2794.79</ele><time>2026-06-27T15:32:49.000Z</time></trkpt>
        <trkpt lat="29.5311123" lon="103.3271185"><ele>2792.39</ele><time>2026-06-27T15:33:09.000Z</time></trkpt>
        <trkpt lat="29.5311868" lon="103.3271953"><ele>2789.54</ele><time>2026-06-27T15:33:27.000Z</time></trkpt>
        <trkpt lat="29.5312316" lon="103.3273042"><ele>2785.68</ele><time>2026-06-27T15:33:41.000Z</time></trkpt>
        <trkpt lat="29.5312468" lon="103.3274155"><ele>2781.49</ele><time>2026-06-27T15:34:03.000Z</time></trkpt>
        <trkpt lat="29.5312371" lon="103.3275251"><ele>2777.23</ele><time>2026-06-27T15:34:19.000Z</time></trkpt>
        <trkpt lat="29.5312348" lon="103.3276383"><ele>2773.26</ele><time>2026-06-27T15:34:35.000Z</time></trkpt>
        <trkpt lat="29.531255" lon="103.3277464"><ele>2769.42</ele><time>2026-06-27T15:34:53.000Z</time></trkpt>
        <trkpt lat="29.5312486" lon="103.3278587"><ele>2767.13</ele><time>2026-06-27T15:35:11.000Z</time></trkpt>
        <trkpt lat="29.5312561" lon="103.3279798"><ele>2764.31</ele><time>2026-06-27T15:35:27.000Z</time></trkpt>
        <trkpt lat="29.5312534" lon="103.3280915"><ele>2760.72</ele><time>2026-06-27T15:35:43.000Z</time></trkpt>
        <trkpt lat="29.5312499" lon="103.3281996"><ele>2756.57</ele><time>2026-06-27T15:35:53.000Z</time></trkpt>
        <trkpt lat="29.5312262" lon="103.3283108"><ele>2753.36</ele><time>2026-06-27T15:36:05.000Z</time></trkpt>
        <trkpt lat="29.5311842" lon="103.3284086"><ele>2751.73</ele><time>2026-06-27T15:36:17.000Z</time></trkpt>
        <trkpt lat="29.5311574" lon="103.3285131"><ele>2750.22</ele><time>2026-06-27T15:36:31.000Z</time></trkpt>
        <trkpt lat="29.5311333" lon="103.3286553"><ele>2748.42</ele><time>2026-06-27T15:36:59.000Z</time></trkpt>
        <trkpt lat="29.5311135" lon="103.3287785"><ele>2748.15</ele><time>2026-06-27T15:37:07.000Z</time></trkpt>
        <trkpt lat="29.5310951" lon="103.3288861"><ele>2748.33</ele><time>2026-06-27T15:37:17.000Z</time></trkpt>
        <trkpt lat="29.5310723" lon="103.328992"><ele>2748.43</ele><time>2026-06-27T15:37:29.000Z</time></trkpt>
        <trkpt lat="29.5310783" lon="103.3290964"><ele>2748.3</ele><time>2026-06-27T15:37:49.000Z</time></trkpt>
        <trkpt lat="29.5310755" lon="103.3292074"><ele>2747.83</ele><time>2026-06-27T15:38:03.000Z</time></trkpt>
        <trkpt lat="29.5310858" lon="103.3293212"><ele>2746.14</ele><time>2026-06-27T15:38:19.000Z</time></trkpt>
        <trkpt lat="29.5310961" lon="103.329429"><ele>2744.1</ele><time>2026-06-27T15:38:41.000Z</time></trkpt>
        <trkpt lat="29.5311322" lon="103.3295248"><ele>2742</ele><time>2026-06-27T15:38:51.000Z</time></trkpt>
        <trkpt lat="29.5311924" lon="103.3296097"><ele>2738.32</ele><time>2026-06-27T15:39:13.000Z</time></trkpt>
        <trkpt lat="29.5312574" lon="103.329701"><ele>2735.42</ele><time>2026-06-27T15:39:55.000Z</time></trkpt>
        <trkpt lat="29.5313532" lon="103.3297821"><ele>2729.22</ele><time>2026-06-27T15:41:19.000Z</time></trkpt>
        <trkpt lat="29.5314323" lon="103.3298562"><ele>2720.66</ele><time>2026-06-27T15:42:39.000Z</time></trkpt>
        <trkpt lat="29.5315123" lon="103.3299089"><ele>2713.54</ele><time>2026-06-27T15:42:51.000Z</time></trkpt>
        <trkpt lat="29.531578" lon="103.329998"><ele>2707.04</ele><time>2026-06-27T15:42:57.000Z</time></trkpt>
        <trkpt lat="29.5317042" lon="103.3300603"><ele>2702.01</ele><time>2026-06-27T15:43:37.000Z</time></trkpt>
        <trkpt lat="29.531817" lon="103.330123"><ele>2697.22</ele><time>2026-06-27T15:43:45.000Z</time></trkpt>
        <trkpt lat="29.5318487" lon="103.3302206"><ele>2693.06</ele><time>2026-06-27T15:44:03.000Z</time></trkpt>
        <trkpt lat="29.5319204" lon="103.3302494"><ele>2687.05</ele><time>2026-06-27T15:44:33.000Z</time></trkpt>
        <trkpt lat="29.5320058" lon="103.3302714"><ele>2683.13</ele><time>2026-06-27T15:45:03.000Z</time></trkpt>
        <trkpt lat="29.5320976" lon="103.3302643"><ele>2678.59</ele><time>2026-06-27T15:45:27.000Z</time></trkpt>
        <trkpt lat="29.5321072" lon="103.3303424"><ele>2674.48</ele><time>2026-06-27T15:46:17.000Z</time></trkpt>
        <trkpt lat="29.5321099" lon="103.3304459"><ele>2668.52</ele><time>2026-06-27T15:46:41.000Z</time></trkpt>
        <trkpt lat="29.5321741" lon="103.3304909"><ele>2663.77</ele><time>2026-06-27T15:47:03.000Z</time></trkpt>
        <trkpt lat="29.5321896" lon="103.3305795"><ele>2659.86</ele><time>2026-06-27T15:47:25.000Z</time></trkpt>
        <trkpt lat="29.5321787" lon="103.3306854"><ele>2656.22</ele><time>2026-06-27T15:47:47.000Z</time></trkpt>
        <trkpt lat="29.5321482" lon="103.3308022"><ele>2652.14</ele><time>2026-06-27T15:48:01.000Z</time></trkpt>
        <trkpt lat="29.5321398" lon="103.3309133"><ele>2648.71</ele><time>2026-06-27T15:48:13.000Z</time></trkpt>
        <trkpt lat="29.5321352" lon="103.3310249"><ele>2645.87</ele><time>2026-06-27T15:48:27.000Z</time></trkpt>
        <trkpt lat="29.5321384" lon="103.3311405"><ele>2643.08</ele><time>2026-06-27T15:48:41.000Z</time></trkpt>
        <trkpt lat="29.5321364" lon="103.3312523"><ele>2641.07</ele><time>2026-06-27T15:49:11.000Z</time></trkpt>
        <trkpt lat="29.5321567" lon="103.3313603"><ele>2640.01</ele><time>2026-06-27T15:49:35.000Z</time></trkpt>
        <trkpt lat="29.5322313" lon="103.3313747"><ele>2639.03</ele><time>2026-06-27T15:49:59.000Z</time></trkpt>
        <trkpt lat="29.5322886" lon="103.3312702"><ele>2637.29</ele><time>2026-06-27T15:50:13.000Z</time></trkpt>
        <trkpt lat="29.5323525" lon="103.331307"><ele>2632.42</ele><time>2026-06-27T15:50:49.000Z</time></trkpt>
        <trkpt lat="29.5324145" lon="103.3313851"><ele>2626.93</ele><time>2026-06-27T15:51:03.000Z</time></trkpt>
        <trkpt lat="29.5324433" lon="103.331495"><ele>2623.94</ele><time>2026-06-27T15:51:23.000Z</time></trkpt>
        <trkpt lat="29.5324705" lon="103.3316131"><ele>2621.58</ele><time>2026-06-27T15:51:43.000Z</time></trkpt>
        <trkpt lat="29.5325116" lon="103.3317179"><ele>2619.31</ele><time>2026-06-27T15:52:03.000Z</time></trkpt>
        <trkpt lat="29.532558" lon="103.3318225"><ele>2616.04</ele><time>2026-06-27T15:52:35.000Z</time></trkpt>
        <trkpt lat="29.5326049" lon="103.3319275"><ele>2608.67</ele><time>2026-06-27T15:53:05.000Z</time></trkpt>
        <trkpt lat="29.5326518" lon="103.332025"><ele>2601.99</ele><time>2026-06-27T15:53:19.000Z</time></trkpt>
        <trkpt lat="29.5327201" lon="103.3321082"><ele>2596.08</ele><time>2026-06-27T15:53:49.000Z</time></trkpt>
        <trkpt lat="29.532793" lon="103.3321871"><ele>2590.86</ele><time>2026-06-27T15:54:01.000Z</time></trkpt>
        <trkpt lat="29.532871" lon="103.3322519"><ele>2586.92</ele><time>2026-06-27T15:54:17.000Z</time></trkpt>
        <trkpt lat="29.5329427" lon="103.3323343"><ele>2583.5</ele><time>2026-06-27T15:54:35.000Z</time></trkpt>
        <trkpt lat="29.5329965" lon="103.3324227"><ele>2580.64</ele><time>2026-06-27T15:54:51.000Z</time></trkpt>
        <trkpt lat="29.5330677" lon="103.332499"><ele>2578.83</ele><time>2026-06-27T15:55:09.000Z</time></trkpt>
        <trkpt lat="29.5331322" lon="103.3325763"><ele>2576.08</ele><time>2026-06-27T15:55:23.000Z</time></trkpt>
        <trkpt lat="29.5332124" lon="103.3326478"><ele>2573.8</ele><time>2026-06-27T15:55:59.000Z</time></trkpt>
        <trkpt lat="29.5332785" lon="103.3327234"><ele>2569.03</ele><time>2026-06-27T15:56:31.000Z</time></trkpt>
        <trkpt lat="29.5333485" lon="103.3327975"><ele>2567.1</ele><time>2026-06-27T15:56:49.000Z</time></trkpt>
        <trkpt lat="29.5334378" lon="103.3328567"><ele>2565.32</ele><time>2026-06-27T15:57:09.000Z</time></trkpt>
        <trkpt lat="29.5335374" lon="103.3328909"><ele>2563.68</ele><time>2026-06-27T15:57:27.000Z</time></trkpt>
        <trkpt lat="29.5336062" lon="103.3329659"><ele>2558.81</ele><time>2026-06-27T15:57:49.000Z</time></trkpt>
        <trkpt lat="29.5337017" lon="103.3330436"><ele>2555.08</ele><time>2026-06-27T15:58:07.000Z</time></trkpt>
        <trkpt lat="29.5337862" lon="103.3331359"><ele>2551.18</ele><time>2026-06-27T15:58:43.000Z</time></trkpt>
        <trkpt lat="29.5338739" lon="103.3332027"><ele>2547.77</ele><time>2026-06-27T15:58:55.000Z</time></trkpt>
        <trkpt lat="29.5339737" lon="103.3332355"><ele>2543.84</ele><time>2026-06-27T15:59:11.000Z</time></trkpt>
        <trkpt lat="29.5340746" lon="103.3332187"><ele>2539.73</ele><time>2026-06-27T15:59:29.000Z</time></trkpt>
        <trkpt lat="29.5341655" lon="103.3331768"><ele>2535.39</ele><time>2026-06-27T15:59:45.000Z</time></trkpt>
        <trkpt lat="29.5342568" lon="103.3331212"><ele>2530</ele><time>2026-06-27T15:59:53.000Z</time></trkpt>
        <trkpt lat="29.5343447" lon="103.3331246"><ele>2526.43</ele><time>2026-06-27T16:00:45.000Z</time></trkpt>
        <trkpt lat="29.5344401" lon="103.3330984"><ele>2520.08</ele><time>2026-06-27T16:00:53.000Z</time></trkpt>
        <trkpt lat="29.5345334" lon="103.3330576"><ele>2516.57</ele><time>2026-06-27T16:01:05.000Z</time></trkpt>
        <trkpt lat="29.5346309" lon="103.3330377"><ele>2514.8</ele><time>2026-06-27T16:01:15.000Z</time></trkpt>
        <trkpt lat="29.5347209" lon="103.3329904"><ele>2511.99</ele><time>2026-06-27T16:01:29.000Z</time></trkpt>
        <trkpt lat="29.5348163" lon="103.332942"><ele>2507.62</ele><time>2026-06-27T16:01:47.000Z</time></trkpt>
        <trkpt lat="29.5349206" lon="103.3329572"><ele>2505.13</ele><time>2026-06-27T16:01:59.000Z</time></trkpt>
        <trkpt lat="29.5347047" lon="103.3330133"><ele>2503.91</ele><time>2026-06-27T16:02:45.000Z</time></trkpt>
        <trkpt lat="29.5346892" lon="103.3329929"><ele>2504.32</ele><time>2026-06-27T16:02:51.000Z</time></trkpt>
        <trkpt lat="29.5347315" lon="103.3329133"><ele>2505.28</ele><time>2026-06-27T16:02:55.000Z</time></trkpt>
        <trkpt lat="29.5348266" lon="103.3328457"><ele>2508.86</ele><time>2026-06-27T16:03:03.000Z</time></trkpt>
        <trkpt lat="29.5349374" lon="103.3328197"><ele>2509.26</ele><time>2026-06-27T16:03:11.000Z</time></trkpt>
        <trkpt lat="29.5350333" lon="103.3328568"><ele>2508</ele><time>2026-06-27T16:03:55.000Z</time></trkpt>
        <trkpt lat="29.535105" lon="103.3329436"><ele>2505.55</ele><time>2026-06-27T16:04:25.000Z</time></trkpt>
        <trkpt lat="29.5351512" lon="103.3330537"><ele>2502.13</ele><time>2026-06-27T16:04:41.000Z</time></trkpt>
        <trkpt lat="29.5351937" lon="103.3331599"><ele>2499.23</ele><time>2026-06-27T16:04:59.000Z</time></trkpt>
        <trkpt lat="29.5352287" lon="103.3332694"><ele>2496.25</ele><time>2026-06-27T16:05:21.000Z</time></trkpt>
        <trkpt lat="29.5352723" lon="103.3333661"><ele>2493.18</ele><time>2026-06-27T16:05:35.000Z</time></trkpt>
        <trkpt lat="29.5353088" lon="103.3334662"><ele>2490.45</ele><time>2026-06-27T16:05:49.000Z</time></trkpt>
        <trkpt lat="29.5353431" lon="103.3335669"><ele>2487.94</ele><time>2026-06-27T16:06:01.000Z</time></trkpt>
        <trkpt lat="29.5353985" lon="103.3336474"><ele>2484.93</ele><time>2026-06-27T16:06:09.000Z</time></trkpt>
        <trkpt lat="29.5354507" lon="103.3337402"><ele>2483.37</ele><time>2026-06-27T16:06:19.000Z</time></trkpt>
        <trkpt lat="29.5355187" lon="103.3338249"><ele>2482.04</ele><time>2026-06-27T16:06:31.000Z</time></trkpt>
        <trkpt lat="29.5355754" lon="103.3339097"><ele>2480.46</ele><time>2026-06-27T16:06:49.000Z</time></trkpt>
        <trkpt lat="29.5356246" lon="103.3339993"><ele>2477.92</ele><time>2026-06-27T16:07:11.000Z</time></trkpt>
        <trkpt lat="29.5357041" lon="103.3340883"><ele>2475.39</ele><time>2026-06-27T16:07:21.000Z</time></trkpt>
        <trkpt lat="29.5357981" lon="103.334144"><ele>2472.38</ele><time>2026-06-27T16:07:31.000Z</time></trkpt>
        <trkpt lat="29.5358916" lon="103.3341905"><ele>2471.02</ele><time>2026-06-27T16:07:49.000Z</time></trkpt>
        <trkpt lat="29.5359867" lon="103.3342278"><ele>2469.56</ele><time>2026-06-27T16:08:05.000Z</time></trkpt>
        <trkpt lat="29.5360766" lon="103.3342693"><ele>2468.13</ele><time>2026-06-27T16:08:13.000Z</time></trkpt>
        <trkpt lat="29.5361587" lon="103.3343365"><ele>2466.69</ele><time>2026-06-27T16:08:29.000Z</time></trkpt>
        <trkpt lat="29.5362478" lon="103.3343798"><ele>2466.16</ele><time>2026-06-27T16:08:49.000Z</time></trkpt>
        <trkpt lat="29.5363399" lon="103.3344117"><ele>2465.21</ele><time>2026-06-27T16:09:09.000Z</time></trkpt>
        <trkpt lat="29.5364319" lon="103.3343951"><ele>2463.54</ele><time>2026-06-27T16:09:31.000Z</time></trkpt>
        <trkpt lat="29.5365265" lon="103.3343672"><ele>2462.12</ele><time>2026-06-27T16:09:43.000Z</time></trkpt>
        <trkpt lat="29.5366248" lon="103.3343566"><ele>2460.89</ele><time>2026-06-27T16:10:03.000Z</time></trkpt>
        <trkpt lat="29.5367162" lon="103.3343368"><ele>2459.64</ele><time>2026-06-27T16:10:13.000Z</time></trkpt>
        <trkpt lat="29.536804" lon="103.3343081"><ele>2458.52</ele><time>2026-06-27T16:10:31.000Z</time></trkpt>
        <trkpt lat="29.5368897" lon="103.3342657"><ele>2457.06</ele><time>2026-06-27T16:10:47.000Z</time></trkpt>
        <trkpt lat="29.5369788" lon="103.3342189"><ele>2455.19</ele><time>2026-06-27T16:11:19.000Z</time></trkpt>
        <trkpt lat="29.5370731" lon="103.3341952"><ele>2453.16</ele><time>2026-06-27T16:11:27.000Z</time></trkpt>
        <trkpt lat="29.5371644" lon="103.334159"><ele>2449.36</ele><time>2026-06-27T16:11:41.000Z</time></trkpt>
        <trkpt lat="29.5372282" lon="103.3340762"><ele>2447.08</ele><time>2026-06-27T16:11:53.000Z</time></trkpt>
        <trkpt lat="29.5372678" lon="103.3339676"><ele>2445.17</ele><time>2026-06-27T16:12:07.000Z</time></trkpt>
        <trkpt lat="29.5373089" lon="103.3338681"><ele>2443.34</ele><time>2026-06-27T16:12:17.000Z</time></trkpt>
        <trkpt lat="29.5373645" lon="103.3337835"><ele>2440.96</ele><time>2026-06-27T16:12:29.000Z</time></trkpt>
        <trkpt lat="29.5374462" lon="103.3337533"><ele>2439.3</ele><time>2026-06-27T16:12:41.000Z</time></trkpt>
        <trkpt lat="29.5375369" lon="103.3337622"><ele>2438.11</ele><time>2026-06-27T16:12:59.000Z</time></trkpt>
        <trkpt lat="29.537627" lon="103.3337414"><ele>2436.76</ele><time>2026-06-27T16:13:11.000Z</time></trkpt>
        <trkpt lat="29.5377028" lon="103.3336741"><ele>2433.66</ele><time>2026-06-27T16:13:23.000Z</time></trkpt>
        <trkpt lat="29.5377847" lon="103.3335983"><ele>2430.2</ele><time>2026-06-27T16:13:37.000Z</time></trkpt>
        <trkpt lat="29.5378641" lon="103.3335282"><ele>2427.25</ele><time>2026-06-27T16:13:49.000Z</time></trkpt>
        <trkpt lat="29.537947" lon="103.3334714"><ele>2425.14</ele><time>2026-06-27T16:14:01.000Z</time></trkpt>
        <trkpt lat="29.5380362" lon="103.333414"><ele>2423.98</ele><time>2026-06-27T16:14:11.000Z</time></trkpt>
        <trkpt lat="29.5381281" lon="103.3333477"><ele>2423</ele><time>2026-06-27T16:14:23.000Z</time></trkpt>
        <trkpt lat="29.5382219" lon="103.3332794"><ele>2421.95</ele><time>2026-06-27T16:14:31.000Z</time></trkpt>
        <trkpt lat="29.5383055" lon="103.3332156"><ele>2420.64</ele><time>2026-06-27T16:14:41.000Z</time></trkpt>
        <trkpt lat="29.5383999" lon="103.3331787"><ele>2419.83</ele><time>2026-06-27T16:14:53.000Z</time></trkpt>
        <trkpt lat="29.5384924" lon="103.3331728"><ele>2419.47</ele><time>2026-06-27T16:15:03.000Z</time></trkpt>
        <trkpt lat="29.5385918" lon="103.3331709"><ele>2419.16</ele><time>2026-06-27T16:15:13.000Z</time></trkpt>
        <trkpt lat="29.5386918" lon="103.3331634"><ele>2418.82</ele><time>2026-06-27T16:15:23.000Z</time></trkpt>
        <trkpt lat="29.5387955" lon="103.333132"><ele>2418.29</ele><time>2026-06-27T16:15:33.000Z</time></trkpt>
        <trkpt lat="29.5388828" lon="103.3330825"><ele>2417.65</ele><time>2026-06-27T16:15:41.000Z</time></trkpt>
        <trkpt lat="29.5389643" lon="103.3330271"><ele>2416.93</ele><time>2026-06-27T16:15:51.000Z</time></trkpt>
        <trkpt lat="29.5390431" lon="103.3329619"><ele>2416.27</ele><time>2026-06-27T16:16:03.000Z</time></trkpt>
        <trkpt lat="29.5391111" lon="103.33289"><ele>2415.43</ele><time>2026-06-27T16:16:13.000Z</time></trkpt>
        <trkpt lat="29.5391887" lon="103.3328253"><ele>2414.66</ele><time>2026-06-27T16:16:23.000Z</time></trkpt>
        <trkpt lat="29.5392593" lon="103.3327529"><ele>2413.44</ele><time>2026-06-27T16:16:35.000Z</time></trkpt>
        <trkpt lat="29.5393392" lon="103.3326928"><ele>2412.33</ele><time>2026-06-27T16:16:51.000Z</time></trkpt>
        <trkpt lat="29.5394164" lon="103.3326355"><ele>2411.29</ele><time>2026-06-27T16:17:03.000Z</time></trkpt>
        <trkpt lat="29.5394784" lon="103.3325608"><ele>2409.87</ele><time>2026-06-27T16:17:15.000Z</time></trkpt>
        <trkpt lat="29.5395459" lon="103.3324916"><ele>2409.06</ele><time>2026-06-27T16:17:31.000Z</time></trkpt>
        <trkpt lat="29.5396206" lon="103.332423"><ele>2407.81</ele><time>2026-06-27T16:17:49.000Z</time></trkpt>
        <trkpt lat="29.5397081" lon="103.3323713"><ele>2405.92</ele><time>2026-06-27T16:17:59.000Z</time></trkpt>
        <trkpt lat="29.5398054" lon="103.332327"><ele>2404.58</ele><time>2026-06-27T16:18:11.000Z</time></trkpt>
        <trkpt lat="29.5398925" lon="103.3322796"><ele>2403.29</ele><time>2026-06-27T16:18:23.000Z</time></trkpt>
        <trkpt lat="29.5399803" lon="103.3322202"><ele>2401.81</ele><time>2026-06-27T16:18:35.000Z</time></trkpt>
        <trkpt lat="29.5400769" lon="103.3321596"><ele>2400.27</ele><time>2026-06-27T16:18:45.000Z</time></trkpt>
        <trkpt lat="29.5401579" lon="103.3320889"><ele>2398.98</ele><time>2026-06-27T16:18:57.000Z</time></trkpt>
        <trkpt lat="29.5402253" lon="103.3320019"><ele>2397.88</ele><time>2026-06-27T16:19:11.000Z</time></trkpt>
        <trkpt lat="29.5403139" lon="103.3319374"><ele>2397.22</ele><time>2026-06-27T16:19:23.000Z</time></trkpt>
        <trkpt lat="29.54041" lon="103.3319047"><ele>2396.98</ele><time>2026-06-27T16:19:33.000Z</time></trkpt>
        <trkpt lat="29.5405011" lon="103.3318662"><ele>2396.72</ele><time>2026-06-27T16:19:47.000Z</time></trkpt>
        <trkpt lat="29.5405805" lon="103.3317949"><ele>2396.47</ele><time>2026-06-27T16:19:57.000Z</time></trkpt>
        <trkpt lat="29.5406598" lon="103.3317342"><ele>2395.71</ele><time>2026-06-27T16:20:09.000Z</time></trkpt>
        <trkpt lat="29.5407579" lon="103.3317181"><ele>2395.26</ele><time>2026-06-27T16:20:23.000Z</time></trkpt>
        <trkpt lat="29.5408505" lon="103.3317472"><ele>2395.04</ele><time>2026-06-27T16:20:33.000Z</time></trkpt>
        <trkpt lat="29.5409415" lon="103.3317867"><ele>2394.72</ele><time>2026-06-27T16:20:45.000Z</time></trkpt>
        <trkpt lat="29.5410542" lon="103.3318046"><ele>2394.26</ele><time>2026-06-27T16:21:05.000Z</time></trkpt>
        <trkpt lat="29.541152" lon="103.331804"><ele>2393.11</ele><time>2026-06-27T16:21:19.000Z</time></trkpt>
        <trkpt lat="29.5412555" lon="103.3318082"><ele>2391.85</ele><time>2026-06-27T16:21:31.000Z</time></trkpt>
        <trkpt lat="29.5413504" lon="103.3317858"><ele>2390.29</ele><time>2026-06-27T16:21:43.000Z</time></trkpt>
        <trkpt lat="29.5414328" lon="103.33174"><ele>2389.4</ele><time>2026-06-27T16:21:53.000Z</time></trkpt>
        <trkpt lat="29.5415289" lon="103.3317151"><ele>2388.7</ele><time>2026-06-27T16:22:07.000Z</time></trkpt>
        <trkpt lat="29.5416331" lon="103.331692"><ele>2388.3</ele><time>2026-06-27T16:22:17.000Z</time></trkpt>
        <trkpt lat="29.5417372" lon="103.3316754"><ele>2387.87</ele><time>2026-06-27T16:22:29.000Z</time></trkpt>
        <trkpt lat="29.5418163" lon="103.3317359"><ele>2386.82</ele><time>2026-06-27T16:22:43.000Z</time></trkpt>
        <trkpt lat="29.5418068" lon="103.3318381"><ele>2385.5</ele><time>2026-06-27T16:22:53.000Z</time></trkpt>
        <trkpt lat="29.5417373" lon="103.3319182"><ele>2385.07</ele><time>2026-06-27T16:23:03.000Z</time></trkpt>
        <trkpt lat="29.5417373" lon="103.3319182"><ele>2385.07</ele><time>2026-06-27T16:23:03.000Z</time></trkpt>
        <trkpt lat="29.5435384" lon="103.3337749"><ele>2354.66</ele><time>2026-06-27T16:54:01.000Z</time></trkpt>
        <trkpt lat="29.5434588" lon="103.3337161"><ele>2395.81</ele><time>2026-06-27T16:54:07.000Z</time></trkpt>
        <trkpt lat="29.5435198" lon="103.333754"><ele>2395.81</ele><time>2026-06-27T16:54:33.000Z</time></trkpt>
        <trkpt lat="29.5436023" lon="103.3338318"><ele>2392.71</ele><time>2026-06-27T16:54:45.000Z</time></trkpt>
        <trkpt lat="29.54368" lon="103.333918"><ele>2390.99</ele><time>2026-06-27T16:54:51.000Z</time></trkpt>
        <trkpt lat="29.543776" lon="103.3339619"><ele>2389.42</ele><time>2026-06-27T16:55:01.000Z</time></trkpt>
        <trkpt lat="29.5438779" lon="103.3339596"><ele>2388.78</ele><time>2026-06-27T16:55:17.000Z</time></trkpt>
        <trkpt lat="29.543959" lon="103.3340129"><ele>2388.63</ele><time>2026-06-27T16:55:29.000Z</time></trkpt>
        <trkpt lat="29.5440355" lon="103.3340709"><ele>2388.43</ele><time>2026-06-27T16:55:39.000Z</time></trkpt>
        <trkpt lat="29.5441214" lon="103.3341295"><ele>2387.97</ele><time>2026-06-27T16:55:49.000Z</time></trkpt>
        <trkpt lat="29.544213" lon="103.3341762"><ele>2387.55</ele><time>2026-06-27T16:55:59.000Z</time></trkpt>
        <trkpt lat="29.5443151" lon="103.3341922"><ele>2387.26</ele><time>2026-06-27T16:56:09.000Z</time></trkpt>
        <trkpt lat="29.5444175" lon="103.334197"><ele>2386.96</ele><time>2026-06-27T16:56:17.000Z</time></trkpt>
        <trkpt lat="29.5445162" lon="103.3342195"><ele>2386.72</ele><time>2026-06-27T16:56:25.000Z</time></trkpt>
        <trkpt lat="29.5446141" lon="103.3342509"><ele>2386.51</ele><time>2026-06-27T16:56:35.000Z</time></trkpt>
        <trkpt lat="29.5447046" lon="103.3342388"><ele>2385.86</ele><time>2026-06-27T16:56:47.000Z</time></trkpt>
        <trkpt lat="29.5447918" lon="103.3341774"><ele>2385.48</ele><time>2026-06-27T16:56:57.000Z</time></trkpt>
        <trkpt lat="29.5448831" lon="103.3341123"><ele>2384.96</ele><time>2026-06-27T16:57:09.000Z</time></trkpt>
        <trkpt lat="29.5449791" lon="103.3340912"><ele>2384.71</ele><time>2026-06-27T16:57:21.000Z</time></trkpt>
        <trkpt lat="29.5450814" lon="103.334105"><ele>2385.51</ele><time>2026-06-27T16:57:35.000Z</time></trkpt>
        <trkpt lat="29.5451717" lon="103.33414"><ele>2386.34</ele><time>2026-06-27T16:57:45.000Z</time></trkpt>
        <trkpt lat="29.5452569" lon="103.3341949"><ele>2386.67</ele><time>2026-06-27T16:57:57.000Z</time></trkpt>
        <trkpt lat="29.5453383" lon="103.3342564"><ele>2386.96</ele><time>2026-06-27T16:58:09.000Z</time></trkpt>
        <trkpt lat="29.5454213" lon="103.3343109"><ele>2387.32</ele><time>2026-06-27T16:58:19.000Z</time></trkpt>
        <trkpt lat="29.5455016" lon="103.3343867"><ele>2387.41</ele><time>2026-06-27T16:58:31.000Z</time></trkpt>
        <trkpt lat="29.5455863" lon="103.3344572"><ele>2387.45</ele><time>2026-06-27T16:58:41.000Z</time></trkpt>
        <trkpt lat="29.545676" lon="103.3344935"><ele>2387.37</ele><time>2026-06-27T16:58:55.000Z</time></trkpt>
        <trkpt lat="29.5457661" lon="103.3345477"><ele>2388.07</ele><time>2026-06-27T16:59:09.000Z</time></trkpt>
        <trkpt lat="29.5458464" lon="103.3346085"><ele>2388.17</ele><time>2026-06-27T16:59:23.000Z</time></trkpt>
        <trkpt lat="29.5459015" lon="103.3346921"><ele>2388.62</ele><time>2026-06-27T16:59:35.000Z</time></trkpt>
        <trkpt lat="29.5459697" lon="103.334759"><ele>2388.06</ele><time>2026-06-27T16:59:55.000Z</time></trkpt>
        <trkpt lat="29.5460506" lon="103.3348051"><ele>2387.61</ele><time>2026-06-27T17:00:11.000Z</time></trkpt>
        <trkpt lat="29.5461489" lon="103.3348269"><ele>2388.31</ele><time>2026-06-27T17:00:25.000Z</time></trkpt>
        <trkpt lat="29.5462431" lon="103.3348082"><ele>2389.7</ele><time>2026-06-27T17:00:35.000Z</time></trkpt>
        <trkpt lat="29.5463366" lon="103.3348094"><ele>2390.18</ele><time>2026-06-27T17:00:59.000Z</time></trkpt>
        <trkpt lat="29.5464263" lon="103.3348392"><ele>2391.4</ele><time>2026-06-27T17:01:11.000Z</time></trkpt>
        <trkpt lat="29.5465172" lon="103.3348822"><ele>2391.81</ele><time>2026-06-27T17:01:21.000Z</time></trkpt>
        <trkpt lat="29.5465988" lon="103.3349359"><ele>2391.68</ele><time>2026-06-27T17:01:29.000Z</time></trkpt>
        <trkpt lat="29.5466774" lon="103.3349912"><ele>2391.33</ele><time>2026-06-27T17:01:37.000Z</time></trkpt>
        <trkpt lat="29.5467408" lon="103.3350761"><ele>2390.78</ele><time>2026-06-27T17:01:57.000Z</time></trkpt>
        <trkpt lat="29.5467775" lon="103.3351747"><ele>2390.94</ele><time>2026-06-27T17:02:15.000Z</time></trkpt>
        <trkpt lat="29.5467757" lon="103.3352865"><ele>2391.94</ele><time>2026-06-27T17:02:33.000Z</time></trkpt>
        <trkpt lat="29.5467535" lon="103.3353963"><ele>2392.88</ele><time>2026-06-27T17:02:47.000Z</time></trkpt>
        <trkpt lat="29.5467273" lon="103.3355128"><ele>2393.33</ele><time>2026-06-27T17:02:57.000Z</time></trkpt>
        <trkpt lat="29.5466922" lon="103.3356201"><ele>2393.86</ele><time>2026-06-27T17:03:07.000Z</time></trkpt>
        <trkpt lat="29.546667" lon="103.3357303"><ele>2394.33</ele><time>2026-06-27T17:03:17.000Z</time></trkpt>
        <trkpt lat="29.5466396" lon="103.3358399"><ele>2394.67</ele><time>2026-06-27T17:03:29.000Z</time></trkpt>
        <trkpt lat="29.5466084" lon="103.3359461"><ele>2394.85</ele><time>2026-06-27T17:03:39.000Z</time></trkpt>
        <trkpt lat="29.5465809" lon="103.3360481"><ele>2394.89</ele><time>2026-06-27T17:03:51.000Z</time></trkpt>
        <trkpt lat="29.5465291" lon="103.3361356"><ele>2394.95</ele><time>2026-06-27T17:04:03.000Z</time></trkpt>
        <trkpt lat="29.5464782" lon="103.3362312"><ele>2395.74</ele><time>2026-06-27T17:04:15.000Z</time></trkpt>
        <trkpt lat="29.5464692" lon="103.3363394"><ele>2396.66</ele><time>2026-06-27T17:04:31.000Z</time></trkpt>
        <trkpt lat="29.5464484" lon="103.336455"><ele>2397.44</ele><time>2026-06-27T17:05:27.000Z</time></trkpt>
        <trkpt lat="29.5464173" lon="103.3365784"><ele>2400.02</ele><time>2026-06-27T17:05:35.000Z</time></trkpt>
        <trkpt lat="29.5464197" lon="103.3366973"><ele>2401.72</ele><time>2026-06-27T17:06:03.000Z</time></trkpt>
        <trkpt lat="29.5464412" lon="103.3368092"><ele>2408.52</ele><time>2026-06-27T17:06:13.000Z</time></trkpt>
        <trkpt lat="29.5464759" lon="103.3369311"><ele>2412.46</ele><time>2026-06-27T17:06:31.000Z</time></trkpt>
        <trkpt lat="29.5465281" lon="103.337039"><ele>2414.48</ele><time>2026-06-27T17:06:45.000Z</time></trkpt>
        <trkpt lat="29.5465938" lon="103.3371262"><ele>2415.97</ele><time>2026-06-27T17:06:55.000Z</time></trkpt>
        <trkpt lat="29.5466116" lon="103.3372324"><ele>2416.66</ele><time>2026-06-27T17:07:05.000Z</time></trkpt>
        <trkpt lat="29.5465896" lon="103.337344"><ele>2417.11</ele><time>2026-06-27T17:07:17.000Z</time></trkpt>
        <trkpt lat="29.5465427" lon="103.3374451"><ele>2417.33</ele><time>2026-06-27T17:07:43.000Z</time></trkpt>
        <trkpt lat="29.5464879" lon="103.33755"><ele>2417.29</ele><time>2026-06-27T17:07:53.000Z</time></trkpt>
        <trkpt lat="29.5464313" lon="103.3376498"><ele>2416.82</ele><time>2026-06-27T17:08:01.000Z</time></trkpt>
        <trkpt lat="29.5463722" lon="103.3377462"><ele>2416.87</ele><time>2026-06-27T17:08:13.000Z</time></trkpt>
        <trkpt lat="29.5463237" lon="103.3378499"><ele>2416.99</ele><time>2026-06-27T17:08:23.000Z</time></trkpt>
        <trkpt lat="29.5462647" lon="103.3379389"><ele>2416.44</ele><time>2026-06-27T17:08:33.000Z</time></trkpt>
        <trkpt lat="29.5462158" lon="103.3380274"><ele>2416.25</ele><time>2026-06-27T17:08:43.000Z</time></trkpt>
        <trkpt lat="29.546184" lon="103.3381368"><ele>2416.08</ele><time>2026-06-27T17:08:59.000Z</time></trkpt>
        <trkpt lat="29.5461837" lon="103.33825"><ele>2415.68</ele><time>2026-06-27T17:09:11.000Z</time></trkpt>
        <trkpt lat="29.5461619" lon="103.338358"><ele>2414.03</ele><time>2026-06-27T17:09:29.000Z</time></trkpt>
        <trkpt lat="29.5461871" lon="103.3384642"><ele>2412.65</ele><time>2026-06-27T17:09:45.000Z</time></trkpt>
        <trkpt lat="29.5462259" lon="103.3385701"><ele>2411.43</ele><time>2026-06-27T17:10:01.000Z</time></trkpt>
        <trkpt lat="29.5462794" lon="103.3386736"><ele>2410.52</ele><time>2026-06-27T17:10:17.000Z</time></trkpt>
        <trkpt lat="29.5463318" lon="103.3387785"><ele>2409.11</ele><time>2026-06-27T17:10:25.000Z</time></trkpt>
        <trkpt lat="29.5464041" lon="103.3388558"><ele>2404.96</ele><time>2026-06-27T17:10:43.000Z</time></trkpt>
        <trkpt lat="29.5464823" lon="103.3389239"><ele>2401.03</ele><time>2026-06-27T17:11:07.000Z</time></trkpt>
        <trkpt lat="29.5465648" lon="103.3389881"><ele>2395.63</ele><time>2026-06-27T17:11:23.000Z</time></trkpt>
        <trkpt lat="29.5466232" lon="103.3390741"><ele>2390.89</ele><time>2026-06-27T17:11:41.000Z</time></trkpt>
        <trkpt lat="29.5466905" lon="103.3391548"><ele>2386.84</ele><time>2026-06-27T17:12:01.000Z</time></trkpt>
        <trkpt lat="29.54676" lon="103.3392461"><ele>2384.02</ele><time>2026-06-27T17:12:51.000Z</time></trkpt>
        <trkpt lat="29.5468218" lon="103.3393524"><ele>2380.75</ele><time>2026-06-27T17:12:57.000Z</time></trkpt>
        <trkpt lat="29.5468833" lon="103.3394411"><ele>2376.12</ele><time>2026-06-27T17:13:15.000Z</time></trkpt>
        <trkpt lat="29.5468983" lon="103.339543"><ele>2371.01</ele><time>2026-06-27T17:13:27.000Z</time></trkpt>
        <trkpt lat="29.5469493" lon="103.3396287"><ele>2367.9</ele><time>2026-06-27T17:13:53.000Z</time></trkpt>
        <trkpt lat="29.5470254" lon="103.3396886"><ele>2362.06</ele><time>2026-06-27T17:14:13.000Z</time></trkpt>
        <trkpt lat="29.5471086" lon="103.3397498"><ele>2357.19</ele><time>2026-06-27T17:14:27.000Z</time></trkpt>
        <trkpt lat="29.5471282" lon="103.3398488"><ele>2351.26</ele><time>2026-06-27T17:14:37.000Z</time></trkpt>
        <trkpt lat="29.5471215" lon="103.3399571"><ele>2346.73</ele><time>2026-06-27T17:14:51.000Z</time></trkpt>
        <trkpt lat="29.5471248" lon="103.340064"><ele>2342.73</ele><time>2026-06-27T17:15:13.000Z</time></trkpt>
        <trkpt lat="29.5471343" lon="103.3401853"><ele>2338.01</ele><time>2026-06-27T17:15:39.000Z</time></trkpt>
        <trkpt lat="29.5471691" lon="103.3402947"><ele>2333.48</ele><time>2026-06-27T17:16:19.000Z</time></trkpt>
        <trkpt lat="29.5471489" lon="103.3403948"><ele>2326.55</ele><time>2026-06-27T17:16:45.000Z</time></trkpt>
        <trkpt lat="29.5471905" lon="103.3404732"><ele>2319.08</ele><time>2026-06-27T17:16:49.000Z</time></trkpt>
        <trkpt lat="29.5472495" lon="103.3405651"><ele>2314.42</ele><time>2026-06-27T17:16:57.000Z</time></trkpt>
        <trkpt lat="29.5473057" lon="103.340664"><ele>2311.27</ele><time>2026-06-27T17:17:13.000Z</time></trkpt>
        <trkpt lat="29.5473816" lon="103.3407647"><ele>2309.14</ele><time>2026-06-27T17:17:21.000Z</time></trkpt>
        <trkpt lat="29.5474745" lon="103.3408378"><ele>2307.66</ele><time>2026-06-27T17:17:27.000Z</time></trkpt>
        <trkpt lat="29.5475032" lon="103.340945"><ele>2306.27</ele><time>2026-06-27T17:17:39.000Z</time></trkpt>
        <trkpt lat="29.5475453" lon="103.3410655"><ele>2304.23</ele><time>2026-06-27T17:18:05.000Z</time></trkpt>
        <trkpt lat="29.5476238" lon="103.3411158"><ele>2302.63</ele><time>2026-06-27T17:18:31.000Z</time></trkpt>
        <trkpt lat="29.5477303" lon="103.3411323"><ele>2300.54</ele><time>2026-06-27T17:18:47.000Z</time></trkpt>
        <trkpt lat="29.547833" lon="103.3411667"><ele>2298.83</ele><time>2026-06-27T17:18:57.000Z</time></trkpt>
        <trkpt lat="29.5479193" lon="103.3412318"><ele>2297.5</ele><time>2026-06-27T17:19:07.000Z</time></trkpt>
        <trkpt lat="29.5480108" lon="103.3412403"><ele>2296.62</ele><time>2026-06-27T17:19:19.000Z</time></trkpt>
        <trkpt lat="29.5481114" lon="103.3412206"><ele>2295.79</ele><time>2026-06-27T17:19:27.000Z</time></trkpt>
        <trkpt lat="29.5482036" lon="103.341226"><ele>2295.39</ele><time>2026-06-27T17:19:39.000Z</time></trkpt>
        <trkpt lat="29.5482979" lon="103.3412288"><ele>2295.05</ele><time>2026-06-27T17:19:55.000Z</time></trkpt>
        <trkpt lat="29.5483917" lon="103.3412414"><ele>2294.39</ele><time>2026-06-27T17:20:11.000Z</time></trkpt>
        <trkpt lat="29.5484913" lon="103.3412372"><ele>2293.23</ele><time>2026-06-27T17:20:41.000Z</time></trkpt>
        <trkpt lat="29.5485901" lon="103.3412425"><ele>2288.69</ele><time>2026-06-27T17:20:57.000Z</time></trkpt>
        <trkpt lat="29.5486818" lon="103.3412221"><ele>2279.72</ele><time>2026-06-27T17:21:15.000Z</time></trkpt>
        <trkpt lat="29.5487716" lon="103.3411999"><ele>2273.22</ele><time>2026-06-27T17:21:37.000Z</time></trkpt>
        <trkpt lat="29.548864" lon="103.3411936"><ele>2269.74</ele><time>2026-06-27T17:21:55.000Z</time></trkpt>
        <trkpt lat="29.5489564" lon="103.3411822"><ele>2264.4</ele><time>2026-06-27T17:22:23.000Z</time></trkpt>
        <trkpt lat="29.5490549" lon="103.3411865"><ele>2259.4</ele><time>2026-06-27T17:22:29.000Z</time></trkpt>
        <trkpt lat="29.5491285" lon="103.3412459"><ele>2255.39</ele><time>2026-06-27T17:22:37.000Z</time></trkpt>
        <trkpt lat="29.5491861" lon="103.3413344"><ele>2251.32</ele><time>2026-06-27T17:22:47.000Z</time></trkpt>
        <trkpt lat="29.5492604" lon="103.3413993"><ele>2248.37</ele><time>2026-06-27T17:23:15.000Z</time></trkpt>
        <trkpt lat="29.549328" lon="103.3414755"><ele>2246.71</ele><time>2026-06-27T17:23:41.000Z</time></trkpt>
        <trkpt lat="29.5493344" lon="103.3415782"><ele>2242.45</ele><time>2026-06-27T17:23:47.000Z</time></trkpt>
        <trkpt lat="29.5493042" lon="103.3416886"><ele>2239.21</ele><time>2026-06-27T17:23:55.000Z</time></trkpt>
        <trkpt lat="29.5493047" lon="103.3418056"><ele>2237.3</ele><time>2026-06-27T17:24:05.000Z</time></trkpt>
        <trkpt lat="29.5493194" lon="103.3419184"><ele>2236.3</ele><time>2026-06-27T17:24:19.000Z</time></trkpt>
        <trkpt lat="29.5493371" lon="103.3420346"><ele>2235.63</ele><time>2026-06-27T17:24:29.000Z</time></trkpt>
        <trkpt lat="29.5493576" lon="103.3421424"><ele>2235.34</ele><time>2026-06-27T17:24:39.000Z</time></trkpt>
        <trkpt lat="29.5493752" lon="103.3422465"><ele>2235.99</ele><time>2026-06-27T17:24:53.000Z</time></trkpt>
        <trkpt lat="29.5494572" lon="103.3423196"><ele>2237.17</ele><time>2026-06-27T17:25:03.000Z</time></trkpt>
        <trkpt lat="29.5495312" lon="103.3423965"><ele>2237.71</ele><time>2026-06-27T17:25:11.000Z</time></trkpt>
        <trkpt lat="29.549598" lon="103.342475"><ele>2237.82</ele><time>2026-06-27T17:25:21.000Z</time></trkpt>
        <trkpt lat="29.549668" lon="103.3425521"><ele>2237.37</ele><time>2026-06-27T17:25:31.000Z</time></trkpt>
        <trkpt lat="29.5497383" lon="103.3426376"><ele>2237.17</ele><time>2026-06-27T17:25:41.000Z</time></trkpt>
        <trkpt lat="29.5498009" lon="103.3427217"><ele>2237.04</ele><time>2026-06-27T17:26:07.000Z</time></trkpt>
        <trkpt lat="29.5498544" lon="103.3428112"><ele>2236.78</ele><time>2026-06-27T17:26:19.000Z</time></trkpt>
        <trkpt lat="29.5498954" lon="103.3429455"><ele>2236.54</ele><time>2026-06-27T17:26:27.000Z</time></trkpt>
        <trkpt lat="29.5499521" lon="103.3430386"><ele>2235.54</ele><time>2026-06-27T17:26:41.000Z</time></trkpt>
        <trkpt lat="29.5500127" lon="103.3431368"><ele>2234.77</ele><time>2026-06-27T17:26:55.000Z</time></trkpt>
        <trkpt lat="29.5500837" lon="103.3432199"><ele>2234.26</ele><time>2026-06-27T17:27:09.000Z</time></trkpt>
        <trkpt lat="29.5501561" lon="103.3432907"><ele>2233.63</ele><time>2026-06-27T17:27:17.000Z</time></trkpt>
        <trkpt lat="29.5502267" lon="103.3433749"><ele>2233.03</ele><time>2026-06-27T17:27:29.000Z</time></trkpt>
        <trkpt lat="29.5502766" lon="103.3434809"><ele>2232.5</ele><time>2026-06-27T17:27:41.000Z</time></trkpt>
        <trkpt lat="29.55031" lon="103.3435852"><ele>2231.13</ele><time>2026-06-27T17:27:49.000Z</time></trkpt>
        <trkpt lat="29.5503773" lon="103.3436701"><ele>2230.3</ele><time>2026-06-27T17:28:03.000Z</time></trkpt>
        <trkpt lat="29.5504515" lon="103.3437368"><ele>2230.14</ele><time>2026-06-27T17:28:09.000Z</time></trkpt>
        <trkpt lat="29.5505207" lon="103.3438136"><ele>2229.84</ele><time>2026-06-27T17:28:17.000Z</time></trkpt>
        <trkpt lat="29.5505849" lon="103.3439048"><ele>2229.31</ele><time>2026-06-27T17:28:29.000Z</time></trkpt>
        <trkpt lat="29.5506664" lon="103.3439591"><ele>2228.32</ele><time>2026-06-27T17:28:43.000Z</time></trkpt>
        <trkpt lat="29.5507334" lon="103.3440568"><ele>2227.49</ele><time>2026-06-27T17:29:13.000Z</time></trkpt>
        <trkpt lat="29.5508044" lon="103.3441294"><ele>2227.09</ele><time>2026-06-27T17:29:27.000Z</time></trkpt>
        <trkpt lat="29.550897" lon="103.3441275"><ele>2226.98</ele><time>2026-06-27T17:29:41.000Z</time></trkpt>
        <trkpt lat="29.5509927" lon="103.3441562"><ele>2226.78</ele><time>2026-06-27T17:29:51.000Z</time></trkpt>
        <trkpt lat="29.5510943" lon="103.3442005"><ele>2226.17</ele><time>2026-06-27T17:30:01.000Z</time></trkpt>
        <trkpt lat="29.5511906" lon="103.3442252"><ele>2225.56</ele><time>2026-06-27T17:30:11.000Z</time></trkpt>
        <trkpt lat="29.5512857" lon="103.3442128"><ele>2225.17</ele><time>2026-06-27T17:30:21.000Z</time></trkpt>
        <trkpt lat="29.5513754" lon="103.3442326"><ele>2225.11</ele><time>2026-06-27T17:30:37.000Z</time></trkpt>
        <trkpt lat="29.5514644" lon="103.344264"><ele>2225.92</ele><time>2026-06-27T17:30:49.000Z</time></trkpt>
        <trkpt lat="29.5515581" lon="103.3442981"><ele>2226.32</ele><time>2026-06-27T17:31:03.000Z</time></trkpt>
        <trkpt lat="29.5516304" lon="103.3443808"><ele>2226.31</ele><time>2026-06-27T17:31:19.000Z</time></trkpt>
        <trkpt lat="29.5516969" lon="103.3444634"><ele>2225.99</ele><time>2026-06-27T17:31:27.000Z</time></trkpt>
        <trkpt lat="29.5517749" lon="103.3445241"><ele>2226.26</ele><time>2026-06-27T17:31:37.000Z</time></trkpt>
        <trkpt lat="29.5518248" lon="103.3446131"><ele>2226.88</ele><time>2026-06-27T17:31:49.000Z</time></trkpt>
        <trkpt lat="29.5518783" lon="103.3447057"><ele>2226.32</ele><time>2026-06-27T17:31:59.000Z</time></trkpt>
        <trkpt lat="29.551933" lon="103.3448053"><ele>2225.39</ele><time>2026-06-27T17:32:09.000Z</time></trkpt>
        <trkpt lat="29.5519936" lon="103.3449048"><ele>2224.92</ele><time>2026-06-27T17:32:21.000Z</time></trkpt>
        <trkpt lat="29.5520197" lon="103.3450106"><ele>2225.28</ele><time>2026-06-27T17:32:35.000Z</time></trkpt>
        <trkpt lat="29.5520586" lon="103.3451078"><ele>2225.7</ele><time>2026-06-27T17:32:59.000Z</time></trkpt>
        <trkpt lat="29.5521353" lon="103.3451677"><ele>2226.38</ele><time>2026-06-27T17:33:07.000Z</time></trkpt>
        <trkpt lat="29.5522412" lon="103.3451887"><ele>2227.97</ele><time>2026-06-27T17:33:19.000Z</time></trkpt>
        <trkpt lat="29.5523405" lon="103.3452114"><ele>2228.75</ele><time>2026-06-27T17:33:29.000Z</time></trkpt>
        <trkpt lat="29.5524403" lon="103.3452362"><ele>2229.48</ele><time>2026-06-27T17:33:39.000Z</time></trkpt>
        <trkpt lat="29.5524732" lon="103.3453268"><ele>2230.11</ele><time>2026-06-27T17:33:51.000Z</time></trkpt>
        <trkpt lat="29.5525124" lon="103.3454241"><ele>2230.26</ele><time>2026-06-27T17:34:09.000Z</time></trkpt>
        <trkpt lat="29.5525866" lon="103.3454694"><ele>2229.73</ele><time>2026-06-27T17:34:27.000Z</time></trkpt>
        <trkpt lat="29.55268" lon="103.3454783"><ele>2230.27</ele><time>2026-06-27T17:34:37.000Z</time></trkpt>
        <trkpt lat="29.5527854" lon="103.3454768"><ele>2230.93</ele><time>2026-06-27T17:34:47.000Z</time></trkpt>
        <trkpt lat="29.5528877" lon="103.34546"><ele>2231.18</ele><time>2026-06-27T17:35:01.000Z</time></trkpt>
        <trkpt lat="29.552978" lon="103.34542"><ele>2231.23</ele><time>2026-06-27T17:35:11.000Z</time></trkpt>
        <trkpt lat="29.5530711" lon="103.3454026"><ele>2231.82</ele><time>2026-06-27T17:35:19.000Z</time></trkpt>
        <trkpt lat="29.5531774" lon="103.3453882"><ele>2232.09</ele><time>2026-06-27T17:35:27.000Z</time></trkpt>
        <trkpt lat="29.5532899" lon="103.3453956"><ele>2232.13</ele><time>2026-06-27T17:35:37.000Z</time></trkpt>
        <trkpt lat="29.5533873" lon="103.3453878"><ele>2231.85</ele><time>2026-06-27T17:35:49.000Z</time></trkpt>
        <trkpt lat="29.5534826" lon="103.3453543"><ele>2231.11</ele><time>2026-06-27T17:36:05.000Z</time></trkpt>
        <trkpt lat="29.5535901" lon="103.3453249"><ele>2230.11</ele><time>2026-06-27T17:36:53.000Z</time></trkpt>
        <trkpt lat="29.5536885" lon="103.3453144"><ele>2229.35</ele><time>2026-06-27T17:37:03.000Z</time></trkpt>
        <trkpt lat="29.5537885" lon="103.3453303"><ele>2228.2</ele><time>2026-06-27T17:37:15.000Z</time></trkpt>
        <trkpt lat="29.5538825" lon="103.3453557"><ele>2227.6</ele><time>2026-06-27T17:37:33.000Z</time></trkpt>
        <trkpt lat="29.5539521" lon="103.3454212"><ele>2225.85</ele><time>2026-06-27T17:37:45.000Z</time></trkpt>
        <trkpt lat="29.5540362" lon="103.3454745"><ele>2224.28</ele><time>2026-06-27T17:37:59.000Z</time></trkpt>
        <trkpt lat="29.5541323" lon="103.3454751"><ele>2222.53</ele><time>2026-06-27T17:38:51.000Z</time></trkpt>
        <trkpt lat="29.5542337" lon="103.3454564"><ele>2221.09</ele><time>2026-06-27T17:39:07.000Z</time></trkpt>
        <trkpt lat="29.5543311" lon="103.3454347"><ele>2220.17</ele><time>2026-06-27T17:39:31.000Z</time></trkpt>
        <trkpt lat="29.55442" lon="103.3454006"><ele>2216.58</ele><time>2026-06-27T17:39:43.000Z</time></trkpt>
        <trkpt lat="29.5545102" lon="103.3453683"><ele>2211.25</ele><time>2026-06-27T17:40:29.000Z</time></trkpt>
        <trkpt lat="29.554606" lon="103.34535"><ele>2204.44</ele><time>2026-06-27T17:40:47.000Z</time></trkpt>
        <trkpt lat="29.5547034" lon="103.345318"><ele>2199.87</ele><time>2026-06-27T17:41:09.000Z</time></trkpt>
        <trkpt lat="29.5547971" lon="103.3452936"><ele>2195.38</ele><time>2026-06-27T17:41:25.000Z</time></trkpt>
        <trkpt lat="29.554865" lon="103.3452275"><ele>2189.78</ele><time>2026-06-27T17:41:49.000Z</time></trkpt>
        <trkpt lat="29.554944" lon="103.3451595"><ele>2185.64</ele><time>2026-06-27T17:42:05.000Z</time></trkpt>
        <trkpt lat="29.5550378" lon="103.3451291"><ele>2181.61</ele><time>2026-06-27T17:42:19.000Z</time></trkpt>
        <trkpt lat="29.5551305" lon="103.3450926"><ele>2178.31</ele><time>2026-06-27T17:42:31.000Z</time></trkpt>
        <trkpt lat="29.5552172" lon="103.3450527"><ele>2175.14</ele><time>2026-06-27T17:42:41.000Z</time></trkpt>
        <trkpt lat="29.5552985" lon="103.3449913"><ele>2172.18</ele><time>2026-06-27T17:42:59.000Z</time></trkpt>
        <trkpt lat="29.5553564" lon="103.3450403"><ele>2169.19</ele><time>2026-06-27T17:43:13.000Z</time></trkpt>
        <trkpt lat="29.5554375" lon="103.3450917"><ele>2166.06</ele><time>2026-06-27T17:43:39.000Z</time></trkpt>
        <trkpt lat="29.5555076" lon="103.3450461"><ele>2162.83</ele><time>2026-06-27T17:43:55.000Z</time></trkpt>
        <trkpt lat="29.5555721" lon="103.3449652"><ele>2159.65</ele><time>2026-06-27T17:44:25.000Z</time></trkpt>
        <trkpt lat="29.5556559" lon="103.3449525"><ele>2156.08</ele><time>2026-06-27T17:44:47.000Z</time></trkpt>
        <trkpt lat="29.5557494" lon="103.3449489"><ele>2152.04</ele><time>2026-06-27T17:45:11.000Z</time></trkpt>
        <trkpt lat="29.555844" lon="103.3449346"><ele>2148.16</ele><time>2026-06-27T17:45:23.000Z</time></trkpt>
        <trkpt lat="29.555924" lon="103.3448745"><ele>2144.92</ele><time>2026-06-27T17:45:35.000Z</time></trkpt>
        <trkpt lat="29.5559843" lon="103.3447902"><ele>2141.24</ele><time>2026-06-27T17:45:55.000Z</time></trkpt>
        <trkpt lat="29.5560069" lon="103.344683"><ele>2137.65</ele><time>2026-06-27T17:46:15.000Z</time></trkpt>
        <trkpt lat="29.5560331" lon="103.3445679"><ele>2134.55</ele><time>2026-06-27T17:46:33.000Z</time></trkpt>
        <trkpt lat="29.5560904" lon="103.3444641"><ele>2132.2</ele><time>2026-06-27T17:46:51.000Z</time></trkpt>
        <trkpt lat="29.556161" lon="103.3443878"><ele>2128.32</ele><time>2026-06-27T17:47:03.000Z</time></trkpt>
        <trkpt lat="29.5562259" lon="103.3443095"><ele>2124.79</ele><time>2026-06-27T17:47:17.000Z</time></trkpt>
        <trkpt lat="29.5562803" lon="103.3442198"><ele>2122.11</ele><time>2026-06-27T17:47:35.000Z</time></trkpt>
        <trkpt lat="29.5563542" lon="103.3441633"><ele>2119.54</ele><time>2026-06-27T17:47:47.000Z</time></trkpt>
        <trkpt lat="29.5564339" lon="103.3441146"><ele>2116.75</ele><time>2026-06-27T17:48:05.000Z</time></trkpt>
        <trkpt lat="29.5565106" lon="103.3440523"><ele>2113.82</ele><time>2026-06-27T17:48:27.000Z</time></trkpt>
        <trkpt lat="29.5565644" lon="103.3439679"><ele>2109.5</ele><time>2026-06-27T17:48:45.000Z</time></trkpt>
        <trkpt lat="29.556573" lon="103.3438667"><ele>2100.2</ele><time>2026-06-27T17:49:13.000Z</time></trkpt>
        <trkpt lat="29.5566019" lon="103.3437705"><ele>2093.9</ele><time>2026-06-27T17:49:45.000Z</time></trkpt>
        <trkpt lat="29.556672" lon="103.3437147"><ele>2087.77</ele><time>2026-06-27T17:50:03.000Z</time></trkpt>
        <trkpt lat="29.5567463" lon="103.343649"><ele>2082.97</ele><time>2026-06-27T17:50:21.000Z</time></trkpt>
        <trkpt lat="29.5568268" lon="103.3436723"><ele>2078.28</ele><time>2026-06-27T17:50:47.000Z</time></trkpt>
        <trkpt lat="29.5569212" lon="103.34367"><ele>2072.78</ele><time>2026-06-27T17:51:05.000Z</time></trkpt>
        <trkpt lat="29.5570158" lon="103.343643"><ele>2069.25</ele><time>2026-06-27T17:51:23.000Z</time></trkpt>
        <trkpt lat="29.5571049" lon="103.3436104"><ele>2065.93</ele><time>2026-06-27T17:51:49.000Z</time></trkpt>
        <trkpt lat="29.5571947" lon="103.343612"><ele>2062.67</ele><time>2026-06-27T17:52:35.000Z</time></trkpt>
        <trkpt lat="29.5572884" lon="103.3436452"><ele>2060.45</ele><time>2026-06-27T17:53:01.000Z</time></trkpt>
        <trkpt lat="29.557383" lon="103.3436763"><ele>2055.84</ele><time>2026-06-27T17:53:13.000Z</time></trkpt>
        <trkpt lat="29.5574777" lon="103.3437292"><ele>2051.75</ele><time>2026-06-27T17:53:25.000Z</time></trkpt>
        <trkpt lat="29.5575447" lon="103.3438343"><ele>2046.54</ele><time>2026-06-27T17:53:33.000Z</time></trkpt>
        <trkpt lat="29.5575887" lon="103.3439513"><ele>2041.57</ele><time>2026-06-27T17:53:51.000Z</time></trkpt>
        <trkpt lat="29.5576668" lon="103.3439982"><ele>2039.05</ele><time>2026-06-27T17:54:19.000Z</time></trkpt>
        <trkpt lat="29.5576671" lon="103.3441033"><ele>2037.38</ele><time>2026-06-27T17:54:37.000Z</time></trkpt>
        <trkpt lat="29.5577672" lon="103.3443565"><ele>2036.04</ele><time>2026-06-27T17:56:25.000Z</time></trkpt>
        <trkpt lat="29.5577476" lon="103.3439475"><ele>2035.35</ele><time>2026-06-27T17:56:33.000Z</time></trkpt>
        <trkpt lat="29.5576594" lon="103.3439147"><ele>2033.23</ele><time>2026-06-27T18:00:29.000Z</time></trkpt>
        <trkpt lat="29.5577634" lon="103.3439616"><ele>2032.91</ele><time>2026-06-27T18:00:47.000Z</time></trkpt>
        <trkpt lat="29.557801" lon="103.3439673"><ele>2032.77</ele><time>2026-06-27T18:00:49.000Z</time></trkpt>
        <trkpt lat="29.5579029" lon="103.3439308"><ele>2032.3</ele><time>2026-06-27T18:04:41.000Z</time></trkpt>
        <trkpt lat="29.5578895" lon="103.3439533"><ele>2029.28</ele><time>2026-06-27T18:05:07.000Z</time></trkpt>
        <trkpt lat="29.557738" lon="103.3439569"><ele>2027.84</ele><time>2026-06-27T18:09:05.000Z</time></trkpt>
        <trkpt lat="29.5578662" lon="103.3439152"><ele>2026.73</ele><time>2026-06-27T18:09:13.000Z</time></trkpt>
        <trkpt lat="29.5582736" lon="103.3440887"><ele>2026.52</ele><time>2026-06-27T18:11:19.000Z</time></trkpt>
        <trkpt lat="29.5582435" lon="103.3440763"><ele>2027.96</ele><time>2026-06-27T18:11:21.000Z</time></trkpt>
        <trkpt lat="29.5582501" lon="103.3441778"><ele>2030.93</ele><time>2026-06-27T18:11:35.000Z</time></trkpt>
        <trkpt lat="29.5582713" lon="103.3442072"><ele>2033.16</ele><time>2026-06-27T18:11:37.000Z</time></trkpt>
        <trkpt lat="29.5583444" lon="103.3441412"><ele>2038.82</ele><time>2026-06-27T18:11:45.000Z</time></trkpt>
        <trkpt lat="29.5584389" lon="103.3441074"><ele>2036.55</ele><time>2026-06-27T18:11:59.000Z</time></trkpt>
        <trkpt lat="29.558527" lon="103.3441691"><ele>2034.8</ele><time>2026-06-27T18:13:41.000Z</time></trkpt>
        <trkpt lat="29.5586181" lon="103.344201"><ele>2031.82</ele><time>2026-06-27T18:14:01.000Z</time></trkpt>
        <trkpt lat="29.5587179" lon="103.3442124"><ele>2029.25</ele><time>2026-06-27T18:14:15.000Z</time></trkpt>
        <trkpt lat="29.5588153" lon="103.3442527"><ele>2025.91</ele><time>2026-06-27T18:14:27.000Z</time></trkpt>
        <trkpt lat="29.5588899" lon="103.3442115"><ele>2022.91</ele><time>2026-06-27T18:15:21.000Z</time></trkpt>
        <trkpt lat="29.5589137" lon="103.3441006"><ele>2019.21</ele><time>2026-06-27T18:15:37.000Z</time></trkpt>
        <trkpt lat="29.5589675" lon="103.3441094"><ele>2016.07</ele><time>2026-06-27T18:15:53.000Z</time></trkpt>
        <trkpt lat="29.5589624" lon="103.3440336"><ele>2013.34</ele><time>2026-06-27T18:16:07.000Z</time></trkpt>
        <trkpt lat="29.5589301" lon="103.3439336"><ele>2010.9</ele><time>2026-06-27T18:16:15.000Z</time></trkpt>
        <trkpt lat="29.558929" lon="103.3438095"><ele>2008.43</ele><time>2026-06-27T18:16:25.000Z</time></trkpt>
        <trkpt lat="29.5589828" lon="103.3437066"><ele>2005.99</ele><time>2026-06-27T18:16:57.000Z</time></trkpt>
        <trkpt lat="29.55907" lon="103.3436752"><ele>2002.48</ele><time>2026-06-27T18:17:39.000Z</time></trkpt>
        <trkpt lat="29.5591544" lon="103.3437225"><ele>1998.93</ele><time>2026-06-27T18:17:49.000Z</time></trkpt>
        <trkpt lat="29.5592383" lon="103.3437889"><ele>1995.3</ele><time>2026-06-27T18:18:13.000Z</time></trkpt>
        <trkpt lat="29.5592885" lon="103.3437371"><ele>1991.4</ele><time>2026-06-27T18:18:33.000Z</time></trkpt>
        <trkpt lat="29.5593096" lon="103.3436134"><ele>1986.64</ele><time>2026-06-27T18:19:41.000Z</time></trkpt>
        <trkpt lat="29.5594082" lon="103.3436043"><ele>1981.71</ele><time>2026-06-27T18:20:17.000Z</time></trkpt>
        <trkpt lat="29.5594794" lon="103.3435388"><ele>1977.68</ele><time>2026-06-27T18:20:37.000Z</time></trkpt>
        <trkpt lat="29.559566" lon="103.3435243"><ele>1973.65</ele><time>2026-06-27T18:21:01.000Z</time></trkpt>
        <trkpt lat="29.55964" lon="103.343575"><ele>1968.46</ele><time>2026-06-27T18:21:25.000Z</time></trkpt>
        <trkpt lat="29.5597085" lon="103.343532"><ele>1962.65</ele><time>2026-06-27T18:21:45.000Z</time></trkpt>
        <trkpt lat="29.5597831" lon="103.3435607"><ele>1957.41</ele><time>2026-06-27T18:22:07.000Z</time></trkpt>
        <trkpt lat="29.5598381" lon="103.3436416"><ele>1952.34</ele><time>2026-06-27T18:22:25.000Z</time></trkpt>
        <trkpt lat="29.5599059" lon="103.343718"><ele>1947.22</ele><time>2026-06-27T18:22:41.000Z</time></trkpt>
        <trkpt lat="29.5597337" lon="103.3440976"><ele>1941.89</ele><time>2026-06-27T18:23:23.000Z</time></trkpt>
        <trkpt lat="29.5600155" lon="103.3440159"><ele>1935.76</ele><time>2026-06-27T18:23:31.000Z</time></trkpt>
        <trkpt lat="29.560112" lon="103.3440384"><ele>1929.76</ele><time>2026-06-27T18:24:23.000Z</time></trkpt>
        <trkpt lat="29.5601613" lon="103.3441393"><ele>1921.06</ele><time>2026-06-27T18:25:09.000Z</time></trkpt>
        <trkpt lat="29.5601143" lon="103.344953"><ele>1911.66</ele><time>2026-06-27T18:25:38.000Z</time></trkpt>
        <trkpt lat="29.560077" lon="103.3445823"><ele>1912.82</ele><time>2026-06-27T18:25:40.000Z</time></trkpt>
        <trkpt lat="29.5600169" lon="103.3444823"><ele>1913.5</ele><time>2026-06-27T18:25:42.000Z</time></trkpt>
        <trkpt lat="29.5601195" lon="103.3444189"><ele>1913.89</ele><time>2026-06-27T18:25:44.000Z</time></trkpt>
        <trkpt lat="29.5601491" lon="103.3444442"><ele>1911.5</ele><time>2026-06-27T18:26:04.000Z</time></trkpt>
        <trkpt lat="29.5602252" lon="103.3444451"><ele>1905.57</ele><time>2026-06-27T18:26:22.000Z</time></trkpt>
        <trkpt lat="29.560311" lon="103.3444894"><ele>1890.08</ele><time>2026-06-27T18:26:48.000Z</time></trkpt>
        <trkpt lat="29.5603801" lon="103.3445681"><ele>1880.21</ele><time>2026-06-27T18:27:16.000Z</time></trkpt>
        <trkpt lat="29.5604578" lon="103.3446317"><ele>1872.86</ele><time>2026-06-27T18:27:28.000Z</time></trkpt>
        <trkpt lat="29.5605378" lon="103.3446925"><ele>1868.41</ele><time>2026-06-27T18:27:58.000Z</time></trkpt>
        <trkpt lat="29.5606329" lon="103.3447337"><ele>1864.92</ele><time>2026-06-27T18:28:32.000Z</time></trkpt>
        <trkpt lat="29.5607108" lon="103.3447994"><ele>1861.31</ele><time>2026-06-27T18:28:46.000Z</time></trkpt>
        <trkpt lat="29.5607308" lon="103.3448965"><ele>1857.79</ele><time>2026-06-27T18:29:38.000Z</time></trkpt>
        <trkpt lat="29.5607935" lon="103.3449467"><ele>1852.03</ele><time>2026-06-27T18:30:02.000Z</time></trkpt>
        <trkpt lat="29.5608533" lon="103.3450266"><ele>1845.66</ele><time>2026-06-27T18:30:30.000Z</time></trkpt>
        <trkpt lat="29.5609267" lon="103.3450914"><ele>1838.34</ele><time>2026-06-27T18:30:54.000Z</time></trkpt>
        <trkpt lat="29.5610061" lon="103.3450689"><ele>1831.22</ele><time>2026-06-27T18:31:20.000Z</time></trkpt>
        <trkpt lat="29.5610984" lon="103.3450668"><ele>1824.08</ele><time>2026-06-27T18:32:02.000Z</time></trkpt>
        <trkpt lat="29.5611912" lon="103.3450713"><ele>1816.5</ele><time>2026-06-27T18:32:40.000Z</time></trkpt>
        <trkpt lat="29.5612676" lon="103.345127"><ele>1808.65</ele><time>2026-06-27T18:33:12.000Z</time></trkpt>
        <trkpt lat="29.5613374" lon="103.3451988"><ele>1801.99</ele><time>2026-06-27T18:33:42.000Z</time></trkpt>
        <trkpt lat="29.5613878" lon="103.3452964"><ele>1794.62</ele><time>2026-06-27T18:34:06.000Z</time></trkpt>
        <trkpt lat="29.5614513" lon="103.3453932"><ele>1787.08</ele><time>2026-06-27T18:34:16.000Z</time></trkpt>
        <trkpt lat="29.5615132" lon="103.3454992"><ele>1782.19</ele><time>2026-06-27T18:34:28.000Z</time></trkpt>
        <trkpt lat="29.5615818" lon="103.3455804"><ele>1778.62</ele><time>2026-06-27T18:34:40.000Z</time></trkpt>
        <trkpt lat="29.5616762" lon="103.3456336"><ele>1776.22</ele><time>2026-06-27T18:34:52.000Z</time></trkpt>
        <trkpt lat="29.5617708" lon="103.3456419"><ele>1774.92</ele><time>2026-06-27T18:35:04.000Z</time></trkpt>
        <trkpt lat="29.5618719" lon="103.3456311"><ele>1773.82</ele><time>2026-06-27T18:35:12.000Z</time></trkpt>
        <trkpt lat="29.5619784" lon="103.3456329"><ele>1772.56</ele><time>2026-06-27T18:35:24.000Z</time></trkpt>
        <trkpt lat="29.5620824" lon="103.3456768"><ele>1771.58</ele><time>2026-06-27T18:35:34.000Z</time></trkpt>
        <trkpt lat="29.5621549" lon="103.3457623"><ele>1770.33</ele><time>2026-06-27T18:35:46.000Z</time></trkpt>
        <trkpt lat="29.5622105" lon="103.3458572"><ele>1769.43</ele><time>2026-06-27T18:35:56.000Z</time></trkpt>
        <trkpt lat="29.5622557" lon="103.3459737"><ele>1768.48</ele><time>2026-06-27T18:36:06.000Z</time></trkpt>
        <trkpt lat="29.5622907" lon="103.3460918"><ele>1767.71</ele><time>2026-06-27T18:36:16.000Z</time></trkpt>
        <trkpt lat="29.5623403" lon="103.3461884"><ele>1766.74</ele><time>2026-06-27T18:36:26.000Z</time></trkpt>
        <trkpt lat="29.5624018" lon="103.3462747"><ele>1766.78</ele><time>2026-06-27T18:36:36.000Z</time></trkpt>
        <trkpt lat="29.5624783" lon="103.3463555"><ele>1767.13</ele><time>2026-06-27T18:36:46.000Z</time></trkpt>
        <trkpt lat="29.5625588" lon="103.3464208"><ele>1766.9</ele><time>2026-06-27T18:36:56.000Z</time></trkpt>
        <trkpt lat="29.562643" lon="103.3464868"><ele>1766.75</ele><time>2026-06-27T18:37:06.000Z</time></trkpt>
        <trkpt lat="29.562741" lon="103.3465256"><ele>1766.85</ele><time>2026-06-27T18:37:16.000Z</time></trkpt>
        <trkpt lat="29.5628304" lon="103.346595"><ele>1766.79</ele><time>2026-06-27T18:37:26.000Z</time></trkpt>
        <trkpt lat="29.5628954" lon="103.3466889"><ele>1767.09</ele><time>2026-06-27T18:37:36.000Z</time></trkpt>
        <trkpt lat="29.5629579" lon="103.3467881"><ele>1767.66</ele><time>2026-06-27T18:37:48.000Z</time></trkpt>
        <trkpt lat="29.5630329" lon="103.3468714"><ele>1768.3</ele><time>2026-06-27T18:38:00.000Z</time></trkpt>
        <trkpt lat="29.563103" lon="103.346958"><ele>1769.22</ele><time>2026-06-27T18:38:14.000Z</time></trkpt>
        <trkpt lat="29.5631632" lon="103.3470412"><ele>1770.88</ele><time>2026-06-27T18:38:24.000Z</time></trkpt>
        <trkpt lat="29.5632323" lon="103.3471146"><ele>1772.17</ele><time>2026-06-27T18:38:32.000Z</time></trkpt>
        <trkpt lat="29.5633159" lon="103.3471917"><ele>1773.24</ele><time>2026-06-27T18:38:42.000Z</time></trkpt>
        <trkpt lat="29.5633912" lon="103.3472742"><ele>1774.25</ele><time>2026-06-27T18:38:52.000Z</time></trkpt>
        <trkpt lat="29.5634617" lon="103.3473598"><ele>1774.62</ele><time>2026-06-27T18:39:02.000Z</time></trkpt>
        <trkpt lat="29.5635244" lon="103.3474428"><ele>1774.44</ele><time>2026-06-27T18:39:10.000Z</time></trkpt>
        <trkpt lat="29.5635628" lon="103.3475444"><ele>1774.4</ele><time>2026-06-27T18:39:24.000Z</time></trkpt>
        <trkpt lat="29.5635772" lon="103.3476573"><ele>1774.26</ele><time>2026-06-27T18:39:42.000Z</time></trkpt>
        <trkpt lat="29.5635656" lon="103.3477717"><ele>1774.48</ele><time>2026-06-27T18:39:56.000Z</time></trkpt>
        <trkpt lat="29.5635221" lon="103.3478711"><ele>1775.7</ele><time>2026-06-27T18:40:08.000Z</time></trkpt>
        <trkpt lat="29.5634842" lon="103.3479731"><ele>1776.76</ele><time>2026-06-27T18:40:20.000Z</time></trkpt>
        <trkpt lat="29.5634137" lon="103.348055"><ele>1778.15</ele><time>2026-06-27T18:40:32.000Z</time></trkpt>
        <trkpt lat="29.5633739" lon="103.3481574"><ele>1779.58</ele><time>2026-06-27T18:40:42.000Z</time></trkpt>
        <trkpt lat="29.5633195" lon="103.3482574"><ele>1780.92</ele><time>2026-06-27T18:40:54.000Z</time></trkpt>
        <trkpt lat="29.5632557" lon="103.3483373"><ele>1781.66</ele><time>2026-06-27T18:41:02.000Z</time></trkpt>
        <trkpt lat="29.5632159" lon="103.3484312"><ele>1782.26</ele><time>2026-06-27T18:41:12.000Z</time></trkpt>
        <trkpt lat="29.5631881" lon="103.3485419"><ele>1782.54</ele><time>2026-06-27T18:41:22.000Z</time></trkpt>
        <trkpt lat="29.5632" lon="103.3486585"><ele>1782.96</ele><time>2026-06-27T18:41:32.000Z</time></trkpt>
        <trkpt lat="29.5632028" lon="103.3487758"><ele>1782.92</ele><time>2026-06-27T18:41:40.000Z</time></trkpt>
        <trkpt lat="29.5631975" lon="103.3488979"><ele>1782.37</ele><time>2026-06-27T18:41:52.000Z</time></trkpt>
        <trkpt lat="29.5631893" lon="103.34901"><ele>1781.47</ele><time>2026-06-27T18:42:00.000Z</time></trkpt>
        <trkpt lat="29.5631802" lon="103.3491296"><ele>1780.8</ele><time>2026-06-27T18:42:10.000Z</time></trkpt>
        <trkpt lat="29.5631312" lon="103.3492335"><ele>1780.03</ele><time>2026-06-27T18:42:20.000Z</time></trkpt>
        <trkpt lat="29.5630909" lon="103.3493397"><ele>1779.96</ele><time>2026-06-27T18:42:28.000Z</time></trkpt>
        <trkpt lat="29.5630603" lon="103.3494579"><ele>1779.46</ele><time>2026-06-27T18:42:36.000Z</time></trkpt>
        <trkpt lat="29.5629951" lon="103.3495548"><ele>1778.62</ele><time>2026-06-27T18:42:44.000Z</time></trkpt>
        <trkpt lat="29.5629278" lon="103.3496448"><ele>1778.1</ele><time>2026-06-27T18:42:56.000Z</time></trkpt>
        <trkpt lat="29.5628942" lon="103.3497464"><ele>1778.12</ele><time>2026-06-27T18:43:06.000Z</time></trkpt>
        <trkpt lat="29.5628784" lon="103.3498657"><ele>1777.44</ele><time>2026-06-27T18:43:16.000Z</time></trkpt>
        <trkpt lat="29.5628578" lon="103.3499728"><ele>1776.9</ele><time>2026-06-27T18:43:24.000Z</time></trkpt>
        <trkpt lat="29.5628499" lon="103.3500811"><ele>1776.45</ele><time>2026-06-27T18:43:34.000Z</time></trkpt>
        <trkpt lat="29.5628271" lon="103.3501819"><ele>1776.31</ele><time>2026-06-27T18:43:44.000Z</time></trkpt>
        <trkpt lat="29.562775" lon="103.3502813"><ele>1776.18</ele><time>2026-06-27T18:43:56.000Z</time></trkpt>
        <trkpt lat="29.562751" lon="103.3503861"><ele>1775.84</ele><time>2026-06-27T18:44:06.000Z</time></trkpt>
        <trkpt lat="29.5627546" lon="103.3504967"><ele>1775.81</ele><time>2026-06-27T18:44:20.000Z</time></trkpt>
        <trkpt lat="29.562757" lon="103.3506186"><ele>1776.04</ele><time>2026-06-27T18:44:32.000Z</time></trkpt>
        <trkpt lat="29.5627616" lon="103.350729"><ele>1777.32</ele><time>2026-06-27T18:44:42.000Z</time></trkpt>
        <trkpt lat="29.562839" lon="103.3508002"><ele>1778.61</ele><time>2026-06-27T18:45:48.000Z</time></trkpt>
        <trkpt lat="29.5629047" lon="103.3508713"><ele>1781.11</ele><time>2026-06-27T18:45:56.000Z</time></trkpt>
        <trkpt lat="29.562941" lon="103.3509676"><ele>1782.42</ele><time>2026-06-27T18:46:04.000Z</time></trkpt>
        <trkpt lat="29.5629873" lon="103.3510574"><ele>1783.28</ele><time>2026-06-27T18:46:16.000Z</time></trkpt>
        <trkpt lat="29.5629866" lon="103.3511659"><ele>1783.72</ele><time>2026-06-27T18:47:30.000Z</time></trkpt>
        <trkpt lat="29.5629588" lon="103.351291"><ele>1784.55</ele><time>2026-06-27T18:48:18.000Z</time></trkpt>
        <trkpt lat="29.5629338" lon="103.3513958"><ele>1786.08</ele><time>2026-06-27T18:48:30.000Z</time></trkpt>
        <trkpt lat="29.5629119" lon="103.3515023"><ele>1787.43</ele><time>2026-06-27T18:48:42.000Z</time></trkpt>
        <trkpt lat="29.5629595" lon="103.3516221"><ele>1788.63</ele><time>2026-06-27T18:49:56.000Z</time></trkpt>
        <trkpt lat="29.5629897" lon="103.3517552"><ele>1792.7</ele><time>2026-06-27T18:50:10.000Z</time></trkpt>
        <trkpt lat="29.5630282" lon="103.3518773"><ele>1797.34</ele><time>2026-06-27T18:50:18.000Z</time></trkpt>
        <trkpt lat="29.5630584" lon="103.3519868"><ele>1800.33</ele><time>2026-06-27T18:50:26.000Z</time></trkpt>
        <trkpt lat="29.5630809" lon="103.3520929"><ele>1801.7</ele><time>2026-06-27T18:50:38.000Z</time></trkpt>
        <trkpt lat="29.5631054" lon="103.3522148"><ele>1802.47</ele><time>2026-06-27T18:50:48.000Z</time></trkpt>
        <trkpt lat="29.5631391" lon="103.3523383"><ele>1802.57</ele><time>2026-06-27T18:50:56.000Z</time></trkpt>
        <trkpt lat="29.5631292" lon="103.3524491"><ele>1802.31</ele><time>2026-06-27T18:51:06.000Z</time></trkpt>
        <trkpt lat="29.5630797" lon="103.3525369"><ele>1802.27</ele><time>2026-06-27T18:51:18.000Z</time></trkpt>
        <trkpt lat="29.563018" lon="103.3526182"><ele>1802.37</ele><time>2026-06-27T18:51:42.000Z</time></trkpt>
        <trkpt lat="29.5629481" lon="103.3527048"><ele>1803.53</ele><time>2026-06-27T18:52:26.000Z</time></trkpt>
        <trkpt lat="29.5629229" lon="103.3528247"><ele>1804.86</ele><time>2026-06-27T18:53:16.000Z</time></trkpt>
        <trkpt lat="29.5629274" lon="103.3529412"><ele>1807.29</ele><time>2026-06-27T18:53:28.000Z</time></trkpt>
        <trkpt lat="29.5629471" lon="103.3530494"><ele>1809.73</ele><time>2026-06-27T18:53:36.000Z</time></trkpt>
        <trkpt lat="29.5629914" lon="103.3531468"><ele>1811.96</ele><time>2026-06-27T18:53:44.000Z</time></trkpt>
        <trkpt lat="29.5630372" lon="103.35325"><ele>1813.87</ele><time>2026-06-27T18:53:54.000Z</time></trkpt>
        <trkpt lat="29.5630773" lon="103.3533545"><ele>1815.2</ele><time>2026-06-27T18:54:06.000Z</time></trkpt>
        <trkpt lat="29.5631062" lon="103.3534608"><ele>1817.08</ele><time>2026-06-27T18:54:24.000Z</time></trkpt>
        <trkpt lat="29.5630891" lon="103.3535637"><ele>1819.92</ele><time>2026-06-27T18:54:38.000Z</time></trkpt>
        <trkpt lat="29.5630847" lon="103.3536758"><ele>1822.24</ele><time>2026-06-27T18:54:48.000Z</time></trkpt>
        <trkpt lat="29.5631187" lon="103.3537837"><ele>1824.35</ele><time>2026-06-27T18:55:00.000Z</time></trkpt>
        <trkpt lat="29.5631326" lon="103.3538896"><ele>1825.72</ele><time>2026-06-27T18:55:08.000Z</time></trkpt>
        <trkpt lat="29.5631624" lon="103.3539999"><ele>1826.76</ele><time>2026-06-27T18:55:18.000Z</time></trkpt>
        <trkpt lat="29.5632034" lon="103.3541155"><ele>1827.66</ele><time>2026-06-27T18:55:28.000Z</time></trkpt>
        <trkpt lat="29.5632333" lon="103.3542255"><ele>1828.46</ele><time>2026-06-27T18:55:38.000Z</time></trkpt>
        <trkpt lat="29.5632626" lon="103.3543457"><ele>1828.86</ele><time>2026-06-27T18:55:50.000Z</time></trkpt>
        <trkpt lat="29.5632926" lon="103.354455"><ele>1829.42</ele><time>2026-06-27T18:56:00.000Z</time></trkpt>
        <trkpt lat="29.5633398" lon="103.3545482"><ele>1830.64</ele><time>2026-06-27T18:56:10.000Z</time></trkpt>
        <trkpt lat="29.5634169" lon="103.3546275"><ele>1831.52</ele><time>2026-06-27T18:56:20.000Z</time></trkpt>
        <trkpt lat="29.5634859" lon="103.3547311"><ele>1831.86</ele><time>2026-06-27T18:56:28.000Z</time></trkpt>
        <trkpt lat="29.5635268" lon="103.3548443"><ele>1832.06</ele><time>2026-06-27T18:56:36.000Z</time></trkpt>
        <trkpt lat="29.5635779" lon="103.3549343"><ele>1832.73</ele><time>2026-06-27T18:56:44.000Z</time></trkpt>
        <trkpt lat="29.5636476" lon="103.3550134"><ele>1833.96</ele><time>2026-06-27T18:56:54.000Z</time></trkpt>
        <trkpt lat="29.5637173" lon="103.3551025"><ele>1834.26</ele><time>2026-06-27T18:57:02.000Z</time></trkpt>
        <trkpt lat="29.5637906" lon="103.3551775"><ele>1834.05</ele><time>2026-06-27T18:57:12.000Z</time></trkpt>
        <trkpt lat="29.5638605" lon="103.3552632"><ele>1833.79</ele><time>2026-06-27T18:57:24.000Z</time></trkpt>
        <trkpt lat="29.563898" lon="103.3553647"><ele>1833.82</ele><time>2026-06-27T18:57:38.000Z</time></trkpt>
        <trkpt lat="29.5639285" lon="103.3554755"><ele>1833.78</ele><time>2026-06-27T18:57:58.000Z</time></trkpt>
        <trkpt lat="29.5639541" lon="103.3555899"><ele>1834.19</ele><time>2026-06-27T18:58:40.000Z</time></trkpt>
        <trkpt lat="29.5639762" lon="103.3557136"><ele>1834.95</ele><time>2026-06-27T18:58:50.000Z</time></trkpt>
        <trkpt lat="29.5640017" lon="103.355824"><ele>1835.74</ele><time>2026-06-27T18:59:00.000Z</time></trkpt>
        <trkpt lat="29.5640082" lon="103.3559299"><ele>1837.27</ele><time>2026-06-27T18:59:16.000Z</time></trkpt>
        <trkpt lat="29.5640227" lon="103.3560337"><ele>1839.16</ele><time>2026-06-27T19:00:04.000Z</time></trkpt>
        <trkpt lat="29.5640498" lon="103.3561404"><ele>1841.32</ele><time>2026-06-27T19:00:18.000Z</time></trkpt>
        <trkpt lat="29.5640832" lon="103.3562487"><ele>1843.75</ele><time>2026-06-27T19:00:32.000Z</time></trkpt>
        <trkpt lat="29.5640884" lon="103.3563624"><ele>1846.53</ele><time>2026-06-27T19:00:46.000Z</time></trkpt>
        <trkpt lat="29.5641263" lon="103.3564614"><ele>1849.9</ele><time>2026-06-27T19:01:04.000Z</time></trkpt>
        <trkpt lat="29.564213" lon="103.3564721"><ele>1853.68</ele><time>2026-06-27T19:01:24.000Z</time></trkpt>
        <trkpt lat="29.5643014" lon="103.3564144"><ele>1856.87</ele><time>2026-06-27T19:01:44.000Z</time></trkpt>
        <trkpt lat="29.5643774" lon="103.3563321"><ele>1857.78</ele><time>2026-06-27T19:02:02.000Z</time></trkpt>
        <trkpt lat="29.5643864" lon="103.3562204"><ele>1856.84</ele><time>2026-06-27T19:02:14.000Z</time></trkpt>
        <trkpt lat="29.5644435" lon="103.3561422"><ele>1853.04</ele><time>2026-06-27T19:02:52.000Z</time></trkpt>
        <trkpt lat="29.5645127" lon="103.356074"><ele>1849.91</ele><time>2026-06-27T19:03:10.000Z</time></trkpt>
        <trkpt lat="29.5646032" lon="103.3560787"><ele>1847.39</ele><time>2026-06-27T19:03:40.000Z</time></trkpt>
        <trkpt lat="29.5646618" lon="103.3561659"><ele>1844.75</ele><time>2026-06-27T19:03:54.000Z</time></trkpt>
        <trkpt lat="29.5647063" lon="103.3562714"><ele>1842.12</ele><time>2026-06-27T19:04:02.000Z</time></trkpt>
        <trkpt lat="29.5647523" lon="103.3563787"><ele>1839.53</ele><time>2026-06-27T19:04:16.000Z</time></trkpt>
        <trkpt lat="29.564814" lon="103.3564703"><ele>1837.18</ele><time>2026-06-27T19:04:32.000Z</time></trkpt>
        <trkpt lat="29.5648876" lon="103.356536"><ele>1834.8</ele><time>2026-06-27T19:04:42.000Z</time></trkpt>
        <trkpt lat="29.5649529" lon="103.3566114"><ele>1832.29</ele><time>2026-06-27T19:04:56.000Z</time></trkpt>
        <trkpt lat="29.5650429" lon="103.3566541"><ele>1829.48</ele><time>2026-06-27T19:05:06.000Z</time></trkpt>
        <trkpt lat="29.5651983" lon="103.3567778"><ele>1827.25</ele><time>2026-06-27T19:05:44.000Z</time></trkpt>
        <trkpt lat="29.5653529" lon="103.3568532"><ele>1822.91</ele><time>2026-06-27T19:06:32.000Z</time></trkpt>
        <trkpt lat="29.5653836" lon="103.3570075"><ele>1818.66</ele><time>2026-06-27T19:08:20.000Z</time></trkpt>
        <trkpt lat="29.5654232" lon="103.3571122"><ele>1813.82</ele><time>2026-06-27T19:08:32.000Z</time></trkpt>
        <trkpt lat="29.565495" lon="103.3572171"><ele>1810.63</ele><time>2026-06-27T19:08:52.000Z</time></trkpt>
        <trkpt lat="29.5655673" lon="103.3573437"><ele>1806.34</ele><time>2026-06-27T19:08:58.000Z</time></trkpt>
        <trkpt lat="29.565636" lon="103.3574399"><ele>1801.52</ele><time>2026-06-27T19:09:08.000Z</time></trkpt>
        <trkpt lat="29.5657301" lon="103.3574968"><ele>1797.69</ele><time>2026-06-27T19:09:32.000Z</time></trkpt>
        <trkpt lat="29.5658489" lon="103.3575472"><ele>1792.89</ele><time>2026-06-27T19:09:46.000Z</time></trkpt>
        <trkpt lat="29.5659442" lon="103.3576198"><ele>1787.4</ele><time>2026-06-27T19:10:00.000Z</time></trkpt>
        <trkpt lat="29.5660057" lon="103.3577043"><ele>1783.08</ele><time>2026-06-27T19:10:16.000Z</time></trkpt>
        <trkpt lat="29.5660441" lon="103.3578026"><ele>1780.34</ele><time>2026-06-27T19:10:30.000Z</time></trkpt>
        <trkpt lat="29.5660751" lon="103.3579105"><ele>1776.5</ele><time>2026-06-27T19:10:48.000Z</time></trkpt>
        <trkpt lat="29.5660557" lon="103.3580177"><ele>1773.22</ele><time>2026-06-27T19:11:26.000Z</time></trkpt>
        <trkpt lat="29.5660868" lon="103.3581185"><ele>1768.31</ele><time>2026-06-27T19:11:44.000Z</time></trkpt>
        <trkpt lat="29.5661296" lon="103.3582319"><ele>1764.06</ele><time>2026-06-27T19:12:32.000Z</time></trkpt>
        <trkpt lat="29.5661451" lon="103.3583406"><ele>1760.72</ele><time>2026-06-27T19:12:38.000Z</time></trkpt>
        <trkpt lat="29.5661616" lon="103.3584772"><ele>1758.65</ele><time>2026-06-27T19:12:42.000Z</time></trkpt>
        <trkpt lat="29.5661818" lon="103.3585969"><ele>1756.62</ele><time>2026-06-27T19:12:48.000Z</time></trkpt>
        <trkpt lat="29.5662359" lon="103.3587506"><ele>1754.21</ele><time>2026-06-27T19:13:22.000Z</time></trkpt>
        <trkpt lat="29.5663076" lon="103.3588672"><ele>1751.61</ele><time>2026-06-27T19:13:26.000Z</time></trkpt>
        <trkpt lat="29.5663791" lon="103.3589485"><ele>1749.22</ele><time>2026-06-27T19:13:38.000Z</time></trkpt>
        <trkpt lat="29.5664707" lon="103.3589676"><ele>1744.77</ele><time>2026-06-27T19:13:54.000Z</time></trkpt>
        <trkpt lat="29.5665239" lon="103.3590466"><ele>1739.67</ele><time>2026-06-27T19:14:20.000Z</time></trkpt>
        <trkpt lat="29.5665986" lon="103.3591271"><ele>1736.18</ele><time>2026-06-27T19:14:28.000Z</time></trkpt>
        <trkpt lat="29.5666857" lon="103.3591824"><ele>1733.71</ele><time>2026-06-27T19:14:36.000Z</time></trkpt>
        <trkpt lat="29.566734" lon="103.35927"><ele>1731.83</ele><time>2026-06-27T19:14:48.000Z</time></trkpt>
        <trkpt lat="29.5668071" lon="103.3593517"><ele>1727.86</ele><time>2026-06-27T19:14:56.000Z</time></trkpt>
        <trkpt lat="29.5669031" lon="103.3593926"><ele>1725.47</ele><time>2026-06-27T19:15:08.000Z</time></trkpt>
        <trkpt lat="29.5670129" lon="103.3594075"><ele>1723.24</ele><time>2026-06-27T19:15:20.000Z</time></trkpt>
        <trkpt lat="29.5671076" lon="103.3594456"><ele>1721.47</ele><time>2026-06-27T19:15:38.000Z</time></trkpt>
        <trkpt lat="29.5672074" lon="103.3594689"><ele>1719.83</ele><time>2026-06-27T19:16:02.000Z</time></trkpt>
        <trkpt lat="29.5673037" lon="103.3594604"><ele>1718.12</ele><time>2026-06-27T19:16:14.000Z</time></trkpt>
        <trkpt lat="29.567401" lon="103.3594335"><ele>1716.31</ele><time>2026-06-27T19:16:32.000Z</time></trkpt>
        <trkpt lat="29.5674911" lon="103.3593915"><ele>1713.84</ele><time>2026-06-27T19:16:44.000Z</time></trkpt>
        <trkpt lat="29.5675849" lon="103.3594155"><ele>1711.71</ele><time>2026-06-27T19:17:10.000Z</time></trkpt>
        <trkpt lat="29.5676724" lon="103.359473"><ele>1709.55</ele><time>2026-06-27T19:17:20.000Z</time></trkpt>
        <trkpt lat="29.5677611" lon="103.359533"><ele>1707.12</ele><time>2026-06-27T19:17:28.000Z</time></trkpt>
        <trkpt lat="29.5678481" lon="103.3595767"><ele>1705.34</ele><time>2026-06-27T19:17:34.000Z</time></trkpt>
        <trkpt lat="29.5679455" lon="103.3595754"><ele>1703.32</ele><time>2026-06-27T19:17:42.000Z</time></trkpt>
        <trkpt lat="29.5680476" lon="103.3595416"><ele>1701.84</ele><time>2026-06-27T19:17:54.000Z</time></trkpt>
        <trkpt lat="29.5681453" lon="103.3595246"><ele>1700.39</ele><time>2026-06-27T19:18:04.000Z</time></trkpt>
        <trkpt lat="29.5682069" lon="103.359607"><ele>1698.56</ele><time>2026-06-27T19:18:12.000Z</time></trkpt>
        <trkpt lat="29.568283" lon="103.3596716"><ele>1696.49</ele><time>2026-06-27T19:18:20.000Z</time></trkpt>
        <trkpt lat="29.5683756" lon="103.3596874"><ele>1695.55</ele><time>2026-06-27T19:18:34.000Z</time></trkpt>
        <trkpt lat="29.5684725" lon="103.3596806"><ele>1696.05</ele><time>2026-06-27T19:18:46.000Z</time></trkpt>
        <trkpt lat="29.5685694" lon="103.3596784"><ele>1695.66</ele><time>2026-06-27T19:19:28.000Z</time></trkpt>
        <trkpt lat="29.5686706" lon="103.3596849"><ele>1694.82</ele><time>2026-06-27T19:20:18.000Z</time></trkpt>
        <trkpt lat="29.5687506" lon="103.3597373"><ele>1694.59</ele><time>2026-06-27T19:20:28.000Z</time></trkpt>
        <trkpt lat="29.5687584" lon="103.3598512"><ele>1693.54</ele><time>2026-06-27T19:20:40.000Z</time></trkpt>
        <trkpt lat="29.5687655" lon="103.3599828"><ele>1691.99</ele><time>2026-06-27T19:20:50.000Z</time></trkpt>
        <trkpt lat="29.5687949" lon="103.360106"><ele>1690.54</ele><time>2026-06-27T19:21:02.000Z</time></trkpt>
        <trkpt lat="29.5688432" lon="103.3602329"><ele>1689.32</ele><time>2026-06-27T19:21:12.000Z</time></trkpt>
        <trkpt lat="29.5689016" lon="103.3603252"><ele>1686.43</ele><time>2026-06-27T19:21:24.000Z</time></trkpt>
        <trkpt lat="29.5689901" lon="103.360401"><ele>1684.1</ele><time>2026-06-27T19:21:34.000Z</time></trkpt>
        <trkpt lat="29.5690736" lon="103.3604604"><ele>1683.41</ele><time>2026-06-27T19:21:44.000Z</time></trkpt>
        <trkpt lat="29.5691442" lon="103.3605377"><ele>1682.37</ele><time>2026-06-27T19:21:54.000Z</time></trkpt>
        <trkpt lat="29.5692239" lon="103.3606054"><ele>1681.32</ele><time>2026-06-27T19:22:04.000Z</time></trkpt>
        <trkpt lat="29.5693164" lon="103.3606706"><ele>1680.37</ele><time>2026-06-27T19:22:14.000Z</time></trkpt>
        <trkpt lat="29.5693868" lon="103.3607532"><ele>1678.45</ele><time>2026-06-27T19:22:24.000Z</time></trkpt>
        <trkpt lat="29.5694651" lon="103.3608202"><ele>1676.7</ele><time>2026-06-27T19:22:34.000Z</time></trkpt>
        <trkpt lat="29.5695496" lon="103.360869"><ele>1674.57</ele><time>2026-06-27T19:22:42.000Z</time></trkpt>
        <trkpt lat="29.5696281" lon="103.3609374"><ele>1673.11</ele><time>2026-06-27T19:22:50.000Z</time></trkpt>
        <trkpt lat="29.5696958" lon="103.3610101"><ele>1672.16</ele><time>2026-06-27T19:22:58.000Z</time></trkpt>
        <trkpt lat="29.5697819" lon="103.3610386"><ele>1671.6</ele><time>2026-06-27T19:23:10.000Z</time></trkpt>
        <trkpt lat="29.5698616" lon="103.3610881"><ele>1674.38</ele><time>2026-06-27T19:23:20.000Z</time></trkpt>
        <trkpt lat="29.5699316" lon="103.3611727"><ele>1673.94</ele><time>2026-06-27T19:23:32.000Z</time></trkpt>
        <trkpt lat="29.5700068" lon="103.3612399"><ele>1672.51</ele><time>2026-06-27T19:23:42.000Z</time></trkpt>
        <trkpt lat="29.5701037" lon="103.3612762"><ele>1670.21</ele><time>2026-06-27T19:23:52.000Z</time></trkpt>
        <trkpt lat="29.5702082" lon="103.3612992"><ele>1668.27</ele><time>2026-06-27T19:24:02.000Z</time></trkpt>
        <trkpt lat="29.5703062" lon="103.3613265"><ele>1666.54</ele><time>2026-06-27T19:24:10.000Z</time></trkpt>
        <trkpt lat="29.5703943" lon="103.3613705"><ele>1665.21</ele><time>2026-06-27T19:24:20.000Z</time></trkpt>
        <trkpt lat="29.5704922" lon="103.3614038"><ele>1664.14</ele><time>2026-06-27T19:24:32.000Z</time></trkpt>
        <trkpt lat="29.5705944" lon="103.3614416"><ele>1663.85</ele><time>2026-06-27T19:24:42.000Z</time></trkpt>
        <trkpt lat="29.5707008" lon="103.3614782"><ele>1663.27</ele><time>2026-06-27T19:24:52.000Z</time></trkpt>
        <trkpt lat="29.5707984" lon="103.3615194"><ele>1661.98</ele><time>2026-06-27T19:25:00.000Z</time></trkpt>
        <trkpt lat="29.5708898" lon="103.3615637"><ele>1660.65</ele><time>2026-06-27T19:25:10.000Z</time></trkpt>
        <trkpt lat="29.5709805" lon="103.3616235"><ele>1659.15</ele><time>2026-06-27T19:25:22.000Z</time></trkpt>
        <trkpt lat="29.5710712" lon="103.3616897"><ele>1657.45</ele><time>2026-06-27T19:25:32.000Z</time></trkpt>
        <trkpt lat="29.571174" lon="103.3617539"><ele>1655.94</ele><time>2026-06-27T19:25:44.000Z</time></trkpt>
        <trkpt lat="29.5712694" lon="103.3617651"><ele>1653.48</ele><time>2026-06-27T19:25:48.000Z</time></trkpt>
        <trkpt lat="29.5713744" lon="103.3617509"><ele>1652.28</ele><time>2026-06-27T19:26:02.000Z</time></trkpt>
        <trkpt lat="29.5714629" lon="103.3617888"><ele>1651.73</ele><time>2026-06-27T19:26:10.000Z</time></trkpt>
        <trkpt lat="29.5715515" lon="103.361855"><ele>1650.89</ele><time>2026-06-27T19:26:20.000Z</time></trkpt>
        <trkpt lat="29.571644" lon="103.3618893"><ele>1650.19</ele><time>2026-06-27T19:26:30.000Z</time></trkpt>
        <trkpt lat="29.571729" lon="103.3618593"><ele>1650</ele><time>2026-06-27T19:26:42.000Z</time></trkpt>
        <trkpt lat="29.5718207" lon="103.3618491"><ele>1649.43</ele><time>2026-06-27T19:26:58.000Z</time></trkpt>
        <trkpt lat="29.5719146" lon="103.3618528"><ele>1648.57</ele><time>2026-06-27T19:27:10.000Z</time></trkpt>
        <trkpt lat="29.5720115" lon="103.3618509"><ele>1647.53</ele><time>2026-06-27T19:27:30.000Z</time></trkpt>
        <trkpt lat="29.572127" lon="103.3618273"><ele>1645.72</ele><time>2026-06-27T19:28:08.000Z</time></trkpt>
        <trkpt lat="29.5722247" lon="103.3617803"><ele>1644.39</ele><time>2026-06-27T19:28:16.000Z</time></trkpt>
        <trkpt lat="29.5723184" lon="103.3617269"><ele>1642.41</ele><time>2026-06-27T19:28:58.000Z</time></trkpt>
        <trkpt lat="29.5724137" lon="103.3616847"><ele>1640.74</ele><time>2026-06-27T19:29:28.000Z</time></trkpt>
        <trkpt lat="29.5725088" lon="103.3616705"><ele>1638.28</ele><time>2026-06-27T19:29:52.000Z</time></trkpt>
        <trkpt lat="29.5725912" lon="103.3616073"><ele>1633.41</ele><time>2026-06-27T19:30:02.000Z</time></trkpt>
        <trkpt lat="29.5726863" lon="103.3615834"><ele>1630.57</ele><time>2026-06-27T19:30:14.000Z</time></trkpt>
        <trkpt lat="29.5727856" lon="103.3615791"><ele>1628.28</ele><time>2026-06-27T19:30:20.000Z</time></trkpt>
        <trkpt lat="29.5728944" lon="103.3615867"><ele>1626.4</ele><time>2026-06-27T19:30:28.000Z</time></trkpt>
        <trkpt lat="29.5729998" lon="103.3616242"><ele>1624.7</ele><time>2026-06-27T19:30:40.000Z</time></trkpt>
        <trkpt lat="29.5730895" lon="103.3616929"><ele>1623.11</ele><time>2026-06-27T19:30:50.000Z</time></trkpt>
        <trkpt lat="29.5731437" lon="103.3617871"><ele>1621.82</ele><time>2026-06-27T19:31:02.000Z</time></trkpt>
        <trkpt lat="29.5732218" lon="103.3618469"><ele>1620.29</ele><time>2026-06-27T19:31:20.000Z</time></trkpt>
        <trkpt lat="29.5733124" lon="103.3619055"><ele>1618.17</ele><time>2026-06-27T19:31:42.000Z</time></trkpt>
        <trkpt lat="29.5733851" lon="103.3619824"><ele>1615.01</ele><time>2026-06-27T19:31:58.000Z</time></trkpt>
        <trkpt lat="29.5734697" lon="103.362018"><ele>1610.23</ele><time>2026-06-27T19:32:20.000Z</time></trkpt>
        <trkpt lat="29.5735492" lon="103.3621257"><ele>1605.61</ele><time>2026-06-27T19:33:28.000Z</time></trkpt>
        <trkpt lat="29.5736197" lon="103.3622117"><ele>1596.45</ele><time>2026-06-27T19:33:44.000Z</time></trkpt>
        <trkpt lat="29.5736893" lon="103.3622807"><ele>1591.26</ele><time>2026-06-27T19:33:56.000Z</time></trkpt>
        <trkpt lat="29.5737795" lon="103.3623367"><ele>1588.56</ele><time>2026-06-27T19:34:22.000Z</time></trkpt>
        <trkpt lat="29.5738599" lon="103.362404"><ele>1585.25</ele><time>2026-06-27T19:34:28.000Z</time></trkpt>
        <trkpt lat="29.573943" lon="103.3624607"><ele>1582.35</ele><time>2026-06-27T19:34:36.000Z</time></trkpt>
        <trkpt lat="29.5740228" lon="103.3625225"><ele>1579.99</ele><time>2026-06-27T19:34:46.000Z</time></trkpt>
        <trkpt lat="29.5741176" lon="103.3625402"><ele>1577.27</ele><time>2026-06-27T19:35:00.000Z</time></trkpt>
        <trkpt lat="29.5742104" lon="103.3625275"><ele>1574.28</ele><time>2026-06-27T19:35:08.000Z</time></trkpt>
        <trkpt lat="29.5743137" lon="103.3625185"><ele>1572.7</ele><time>2026-06-27T19:35:20.000Z</time></trkpt>
        <trkpt lat="29.574414" lon="103.3625067"><ele>1571.63</ele><time>2026-06-27T19:35:32.000Z</time></trkpt>
        <trkpt lat="29.5745072" lon="103.3624816"><ele>1570.86</ele><time>2026-06-27T19:35:42.000Z</time></trkpt>
        <trkpt lat="29.5746053" lon="103.3624472"><ele>1570.22</ele><time>2026-06-27T19:35:50.000Z</time></trkpt>
        <trkpt lat="29.5747048" lon="103.3624223"><ele>1569.44</ele><time>2026-06-27T19:36:04.000Z</time></trkpt>
        <trkpt lat="29.5748035" lon="103.362449"><ele>1568.42</ele><time>2026-06-27T19:36:18.000Z</time></trkpt>
        <trkpt lat="29.5748799" lon="103.3625217"><ele>1567.34</ele><time>2026-06-27T19:36:30.000Z</time></trkpt>
        <trkpt lat="29.5749304" lon="103.3626305"><ele>1566.02</ele><time>2026-06-27T19:36:42.000Z</time></trkpt>
        <trkpt lat="29.574901" lon="103.3627439"><ele>1564.47</ele><time>2026-06-27T19:36:52.000Z</time></trkpt>
        <trkpt lat="29.5748234" lon="103.3628576"><ele>1563.14</ele><time>2026-06-27T19:38:16.000Z</time></trkpt>
        <trkpt lat="29.5747506" lon="103.362927"><ele>1561.15</ele><time>2026-06-27T19:38:44.000Z</time></trkpt>
        <trkpt lat="29.5746669" lon="103.3629677"><ele>1559.51</ele><time>2026-06-27T19:38:56.000Z</time></trkpt>
        <trkpt lat="29.5746171" lon="103.3630601"><ele>1555.44</ele><time>2026-06-27T19:39:14.000Z</time></trkpt>
        <trkpt lat="29.5746036" lon="103.3631662"><ele>1551.25</ele><time>2026-06-27T19:39:34.000Z</time></trkpt>
        <trkpt lat="29.5746116" lon="103.3632795"><ele>1548.8</ele><time>2026-06-27T19:39:52.000Z</time></trkpt>
        <trkpt lat="29.574612" lon="103.3634006"><ele>1546.47</ele><time>2026-06-27T19:40:12.000Z</time></trkpt>
        <trkpt lat="29.5746282" lon="103.363514"><ele>1541.06</ele><time>2026-06-27T19:40:22.000Z</time></trkpt>
        <trkpt lat="29.5746251" lon="103.3636201"><ele>1536.99</ele><time>2026-06-27T19:40:36.000Z</time></trkpt>
        <trkpt lat="29.5746324" lon="103.3637268"><ele>1533.78</ele><time>2026-06-27T19:40:52.000Z</time></trkpt>
        <trkpt lat="29.5745641" lon="103.3637359"><ele>1531.74</ele><time>2026-06-27T19:41:10.000Z</time></trkpt>
        <trkpt lat="29.5744697" lon="103.3637882"><ele>1530.04</ele><time>2026-06-27T19:42:14.000Z</time></trkpt>
        <trkpt lat="29.5744433" lon="103.3638874"><ele>1525.88</ele><time>2026-06-27T19:42:18.000Z</time></trkpt>
        <trkpt lat="29.5744295" lon="103.3639948"><ele>1522.53</ele><time>2026-06-27T19:42:30.000Z</time></trkpt>
        <trkpt lat="29.5744246" lon="103.3641097"><ele>1519.59</ele><time>2026-06-27T19:42:50.000Z</time></trkpt>
        <trkpt lat="29.5744729" lon="103.3641958"><ele>1517.22</ele><time>2026-06-27T19:43:02.000Z</time></trkpt>
        <trkpt lat="29.5745555" lon="103.3642608"><ele>1515.07</ele><time>2026-06-27T19:43:20.000Z</time></trkpt>
        <trkpt lat="29.5746383" lon="103.3643477"><ele>1512.4</ele><time>2026-06-27T19:43:32.000Z</time></trkpt>
        <trkpt lat="29.5746751" lon="103.3644522"><ele>1509.25</ele><time>2026-06-27T19:44:12.000Z</time></trkpt>
        <trkpt lat="29.5747294" lon="103.3645633"><ele>1506.43</ele><time>2026-06-27T19:45:16.000Z</time></trkpt>
        <trkpt lat="29.5748023" lon="103.3646671"><ele>1500.6</ele><time>2026-06-27T19:46:18.000Z</time></trkpt>
        <trkpt lat="29.5748449" lon="103.364763"><ele>1496.02</ele><time>2026-06-27T19:46:28.000Z</time></trkpt>
        <trkpt lat="29.5749005" lon="103.3648491"><ele>1489.81</ele><time>2026-06-27T19:46:34.000Z</time></trkpt>
        <trkpt lat="29.5749579" lon="103.3649493"><ele>1485.26</ele><time>2026-06-27T19:47:08.000Z</time></trkpt>
        <trkpt lat="29.5749944" lon="103.3650549"><ele>1480.4</ele><time>2026-06-27T19:47:14.000Z</time></trkpt>
        <trkpt lat="29.575057" lon="103.3651499"><ele>1475.76</ele><time>2026-06-27T19:47:20.000Z</time></trkpt>
        <trkpt lat="29.5751127" lon="103.3652396"><ele>1471.4</ele><time>2026-06-27T19:48:50.000Z</time></trkpt>
        <trkpt lat="29.575188" lon="103.3653221"><ele>1468.23</ele><time>2026-06-27T19:50:24.000Z</time></trkpt>
        <trkpt lat="29.5752924" lon="103.3654309"><ele>1455.21</ele><time>2026-06-27T19:50:34.000Z</time></trkpt>
        <trkpt lat="29.5753869" lon="103.365522"><ele>1447.23</ele><time>2026-06-27T19:50:38.000Z</time></trkpt>
        <trkpt lat="29.5754913" lon="103.3656014"><ele>1442.31</ele><time>2026-06-27T19:50:48.000Z</time></trkpt>
        <trkpt lat="29.5755946" lon="103.3656573"><ele>1439.14</ele><time>2026-06-27T19:51:04.000Z</time></trkpt>
        <trkpt lat="29.5756825" lon="103.365723"><ele>1437</ele><time>2026-06-27T19:51:28.000Z</time></trkpt>
        <trkpt lat="29.5757682" lon="103.3657861"><ele>1432.08</ele><time>2026-06-27T19:51:52.000Z</time></trkpt>
        <trkpt lat="29.5758513" lon="103.3658435"><ele>1429.4</ele><time>2026-06-27T19:52:16.000Z</time></trkpt>
        <trkpt lat="29.5759159" lon="103.3659134"><ele>1428.45</ele><time>2026-06-27T19:53:18.000Z</time></trkpt>
        <trkpt lat="29.5759864" lon="103.3659964"><ele>1428.12</ele><time>2026-06-27T19:54:00.000Z</time></trkpt>
        <trkpt lat="29.5760628" lon="103.3660819"><ele>1429.03</ele><time>2026-06-27T19:54:28.000Z</time></trkpt>
        <trkpt lat="29.5761281" lon="103.3661673"><ele>1432.24</ele><time>2026-06-27T19:55:10.000Z</time></trkpt>
        <trkpt lat="29.5761786" lon="103.3662717"><ele>1434.8</ele><time>2026-06-27T19:55:28.000Z</time></trkpt>
        <trkpt lat="29.5762365" lon="103.3664009"><ele>1438.92</ele><time>2026-06-27T19:55:54.000Z</time></trkpt>
        <trkpt lat="29.5762801" lon="103.3665146"><ele>1446.49</ele><time>2026-06-27T19:56:04.000Z</time></trkpt>
        <trkpt lat="29.576314" lon="103.3666461"><ele>1450.87</ele><time>2026-06-27T19:56:08.000Z</time></trkpt>
        <trkpt lat="29.5763669" lon="103.3667584"><ele>1453.72</ele><time>2026-06-27T19:56:14.000Z</time></trkpt>
        <trkpt lat="29.5764319" lon="103.366854"><ele>1455.58</ele><time>2026-06-27T19:56:26.000Z</time></trkpt>
        <trkpt lat="29.5765165" lon="103.3669369"><ele>1456.36</ele><time>2026-06-27T19:56:30.000Z</time></trkpt>
        <trkpt lat="29.5766094" lon="103.3670006"><ele>1456.48</ele><time>2026-06-27T19:56:36.000Z</time></trkpt>
        <trkpt lat="29.5766829" lon="103.367069"><ele>1456.37</ele><time>2026-06-27T19:56:46.000Z</time></trkpt>
        <trkpt lat="29.5767376" lon="103.3671514"><ele>1456.28</ele><time>2026-06-27T19:56:58.000Z</time></trkpt>
        <trkpt lat="29.5768037" lon="103.3672342"><ele>1456.11</ele><time>2026-06-27T19:57:10.000Z</time></trkpt>
        <trkpt lat="29.5768747" lon="103.3673208"><ele>1456.49</ele><time>2026-06-27T19:57:22.000Z</time></trkpt>
        <trkpt lat="29.5769449" lon="103.3673966"><ele>1457.15</ele><time>2026-06-27T19:57:34.000Z</time></trkpt>
        <trkpt lat="29.5770141" lon="103.3674849"><ele>1458.08</ele><time>2026-06-27T19:57:48.000Z</time></trkpt>
        <trkpt lat="29.5770902" lon="103.3675627"><ele>1458.82</ele><time>2026-06-27T19:57:56.000Z</time></trkpt>
        <trkpt lat="29.5771682" lon="103.3676286"><ele>1459.57</ele><time>2026-06-27T19:58:12.000Z</time></trkpt>
        <trkpt lat="29.5772304" lon="103.3677688"><ele>1460.84</ele><time>2026-06-27T19:59:18.000Z</time></trkpt>
        <trkpt lat="29.577216" lon="103.3678932"><ele>1462.47</ele><time>2026-06-27T19:59:28.000Z</time></trkpt>
        <trkpt lat="29.5771609" lon="103.3679751"><ele>1463.67</ele><time>2026-06-27T20:00:08.000Z</time></trkpt>
        <trkpt lat="29.5771024" lon="103.3680648"><ele>1463.93</ele><time>2026-06-27T20:00:16.000Z</time></trkpt>
        <trkpt lat="29.5770262" lon="103.3681253"><ele>1463.39</ele><time>2026-06-27T20:00:36.000Z</time></trkpt>
        <trkpt lat="29.5769981" lon="103.3682169"><ele>1460.58</ele><time>2026-06-27T20:01:00.000Z</time></trkpt>
        <trkpt lat="29.5770043" lon="103.3683207"><ele>1456.47</ele><time>2026-06-27T20:01:16.000Z</time></trkpt>
        <trkpt lat="29.5769835" lon="103.3684245"><ele>1452.34</ele><time>2026-06-27T20:01:32.000Z</time></trkpt>
        <trkpt lat="29.5769629" lon="103.3685417"><ele>1447.35</ele><time>2026-06-27T20:01:42.000Z</time></trkpt>
        <trkpt lat="29.5769404" lon="103.3686563"><ele>1443.8</ele><time>2026-06-27T20:01:50.000Z</time></trkpt>
        <trkpt lat="29.576917" lon="103.3687718"><ele>1442.36</ele><time>2026-06-27T20:02:00.000Z</time></trkpt>
        <trkpt lat="29.5769172" lon="103.3688802"><ele>1441.6</ele><time>2026-06-27T20:02:08.000Z</time></trkpt>
        <trkpt lat="29.5769206" lon="103.3689896"><ele>1441.02</ele><time>2026-06-27T20:02:22.000Z</time></trkpt>
        <trkpt lat="29.5769108" lon="103.3690985"><ele>1440.73</ele><time>2026-06-27T20:02:36.000Z</time></trkpt>
        <trkpt lat="29.5768929" lon="103.3692145"><ele>1440.5</ele><time>2026-06-27T20:02:50.000Z</time></trkpt>
        <trkpt lat="29.5768901" lon="103.3693276"><ele>1439.49</ele><time>2026-06-27T20:03:00.000Z</time></trkpt>
        <trkpt lat="29.5769115" lon="103.3694439"><ele>1438.66</ele><time>2026-06-27T20:03:10.000Z</time></trkpt>
        <trkpt lat="29.5769423" lon="103.369556"><ele>1438.29</ele><time>2026-06-27T20:03:18.000Z</time></trkpt>
        <trkpt lat="29.5769376" lon="103.3696611"><ele>1437.99</ele><time>2026-06-27T20:03:32.000Z</time></trkpt>
        <trkpt lat="29.5769194" lon="103.3697656"><ele>1438.08</ele><time>2026-06-27T20:03:42.000Z</time></trkpt>
        <trkpt lat="29.5768971" lon="103.3698763"><ele>1437.43</ele><time>2026-06-27T20:03:52.000Z</time></trkpt>
        <trkpt lat="29.5768809" lon="103.3699954"><ele>1436.47</ele><time>2026-06-27T20:04:04.000Z</time></trkpt>
        <trkpt lat="29.5769125" lon="103.3701184"><ele>1435.45</ele><time>2026-06-27T20:04:14.000Z</time></trkpt>
        <trkpt lat="29.5769799" lon="103.3702165"><ele>1434.49</ele><time>2026-06-27T20:04:22.000Z</time></trkpt>
        <trkpt lat="29.5770582" lon="103.3702951"><ele>1433.76</ele><time>2026-06-27T20:04:30.000Z</time></trkpt>
        <trkpt lat="29.5771494" lon="103.3703651"><ele>1433.29</ele><time>2026-06-27T20:04:42.000Z</time></trkpt>
        <trkpt lat="29.5772317" lon="103.3704507"><ele>1432.57</ele><time>2026-06-27T20:04:52.000Z</time></trkpt>
        <trkpt lat="29.5773179" lon="103.3705362"><ele>1431.96</ele><time>2026-06-27T20:05:00.000Z</time></trkpt>
        <trkpt lat="29.5774002" lon="103.3706123"><ele>1431.56</ele><time>2026-06-27T20:05:06.000Z</time></trkpt>
        <trkpt lat="29.5774782" lon="103.3706876"><ele>1431.34</ele><time>2026-06-27T20:05:18.000Z</time></trkpt>
        <trkpt lat="29.5775219" lon="103.3707878"><ele>1430.49</ele><time>2026-06-27T20:05:28.000Z</time></trkpt>
        <trkpt lat="29.5775573" lon="103.3708984"><ele>1429.69</ele><time>2026-06-27T20:05:36.000Z</time></trkpt>
        <trkpt lat="29.577605" lon="103.371004"><ele>1428.1</ele><time>2026-06-27T20:05:44.000Z</time></trkpt>
        <trkpt lat="29.5776561" lon="103.3711042"><ele>1426.7</ele><time>2026-06-27T20:05:52.000Z</time></trkpt>
        <trkpt lat="29.5777184" lon="103.3711924"><ele>1425.89</ele><time>2026-06-27T20:06:12.000Z</time></trkpt>
        <trkpt lat="29.5777081" lon="103.3712918"><ele>1425.12</ele><time>2026-06-27T20:10:04.000Z</time></trkpt>
        <trkpt lat="29.5777864" lon="103.3713806"><ele>1418.82</ele><time>2026-06-27T20:10:12.000Z</time></trkpt>
        <trkpt lat="29.577871" lon="103.3714432"><ele>1415.13</ele><time>2026-06-27T20:10:32.000Z</time></trkpt>
        <trkpt lat="29.5779649" lon="103.3714982"><ele>1412.81</ele><time>2026-06-27T20:10:36.000Z</time></trkpt>
        <trkpt lat="29.5782618" lon="103.3717256"><ele>1411.4</ele><time>2026-06-27T20:10:50.000Z</time></trkpt>
        <trkpt lat="29.5784577" lon="103.371921"><ele>1399.51</ele><time>2026-06-27T20:10:56.000Z</time></trkpt>
        <trkpt lat="29.578637" lon="103.3721803"><ele>1389.26</ele><time>2026-06-27T20:11:02.000Z</time></trkpt>
        <trkpt lat="29.5787294" lon="103.3723101"><ele>1384.15</ele><time>2026-06-27T20:11:06.000Z</time></trkpt>
        <trkpt lat="29.5788162" lon="103.3723543"><ele>1381.4</ele><time>2026-06-27T20:11:12.000Z</time></trkpt>
        <trkpt lat="29.578905" lon="103.3723746"><ele>1379.34</ele><time>2026-06-27T20:11:22.000Z</time></trkpt>
        <trkpt lat="29.5789715" lon="103.3724303"><ele>1377.46</ele><time>2026-06-27T20:11:40.000Z</time></trkpt>
        <trkpt lat="29.5790276" lon="103.3725187"><ele>1374.58</ele><time>2026-06-27T20:11:54.000Z</time></trkpt>
        <trkpt lat="29.5791087" lon="103.3725317"><ele>1371.99</ele><time>2026-06-27T20:12:04.000Z</time></trkpt>
        <trkpt lat="29.5791977" lon="103.3725517"><ele>1370.67</ele><time>2026-06-27T20:12:16.000Z</time></trkpt>
        <trkpt lat="29.5792726" lon="103.3726135"><ele>1369.31</ele><time>2026-06-27T20:12:24.000Z</time></trkpt>
        <trkpt lat="29.5793553" lon="103.3726747"><ele>1368.26</ele><time>2026-06-27T20:12:34.000Z</time></trkpt>
        <trkpt lat="29.5794197" lon="103.3727583"><ele>1365.58</ele><time>2026-06-27T20:12:52.000Z</time></trkpt>
        <trkpt lat="29.5794907" lon="103.3728386"><ele>1363.42</ele><time>2026-06-27T20:13:20.000Z</time></trkpt>
        <trkpt lat="29.5795787" lon="103.3728941"><ele>1361.2</ele><time>2026-06-27T20:13:38.000Z</time></trkpt>
        <trkpt lat="29.5797981" lon="103.3730648"><ele>1358.75</ele><time>2026-06-27T20:16:42.000Z</time></trkpt>
        <trkpt lat="29.5801242" lon="103.3734511"><ele>1346.25</ele><time>2026-06-27T20:16:50.000Z</time></trkpt>
        <trkpt lat="29.5802196" lon="103.3735828"><ele>1335.09</ele><time>2026-06-27T20:16:54.000Z</time></trkpt>
        <trkpt lat="29.5802827" lon="103.3736724"><ele>1328.1</ele><time>2026-06-27T20:16:58.000Z</time></trkpt>
        <trkpt lat="29.5803469" lon="103.3737497"><ele>1323.27</ele><time>2026-06-27T20:17:12.000Z</time></trkpt>
        <trkpt lat="29.5804208" lon="103.3738072"><ele>1318.83</ele><time>2026-06-27T20:17:26.000Z</time></trkpt>
        <trkpt lat="29.5804904" lon="103.3738626"><ele>1315.5</ele><time>2026-06-27T20:17:42.000Z</time></trkpt>
        <trkpt lat="29.5805795" lon="103.3739196"><ele>1314.86</ele><time>2026-06-27T20:18:10.000Z</time></trkpt>
        <trkpt lat="29.5806412" lon="103.3739977"><ele>1313.53</ele><time>2026-06-27T20:18:18.000Z</time></trkpt>
        <trkpt lat="29.5806844" lon="103.3740903"><ele>1310.75</ele><time>2026-06-27T20:18:34.000Z</time></trkpt>
        <trkpt lat="29.5806885" lon="103.3741986"><ele>1308.01</ele><time>2026-06-27T20:18:44.000Z</time></trkpt>
        <trkpt lat="29.5806773" lon="103.3743095"><ele>1305.92</ele><time>2026-06-27T20:18:58.000Z</time></trkpt>
        <trkpt lat="29.5806442" lon="103.3744555"><ele>1304.35</ele><time>2026-06-27T20:20:00.000Z</time></trkpt>
        <trkpt lat="29.5806473" lon="103.374573"><ele>1300.91</ele><time>2026-06-27T20:20:10.000Z</time></trkpt>
        <trkpt lat="29.5806502" lon="103.3746822"><ele>1297.85</ele><time>2026-06-27T20:20:28.000Z</time></trkpt>
        <trkpt lat="29.5805705" lon="103.3747754"><ele>1292.23</ele><time>2026-06-27T20:22:40.000Z</time></trkpt>
        <trkpt lat="29.5804901" lon="103.374848"><ele>1283.76</ele><time>2026-06-27T20:24:08.000Z</time></trkpt>
        <trkpt lat="29.5803935" lon="103.3749353"><ele>1276.17</ele><time>2026-06-27T20:24:16.000Z</time></trkpt>
        <trkpt lat="29.5804153" lon="103.3750556"><ele>1269.92</ele><time>2026-06-27T20:24:24.000Z</time></trkpt>
        <trkpt lat="29.5804409" lon="103.3752243"><ele>1264.65</ele><time>2026-06-27T20:24:28.000Z</time></trkpt>
        <trkpt lat="29.5804544" lon="103.3753511"><ele>1261.36</ele><time>2026-06-27T20:24:32.000Z</time></trkpt>
        <trkpt lat="29.5804482" lon="103.3754919"><ele>1259.72</ele><time>2026-06-27T20:24:40.000Z</time></trkpt>
        <trkpt lat="29.5804072" lon="103.3755994"><ele>1258.51</ele><time>2026-06-27T20:24:54.000Z</time></trkpt>
        <trkpt lat="29.5803192" lon="103.3756313"><ele>1255.29</ele><time>2026-06-27T20:25:12.000Z</time></trkpt>
        <trkpt lat="29.5802045" lon="103.3756558"><ele>1250.82</ele><time>2026-06-27T20:25:40.000Z</time></trkpt>
        <trkpt lat="29.5800986" lon="103.375603"><ele>1246.47</ele><time>2026-06-27T20:27:50.000Z</time></trkpt>
        <trkpt lat="29.5800428" lon="103.3756962"><ele>1242.08</ele><time>2026-06-27T20:27:54.000Z</time></trkpt>
        <trkpt lat="29.5799525" lon="103.3758113"><ele>1239.35</ele><time>2026-06-27T20:27:58.000Z</time></trkpt>
        <trkpt lat="29.5798695" lon="103.3759082"><ele>1236.47</ele><time>2026-06-27T20:28:04.000Z</time></trkpt>
        <trkpt lat="29.5798653" lon="103.3760098"><ele>1233.45</ele><time>2026-06-27T20:28:14.000Z</time></trkpt>
        <trkpt lat="29.5799128" lon="103.3761102"><ele>1230.34</ele><time>2026-06-27T20:28:22.000Z</time></trkpt>
        <trkpt lat="29.579954" lon="103.3762117"><ele>1223.76</ele><time>2026-06-27T20:28:30.000Z</time></trkpt>
        <trkpt lat="29.5800237" lon="103.3763128"><ele>1218.25</ele><time>2026-06-27T20:28:40.000Z</time></trkpt>
        <trkpt lat="29.5801177" lon="103.3763213"><ele>1213.73</ele><time>2026-06-27T20:28:56.000Z</time></trkpt>
        <trkpt lat="29.5802161" lon="103.3763157"><ele>1211.47</ele><time>2026-06-27T20:29:10.000Z</time></trkpt>
        <trkpt lat="29.5803301" lon="103.3763221"><ele>1210.17</ele><time>2026-06-27T20:29:26.000Z</time></trkpt>
        <trkpt lat="29.5804521" lon="103.3763112"><ele>1206.4</ele><time>2026-06-27T20:29:40.000Z</time></trkpt>
        <trkpt lat="29.5805593" lon="103.3762983"><ele>1204.2</ele><time>2026-06-27T20:29:50.000Z</time></trkpt>
        <trkpt lat="29.5806657" lon="103.3762985"><ele>1202.85</ele><time>2026-06-27T20:30:04.000Z</time></trkpt>
        <trkpt lat="29.5807532" lon="103.3762464"><ele>1201.85</ele><time>2026-06-27T20:31:14.000Z</time></trkpt>
        <trkpt lat="29.5808503" lon="103.3762445"><ele>1199.76</ele><time>2026-06-27T20:31:18.000Z</time></trkpt>
        <trkpt lat="29.5809621" lon="103.3762327"><ele>1198.59</ele><time>2026-06-27T20:32:34.000Z</time></trkpt>
        <trkpt lat="29.5809466" lon="103.3763437"><ele>1197.89</ele><time>2026-06-27T20:33:04.000Z</time></trkpt>
        <trkpt lat="29.5809269" lon="103.3764498"><ele>1195.51</ele><time>2026-06-27T20:33:22.000Z</time></trkpt>
        <trkpt lat="29.5809959" lon="103.3764776"><ele>1193.16</ele><time>2026-06-27T20:33:54.000Z</time></trkpt>
        <trkpt lat="29.5810709" lon="103.3765299"><ele>1187.73</ele><time>2026-06-27T20:34:20.000Z</time></trkpt>
        <trkpt lat="29.5811643" lon="103.3765161"><ele>1181.44</ele><time>2026-06-27T20:34:42.000Z</time></trkpt>
        <trkpt lat="29.5812442" lon="103.3764436"><ele>1176.45</ele><time>2026-06-27T20:35:40.000Z</time></trkpt>
        <trkpt lat="29.5813457" lon="103.376407"><ele>1168.94</ele><time>2026-06-27T20:35:58.000Z</time></trkpt>
        <trkpt lat="29.5814505" lon="103.3764021"><ele>1162.52</ele><time>2026-06-27T20:36:12.000Z</time></trkpt>
        <trkpt lat="29.5815435" lon="103.3763795"><ele>1157.97</ele><time>2026-06-27T20:36:42.000Z</time></trkpt>
        <trkpt lat="29.5816351" lon="103.376339"><ele>1152.6</ele><time>2026-06-27T20:37:18.000Z</time></trkpt>
        <trkpt lat="29.5817243" lon="103.3763055"><ele>1145.48</ele><time>2026-06-27T20:37:42.000Z</time></trkpt>
        <trkpt lat="29.5818188" lon="103.3763018"><ele>1139.95</ele><time>2026-06-27T20:37:48.000Z</time></trkpt>
        <trkpt lat="29.5818441" lon="103.3763869"><ele>1135.86</ele><time>2026-06-27T20:38:36.000Z</time></trkpt>
        <trkpt lat="29.5818" lon="103.3765017"><ele>1129.8</ele><time>2026-06-27T20:38:58.000Z</time></trkpt>
        <trkpt lat="29.5818412" lon="103.3765682"><ele>1124.76</ele><time>2026-06-27T20:39:18.000Z</time></trkpt>
        <trkpt lat="29.5819307" lon="103.3765925"><ele>1119.47</ele><time>2026-06-27T20:39:28.000Z</time></trkpt>
        <trkpt lat="29.5820345" lon="103.3766008"><ele>1114.79</ele><time>2026-06-27T20:39:48.000Z</time></trkpt>
        <trkpt lat="29.5820223" lon="103.376679"><ele>1108.52</ele><time>2026-06-27T20:40:02.000Z</time></trkpt>
        <trkpt lat="29.5820281" lon="103.3767847"><ele>1103.23</ele><time>2026-06-27T20:40:28.000Z</time></trkpt>
        <trkpt lat="29.5820942" lon="103.3768186"><ele>1097.24</ele><time>2026-06-27T20:41:02.000Z</time></trkpt>
        <trkpt lat="29.5821052" lon="103.3769253"><ele>1091.94</ele><time>2026-06-27T20:41:30.000Z</time></trkpt>
        <trkpt lat="29.5821185" lon="103.3770367"><ele>1087.72</ele><time>2026-06-27T20:41:38.000Z</time></trkpt>
        <trkpt lat="29.5821213" lon="103.377149"><ele>1084.72</ele><time>2026-06-27T20:41:56.000Z</time></trkpt>
        <trkpt lat="29.5821868" lon="103.377222"><ele>1080.03</ele><time>2026-06-27T20:42:30.000Z</time></trkpt>
        <trkpt lat="29.5822669" lon="103.3773055"><ele>1073.24</ele><time>2026-06-27T20:43:18.000Z</time></trkpt>
        <trkpt lat="29.5823417" lon="103.3773849"><ele>1066.34</ele><time>2026-06-27T20:43:28.000Z</time></trkpt>
        <trkpt lat="29.5823444" lon="103.3775013"><ele>1061.41</ele><time>2026-06-27T20:44:48.000Z</time></trkpt>
        <trkpt lat="29.5823533" lon="103.3776188"><ele>1053.57</ele><time>2026-06-27T20:45:36.000Z</time></trkpt>
        <trkpt lat="29.5823675" lon="103.3777313"><ele>1046.05</ele><time>2026-06-27T20:45:50.000Z</time></trkpt>
        <trkpt lat="29.5824032" lon="103.3778294"><ele>1039.19</ele><time>2026-06-27T20:46:00.000Z</time></trkpt>
        <trkpt lat="29.5823932" lon="103.3779455"><ele>1034.84</ele><time>2026-06-27T20:46:10.000Z</time></trkpt>
        <trkpt lat="29.5823585" lon="103.3780463"><ele>1033.44</ele><time>2026-06-27T20:46:20.000Z</time></trkpt>
        <trkpt lat="29.5823704" lon="103.3781527"><ele>1032.24</ele><time>2026-06-27T20:46:38.000Z</time></trkpt>
        <trkpt lat="29.5823846" lon="103.3782627"><ele>1030.87</ele><time>2026-06-27T20:47:02.000Z</time></trkpt>
        <trkpt lat="29.5824206" lon="103.3783628"><ele>1028.02</ele><time>2026-06-27T20:47:12.000Z</time></trkpt>
        <trkpt lat="29.582502" lon="103.3784132"><ele>1025.59</ele><time>2026-06-27T20:47:24.000Z</time></trkpt>
        <trkpt lat="29.5826003" lon="103.3784282"><ele>1023.44</ele><time>2026-06-27T20:47:50.000Z</time></trkpt>
        <trkpt lat="29.5826896" lon="103.3784623"><ele>1021.49</ele><time>2026-06-27T20:48:12.000Z</time></trkpt>
        <trkpt lat="29.5827775" lon="103.3785238"><ele>1019.75</ele><time>2026-06-27T20:48:20.000Z</time></trkpt>
        <trkpt lat="29.5828532" lon="103.3786033"><ele>1016.35</ele><time>2026-06-27T20:48:30.000Z</time></trkpt>
        <trkpt lat="29.5829356" lon="103.3786731"><ele>1012.04</ele><time>2026-06-27T20:48:56.000Z</time></trkpt>
        <trkpt lat="29.582968" lon="103.3787758"><ele>1009</ele><time>2026-06-27T20:50:04.000Z</time></trkpt>
        <trkpt lat="29.5830038" lon="103.3788761"><ele>1004.72</ele><time>2026-06-27T20:50:24.000Z</time></trkpt>
        <trkpt lat="29.5830321" lon="103.3789822"><ele>999.43</ele><time>2026-06-27T20:50:36.000Z</time></trkpt>
        <trkpt lat="29.5829963" lon="103.3790873"><ele>995.23</ele><time>2026-06-27T20:50:50.000Z</time></trkpt>
        <trkpt lat="29.582928" lon="103.3791753"><ele>991.48</ele><time>2026-06-27T20:51:06.000Z</time></trkpt>
        <trkpt lat="29.5828885" lon="103.3792721"><ele>988.66</ele><time>2026-06-27T20:52:06.000Z</time></trkpt>
        <trkpt lat="29.5827944" lon="103.3793037"><ele>985.12</ele><time>2026-06-27T20:53:32.000Z</time></trkpt>
        <trkpt lat="29.5826932" lon="103.3793631"><ele>981.06</ele><time>2026-06-27T20:53:54.000Z</time></trkpt>
        <trkpt lat="29.5826342" lon="103.3794455"><ele>978.04</ele><time>2026-06-27T20:54:02.000Z</time></trkpt>
        <trkpt lat="29.5826453" lon="103.3795479"><ele>975.8</ele><time>2026-06-27T20:54:12.000Z</time></trkpt>
        <trkpt lat="29.5826955" lon="103.3796471"><ele>973.12</ele><time>2026-06-27T20:54:26.000Z</time></trkpt>
        <trkpt lat="29.5827735" lon="103.3796239"><ele>970.71</ele><time>2026-06-27T20:54:42.000Z</time></trkpt>
        <trkpt lat="29.5828631" lon="103.3795654"><ele>970.83</ele><time>2026-06-27T20:55:04.000Z</time></trkpt>
        <trkpt lat="29.5829543" lon="103.3795057"><ele>971.24</ele><time>2026-06-27T20:55:14.000Z</time></trkpt>
        <trkpt lat="29.5829561" lon="103.3795652"><ele>971.8</ele><time>2026-06-27T20:55:52.000Z</time></trkpt>
        <trkpt lat="29.5829467" lon="103.379676"><ele>970.31</ele><time>2026-06-27T20:56:20.000Z</time></trkpt>
        <trkpt lat="29.5829873" lon="103.3797704"><ele>968.6</ele><time>2026-06-27T20:56:30.000Z</time></trkpt>
        <trkpt lat="29.5830376" lon="103.3798648"><ele>967.52</ele><time>2026-06-27T20:56:44.000Z</time></trkpt>
        <trkpt lat="29.5830786" lon="103.379967"><ele>966.21</ele><time>2026-06-27T20:57:02.000Z</time></trkpt>
        <trkpt lat="29.5830753" lon="103.3800776"><ele>964.89</ele><time>2026-06-27T20:57:14.000Z</time></trkpt>
        <trkpt lat="29.5830432" lon="103.38018"><ele>962.15</ele><time>2026-06-27T20:57:30.000Z</time></trkpt>
        <trkpt lat="29.582982" lon="103.3802614"><ele>959.32</ele><time>2026-06-27T20:57:42.000Z</time></trkpt>
        <trkpt lat="29.5829099" lon="103.3803404"><ele>957.42</ele><time>2026-06-27T20:57:56.000Z</time></trkpt>
        <trkpt lat="29.5828527" lon="103.3804285"><ele>955.89</ele><time>2026-06-27T20:58:06.000Z</time></trkpt>
        <trkpt lat="29.5828259" lon="103.3805322"><ele>955.95</ele><time>2026-06-27T20:58:18.000Z</time></trkpt>
        <trkpt lat="29.582785" lon="103.3806303"><ele>955.36</ele><time>2026-06-27T20:58:30.000Z</time></trkpt>
        <trkpt lat="29.5827566" lon="103.3807317"><ele>954.39</ele><time>2026-06-27T20:58:42.000Z</time></trkpt>
        <trkpt lat="29.5827374" lon="103.3808428"><ele>954</ele><time>2026-06-27T20:58:52.000Z</time></trkpt>
        <trkpt lat="29.5827342" lon="103.3809517"><ele>953.5</ele><time>2026-06-27T20:59:02.000Z</time></trkpt>
        <trkpt lat="29.5827457" lon="103.3810646"><ele>953.11</ele><time>2026-06-27T20:59:12.000Z</time></trkpt>
        <trkpt lat="29.5827275" lon="103.3811739"><ele>952.71</ele><time>2026-06-27T20:59:26.000Z</time></trkpt>
        <trkpt lat="29.5826845" lon="103.3812675"><ele>952.5</ele><time>2026-06-27T20:59:36.000Z</time></trkpt>
        <trkpt lat="29.5826191" lon="103.3813514"><ele>952.19</ele><time>2026-06-27T20:59:50.000Z</time></trkpt>
        <trkpt lat="29.5825479" lon="103.3814346"><ele>952.13</ele><time>2026-06-27T21:00:00.000Z</time></trkpt>
        <trkpt lat="29.582486" lon="103.3815303"><ele>951.87</ele><time>2026-06-27T21:00:12.000Z</time></trkpt>
        <trkpt lat="29.5824212" lon="103.3816281"><ele>951.83</ele><time>2026-06-27T21:00:24.000Z</time></trkpt>
        <trkpt lat="29.5823731" lon="103.381726"><ele>951.82</ele><time>2026-06-27T21:01:06.000Z</time></trkpt>
        <trkpt lat="29.5823142" lon="103.3818227"><ele>952.31</ele><time>2026-06-27T21:01:12.000Z</time></trkpt>
        <trkpt lat="29.5822455" lon="103.3819115"><ele>953.61</ele><time>2026-06-27T21:01:22.000Z</time></trkpt>
        <trkpt lat="29.5821652" lon="103.3819794"><ele>953.33</ele><time>2026-06-27T21:01:36.000Z</time></trkpt>
        <trkpt lat="29.5821156" lon="103.3820719"><ele>953.22</ele><time>2026-06-27T21:01:54.000Z</time></trkpt>
        <trkpt lat="29.5820865" lon="103.3821758"><ele>952.79</ele><time>2026-06-27T21:02:04.000Z</time></trkpt>
        <trkpt lat="29.5820441" lon="103.3822744"><ele>952.87</ele><time>2026-06-27T21:02:14.000Z</time></trkpt>
        <trkpt lat="29.5819844" lon="103.3823559"><ele>952.61</ele><time>2026-06-27T21:02:24.000Z</time></trkpt>
        <trkpt lat="29.5819438" lon="103.3824628"><ele>951.22</ele><time>2026-06-27T21:02:34.000Z</time></trkpt>
        <trkpt lat="29.581898" lon="103.3825686"><ele>949.18</ele><time>2026-06-27T21:03:10.000Z</time></trkpt>
        <trkpt lat="29.58187" lon="103.3826192"><ele>947.5</ele><time>2026-06-27T21:03:12.000Z</time></trkpt>
        <trkpt lat="29.5818406" lon="103.38271"><ele>946.36</ele><time>2026-06-27T21:03:22.000Z</time></trkpt>
        <trkpt lat="29.5817893" lon="103.3828003"><ele>946.18</ele><time>2026-06-27T21:03:30.000Z</time></trkpt>
        <trkpt lat="29.5818147" lon="103.3829033"><ele>946.41</ele><time>2026-06-27T21:03:38.000Z</time></trkpt>
        <trkpt lat="29.5818298" lon="103.3830262"><ele>948.05</ele><time>2026-06-27T21:03:58.000Z</time></trkpt>
        <trkpt lat="29.5818488" lon="103.3831445"><ele>947.82</ele><time>2026-06-27T21:04:12.000Z</time></trkpt>
        <trkpt lat="29.5818718" lon="103.383255"><ele>948.05</ele><time>2026-06-27T21:04:22.000Z</time></trkpt>
        <trkpt lat="29.58186" lon="103.3833568"><ele>946</ele><time>2026-06-27T21:04:38.000Z</time></trkpt>
        <trkpt lat="29.5817845" lon="103.383423"><ele>944.59</ele><time>2026-06-27T21:04:48.000Z</time></trkpt>
        <trkpt lat="29.5817005" lon="103.3834885"><ele>942.48</ele><time>2026-06-27T21:04:56.000Z</time></trkpt>
        <trkpt lat="29.5816181" lon="103.3835746"><ele>940.49</ele><time>2026-06-27T21:05:06.000Z</time></trkpt>
        <trkpt lat="29.5815484" lon="103.3836665"><ele>938.9</ele><time>2026-06-27T21:05:16.000Z</time></trkpt>
        <trkpt lat="29.5814722" lon="103.3837595"><ele>937.58</ele><time>2026-06-27T21:05:24.000Z</time></trkpt>
        <trkpt lat="29.5813887" lon="103.3838267"><ele>937.68</ele><time>2026-06-27T21:05:34.000Z</time></trkpt>
        <trkpt lat="29.5814027" lon="103.3839169"><ele>940.45</ele><time>2026-06-27T21:06:04.000Z</time></trkpt>
        <trkpt lat="29.5814391" lon="103.3840163"><ele>940.5</ele><time>2026-06-27T21:06:12.000Z</time></trkpt>
        <trkpt lat="29.5814917" lon="103.3841205"><ele>938.03</ele><time>2026-06-27T21:06:26.000Z</time></trkpt>
        <trkpt lat="29.5815477" lon="103.3842192"><ele>935.63</ele><time>2026-06-27T21:06:58.000Z</time></trkpt>
        <trkpt lat="29.5816218" lon="103.384296"><ele>933.74</ele><time>2026-06-27T21:07:20.000Z</time></trkpt>
        <trkpt lat="29.581695" lon="103.3842385"><ele>929.64</ele><time>2026-06-27T21:07:32.000Z</time></trkpt>
        <trkpt lat="29.5817545" lon="103.3841417"><ele>927.3</ele><time>2026-06-27T21:07:42.000Z</time></trkpt>
        <trkpt lat="29.5818074" lon="103.3841811"><ele>925.94</ele><time>2026-06-27T21:07:56.000Z</time></trkpt>
        <trkpt lat="29.5818375" lon="103.3842883"><ele>922.41</ele><time>2026-06-27T21:08:02.000Z</time></trkpt>
        <trkpt lat="29.5819099" lon="103.3842509"><ele>919.54</ele><time>2026-06-27T21:08:24.000Z</time></trkpt>
        <trkpt lat="29.5820254" lon="103.384304"><ele>918.15</ele><time>2026-06-27T21:08:46.000Z</time></trkpt>
        <trkpt lat="29.5820257" lon="103.3843204"><ele>917.43</ele><time>2026-06-27T21:08:52.000Z</time></trkpt>
        <trkpt lat="29.5821437" lon="103.3844199"><ele>917.16</ele><time>2026-06-27T21:09:34.000Z</time></trkpt>
        <trkpt lat="29.5821816" lon="103.3844535"><ele>917.01</ele><time>2026-06-27T21:09:46.000Z</time></trkpt>
        <trkpt lat="29.5820944" lon="103.3843288"><ele>916.92</ele><time>2026-06-27T21:10:02.000Z</time></trkpt>
        <trkpt lat="29.5819609" lon="103.3844333"><ele>916.87</ele><time>2026-06-27T21:11:42.000Z</time></trkpt>
        <trkpt lat="29.5820051" lon="103.384244"><ele>916.7</ele><time>2026-06-27T21:12:06.000Z</time></trkpt>
        <trkpt lat="29.5819429" lon="103.3843795"><ele>916.61</ele><time>2026-06-27T21:12:34.000Z</time></trkpt>
        <trkpt lat="29.5818751" lon="103.384494"><ele>916.56</ele><time>2026-06-27T21:12:36.000Z</time></trkpt>
        <trkpt lat="29.5817651" lon="103.3845333"><ele>920.05</ele><time>2026-06-27T21:12:42.000Z</time></trkpt>
        <trkpt lat="29.5817506" lon="103.3843538"><ele>922.32</ele><time>2026-06-27T21:12:50.000Z</time></trkpt>
        <trkpt lat="29.5817956" lon="103.3843094"><ele>923.79</ele><time>2026-06-27T21:12:54.000Z</time></trkpt>
        <trkpt lat="29.581883" lon="103.3843301"><ele>924.61</ele><time>2026-06-27T21:12:56.000Z</time></trkpt>
        <trkpt lat="29.5817127" lon="103.3840331"><ele>925.11</ele><time>2026-06-27T21:13:18.000Z</time></trkpt>
        <trkpt lat="29.5815922" lon="103.3836741"><ele>925.36</ele><time>2026-06-27T21:13:30.000Z</time></trkpt>
        <trkpt lat="29.5819204" lon="103.3842358"><ele>925.35</ele><time>2026-06-27T21:13:38.000Z</time></trkpt>
        <trkpt lat="29.5819889" lon="103.3845309"><ele>924.3</ele><time>2026-06-27T21:13:48.000Z</time></trkpt>
        <trkpt lat="29.5819237" lon="103.3844278"><ele>923.83</ele><time>2026-06-27T21:13:50.000Z</time></trkpt>
        <trkpt lat="29.5818512" lon="103.384257"><ele>921.92</ele><time>2026-06-27T21:13:52.000Z</time></trkpt>
        <trkpt lat="29.5818141" lon="103.3841792"><ele>919.67</ele><time>2026-06-27T21:13:54.000Z</time></trkpt>
        <trkpt lat="29.5817734" lon="103.3842533"><ele>918.06</ele><time>2026-06-27T21:13:58.000Z</time></trkpt>
        <trkpt lat="29.5817632" lon="103.3842022"><ele>912.17</ele><time>2026-06-27T21:14:04.000Z</time></trkpt>
        <trkpt lat="29.5818123" lon="103.3841186"><ele>906.6</ele><time>2026-06-27T21:14:14.000Z</time></trkpt>
        <trkpt lat="29.5817506" lon="103.3841123"><ele>910.33</ele><time>2026-06-27T21:14:30.000Z</time></trkpt>
        <trkpt lat="29.5816655" lon="103.3841767"><ele>912.68</ele><time>2026-06-27T21:14:40.000Z</time></trkpt>
        <trkpt lat="29.5815827" lon="103.3842634"><ele>915.51</ele><time>2026-06-27T21:14:48.000Z</time></trkpt>
        <trkpt lat="29.5815153" lon="103.384365"><ele>919.75</ele><time>2026-06-27T21:14:58.000Z</time></trkpt>
        <trkpt lat="29.5814271" lon="103.3843839"><ele>921.81</ele><time>2026-06-27T21:15:14.000Z</time></trkpt>
        <trkpt lat="29.581337" lon="103.3843608"><ele>923.24</ele><time>2026-06-27T21:15:26.000Z</time></trkpt>
        <trkpt lat="29.5812428" lon="103.3843516"><ele>924.14</ele><time>2026-06-27T21:15:42.000Z</time></trkpt>
        <trkpt lat="29.5811725" lon="103.384279"><ele>924.63</ele><time>2026-06-27T21:16:02.000Z</time></trkpt>
        <trkpt lat="29.5810956" lon="103.3842117"><ele>924.36</ele><time>2026-06-27T21:16:18.000Z</time></trkpt>
        <trkpt lat="29.5810049" lon="103.3841758"><ele>922.59</ele><time>2026-06-27T21:16:34.000Z</time></trkpt>
        <trkpt lat="29.5809115" lon="103.3841721"><ele>919</ele><time>2026-06-27T21:16:52.000Z</time></trkpt>
        <trkpt lat="29.5808197" lon="103.3841989"><ele>915.67</ele><time>2026-06-27T21:17:10.000Z</time></trkpt>
        <trkpt lat="29.5807576" lon="103.3842842"><ele>912.82</ele><time>2026-06-27T21:17:22.000Z</time></trkpt>
        <trkpt lat="29.5806802" lon="103.3843657"><ele>909.31</ele><time>2026-06-27T21:17:46.000Z</time></trkpt>
        <trkpt lat="29.5805904" lon="103.3844421"><ele>908.45</ele><time>2026-06-27T21:17:58.000Z</time></trkpt>
        <trkpt lat="29.5805164" lon="103.3845207"><ele>907.13</ele><time>2026-06-27T21:18:16.000Z</time></trkpt>
        <trkpt lat="29.580457" lon="103.3846025"><ele>904.27</ele><time>2026-06-27T21:18:36.000Z</time></trkpt>
        <trkpt lat="29.580393" lon="103.3846751"><ele>901.48</ele><time>2026-06-27T21:19:02.000Z</time></trkpt>
        <trkpt lat="29.5803461" lon="103.3847647"><ele>897.65</ele><time>2026-06-27T21:19:24.000Z</time></trkpt>
        <trkpt lat="29.5803026" lon="103.384871"><ele>894.71</ele><time>2026-06-27T21:19:46.000Z</time></trkpt>
        <trkpt lat="29.5802455" lon="103.3849592"><ele>892.12</ele><time>2026-06-27T21:19:58.000Z</time></trkpt>
        <trkpt lat="29.5801925" lon="103.3850525"><ele>890.31</ele><time>2026-06-27T21:20:12.000Z</time></trkpt>
        <trkpt lat="29.5801565" lon="103.3851557"><ele>888.97</ele><time>2026-06-27T21:20:26.000Z</time></trkpt>
        <trkpt lat="29.5801257" lon="103.3852583"><ele>888.43</ele><time>2026-06-27T21:20:40.000Z</time></trkpt>
        <trkpt lat="29.5800609" lon="103.3853255"><ele>887.19</ele><time>2026-06-27T21:20:50.000Z</time></trkpt>
        <trkpt lat="29.5799713" lon="103.3853605"><ele>886.25</ele><time>2026-06-27T21:20:58.000Z</time></trkpt>
        <trkpt lat="29.5798772" lon="103.3853758"><ele>884.23</ele><time>2026-06-27T21:21:08.000Z</time></trkpt>
        <trkpt lat="29.5797927" lon="103.385435"><ele>881.61</ele><time>2026-06-27T21:21:22.000Z</time></trkpt>
        <trkpt lat="29.5797168" lon="103.3855121"><ele>877.4</ele><time>2026-06-27T21:21:32.000Z</time></trkpt>
        <trkpt lat="29.5796446" lon="103.385583"><ele>874.31</ele><time>2026-06-27T21:21:44.000Z</time></trkpt>
        <trkpt lat="29.5795694" lon="103.3856518"><ele>870.66</ele><time>2026-06-27T21:22:04.000Z</time></trkpt>
        <trkpt lat="29.5795185" lon="103.3857385"><ele>864.43</ele><time>2026-06-27T21:22:18.000Z</time></trkpt>
        <trkpt lat="29.5794623" lon="103.3858392"><ele>859.85</ele><time>2026-06-27T21:22:32.000Z</time></trkpt>
        <trkpt lat="29.5794309" lon="103.3859587"><ele>856.19</ele><time>2026-06-27T21:22:48.000Z</time></trkpt>
        <trkpt lat="29.5793764" lon="103.3860653"><ele>851.92</ele><time>2026-06-27T21:23:00.000Z</time></trkpt>
        <trkpt lat="29.579366" lon="103.3861863"><ele>848.56</ele><time>2026-06-27T21:23:10.000Z</time></trkpt>
        <trkpt lat="29.5793614" lon="103.3862973"><ele>847.16</ele><time>2026-06-27T21:23:26.000Z</time></trkpt>
        <trkpt lat="29.5793559" lon="103.3864162"><ele>845.04</ele><time>2026-06-27T21:23:36.000Z</time></trkpt>
        <trkpt lat="29.5793497" lon="103.3865359"><ele>842.1</ele><time>2026-06-27T21:23:52.000Z</time></trkpt>
        <trkpt lat="29.5793371" lon="103.386648"><ele>839.32</ele><time>2026-06-27T21:24:06.000Z</time></trkpt>
        <trkpt lat="29.5792948" lon="103.3867456"><ele>835.37</ele><time>2026-06-27T21:24:16.000Z</time></trkpt>
        <trkpt lat="29.5792451" lon="103.386852"><ele>830.95</ele><time>2026-06-27T21:24:32.000Z</time></trkpt>
        <trkpt lat="29.5791739" lon="103.3869313"><ele>827.85</ele><time>2026-06-27T21:24:46.000Z</time></trkpt>
        <trkpt lat="29.5791018" lon="103.3870028"><ele>824.79</ele><time>2026-06-27T21:25:02.000Z</time></trkpt>
        <trkpt lat="29.5790299" lon="103.3870867"><ele>821.84</ele><time>2026-06-27T21:25:18.000Z</time></trkpt>
        <trkpt lat="29.578971" lon="103.387173"><ele>817.73</ele><time>2026-06-27T21:25:32.000Z</time></trkpt>
        <trkpt lat="29.5789151" lon="103.387262"><ele>813.96</ele><time>2026-06-27T21:25:46.000Z</time></trkpt>
        <trkpt lat="29.5788878" lon="103.3873706"><ele>810.56</ele><time>2026-06-27T21:25:58.000Z</time></trkpt>
        <trkpt lat="29.5788843" lon="103.3874908"><ele>806.94</ele><time>2026-06-27T21:26:06.000Z</time></trkpt>
        <trkpt lat="29.5788976" lon="103.3876071"><ele>804.68</ele><time>2026-06-27T21:26:14.000Z</time></trkpt>
        <trkpt lat="29.5788917" lon="103.3877214"><ele>803.65</ele><time>2026-06-27T21:26:24.000Z</time></trkpt>
        <trkpt lat="29.5789025" lon="103.3878429"><ele>803.5</ele><time>2026-06-27T21:26:32.000Z</time></trkpt>
        <trkpt lat="29.5789341" lon="103.3879579"><ele>802.83</ele><time>2026-06-27T21:26:40.000Z</time></trkpt>
        <trkpt lat="29.5789569" lon="103.3880647"><ele>802.27</ele><time>2026-06-27T21:26:52.000Z</time></trkpt>
        <trkpt lat="29.5789603" lon="103.3881722"><ele>800.44</ele><time>2026-06-27T21:27:00.000Z</time></trkpt>
        <trkpt lat="29.5789661" lon="103.3882779"><ele>799.65</ele><time>2026-06-27T21:27:08.000Z</time></trkpt>
        <trkpt lat="29.5789512" lon="103.3883901"><ele>797.71</ele><time>2026-06-27T21:27:18.000Z</time></trkpt>
        <trkpt lat="29.5789533" lon="103.3885064"><ele>797.15</ele><time>2026-06-27T21:27:30.000Z</time></trkpt>
        <trkpt lat="29.5789234" lon="103.3886123"><ele>797.79</ele><time>2026-06-27T21:27:42.000Z</time></trkpt>
        <trkpt lat="29.5788757" lon="103.3887185"><ele>796.11</ele><time>2026-06-27T21:27:50.000Z</time></trkpt>
        <trkpt lat="29.5788114" lon="103.3888076"><ele>793.79</ele><time>2026-06-27T21:28:08.000Z</time></trkpt>
        <trkpt lat="29.5787212" lon="103.3888831"><ele>793.29</ele><time>2026-06-27T21:28:18.000Z</time></trkpt>
        <trkpt lat="29.5786297" lon="103.3889308"><ele>793.26</ele><time>2026-06-27T21:28:30.000Z</time></trkpt>
        <trkpt lat="29.5785322" lon="103.3889529"><ele>792.48</ele><time>2026-06-27T21:28:40.000Z</time></trkpt>
        <trkpt lat="29.5784382" lon="103.3889748"><ele>792.24</ele><time>2026-06-27T21:28:48.000Z</time></trkpt>
        <trkpt lat="29.5783493" lon="103.389017"><ele>793.61</ele><time>2026-06-27T21:28:56.000Z</time></trkpt>
        <trkpt lat="29.5782992" lon="103.3891055"><ele>792.9</ele><time>2026-06-27T21:29:06.000Z</time></trkpt>
        <trkpt lat="29.5782877" lon="103.3892213"><ele>789.48</ele><time>2026-06-27T21:29:20.000Z</time></trkpt>
        <trkpt lat="29.5783322" lon="103.3893207"><ele>785.46</ele><time>2026-06-27T21:29:26.000Z</time></trkpt>
        <trkpt lat="29.5783974" lon="103.3894076"><ele>782.65</ele><time>2026-06-27T21:29:32.000Z</time></trkpt>
        <trkpt lat="29.5784428" lon="103.3895112"><ele>779.93</ele><time>2026-06-27T21:29:44.000Z</time></trkpt>
        <trkpt lat="29.5784569" lon="103.3896245"><ele>777.24</ele><time>2026-06-27T21:29:56.000Z</time></trkpt>
        <trkpt lat="29.5784699" lon="103.38974"><ele>775.46</ele><time>2026-06-27T21:30:06.000Z</time></trkpt>
        <trkpt lat="29.5784761" lon="103.3898525"><ele>773.47</ele><time>2026-06-27T21:30:16.000Z</time></trkpt>
        <trkpt lat="29.5784396" lon="103.3899688"><ele>773.57</ele><time>2026-06-27T21:30:26.000Z</time></trkpt>
        <trkpt lat="29.5783834" lon="103.3900605"><ele>773.76</ele><time>2026-06-27T21:30:34.000Z</time></trkpt>
        <trkpt lat="29.5783252" lon="103.3901472"><ele>773.98</ele><time>2026-06-27T21:30:42.000Z</time></trkpt>
        <trkpt lat="29.5782711" lon="103.3902423"><ele>775.29</ele><time>2026-06-27T21:30:50.000Z</time></trkpt>
        <trkpt lat="29.5782265" lon="103.3903617"><ele>775.95</ele><time>2026-06-27T21:30:58.000Z</time></trkpt>
        <trkpt lat="29.5781834" lon="103.3904691"><ele>776.03</ele><time>2026-06-27T21:31:06.000Z</time></trkpt>
        <trkpt lat="29.5781325" lon="103.3905737"><ele>775.91</ele><time>2026-06-27T21:31:18.000Z</time></trkpt>
        <trkpt lat="29.5780807" lon="103.3906796"><ele>774.84</ele><time>2026-06-27T21:31:28.000Z</time></trkpt>
        <trkpt lat="29.5780455" lon="103.3907808"><ele>774.11</ele><time>2026-06-27T21:31:36.000Z</time></trkpt>
        <trkpt lat="29.5780177" lon="103.390888"><ele>773.32</ele><time>2026-06-27T21:31:46.000Z</time></trkpt>
        <trkpt lat="29.577968" lon="103.3909868"><ele>772.86</ele><time>2026-06-27T21:31:54.000Z</time></trkpt>
        <trkpt lat="29.5779179" lon="103.3910817"><ele>772.71</ele><time>2026-06-27T21:32:02.000Z</time></trkpt>
        <trkpt lat="29.5778176" lon="103.3910666"><ele>771.97</ele><time>2026-06-27T21:37:16.000Z</time></trkpt>
        <trkpt lat="29.5778991" lon="103.39099"><ele>771.25</ele><time>2026-06-27T21:38:10.000Z</time></trkpt>
        <trkpt lat="29.5778035" lon="103.3909729"><ele>770.65</ele><time>2026-06-27T21:39:58.000Z</time></trkpt>
        <trkpt lat="29.577887" lon="103.3910363"><ele>770.31</ele><time>2026-06-27T21:43:38.000Z</time></trkpt>
        <trkpt lat="29.5777783" lon="103.3910544"><ele>769.93</ele><time>2026-06-27T22:29:38.000Z</time></trkpt>
        <trkpt lat="29.5776887" lon="103.39103"><ele>765.09</ele><time>2026-06-27T22:29:50.000Z</time></trkpt>
        <trkpt lat="29.5775993" lon="103.3910147"><ele>762.58</ele><time>2026-06-27T22:30:00.000Z</time></trkpt>
        <trkpt lat="29.5775078" lon="103.3910002"><ele>758.59</ele><time>2026-06-27T22:30:18.000Z</time></trkpt>
        <trkpt lat="29.5774124" lon="103.3909632"><ele>755.22</ele><time>2026-06-27T22:30:36.000Z</time></trkpt>
        <trkpt lat="29.5773192" lon="103.3909379"><ele>753</ele><time>2026-06-27T22:30:44.000Z</time></trkpt>
        <trkpt lat="29.5772245" lon="103.3909753"><ele>750.79</ele><time>2026-06-27T22:30:58.000Z</time></trkpt>
        <trkpt lat="29.5771371" lon="103.3910258"><ele>748.06</ele><time>2026-06-27T22:31:06.000Z</time></trkpt>
        <trkpt lat="29.5770693" lon="103.3911023"><ele>746.05</ele><time>2026-06-27T22:31:18.000Z</time></trkpt>
        <trkpt lat="29.5770145" lon="103.3911919"><ele>744.37</ele><time>2026-06-27T22:31:30.000Z</time></trkpt>
        <trkpt lat="29.5769553" lon="103.3912953"><ele>743.27</ele><time>2026-06-27T22:31:44.000Z</time></trkpt>
        <trkpt lat="29.5769178" lon="103.391406"><ele>741.94</ele><time>2026-06-27T22:31:56.000Z</time></trkpt>
        <trkpt lat="29.5768733" lon="103.3915181"><ele>740.05</ele><time>2026-06-27T22:32:10.000Z</time></trkpt>
        <trkpt lat="29.576837" lon="103.3916195"><ele>739.7</ele><time>2026-06-27T22:32:22.000Z</time></trkpt>
        <trkpt lat="29.5768094" lon="103.3917213"><ele>739.34</ele><time>2026-06-27T22:32:36.000Z</time></trkpt>
        <trkpt lat="29.576776" lon="103.3918181"><ele>738.13</ele><time>2026-06-27T22:32:46.000Z</time></trkpt>
        <trkpt lat="29.5766984" lon="103.3918958"><ele>737.46</ele><time>2026-06-27T22:32:56.000Z</time></trkpt>
        <trkpt lat="29.5766038" lon="103.3919256"><ele>737</ele><time>2026-06-27T22:33:06.000Z</time></trkpt>
        <trkpt lat="29.576496" lon="103.3919557"><ele>736.77</ele><time>2026-06-27T22:33:20.000Z</time></trkpt>
        <trkpt lat="29.5763902" lon="103.3919652"><ele>735.68</ele><time>2026-06-27T22:33:34.000Z</time></trkpt>
        <trkpt lat="29.5762868" lon="103.3919374"><ele>733.29</ele><time>2026-06-27T22:33:50.000Z</time></trkpt>
        <trkpt lat="29.576189" lon="103.3919287"><ele>730.11</ele><time>2026-06-27T22:34:06.000Z</time></trkpt>
        <trkpt lat="29.5760893" lon="103.3919004"><ele>728.88</ele><time>2026-06-27T22:34:22.000Z</time></trkpt>
        <trkpt lat="29.5759805" lon="103.3918738"><ele>727.15</ele><time>2026-06-27T22:35:00.000Z</time></trkpt>
        <trkpt lat="29.5758832" lon="103.3918695"><ele>725.15</ele><time>2026-06-27T22:35:14.000Z</time></trkpt>
        <trkpt lat="29.5757959" lon="103.3918976"><ele>721.89</ele><time>2026-06-27T22:35:28.000Z</time></trkpt>
        <trkpt lat="29.5756955" lon="103.3919214"><ele>718.97</ele><time>2026-06-27T22:35:50.000Z</time></trkpt>
        <trkpt lat="29.5756133" lon="103.3918817"><ele>716.04</ele><time>2026-06-27T22:36:06.000Z</time></trkpt>
        <trkpt lat="29.5755254" lon="103.3918542"><ele>712.91</ele><time>2026-06-27T22:36:24.000Z</time></trkpt>
        <trkpt lat="29.5754357" lon="103.3918599"><ele>709.71</ele><time>2026-06-27T22:36:38.000Z</time></trkpt>
        <trkpt lat="29.5753428" lon="103.3918847"><ele>706.21</ele><time>2026-06-27T22:36:56.000Z</time></trkpt>
        <trkpt lat="29.5752575" lon="103.391934"><ele>703.03</ele><time>2026-06-27T22:37:10.000Z</time></trkpt>
        <trkpt lat="29.5751705" lon="103.3919821"><ele>698.28</ele><time>2026-06-27T22:37:30.000Z</time></trkpt>
        <trkpt lat="29.5750798" lon="103.3920223"><ele>692.85</ele><time>2026-06-27T22:37:46.000Z</time></trkpt>
        <trkpt lat="29.5749832" lon="103.3920607"><ele>689.31</ele><time>2026-06-27T22:38:06.000Z</time></trkpt>
        <trkpt lat="29.5748858" lon="103.3920962"><ele>685.59</ele><time>2026-06-27T22:38:22.000Z</time></trkpt>
        <trkpt lat="29.5747939" lon="103.3921124"><ele>683.4</ele><time>2026-06-27T22:38:38.000Z</time></trkpt>
        <trkpt lat="29.5747012" lon="103.3921246"><ele>679.71</ele><time>2026-06-27T22:38:58.000Z</time></trkpt>
        <trkpt lat="29.5746131" lon="103.3921486"><ele>676.37</ele><time>2026-06-27T22:39:14.000Z</time></trkpt>
        <trkpt lat="29.5745217" lon="103.3921546"><ele>673.1</ele><time>2026-06-27T22:39:34.000Z</time></trkpt>
        <trkpt lat="29.5744311" lon="103.3921574"><ele>668.85</ele><time>2026-06-27T22:39:56.000Z</time></trkpt>
        <trkpt lat="29.5743485" lon="103.3922057"><ele>665.4</ele><time>2026-06-27T22:40:08.000Z</time></trkpt>
        <trkpt lat="29.5742911" lon="103.3923662"><ele>664.15</ele><time>2026-06-27T22:41:12.000Z</time></trkpt>
        <trkpt lat="29.5742103" lon="103.3924198"><ele>661.04</ele><time>2026-06-27T22:41:16.000Z</time></trkpt>
        <trkpt lat="29.5741223" lon="103.3923945"><ele>659.3</ele><time>2026-06-27T22:41:34.000Z</time></trkpt>
        <trkpt lat="29.5740652" lon="103.3924577"><ele>658.99</ele><time>2026-06-27T22:42:10.000Z</time></trkpt>
        <trkpt lat="29.5740708" lon="103.3925592"><ele>659.4</ele><time>2026-06-27T22:42:30.000Z</time></trkpt>
        <trkpt lat="29.5741246" lon="103.39266"><ele>660.79</ele><time>2026-06-27T22:42:46.000Z</time></trkpt>
        <trkpt lat="29.5741361" lon="103.3927679"><ele>661.18</ele><time>2026-06-27T22:43:08.000Z</time></trkpt>
        <trkpt lat="29.5740999" lon="103.3928608"><ele>661.97</ele><time>2026-06-27T22:43:26.000Z</time></trkpt>
        <trkpt lat="29.5740337" lon="103.3929465"><ele>662.44</ele><time>2026-06-27T22:43:56.000Z</time></trkpt>
        <trkpt lat="29.573997" lon="103.393044"><ele>663.28</ele><time>2026-06-27T22:44:22.000Z</time></trkpt>
        <trkpt lat="29.5739711" lon="103.3931715"><ele>665.01</ele><time>2026-06-27T22:44:40.000Z</time></trkpt>
        <trkpt lat="29.573928" lon="103.3932988"><ele>667.05</ele><time>2026-06-27T22:44:56.000Z</time></trkpt>
        <trkpt lat="29.5738472" lon="103.3933733"><ele>669.63</ele><time>2026-06-27T22:45:04.000Z</time></trkpt>
        <trkpt lat="29.5737532" lon="103.3934344"><ele>671.82</ele><time>2026-06-27T22:45:12.000Z</time></trkpt>
        <trkpt lat="29.5736635" lon="103.393491"><ele>673.4</ele><time>2026-06-27T22:45:22.000Z</time></trkpt>
        <trkpt lat="29.5735809" lon="103.393551"><ele>674.93</ele><time>2026-06-27T22:45:32.000Z</time></trkpt>
        <trkpt lat="29.5734857" lon="103.3935952"><ele>675.41</ele><time>2026-06-27T22:45:44.000Z</time></trkpt>
        <trkpt lat="29.5734088" lon="103.3936562"><ele>675.86</ele><time>2026-06-27T22:45:52.000Z</time></trkpt>
        <trkpt lat="29.5733117" lon="103.393706"><ele>676.23</ele><time>2026-06-27T22:46:24.000Z</time></trkpt>
        <trkpt lat="29.5732182" lon="103.3937534"><ele>677.5</ele><time>2026-06-27T22:46:36.000Z</time></trkpt>
        <trkpt lat="29.5731235" lon="103.3937599"><ele>679.52</ele><time>2026-06-27T22:46:52.000Z</time></trkpt>
        <trkpt lat="29.5730376" lon="103.3937933"><ele>681.98</ele><time>2026-06-27T22:47:00.000Z</time></trkpt>
        <trkpt lat="29.5729742" lon="103.3938806"><ele>683.01</ele><time>2026-06-27T22:47:08.000Z</time></trkpt>
        <trkpt lat="29.5729398" lon="103.3939969"><ele>684.2</ele><time>2026-06-27T22:47:18.000Z</time></trkpt>
        <trkpt lat="29.5728951" lon="103.3941138"><ele>686.09</ele><time>2026-06-27T22:47:28.000Z</time></trkpt>
        <trkpt lat="29.5728566" lon="103.3942186"><ele>687.63</ele><time>2026-06-27T22:47:40.000Z</time></trkpt>
        <trkpt lat="29.572819" lon="103.3943231"><ele>688.5</ele><time>2026-06-27T22:47:54.000Z</time></trkpt>
        <trkpt lat="29.5727801" lon="103.3944211"><ele>690.06</ele><time>2026-06-27T22:48:08.000Z</time></trkpt>
        <trkpt lat="29.5727501" lon="103.3945195"><ele>691.12</ele><time>2026-06-27T22:48:24.000Z</time></trkpt>
        <trkpt lat="29.5727724" lon="103.3946344"><ele>692.34</ele><time>2026-06-27T22:49:12.000Z</time></trkpt>
        <trkpt lat="29.5728235" lon="103.3947432"><ele>694.5</ele><time>2026-06-27T22:49:44.000Z</time></trkpt>
        <trkpt lat="29.5728841" lon="103.3948332"><ele>698.4</ele><time>2026-06-27T22:49:56.000Z</time></trkpt>
        <trkpt lat="29.5729161" lon="103.3949367"><ele>700.88</ele><time>2026-06-27T22:50:08.000Z</time></trkpt>
        <trkpt lat="29.5729313" lon="103.3950519"><ele>703.4</ele><time>2026-06-27T22:50:36.000Z</time></trkpt>
        <trkpt lat="29.5729544" lon="103.3951567"><ele>705.16</ele><time>2026-06-27T22:50:48.000Z</time></trkpt>
        <trkpt lat="29.5729598" lon="103.3952718"><ele>706.28</ele><time>2026-06-27T22:51:16.000Z</time></trkpt>
        <trkpt lat="29.572926" lon="103.3953818"><ele>707.26</ele><time>2026-06-27T22:51:26.000Z</time></trkpt>
        <trkpt lat="29.5728966" lon="103.3954874"><ele>708.19</ele><time>2026-06-27T22:51:36.000Z</time></trkpt>
        <trkpt lat="29.5728572" lon="103.3955946"><ele>708.32</ele><time>2026-06-27T22:51:48.000Z</time></trkpt>
        <trkpt lat="29.5728093" lon="103.3956912"><ele>708.91</ele><time>2026-06-27T22:51:56.000Z</time></trkpt>
        <trkpt lat="29.5727444" lon="103.3957774"><ele>709.14</ele><time>2026-06-27T22:52:06.000Z</time></trkpt>
        <trkpt lat="29.5726614" lon="103.3958478"><ele>709.13</ele><time>2026-06-27T22:52:18.000Z</time></trkpt>
        <trkpt lat="29.5725768" lon="103.3959075"><ele>709.59</ele><time>2026-06-27T22:52:36.000Z</time></trkpt>
        <trkpt lat="29.5724918" lon="103.3959598"><ele>709.86</ele><time>2026-06-27T22:52:50.000Z</time></trkpt>
        <trkpt lat="29.5724237" lon="103.3960419"><ele>710.36</ele><time>2026-06-27T22:53:04.000Z</time></trkpt>
        <trkpt lat="29.5724031" lon="103.3961582"><ele>711.36</ele><time>2026-06-27T22:53:36.000Z</time></trkpt>
        <trkpt lat="29.5723859" lon="103.3962726"><ele>711.85</ele><time>2026-06-27T22:53:48.000Z</time></trkpt>
        <trkpt lat="29.5723258" lon="103.3963591"><ele>712.16</ele><time>2026-06-27T22:53:58.000Z</time></trkpt>
        <trkpt lat="29.572323" lon="103.3964627"><ele>712.77</ele><time>2026-06-27T22:54:08.000Z</time></trkpt>
        <trkpt lat="29.5723354" lon="103.3965709"><ele>713.69</ele><time>2026-06-27T22:54:48.000Z</time></trkpt>
        <trkpt lat="29.5722823" lon="103.3966538"><ele>715.21</ele><time>2026-06-27T22:55:40.000Z</time></trkpt>
        <trkpt lat="29.5722323" lon="103.3967423"><ele>718.57</ele><time>2026-06-27T22:55:50.000Z</time></trkpt>
        <trkpt lat="29.5721262" lon="103.3967378"><ele>721.11</ele><time>2026-06-27T23:01:58.000Z</time></trkpt>
        <trkpt lat="29.5720347" lon="103.3967192"><ele>724.94</ele><time>2026-06-27T23:02:44.000Z</time></trkpt>
        <trkpt lat="29.5719358" lon="103.396741"><ele>726.49</ele><time>2026-06-27T23:03:08.000Z</time></trkpt>
        <trkpt lat="29.5718403" lon="103.3967788"><ele>727.05</ele><time>2026-06-27T23:03:26.000Z</time></trkpt>
        <trkpt lat="29.5717527" lon="103.3968342"><ele>728.05</ele><time>2026-06-27T23:03:42.000Z</time></trkpt>
        <trkpt lat="29.5716889" lon="103.3969151"><ele>728.94</ele><time>2026-06-27T23:03:58.000Z</time></trkpt>
        <trkpt lat="29.571636" lon="103.3970052"><ele>730.08</ele><time>2026-06-27T23:04:14.000Z</time></trkpt>
        <trkpt lat="29.5715742" lon="103.3970829"><ele>731.28</ele><time>2026-06-27T23:04:30.000Z</time></trkpt>
        <trkpt lat="29.5715266" lon="103.3971738"><ele>732.13</ele><time>2026-06-27T23:04:50.000Z</time></trkpt>
        <trkpt lat="29.5714964" lon="103.397278"><ele>733.72</ele><time>2026-06-27T23:05:02.000Z</time></trkpt>
        <trkpt lat="29.5714605" lon="103.3973759"><ele>735.74</ele><time>2026-06-27T23:05:14.000Z</time></trkpt>
        <trkpt lat="29.5714166" lon="103.3974722"><ele>737.55</ele><time>2026-06-27T23:05:28.000Z</time></trkpt>
        <trkpt lat="29.5714285" lon="103.3975717"><ele>739.01</ele><time>2026-06-27T23:05:38.000Z</time></trkpt>
        <trkpt lat="29.5714461" lon="103.3976758"><ele>740.51</ele><time>2026-06-27T23:05:54.000Z</time></trkpt>
        <trkpt lat="29.5714734" lon="103.3977865"><ele>742.74</ele><time>2026-06-27T23:06:12.000Z</time></trkpt>
        <trkpt lat="29.5715136" lon="103.3978963"><ele>745.51</ele><time>2026-06-27T23:06:42.000Z</time></trkpt>
        <trkpt lat="29.571545" lon="103.3980046"><ele>749.09</ele><time>2026-06-27T23:06:58.000Z</time></trkpt>
        <trkpt lat="29.5715661" lon="103.3981343"><ele>751.69</ele><time>2026-06-27T23:07:14.000Z</time></trkpt>
        <trkpt lat="29.5715884" lon="103.3982504"><ele>757.84</ele><time>2026-06-27T23:07:24.000Z</time></trkpt>
        <trkpt lat="29.5716021" lon="103.3983768"><ele>769.33</ele><time>2026-06-27T23:08:08.000Z</time></trkpt>
        <trkpt lat="29.5716082" lon="103.3985117"><ele>780.47</ele><time>2026-06-27T23:08:18.000Z</time></trkpt>
        <trkpt lat="29.5716767" lon="103.3985888"><ele>787.87</ele><time>2026-06-27T23:08:54.000Z</time></trkpt>
        <trkpt lat="29.5717798" lon="103.3985915"><ele>793.32</ele><time>2026-06-27T23:09:02.000Z</time></trkpt>
        <trkpt lat="29.5718891" lon="103.398596"><ele>796.38</ele><time>2026-06-27T23:09:10.000Z</time></trkpt>
        <trkpt lat="29.5719616" lon="103.3986755"><ele>799.97</ele><time>2026-06-27T23:09:18.000Z</time></trkpt>
        <trkpt lat="29.5720287" lon="103.398757"><ele>800.25</ele><time>2026-06-27T23:09:26.000Z</time></trkpt>
        <trkpt lat="29.5721211" lon="103.3987884"><ele>800.48</ele><time>2026-06-27T23:09:38.000Z</time></trkpt>
        <trkpt lat="29.5722146" lon="103.3987947"><ele>800.55</ele><time>2026-06-27T23:09:46.000Z</time></trkpt>
        <trkpt lat="29.5723097" lon="103.3988139"><ele>800.49</ele><time>2026-06-27T23:09:56.000Z</time></trkpt>
        <trkpt lat="29.5724094" lon="103.3988347"><ele>799.85</ele><time>2026-06-27T23:10:08.000Z</time></trkpt>
        <trkpt lat="29.5725059" lon="103.3988532"><ele>798.41</ele><time>2026-06-27T23:10:22.000Z</time></trkpt>
        <trkpt lat="29.5726087" lon="103.3988674"><ele>795.84</ele><time>2026-06-27T23:10:32.000Z</time></trkpt>
        <trkpt lat="29.5727102" lon="103.3988602"><ele>793.94</ele><time>2026-06-27T23:10:42.000Z</time></trkpt>
        <trkpt lat="29.5728065" lon="103.3988926"><ele>792.31</ele><time>2026-06-27T23:10:52.000Z</time></trkpt>
        <trkpt lat="29.5728516" lon="103.3989864"><ele>789.92</ele><time>2026-06-27T23:11:08.000Z</time></trkpt>
        <trkpt lat="29.5728938" lon="103.3990846"><ele>784.6</ele><time>2026-06-27T23:11:18.000Z</time></trkpt>
        <trkpt lat="29.5729382" lon="103.3991924"><ele>780.44</ele><time>2026-06-27T23:11:30.000Z</time></trkpt>
        <trkpt lat="29.5729653" lon="103.3993033"><ele>777.79</ele><time>2026-06-27T23:11:40.000Z</time></trkpt>
        <trkpt lat="29.5729813" lon="103.3994141"><ele>775.86</ele><time>2026-06-27T23:11:58.000Z</time></trkpt>
        <trkpt lat="29.5730043" lon="103.3995249"><ele>775.1</ele><time>2026-06-27T23:12:08.000Z</time></trkpt>
        <trkpt lat="29.5730316" lon="103.3996523"><ele>773.82</ele><time>2026-06-27T23:12:16.000Z</time></trkpt>
        <trkpt lat="29.5730311" lon="103.399773"><ele>773.89</ele><time>2026-06-27T23:12:34.000Z</time></trkpt>
        <trkpt lat="29.5730321" lon="103.3998858"><ele>774.54</ele><time>2026-06-27T23:12:42.000Z</time></trkpt>
        <trkpt lat="29.5730322" lon="103.4000074"><ele>774.18</ele><time>2026-06-27T23:12:50.000Z</time></trkpt>
        <trkpt lat="29.5730324" lon="103.4001404"><ele>772.51</ele><time>2026-06-27T23:12:56.000Z</time></trkpt>
        <trkpt lat="29.5730509" lon="103.4002681"><ele>770.34</ele><time>2026-06-27T23:13:00.000Z</time></trkpt>
        <trkpt lat="29.5730672" lon="103.4003963"><ele>769.44</ele><time>2026-06-27T23:13:06.000Z</time></trkpt>
        <trkpt lat="29.5730349" lon="103.4005154"><ele>769.61</ele><time>2026-06-27T23:13:12.000Z</time></trkpt>
        <trkpt lat="29.572951" lon="103.4005106"><ele>770.71</ele><time>2026-06-27T23:13:16.000Z</time></trkpt>
        <trkpt lat="29.5728658" lon="103.4004425"><ele>771.19</ele><time>2026-06-27T23:13:22.000Z</time></trkpt>
        <trkpt lat="29.5727686" lon="103.4003858"><ele>771.17</ele><time>2026-06-27T23:13:34.000Z</time></trkpt>
        <trkpt lat="29.5726823" lon="103.4004116"><ele>771.34</ele><time>2026-06-27T23:13:44.000Z</time></trkpt>
        <trkpt lat="29.5726997" lon="103.4005013"><ele>770.39</ele><time>2026-06-27T23:14:34.000Z</time></trkpt>
        <trkpt lat="29.5727794" lon="103.400592"><ele>766.87</ele><time>2026-06-27T23:14:40.000Z</time></trkpt>
        <trkpt lat="29.5728741" lon="103.4006783"><ele>762.8</ele><time>2026-06-27T23:14:44.000Z</time></trkpt>
        <trkpt lat="29.5729217" lon="103.4007839"><ele>759.58</ele><time>2026-06-27T23:14:48.000Z</time></trkpt>
        <trkpt lat="29.57283" lon="103.4008227"><ele>757.66</ele><time>2026-06-27T23:14:54.000Z</time></trkpt>
        <trkpt lat="29.5727291" lon="103.4007896"><ele>754.94</ele><time>2026-06-27T23:14:58.000Z</time></trkpt>
        <trkpt lat="29.5726337" lon="103.4007279"><ele>753.24</ele><time>2026-06-27T23:15:02.000Z</time></trkpt>
        <trkpt lat="29.5725188" lon="103.4006572"><ele>751.93</ele><time>2026-06-27T23:15:06.000Z</time></trkpt>
        <trkpt lat="29.5724122" lon="103.4005836"><ele>751.05</ele><time>2026-06-27T23:15:10.000Z</time></trkpt>
        <trkpt lat="29.5723119" lon="103.4005116"><ele>750.2</ele><time>2026-06-27T23:15:16.000Z</time></trkpt>
        <trkpt lat="29.5722154" lon="103.4005055"><ele>748.93</ele><time>2026-06-27T23:15:24.000Z</time></trkpt>
        <trkpt lat="29.572191" lon="103.4006087"><ele>747.24</ele><time>2026-06-27T23:15:34.000Z</time></trkpt>
        <trkpt lat="29.5722159" lon="103.4007449"><ele>744.2</ele><time>2026-06-27T23:15:38.000Z</time></trkpt>
        <trkpt lat="29.5722651" lon="103.4008875"><ele>741.48</ele><time>2026-06-27T23:15:44.000Z</time></trkpt>
        <trkpt lat="29.5723256" lon="103.4009972"><ele>738.27</ele><time>2026-06-27T23:15:52.000Z</time></trkpt>
        <trkpt lat="29.5723924" lon="103.4010875"><ele>735.86</ele><time>2026-06-27T23:16:04.000Z</time></trkpt>
        <trkpt lat="29.5723796" lon="103.4011936"><ele>732.46</ele><time>2026-06-27T23:16:14.000Z</time></trkpt>
        <trkpt lat="29.5723436" lon="103.4013139"><ele>729.55</ele><time>2026-06-27T23:16:26.000Z</time></trkpt>
        <trkpt lat="29.5723013" lon="103.4014207"><ele>726.29</ele><time>2026-06-27T23:16:32.000Z</time></trkpt>
        <trkpt lat="29.5722634" lon="103.4015272"><ele>724.89</ele><time>2026-06-27T23:16:38.000Z</time></trkpt>
        <trkpt lat="29.5722317" lon="103.4016364"><ele>725.27</ele><time>2026-06-27T23:16:46.000Z</time></trkpt>
        <trkpt lat="29.572151" lon="103.4017053"><ele>725.99</ele><time>2026-06-27T23:16:54.000Z</time></trkpt>
        <trkpt lat="29.5720598" lon="103.401768"><ele>727.6</ele><time>2026-06-27T23:17:02.000Z</time></trkpt>
        <trkpt lat="29.5719577" lon="103.4018212"><ele>729.66</ele><time>2026-06-27T23:17:10.000Z</time></trkpt>
        <trkpt lat="29.5718706" lon="103.4018744"><ele>730.65</ele><time>2026-06-27T23:17:18.000Z</time></trkpt>
        <trkpt lat="29.5717886" lon="103.4019305"><ele>729.63</ele><time>2026-06-27T23:17:26.000Z</time></trkpt>
        <trkpt lat="29.5716838" lon="103.4019182"><ele>728.38</ele><time>2026-06-27T23:17:34.000Z</time></trkpt>
        <trkpt lat="29.5715767" lon="103.4019031"><ele>727.29</ele><time>2026-06-27T23:17:42.000Z</time></trkpt>
        <trkpt lat="29.571494" lon="103.4019413"><ele>726.31</ele><time>2026-06-27T23:17:48.000Z</time></trkpt>
        <trkpt lat="29.57144" lon="103.4020315"><ele>724.72</ele><time>2026-06-27T23:17:56.000Z</time></trkpt>
        <trkpt lat="29.5713979" lon="103.4021473"><ele>722.49</ele><time>2026-06-27T23:18:04.000Z</time></trkpt>
        <trkpt lat="29.5713281" lon="103.4022541"><ele>719.8</ele><time>2026-06-27T23:18:14.000Z</time></trkpt>
        <trkpt lat="29.5712454" lon="103.4023369"><ele>717.32</ele><time>2026-06-27T23:18:22.000Z</time></trkpt>
        <trkpt lat="29.5711753" lon="103.4024226"><ele>715.48</ele><time>2026-06-27T23:18:30.000Z</time></trkpt>
        <trkpt lat="29.5710995" lon="103.4024983"><ele>713.88</ele><time>2026-06-27T23:18:38.000Z</time></trkpt>
        <trkpt lat="29.5710347" lon="103.402579"><ele>713.06</ele><time>2026-06-27T23:18:46.000Z</time></trkpt>
        <trkpt lat="29.5709734" lon="103.4026617"><ele>711.83</ele><time>2026-06-27T23:18:52.000Z</time></trkpt>
        <trkpt lat="29.5708761" lon="103.4027039"><ele>711.28</ele><time>2026-06-27T23:19:00.000Z</time></trkpt>
        <trkpt lat="29.5707726" lon="103.4027184"><ele>710.67</ele><time>2026-06-27T23:19:08.000Z</time></trkpt>
        <trkpt lat="29.5706759" lon="103.402726"><ele>709.82</ele><time>2026-06-27T23:19:16.000Z</time></trkpt>
        <trkpt lat="29.5705788" lon="103.4027435"><ele>708.35</ele><time>2026-06-27T23:19:32.000Z</time></trkpt>
        <trkpt lat="29.5704841" lon="103.4027633"><ele>706.25</ele><time>2026-06-27T23:19:40.000Z</time></trkpt>
        <trkpt lat="29.5703865" lon="103.4027892"><ele>704.57</ele><time>2026-06-27T23:19:50.000Z</time></trkpt>
        <trkpt lat="29.5702745" lon="103.4028052"><ele>704.4</ele><time>2026-06-27T23:19:58.000Z</time></trkpt>
        <trkpt lat="29.5701707" lon="103.4028228"><ele>704.2</ele><time>2026-06-27T23:20:06.000Z</time></trkpt>
        <trkpt lat="29.5701" lon="103.4028883"><ele>704.8</ele><time>2026-06-27T23:20:16.000Z</time></trkpt>
        <trkpt lat="29.5700563" lon="103.4029835"><ele>705.8</ele><time>2026-06-27T23:20:30.000Z</time></trkpt>
        <trkpt lat="29.5700225" lon="103.4030906"><ele>707.46</ele><time>2026-06-27T23:20:40.000Z</time></trkpt>
        <trkpt lat="29.5699878" lon="103.4031966"><ele>708.52</ele><time>2026-06-27T23:20:48.000Z</time></trkpt>
        <trkpt lat="29.5699297" lon="103.4032977"><ele>708.74</ele><time>2026-06-27T23:20:56.000Z</time></trkpt>
        <trkpt lat="29.569881" lon="103.4033947"><ele>709.23</ele><time>2026-06-27T23:21:04.000Z</time></trkpt>
        <trkpt lat="29.569817" lon="103.4034847"><ele>709.66</ele><time>2026-06-27T23:21:12.000Z</time></trkpt>
        <trkpt lat="29.5697468" lon="103.4035606"><ele>709.86</ele><time>2026-06-27T23:21:20.000Z</time></trkpt>
        <trkpt lat="29.5696684" lon="103.4036221"><ele>710.96</ele><time>2026-06-27T23:21:28.000Z</time></trkpt>
        <trkpt lat="29.5695764" lon="103.4036858"><ele>711.42</ele><time>2026-06-27T23:21:36.000Z</time></trkpt>
        <trkpt lat="29.5694914" lon="103.4037524"><ele>712.3</ele><time>2026-06-27T23:21:44.000Z</time></trkpt>
        <trkpt lat="29.5694063" lon="103.4038068"><ele>712.69</ele><time>2026-06-27T23:21:52.000Z</time></trkpt>
        <trkpt lat="29.5693131" lon="103.4038564"><ele>713.24</ele><time>2026-06-27T23:22:00.000Z</time></trkpt>
        <trkpt lat="29.5692176" lon="103.4038957"><ele>713.91</ele><time>2026-06-27T23:22:08.000Z</time></trkpt>
        <trkpt lat="29.5691147" lon="103.4039388"><ele>714.41</ele><time>2026-06-27T23:22:18.000Z</time></trkpt>
        <trkpt lat="29.5690112" lon="103.4039347"><ele>715.6</ele><time>2026-06-27T23:22:28.000Z</time></trkpt>
        <trkpt lat="29.5689084" lon="103.4039151"><ele>717.1</ele><time>2026-06-27T23:22:36.000Z</time></trkpt>
        <trkpt lat="29.568805" lon="103.4039483"><ele>719.27</ele><time>2026-06-27T23:22:46.000Z</time></trkpt>
        <trkpt lat="29.5687391" lon="103.4040427"><ele>721.9</ele><time>2026-06-27T23:22:54.000Z</time></trkpt>
        <trkpt lat="29.5686636" lon="103.4041427"><ele>724.82</ele><time>2026-06-27T23:23:04.000Z</time></trkpt>
        <trkpt lat="29.5685998" lon="103.4042304"><ele>727.39</ele><time>2026-06-27T23:23:12.000Z</time></trkpt>
        <trkpt lat="29.5685603" lon="103.4043323"><ele>729.2</ele><time>2026-06-27T23:23:20.000Z</time></trkpt>
        <trkpt lat="29.5685379" lon="103.4044361"><ele>730.6</ele><time>2026-06-27T23:23:28.000Z</time></trkpt>
        <trkpt lat="29.5684846" lon="103.4045339"><ele>732.04</ele><time>2026-06-27T23:23:38.000Z</time></trkpt>
        <trkpt lat="29.5684265" lon="103.4046287"><ele>733.52</ele><time>2026-06-27T23:23:46.000Z</time></trkpt>
        <trkpt lat="29.568368" lon="103.4047224"><ele>734.85</ele><time>2026-06-27T23:23:54.000Z</time></trkpt>
        <trkpt lat="29.5682972" lon="103.4048152"><ele>736.11</ele><time>2026-06-27T23:24:04.000Z</time></trkpt>
        <trkpt lat="29.5682157" lon="103.4048772"><ele>737.1</ele><time>2026-06-27T23:24:12.000Z</time></trkpt>
        <trkpt lat="29.5681286" lon="103.4049326"><ele>737.86</ele><time>2026-06-27T23:24:20.000Z</time></trkpt>
        <trkpt lat="29.5680395" lon="103.4049964"><ele>738.91</ele><time>2026-06-27T23:24:28.000Z</time></trkpt>
        <trkpt lat="29.5679501" lon="103.4050488"><ele>740.17</ele><time>2026-06-27T23:24:36.000Z</time></trkpt>
        <trkpt lat="29.5678507" lon="103.4050868"><ele>741.32</ele><time>2026-06-27T23:24:44.000Z</time></trkpt>
        <trkpt lat="29.5677394" lon="103.4050962"><ele>741.97</ele><time>2026-06-27T23:24:52.000Z</time></trkpt>
        <trkpt lat="29.5676399" lon="103.4050905"><ele>742.37</ele><time>2026-06-27T23:25:00.000Z</time></trkpt>
        <trkpt lat="29.5675403" lon="103.4050775"><ele>743.05</ele><time>2026-06-27T23:25:08.000Z</time></trkpt>
        <trkpt lat="29.5674388" lon="103.405062"><ele>744.08</ele><time>2026-06-27T23:25:16.000Z</time></trkpt>
        <trkpt lat="29.5673307" lon="103.4050752"><ele>745.39</ele><time>2026-06-27T23:25:26.000Z</time></trkpt>
        <trkpt lat="29.5672331" lon="103.4051003"><ele>746.94</ele><time>2026-06-27T23:25:34.000Z</time></trkpt>
        <trkpt lat="29.5671391" lon="103.4051203"><ele>748.16</ele><time>2026-06-27T23:25:42.000Z</time></trkpt>
        <trkpt lat="29.5670328" lon="103.4051389"><ele>749.28</ele><time>2026-06-27T23:25:50.000Z</time></trkpt>
        <trkpt lat="29.5669299" lon="103.4051341"><ele>750.01</ele><time>2026-06-27T23:25:58.000Z</time></trkpt>
        <trkpt lat="29.5668362" lon="103.4051243"><ele>750.47</ele><time>2026-06-27T23:26:04.000Z</time></trkpt>
        <trkpt lat="29.5667703" lon="103.4051885"><ele>750.92</ele><time>2026-06-27T23:26:14.000Z</time></trkpt>
        <trkpt lat="29.5667791" lon="103.4052945"><ele>751.37</ele><time>2026-06-27T23:26:22.000Z</time></trkpt>
        <trkpt lat="29.5668144" lon="103.4054045"><ele>751.95</ele><time>2026-06-27T23:26:28.000Z</time></trkpt>
        <trkpt lat="29.5668896" lon="103.4055083"><ele>752.47</ele><time>2026-06-27T23:26:36.000Z</time></trkpt>
        <trkpt lat="29.5669711" lon="103.4055981"><ele>751.82</ele><time>2026-06-27T23:26:44.000Z</time></trkpt>
        <trkpt lat="29.5670485" lon="103.4056863"><ele>750.73</ele><time>2026-06-27T23:26:54.000Z</time></trkpt>
        <trkpt lat="29.5671398" lon="103.4057598"><ele>749.43</ele><time>2026-06-27T23:27:04.000Z</time></trkpt>
        <trkpt lat="29.5672185" lon="103.4058317"><ele>748.47</ele><time>2026-06-27T23:27:10.000Z</time></trkpt>
        <trkpt lat="29.5671966" lon="103.4059289"><ele>747.45</ele><time>2026-06-27T23:27:22.000Z</time></trkpt>
        <trkpt lat="29.5671402" lon="103.4060225"><ele>746.46</ele><time>2026-06-27T23:27:30.000Z</time></trkpt>
        <trkpt lat="29.5670737" lon="103.4061186"><ele>746.03</ele><time>2026-06-27T23:27:40.000Z</time></trkpt>
        <trkpt lat="29.5670045" lon="103.4062129"><ele>746.3</ele><time>2026-06-27T23:27:48.000Z</time></trkpt>
        <trkpt lat="29.5669396" lon="103.4063052"><ele>747.28</ele><time>2026-06-27T23:27:58.000Z</time></trkpt>
        <trkpt lat="29.5668798" lon="103.4063974"><ele>747.64</ele><time>2026-06-27T23:28:08.000Z</time></trkpt>
        <trkpt lat="29.5668102" lon="103.4064856"><ele>748</ele><time>2026-06-27T23:28:18.000Z</time></trkpt>
        <trkpt lat="29.5667287" lon="103.4065785"><ele>748.83</ele><time>2026-06-27T23:28:26.000Z</time></trkpt>
        <trkpt lat="29.5666594" lon="103.4066591"><ele>752.77</ele><time>2026-06-27T23:28:34.000Z</time></trkpt>
        <trkpt lat="29.5665975" lon="103.4067423"><ele>755.81</ele><time>2026-06-27T23:28:42.000Z</time></trkpt>
        <trkpt lat="29.5665193" lon="103.4068184"><ele>757.81</ele><time>2026-06-27T23:28:50.000Z</time></trkpt>
        <trkpt lat="29.5664542" lon="103.4069197"><ele>758.75</ele><time>2026-06-27T23:29:00.000Z</time></trkpt>
        <trkpt lat="29.5664232" lon="103.4070396"><ele>758.84</ele><time>2026-06-27T23:29:08.000Z</time></trkpt>
        <trkpt lat="29.5664412" lon="103.4071649"><ele>758.68</ele><time>2026-06-27T23:29:16.000Z</time></trkpt>
        <trkpt lat="29.5664833" lon="103.4072757"><ele>758.86</ele><time>2026-06-27T23:29:26.000Z</time></trkpt>
        <trkpt lat="29.5665047" lon="103.4073906"><ele>759.64</ele><time>2026-06-27T23:29:34.000Z</time></trkpt>
        <trkpt lat="29.5665314" lon="103.4075018"><ele>760.56</ele><time>2026-06-27T23:29:44.000Z</time></trkpt>
        <trkpt lat="29.5665921" lon="103.4076101"><ele>761.89</ele><time>2026-06-27T23:29:54.000Z</time></trkpt>
        <trkpt lat="29.566643" lon="103.4077175"><ele>763.07</ele><time>2026-06-27T23:30:06.000Z</time></trkpt>
        <trkpt lat="29.5666871" lon="103.4078289"><ele>764.61</ele><time>2026-06-27T23:30:16.000Z</time></trkpt>
        <trkpt lat="29.5667258" lon="103.4079717"><ele>765.39</ele><time>2026-06-27T23:30:28.000Z</time></trkpt>
        <trkpt lat="29.5667774" lon="103.4081022"><ele>766.41</ele><time>2026-06-27T23:30:34.000Z</time></trkpt>
        <trkpt lat="29.5667765" lon="103.4082176"><ele>767.47</ele><time>2026-06-27T23:30:44.000Z</time></trkpt>
        <trkpt lat="29.5667385" lon="103.4083167"><ele>768.5</ele><time>2026-06-27T23:30:52.000Z</time></trkpt>
        <trkpt lat="29.5667349" lon="103.4084253"><ele>769.86</ele><time>2026-06-27T23:31:02.000Z</time></trkpt>
        <trkpt lat="29.5668053" lon="103.408485"><ele>771.28</ele><time>2026-06-27T23:31:10.000Z</time></trkpt>
        <trkpt lat="29.5669037" lon="103.4085009"><ele>772.31</ele><time>2026-06-27T23:31:18.000Z</time></trkpt>
        <trkpt lat="29.567015" lon="103.4085012"><ele>772.82</ele><time>2026-06-27T23:31:26.000Z</time></trkpt>
        <trkpt lat="29.5671198" lon="103.4084899"><ele>773.03</ele><time>2026-06-27T23:31:36.000Z</time></trkpt>
        <trkpt lat="29.5672309" lon="103.4085058"><ele>772.85</ele><time>2026-06-27T23:31:46.000Z</time></trkpt>
        <trkpt lat="29.5673226" lon="103.4085475"><ele>773.02</ele><time>2026-06-27T23:31:54.000Z</time></trkpt>
        <trkpt lat="29.5673997" lon="103.4086056"><ele>772.97</ele><time>2026-06-27T23:32:02.000Z</time></trkpt>
        <trkpt lat="29.5674859" lon="103.4086619"><ele>773.1</ele><time>2026-06-27T23:32:12.000Z</time></trkpt>
        <trkpt lat="29.5675742" lon="103.4086682"><ele>772.91</ele><time>2026-06-27T23:32:24.000Z</time></trkpt>
        <trkpt lat="29.5676401" lon="103.40859"><ele>772.76</ele><time>2026-06-27T23:32:36.000Z</time></trkpt>
        <trkpt lat="29.567648" lon="103.408473"><ele>773.12</ele><time>2026-06-27T23:32:44.000Z</time></trkpt>
        <trkpt lat="29.5677134" lon="103.4084419"><ele>773.08</ele><time>2026-06-27T23:32:56.000Z</time></trkpt>
        <trkpt lat="29.5677968" lon="103.4084865"><ele>773.94</ele><time>2026-06-27T23:33:10.000Z</time></trkpt>
        <trkpt lat="29.5678524" lon="103.4085817"><ele>775.21</ele><time>2026-06-27T23:33:22.000Z</time></trkpt>
        <trkpt lat="29.567913" lon="103.4086788"><ele>777.68</ele><time>2026-06-27T23:33:36.000Z</time></trkpt>
        <trkpt lat="29.5679434" lon="103.4087963"><ele>780.83</ele><time>2026-06-27T23:33:52.000Z</time></trkpt>
        <trkpt lat="29.5679719" lon="103.4089126"><ele>783.89</ele><time>2026-06-27T23:34:06.000Z</time></trkpt>
        <trkpt lat="29.5679886" lon="103.4090255"><ele>787.72</ele><time>2026-06-27T23:34:20.000Z</time></trkpt>
        <trkpt lat="29.5680443" lon="103.4091159"><ele>789.22</ele><time>2026-06-27T23:34:34.000Z</time></trkpt>
        <trkpt lat="29.5680927" lon="103.4092111"><ele>792.4</ele><time>2026-06-27T23:34:50.000Z</time></trkpt>
        <trkpt lat="29.5681523" lon="103.4093134"><ele>795.68</ele><time>2026-06-27T23:35:20.000Z</time></trkpt>
        <trkpt lat="29.5682083" lon="103.4094238"><ele>800.4</ele><time>2026-06-27T23:35:28.000Z</time></trkpt>
        <trkpt lat="29.5682658" lon="103.4095225"><ele>803.37</ele><time>2026-06-27T23:35:46.000Z</time></trkpt>
        <trkpt lat="29.5683" lon="103.4096252"><ele>806.11</ele><time>2026-06-27T23:36:02.000Z</time></trkpt>
        <trkpt lat="29.5683453" lon="103.409733"><ele>807.87</ele><time>2026-06-27T23:36:34.000Z</time></trkpt>
        <trkpt lat="29.5683781" lon="103.4098378"><ele>810.96</ele><time>2026-06-27T23:36:44.000Z</time></trkpt>
        <trkpt lat="29.5684523" lon="103.409934"><ele>812.42</ele><time>2026-06-27T23:37:04.000Z</time></trkpt>
        <trkpt lat="29.5685437" lon="103.4099945"><ele>815.12</ele><time>2026-06-27T23:37:12.000Z</time></trkpt>
        <trkpt lat="29.568632" lon="103.4100571"><ele>817.48</ele><time>2026-06-27T23:37:22.000Z</time></trkpt>
        <trkpt lat="29.5686991" lon="103.4101488"><ele>819.27</ele><time>2026-06-27T23:37:32.000Z</time></trkpt>
        <trkpt lat="29.5687184" lon="103.410265"><ele>820.54</ele><time>2026-06-27T23:37:42.000Z</time></trkpt>
        <trkpt lat="29.5687104" lon="103.4103819"><ele>821.16</ele><time>2026-06-27T23:37:54.000Z</time></trkpt>
        <trkpt lat="29.5686936" lon="103.4105037"><ele>821.4</ele><time>2026-06-27T23:38:04.000Z</time></trkpt>
        <trkpt lat="29.5686711" lon="103.4106282"><ele>821.5</ele><time>2026-06-27T23:38:14.000Z</time></trkpt>
        <trkpt lat="29.5686364" lon="103.4107341"><ele>821.66</ele><time>2026-06-27T23:38:22.000Z</time></trkpt>
        <trkpt lat="29.5686028" lon="103.4108336"><ele>822.32</ele><time>2026-06-27T23:38:32.000Z</time></trkpt>
        <trkpt lat="29.568573" lon="103.4109346"><ele>822.78</ele><time>2026-06-27T23:38:42.000Z</time></trkpt>
        <trkpt lat="29.5685368" lon="103.4110398"><ele>823.43</ele><time>2026-06-27T23:38:52.000Z</time></trkpt>
        <trkpt lat="29.5685276" lon="103.4111461"><ele>824.11</ele><time>2026-06-27T23:38:58.000Z</time></trkpt>
        <trkpt lat="29.5685148" lon="103.4112663"><ele>824.93</ele><time>2026-06-27T23:39:04.000Z</time></trkpt>
        <trkpt lat="29.5684694" lon="103.4113755"><ele>825.89</ele><time>2026-06-27T23:39:14.000Z</time></trkpt>
        <trkpt lat="29.5684261" lon="103.4114929"><ele>826.76</ele><time>2026-06-27T23:39:24.000Z</time></trkpt>
        <trkpt lat="29.5684468" lon="103.4116031"><ele>827.28</ele><time>2026-06-27T23:39:36.000Z</time></trkpt>
        <trkpt lat="29.5684863" lon="103.4117082"><ele>828.62</ele><time>2026-06-27T23:39:46.000Z</time></trkpt>
        <trkpt lat="29.5685512" lon="103.4117975"><ele>831.03</ele><time>2026-06-27T23:39:58.000Z</time></trkpt>
        <trkpt lat="29.5686067" lon="103.4118957"><ele>833.19</ele><time>2026-06-27T23:40:10.000Z</time></trkpt>
        <trkpt lat="29.5686965" lon="103.411909"><ele>835.67</ele><time>2026-06-27T23:40:20.000Z</time></trkpt>
        <trkpt lat="29.5687925" lon="103.4119348"><ele>837.52</ele><time>2026-06-27T23:40:36.000Z</time></trkpt>
        <trkpt lat="29.5688904" lon="103.4119596"><ele>839.98</ele><time>2026-06-27T23:40:42.000Z</time></trkpt>
        <trkpt lat="29.5689725" lon="103.4120406"><ele>841.79</ele><time>2026-06-27T23:40:50.000Z</time></trkpt>
        <trkpt lat="29.5690239" lon="103.4121492"><ele>843.27</ele><time>2026-06-27T23:41:00.000Z</time></trkpt>
        <trkpt lat="29.5690987" lon="103.412207"><ele>844.4</ele><time>2026-06-27T23:41:30.000Z</time></trkpt>
        <trkpt lat="29.5691916" lon="103.4122417"><ele>847.44</ele><time>2026-06-27T23:41:56.000Z</time></trkpt>
        <trkpt lat="29.5692886" lon="103.412259"><ele>852.01</ele><time>2026-06-27T23:42:06.000Z</time></trkpt>
        <trkpt lat="29.5693781" lon="103.4123084"><ele>855.2</ele><time>2026-06-27T23:42:20.000Z</time></trkpt>
        <trkpt lat="29.5693952" lon="103.4124035"><ele>857.53</ele><time>2026-06-27T23:42:46.000Z</time></trkpt>
        <trkpt lat="29.5694039" lon="103.4125122"><ele>859.85</ele><time>2026-06-27T23:43:04.000Z</time></trkpt>
        <trkpt lat="29.5694139" lon="103.4126353"><ele>863</ele><time>2026-06-27T23:43:14.000Z</time></trkpt>
        <trkpt lat="29.5694416" lon="103.4127474"><ele>865.36</ele><time>2026-06-27T23:43:22.000Z</time></trkpt>
        <trkpt lat="29.569383" lon="103.4128117"><ele>866.65</ele><time>2026-06-27T23:43:32.000Z</time></trkpt>
        <trkpt lat="29.5692981" lon="103.4128638"><ele>867.81</ele><time>2026-06-27T23:43:40.000Z</time></trkpt>
        <trkpt lat="29.5692137" lon="103.4129352"><ele>868.2</ele><time>2026-06-27T23:43:48.000Z</time></trkpt>
        <trkpt lat="29.5691382" lon="103.4130099"><ele>868.7</ele><time>2026-06-27T23:43:56.000Z</time></trkpt>
        <trkpt lat="29.5690872" lon="103.4131027"><ele>870.21</ele><time>2026-06-27T23:44:06.000Z</time></trkpt>
        <trkpt lat="29.5690485" lon="103.413202"><ele>871.99</ele><time>2026-06-27T23:44:16.000Z</time></trkpt>
        <trkpt lat="29.5690491" lon="103.413331"><ele>873.02</ele><time>2026-06-27T23:44:24.000Z</time></trkpt>
        <trkpt lat="29.5690416" lon="103.4134445"><ele>873.28</ele><time>2026-06-27T23:44:40.000Z</time></trkpt>
        <trkpt lat="29.5690509" lon="103.4135653"><ele>872.6</ele><time>2026-06-27T23:44:56.000Z</time></trkpt>
        <trkpt lat="29.5690895" lon="103.4136711"><ele>873.32</ele><time>2026-06-27T23:45:04.000Z</time></trkpt>
        <trkpt lat="29.5691415" lon="103.4137743"><ele>873.82</ele><time>2026-06-27T23:45:14.000Z</time></trkpt>
        <trkpt lat="29.5691813" lon="103.413905"><ele>876.55</ele><time>2026-06-27T23:45:34.000Z</time></trkpt>
        <trkpt lat="29.5691647" lon="103.4140217"><ele>878.5</ele><time>2026-06-27T23:45:38.000Z</time></trkpt>
        <trkpt lat="29.5691539" lon="103.4141385"><ele>879.03</ele><time>2026-06-27T23:45:44.000Z</time></trkpt>
        <trkpt lat="29.5691674" lon="103.4142556"><ele>878.69</ele><time>2026-06-27T23:45:54.000Z</time></trkpt>
        <trkpt lat="29.5691608" lon="103.4143687"><ele>878.57</ele><time>2026-06-27T23:46:02.000Z</time></trkpt>
        <trkpt lat="29.5691758" lon="103.4144902"><ele>877.69</ele><time>2026-06-27T23:46:10.000Z</time></trkpt>
        <trkpt lat="29.5692019" lon="103.4145957"><ele>876.78</ele><time>2026-06-27T23:46:18.000Z</time></trkpt>
        <trkpt lat="29.5692179" lon="103.4147067"><ele>876.37</ele><time>2026-06-27T23:46:26.000Z</time></trkpt>
        <trkpt lat="29.5692834" lon="103.4148"><ele>876.94</ele><time>2026-06-27T23:46:34.000Z</time></trkpt>
        <trkpt lat="29.5693788" lon="103.4148373"><ele>876.4</ele><time>2026-06-27T23:46:52.000Z</time></trkpt>
        <trkpt lat="29.5694854" lon="103.4148141"><ele>877.34</ele><time>2026-06-27T23:47:02.000Z</time></trkpt>
        <trkpt lat="29.5695883" lon="103.4147502"><ele>878.97</ele><time>2026-06-27T23:47:14.000Z</time></trkpt>
        <trkpt lat="29.5696857" lon="103.4147273"><ele>880.76</ele><time>2026-06-27T23:47:20.000Z</time></trkpt>
        <trkpt lat="29.5697656" lon="103.4147869"><ele>881.3</ele><time>2026-06-27T23:47:30.000Z</time></trkpt>
        <trkpt lat="29.5698293" lon="103.4148734"><ele>882.17</ele><time>2026-06-27T23:47:38.000Z</time></trkpt>
        <trkpt lat="29.5698906" lon="103.4149572"><ele>882.75</ele><time>2026-06-27T23:47:46.000Z</time></trkpt>
        <trkpt lat="29.5699243" lon="103.4150634"><ele>883.84</ele><time>2026-06-27T23:47:58.000Z</time></trkpt>
        <trkpt lat="29.5699227" lon="103.4152059"><ele>886.1</ele><time>2026-06-27T23:48:04.000Z</time></trkpt>
        <trkpt lat="29.5699264" lon="103.4153271"><ele>888.23</ele><time>2026-06-27T23:48:12.000Z</time></trkpt>
        <trkpt lat="29.5699654" lon="103.4154333"><ele>890.05</ele><time>2026-06-27T23:48:20.000Z</time></trkpt>
        <trkpt lat="29.5700325" lon="103.4155166"><ele>891.09</ele><time>2026-06-27T23:48:30.000Z</time></trkpt>
        <trkpt lat="29.5701258" lon="103.4155615"><ele>891.91</ele><time>2026-06-27T23:49:04.000Z</time></trkpt>
        <trkpt lat="29.570224" lon="103.4155793"><ele>891.32</ele><time>2026-06-27T23:49:10.000Z</time></trkpt>
        <trkpt lat="29.5703228" lon="103.4155851"><ele>891.06</ele><time>2026-06-27T23:49:18.000Z</time></trkpt>
        <trkpt lat="29.5704134" lon="103.415631"><ele>890.82</ele><time>2026-06-27T23:49:30.000Z</time></trkpt>
        <trkpt lat="29.570492" lon="103.4157215"><ele>890.36</ele><time>2026-06-27T23:49:38.000Z</time></trkpt>
        <trkpt lat="29.5705744" lon="103.415797"><ele>888.82</ele><time>2026-06-27T23:49:48.000Z</time></trkpt>
        <trkpt lat="29.570665" lon="103.4158515"><ele>887.25</ele><time>2026-06-27T23:49:58.000Z</time></trkpt>
        <trkpt lat="29.5707431" lon="103.4159544"><ele>886.36</ele><time>2026-06-27T23:50:40.000Z</time></trkpt>
        <trkpt lat="29.570743" lon="103.4160614"><ele>886.03</ele><time>2026-06-27T23:51:08.000Z</time></trkpt>
        <trkpt lat="29.570652" lon="103.4161398"><ele>888.03</ele><time>2026-06-27T23:51:14.000Z</time></trkpt>
        <trkpt lat="29.5705594" lon="103.4162126"><ele>888.55</ele><time>2026-06-27T23:51:22.000Z</time></trkpt>
        <trkpt lat="29.5704664" lon="103.4162865"><ele>888.26</ele><time>2026-06-27T23:51:36.000Z</time></trkpt>
        <trkpt lat="29.5704158" lon="103.416383"><ele>886.83</ele><time>2026-06-27T23:51:46.000Z</time></trkpt>
        <trkpt lat="29.5704224" lon="103.4164957"><ele>885.43</ele><time>2026-06-27T23:51:56.000Z</time></trkpt>
        <trkpt lat="29.5703958" lon="103.4166005"><ele>884.42</ele><time>2026-06-27T23:52:08.000Z</time></trkpt>
        <trkpt lat="29.5703757" lon="103.4167181"><ele>884.23</ele><time>2026-06-27T23:52:20.000Z</time></trkpt>
        <trkpt lat="29.570384" lon="103.4168309"><ele>884.08</ele><time>2026-06-27T23:52:30.000Z</time></trkpt>
        <trkpt lat="29.5704022" lon="103.4169529"><ele>884.1</ele><time>2026-06-27T23:52:40.000Z</time></trkpt>
        <trkpt lat="29.5703856" lon="103.4170659"><ele>883.83</ele><time>2026-06-27T23:52:48.000Z</time></trkpt>
        <trkpt lat="29.5702953" lon="103.417112"><ele>882.38</ele><time>2026-06-27T23:52:58.000Z</time></trkpt>
        <trkpt lat="29.5701975" lon="103.4171412"><ele>881.15</ele><time>2026-06-27T23:53:10.000Z</time></trkpt>
        <trkpt lat="29.5701354" lon="103.417231"><ele>881.9</ele><time>2026-06-27T23:53:20.000Z</time></trkpt>
        <trkpt lat="29.5701477" lon="103.4173301"><ele>882.23</ele><time>2026-06-27T23:53:32.000Z</time></trkpt>
        <trkpt lat="29.5701472" lon="103.4174366"><ele>884.42</ele><time>2026-06-27T23:53:38.000Z</time></trkpt>
        <trkpt lat="29.5701266" lon="103.4175505"><ele>885.16</ele><time>2026-06-27T23:53:46.000Z</time></trkpt>
        <trkpt lat="29.5701131" lon="103.4176668"><ele>885.32</ele><time>2026-06-27T23:53:56.000Z</time></trkpt>
        <trkpt lat="29.5700774" lon="103.4177721"><ele>884.38</ele><time>2026-06-27T23:54:06.000Z</time></trkpt>
        <trkpt lat="29.5700306" lon="103.4178651"><ele>883.25</ele><time>2026-06-27T23:54:14.000Z</time></trkpt>
        <trkpt lat="29.5699598" lon="103.4179658"><ele>882.69</ele><time>2026-06-27T23:54:24.000Z</time></trkpt>
        <trkpt lat="29.5698839" lon="103.4180679"><ele>882.25</ele><time>2026-06-27T23:54:32.000Z</time></trkpt>
        <trkpt lat="29.569853" lon="103.4181859"><ele>881.64</ele><time>2026-06-27T23:54:42.000Z</time></trkpt>
        <trkpt lat="29.5698586" lon="103.4183103"><ele>879.92</ele><time>2026-06-27T23:54:54.000Z</time></trkpt>
        <trkpt lat="29.5698681" lon="103.4184365"><ele>881.31</ele><time>2026-06-27T23:55:04.000Z</time></trkpt>
        <trkpt lat="29.569845" lon="103.4185396"><ele>882.5</ele><time>2026-06-27T23:55:14.000Z</time></trkpt>
        <trkpt lat="29.5698223" lon="103.4186471"><ele>883.1</ele><time>2026-06-27T23:55:24.000Z</time></trkpt>
        <trkpt lat="29.5697859" lon="103.4187604"><ele>883.9</ele><time>2026-06-27T23:55:36.000Z</time></trkpt>
        <trkpt lat="29.569757" lon="103.4188742"><ele>884.71</ele><time>2026-06-27T23:55:44.000Z</time></trkpt>
        <trkpt lat="29.5697472" lon="103.418999"><ele>885.68</ele><time>2026-06-27T23:55:54.000Z</time></trkpt>
        <trkpt lat="29.5697458" lon="103.4191103"><ele>886.58</ele><time>2026-06-27T23:56:00.000Z</time></trkpt>
        <trkpt lat="29.5697799" lon="103.4192209"><ele>886.78</ele><time>2026-06-27T23:56:08.000Z</time></trkpt>
        <trkpt lat="29.5697739" lon="103.419322"><ele>887.14</ele><time>2026-06-27T23:56:16.000Z</time></trkpt>
        <trkpt lat="29.5697162" lon="103.4194139"><ele>887.67</ele><time>2026-06-27T23:56:26.000Z</time></trkpt>
        <trkpt lat="29.5696457" lon="103.4194889"><ele>887.94</ele><time>2026-06-27T23:56:34.000Z</time></trkpt>
        <trkpt lat="29.5695772" lon="103.419569"><ele>888.12</ele><time>2026-06-27T23:56:44.000Z</time></trkpt>
        <trkpt lat="29.5695173" lon="103.4196503"><ele>888.76</ele><time>2026-06-27T23:56:54.000Z</time></trkpt>
        <trkpt lat="29.5694443" lon="103.4197168"><ele>888.54</ele><time>2026-06-27T23:57:02.000Z</time></trkpt>
        <trkpt lat="29.5693657" lon="103.4197745"><ele>889.73</ele><time>2026-06-27T23:57:10.000Z</time></trkpt>
        <trkpt lat="29.569276" lon="103.4198129"><ele>891.07</ele><time>2026-06-27T23:57:24.000Z</time></trkpt>
        <trkpt lat="29.5691791" lon="103.4198449"><ele>892.64</ele><time>2026-06-27T23:57:40.000Z</time></trkpt>
        <trkpt lat="29.5690732" lon="103.4198688"><ele>894.67</ele><time>2026-06-27T23:57:50.000Z</time></trkpt>
        <trkpt lat="29.5689836" lon="103.4199136"><ele>895.48</ele><time>2026-06-27T23:57:58.000Z</time></trkpt>
        <trkpt lat="29.5688976" lon="103.4199618"><ele>896.43</ele><time>2026-06-27T23:58:10.000Z</time></trkpt>
        <trkpt lat="29.5688187" lon="103.4200291"><ele>895.7</ele><time>2026-06-27T23:58:24.000Z</time></trkpt>
        <trkpt lat="29.5687385" lon="103.4200823"><ele>893.15</ele><time>2026-06-27T23:58:32.000Z</time></trkpt>
        <trkpt lat="29.5686484" lon="103.4201134"><ele>891.17</ele><time>2026-06-27T23:58:48.000Z</time></trkpt>
        <trkpt lat="29.5685583" lon="103.4201295"><ele>889.19</ele><time>2026-06-27T23:59:12.000Z</time></trkpt>
        <trkpt lat="29.5684674" lon="103.4201079"><ele>885.88</ele><time>2026-06-27T23:59:24.000Z</time></trkpt>
        <trkpt lat="29.5683716" lon="103.4201038"><ele>883.96</ele><time>2026-06-27T23:59:34.000Z</time></trkpt>
        <trkpt lat="29.5682788" lon="103.4201293"><ele>884.05</ele><time>2026-06-27T23:59:50.000Z</time></trkpt>
        <trkpt lat="29.5681767" lon="103.4201289"><ele>883.9</ele><time>2026-06-28T00:00:06.000Z</time></trkpt>
        <trkpt lat="29.5680823" lon="103.4201327"><ele>883.42</ele><time>2026-06-28T00:00:20.000Z</time></trkpt>
        <trkpt lat="29.5679912" lon="103.4201627"><ele>883.24</ele><time>2026-06-28T00:00:36.000Z</time></trkpt>
        <trkpt lat="29.5678845" lon="103.4202306"><ele>880.73</ele><time>2026-06-28T00:01:22.000Z</time></trkpt>
        <trkpt lat="29.5677883" lon="103.4202821"><ele>875.64</ele><time>2026-06-28T00:01:32.000Z</time></trkpt>
        <trkpt lat="29.5677015" lon="103.4203315"><ele>871.75</ele><time>2026-06-28T00:01:46.000Z</time></trkpt>
        <trkpt lat="29.5676178" lon="103.4203932"><ele>868.05</ele><time>2026-06-28T00:02:04.000Z</time></trkpt>
        <trkpt lat="29.5675269" lon="103.4204333"><ele>864.17</ele><time>2026-06-28T00:02:56.000Z</time></trkpt>
        <trkpt lat="29.5674174" lon="103.4204639"><ele>860.11</ele><time>2026-06-28T00:03:22.000Z</time></trkpt>
        <trkpt lat="29.5673037" lon="103.420406"><ele>857.41</ele><time>2026-06-28T00:04:06.000Z</time></trkpt>
        <trkpt lat="29.5672154" lon="103.4203198"><ele>854.94</ele><time>2026-06-28T00:04:10.000Z</time></trkpt>
        <trkpt lat="29.5671394" lon="103.4202401"><ele>852.6</ele><time>2026-06-28T00:04:44.000Z</time></trkpt>
        <trkpt lat="29.5670378" lon="103.4201332"><ele>849.91</ele><time>2026-06-28T00:04:56.000Z</time></trkpt>
        <trkpt lat="29.5669047" lon="103.4200353"><ele>846.18</ele><time>2026-06-28T00:05:00.000Z</time></trkpt>
        <trkpt lat="29.5667693" lon="103.4200105"><ele>843.59</ele><time>2026-06-28T00:05:20.000Z</time></trkpt>
        <trkpt lat="29.5666836" lon="103.4200858"><ele>840.45</ele><time>2026-06-28T00:05:32.000Z</time></trkpt>
        <trkpt lat="29.5666569" lon="103.4202057"><ele>836.04</ele><time>2026-06-28T00:05:40.000Z</time></trkpt>
        <trkpt lat="29.5666193" lon="103.4203135"><ele>832.05</ele><time>2026-06-28T00:05:48.000Z</time></trkpt>
        <trkpt lat="29.5665426" lon="103.4203896"><ele>829.02</ele><time>2026-06-28T00:06:00.000Z</time></trkpt>
        <trkpt lat="29.5664707" lon="103.4204695"><ele>827.55</ele><time>2026-06-28T00:06:08.000Z</time></trkpt>
        <trkpt lat="29.5664027" lon="103.4205491"><ele>826.8</ele><time>2026-06-28T00:06:20.000Z</time></trkpt>
        <trkpt lat="29.5663421" lon="103.4206383"><ele>826.26</ele><time>2026-06-28T00:06:30.000Z</time></trkpt>
        <trkpt lat="29.5663047" lon="103.420761"><ele>825.68</ele><time>2026-06-28T00:06:40.000Z</time></trkpt>
        <trkpt lat="29.5662756" lon="103.4208956"><ele>824.92</ele><time>2026-06-28T00:06:48.000Z</time></trkpt>
        <trkpt lat="29.5662608" lon="103.4210128"><ele>823.05</ele><time>2026-06-28T00:06:56.000Z</time></trkpt>
        <trkpt lat="29.5662532" lon="103.4211224"><ele>821.38</ele><time>2026-06-28T00:07:04.000Z</time></trkpt>
        <trkpt lat="29.5662049" lon="103.4212075"><ele>820.23</ele><time>2026-06-28T00:07:12.000Z</time></trkpt>
        <trkpt lat="29.5661164" lon="103.4212539"><ele>819.61</ele><time>2026-06-28T00:07:26.000Z</time></trkpt>
        <trkpt lat="29.5660185" lon="103.4212114"><ele>819.59</ele><time>2026-06-28T00:07:50.000Z</time></trkpt>
        <trkpt lat="29.5659019" lon="103.4211645"><ele>819.62</ele><time>2026-06-28T00:07:58.000Z</time></trkpt>
        <trkpt lat="29.5658" lon="103.4211568"><ele>818.81</ele><time>2026-06-28T00:08:04.000Z</time></trkpt>
        <trkpt lat="29.5657064" lon="103.4211494"><ele>818.05</ele><time>2026-06-28T00:08:12.000Z</time></trkpt>
        <trkpt lat="29.5656054" lon="103.4211351"><ele>816.32</ele><time>2026-06-28T00:08:20.000Z</time></trkpt>
        <trkpt lat="29.5655118" lon="103.421168"><ele>813.43</ele><time>2026-06-28T00:08:28.000Z</time></trkpt>
        <trkpt lat="29.5654148" lon="103.4212132"><ele>810.26</ele><time>2026-06-28T00:08:38.000Z</time></trkpt>
        <trkpt lat="29.565344" lon="103.4212855"><ele>808.41</ele><time>2026-06-28T00:08:54.000Z</time></trkpt>
        <trkpt lat="29.5652581" lon="103.421316"><ele>807.54</ele><time>2026-06-28T00:09:12.000Z</time></trkpt>
        <trkpt lat="29.5651804" lon="103.4213901"><ele>806.61</ele><time>2026-06-28T00:09:26.000Z</time></trkpt>
        <trkpt lat="29.5650867" lon="103.4214241"><ele>803.13</ele><time>2026-06-28T00:09:36.000Z</time></trkpt>
        <trkpt lat="29.5649824" lon="103.4213995"><ele>799.74</ele><time>2026-06-28T00:09:58.000Z</time></trkpt>
        <trkpt lat="29.5648915" lon="103.4213552"><ele>796.27</ele><time>2026-06-28T00:10:08.000Z</time></trkpt>
        <trkpt lat="29.5648384" lon="103.4212681"><ele>794.06</ele><time>2026-06-28T00:10:18.000Z</time></trkpt>
        <trkpt lat="29.5647921" lon="103.4211695"><ele>792.58</ele><time>2026-06-28T00:10:28.000Z</time></trkpt>
        <trkpt lat="29.5647117" lon="103.4211155"><ele>791.57</ele><time>2026-06-28T00:10:38.000Z</time></trkpt>
        <trkpt lat="29.5646456" lon="103.4211945"><ele>791.27</ele><time>2026-06-28T00:10:46.000Z</time></trkpt>
        <trkpt lat="29.5645687" lon="103.4212669"><ele>790.16</ele><time>2026-06-28T00:10:54.000Z</time></trkpt>
        <trkpt lat="29.5644883" lon="103.4213526"><ele>789.76</ele><time>2026-06-28T00:11:06.000Z</time></trkpt>
        <trkpt lat="29.5644103" lon="103.4214238"><ele>788</ele><time>2026-06-28T00:11:16.000Z</time></trkpt>
        <trkpt lat="29.5643228" lon="103.4214552"><ele>787.12</ele><time>2026-06-28T00:11:32.000Z</time></trkpt>
        <trkpt lat="29.5643112" lon="103.4215669"><ele>786.64</ele><time>2026-06-28T00:12:02.000Z</time></trkpt>
        <trkpt lat="29.5643495" lon="103.4217341"><ele>783.71</ele><time>2026-06-28T00:12:50.000Z</time></trkpt>
        <trkpt lat="29.5643703" lon="103.4219371"><ele>779.68</ele><time>2026-06-28T00:13:02.000Z</time></trkpt>
        <trkpt lat="29.5643834" lon="103.422091"><ele>776.14</ele><time>2026-06-28T00:13:06.000Z</time></trkpt>
        <trkpt lat="29.5643936" lon="103.4222107"><ele>773.15</ele><time>2026-06-28T00:13:12.000Z</time></trkpt>
        <trkpt lat="29.5644438" lon="103.4223003"><ele>770.64</ele><time>2026-06-28T00:13:24.000Z</time></trkpt>
        <trkpt lat="29.5644654" lon="103.4224056"><ele>765.42</ele><time>2026-06-28T00:13:44.000Z</time></trkpt>
        <trkpt lat="29.5644684" lon="103.4225112"><ele>760.76</ele><time>2026-06-28T00:13:54.000Z</time></trkpt>
        <trkpt lat="29.5644961" lon="103.4226073"><ele>756.56</ele><time>2026-06-28T00:14:14.000Z</time></trkpt>
        <trkpt lat="29.5645046" lon="103.4227137"><ele>750.28</ele><time>2026-06-28T00:14:36.000Z</time></trkpt>
        <trkpt lat="29.5645103" lon="103.4228349"><ele>744.16</ele><time>2026-06-28T00:14:48.000Z</time></trkpt>
        <trkpt lat="29.5645468" lon="103.4229411"><ele>740.69</ele><time>2026-06-28T00:14:58.000Z</time></trkpt>
        <trkpt lat="29.5645433" lon="103.4230567"><ele>739.29</ele><time>2026-06-28T00:15:14.000Z</time></trkpt>
        <trkpt lat="29.5645449" lon="103.4231726"><ele>737.73</ele><time>2026-06-28T00:15:26.000Z</time></trkpt>
        <trkpt lat="29.5645651" lon="103.4232802"><ele>735.92</ele><time>2026-06-28T00:15:40.000Z</time></trkpt>
        <trkpt lat="29.5645523" lon="103.4233955"><ele>735.44</ele><time>2026-06-28T00:15:56.000Z</time></trkpt>
        <trkpt lat="29.5645294" lon="103.4235042"><ele>734.65</ele><time>2026-06-28T00:16:04.000Z</time></trkpt>
        <trkpt lat="29.5644864" lon="103.4236019"><ele>733.64</ele><time>2026-06-28T00:16:16.000Z</time></trkpt>
        <trkpt lat="29.5644391" lon="103.423708"><ele>732.47</ele><time>2026-06-28T00:16:26.000Z</time></trkpt>
        <trkpt lat="29.5643865" lon="103.4238077"><ele>730.47</ele><time>2026-06-28T00:16:34.000Z</time></trkpt>
        <trkpt lat="29.5643792" lon="103.4239165"><ele>728.57</ele><time>2026-06-28T00:16:48.000Z</time></trkpt>
        <trkpt lat="29.5643946" lon="103.4240242"><ele>724.9</ele><time>2026-06-28T00:16:56.000Z</time></trkpt>
        <trkpt lat="29.5644216" lon="103.4241367"><ele>722.05</ele><time>2026-06-28T00:17:06.000Z</time></trkpt>
        <trkpt lat="29.5645072" lon="103.424194"><ele>719.95</ele><time>2026-06-28T00:17:18.000Z</time></trkpt>
        <trkpt lat="29.5646079" lon="103.424233"><ele>718.72</ele><time>2026-06-28T00:17:28.000Z</time></trkpt>
        <trkpt lat="29.5646641" lon="103.4243199"><ele>716.55</ele><time>2026-06-28T00:17:50.000Z</time></trkpt>
        <trkpt lat="29.5646742" lon="103.424424"><ele>713.13</ele><time>2026-06-28T00:18:10.000Z</time></trkpt>
        <trkpt lat="29.5646574" lon="103.4245473"><ele>707.57</ele><time>2026-06-28T00:18:20.000Z</time></trkpt>
        <trkpt lat="29.5646607" lon="103.4246636"><ele>703.2</ele><time>2026-06-28T00:18:28.000Z</time></trkpt>
        <trkpt lat="29.5646746" lon="103.4247772"><ele>699.05</ele><time>2026-06-28T00:18:36.000Z</time></trkpt>
        <trkpt lat="29.5646832" lon="103.4248849"><ele>696.14</ele><time>2026-06-28T00:18:46.000Z</time></trkpt>
        <trkpt lat="29.5647252" lon="103.4249804"><ele>693.79</ele><time>2026-06-28T00:19:00.000Z</time></trkpt>
        <trkpt lat="29.5647757" lon="103.4250744"><ele>690.17</ele><time>2026-06-28T00:19:10.000Z</time></trkpt>
        <trkpt lat="29.5647962" lon="103.4251861"><ele>686.39</ele><time>2026-06-28T00:19:24.000Z</time></trkpt>
        <trkpt lat="29.5648134" lon="103.425293"><ele>682.64</ele><time>2026-06-28T00:19:38.000Z</time></trkpt>
        <trkpt lat="29.5648725" lon="103.4253635"><ele>681.13</ele><time>2026-06-28T00:19:48.000Z</time></trkpt>
        <trkpt lat="29.5649507" lon="103.4254438"><ele>680.2</ele><time>2026-06-28T00:19:58.000Z</time></trkpt>
        <trkpt lat="29.5650105" lon="103.4255454"><ele>677.72</ele><time>2026-06-28T00:20:10.000Z</time></trkpt>
        <trkpt lat="29.5650749" lon="103.4256429"><ele>674.98</ele><time>2026-06-28T00:20:22.000Z</time></trkpt>
        <trkpt lat="29.5651569" lon="103.4257122"><ele>672.14</ele><time>2026-06-28T00:20:34.000Z</time></trkpt>
        <trkpt lat="29.565188" lon="103.4258134"><ele>669.43</ele><time>2026-06-28T00:21:10.000Z</time></trkpt>
        <trkpt lat="29.565208" lon="103.4259227"><ele>666.32</ele><time>2026-06-28T00:21:20.000Z</time></trkpt>
        <trkpt lat="29.5651957" lon="103.4260426"><ele>662.65</ele><time>2026-06-28T00:21:32.000Z</time></trkpt>
        <trkpt lat="29.5651748" lon="103.4261533"><ele>660.43</ele><time>2026-06-28T00:21:48.000Z</time></trkpt>
        <trkpt lat="29.5651561" lon="103.4262722"><ele>658.62</ele><time>2026-06-28T00:22:20.000Z</time></trkpt>
        <trkpt lat="29.5651325" lon="103.4263923"><ele>655.63</ele><time>2026-06-28T00:22:32.000Z</time></trkpt>
        <trkpt lat="29.5651132" lon="103.4265073"><ele>654.39</ele><time>2026-06-28T00:22:56.000Z</time></trkpt>
        <trkpt lat="29.5650884" lon="103.4266122"><ele>651.67</ele><time>2026-06-28T00:23:10.000Z</time></trkpt>
        <trkpt lat="29.5650605" lon="103.4267111"><ele>648.07</ele><time>2026-06-28T00:23:26.000Z</time></trkpt>
        <trkpt lat="29.56499" lon="103.426765"><ele>645.14</ele><time>2026-06-28T00:23:58.000Z</time></trkpt>
        <trkpt lat="29.5649668" lon="103.4268514"><ele>639.52</ele><time>2026-06-28T00:24:08.000Z</time></trkpt>
        <trkpt lat="29.5649803" lon="103.4269534"><ele>634.67</ele><time>2026-06-28T00:24:16.000Z</time></trkpt>
        <trkpt lat="29.5650659" lon="103.4270205"><ele>632.83</ele><time>2026-06-28T00:24:28.000Z</time></trkpt>
        <trkpt lat="29.5651671" lon="103.4270752"><ele>632.38</ele><time>2026-06-28T00:24:38.000Z</time></trkpt>
        <trkpt lat="29.5652632" lon="103.4271296"><ele>631.76</ele><time>2026-06-28T00:24:46.000Z</time></trkpt>
        <trkpt lat="29.5653078" lon="103.4272439"><ele>633.06</ele><time>2026-06-28T00:24:54.000Z</time></trkpt>
        <trkpt lat="29.56533" lon="103.4273839"><ele>634.04</ele><time>2026-06-28T00:25:10.000Z</time></trkpt>
        <trkpt lat="29.5653283" lon="103.4275037"><ele>634.91</ele><time>2026-06-28T00:25:14.000Z</time></trkpt>
        <trkpt lat="29.5652951" lon="103.4276098"><ele>635.24</ele><time>2026-06-28T00:25:22.000Z</time></trkpt>
        <trkpt lat="29.565251" lon="103.4277121"><ele>634.88</ele><time>2026-06-28T00:25:28.000Z</time></trkpt>
        <trkpt lat="29.5652553" lon="103.4277598"><ele>634.75</ele><time>2026-06-28T00:25:32.000Z</time></trkpt>
        <trkpt lat="29.5653236" lon="103.4278219"><ele>634.6</ele><time>2026-06-28T00:25:40.000Z</time></trkpt>
        <trkpt lat="29.5653909" lon="103.4279078"><ele>633.91</ele><time>2026-06-28T00:25:48.000Z</time></trkpt>
        <trkpt lat="29.5654308" lon="103.427944"><ele>633.01</ele><time>2026-06-28T00:25:50.000Z</time></trkpt>
        <trkpt lat="29.5654654" lon="103.4280566"><ele>632.35</ele><time>2026-06-28T00:26:02.000Z</time></trkpt>
        <trkpt lat="29.5654512" lon="103.4281605"><ele>631.01</ele><time>2026-06-28T00:26:08.000Z</time></trkpt>
        <trkpt lat="29.5653597" lon="103.4282204"><ele>629.99</ele><time>2026-06-28T00:26:18.000Z</time></trkpt>
        <trkpt lat="29.5652583" lon="103.4282573"><ele>631.53</ele><time>2026-06-28T00:26:24.000Z</time></trkpt>
        <trkpt lat="29.5651638" lon="103.4283104"><ele>632.9</ele><time>2026-06-28T00:26:36.000Z</time></trkpt>
        <trkpt lat="29.5650796" lon="103.428379"><ele>634.87</ele><time>2026-06-28T00:26:46.000Z</time></trkpt>
        <trkpt lat="29.5649999" lon="103.4284396"><ele>635.41</ele><time>2026-06-28T00:26:54.000Z</time></trkpt>
        <trkpt lat="29.5649192" lon="103.4284952"><ele>636.26</ele><time>2026-06-28T00:27:02.000Z</time></trkpt>
        <trkpt lat="29.5648532" lon="103.4285866"><ele>636.93</ele><time>2026-06-28T00:27:12.000Z</time></trkpt>
        <trkpt lat="29.5648353" lon="103.4287026"><ele>635.6</ele><time>2026-06-28T00:27:20.000Z</time></trkpt>
        <trkpt lat="29.5648581" lon="103.428824"><ele>634.47</ele><time>2026-06-28T00:27:30.000Z</time></trkpt>
        <trkpt lat="29.564912" lon="103.4289354"><ele>634.14</ele><time>2026-06-28T00:27:40.000Z</time></trkpt>
        <trkpt lat="29.5649686" lon="103.4290417"><ele>626.89</ele><time>2026-06-28T00:27:48.000Z</time></trkpt>
        <trkpt lat="29.5650179" lon="103.4291386"><ele>621.49</ele><time>2026-06-28T00:27:58.000Z</time></trkpt>
        <trkpt lat="29.5650304" lon="103.4292509"><ele>616.89</ele><time>2026-06-28T00:28:08.000Z</time></trkpt>
        <trkpt lat="29.5650501" lon="103.429357"><ele>613.25</ele><time>2026-06-28T00:28:16.000Z</time></trkpt>
        <trkpt lat="29.5650856" lon="103.4294548"><ele>609.91</ele><time>2026-06-28T00:28:24.000Z</time></trkpt>
        <trkpt lat="29.5651223" lon="103.4295658"><ele>607.04</ele><time>2026-06-28T00:28:34.000Z</time></trkpt>
        <trkpt lat="29.5651654" lon="103.4296687"><ele>604.97</ele><time>2026-06-28T00:28:42.000Z</time></trkpt>
        <trkpt lat="29.5652053" lon="103.4297693"><ele>603.61</ele><time>2026-06-28T00:28:50.000Z</time></trkpt>
        <trkpt lat="29.5652349" lon="103.4298772"><ele>602.79</ele><time>2026-06-28T00:28:58.000Z</time></trkpt>
        <trkpt lat="29.5652841" lon="103.4299846"><ele>602.26</ele><time>2026-06-28T00:29:06.000Z</time></trkpt>
        <trkpt lat="29.5653237" lon="103.4301062"><ele>601.99</ele><time>2026-06-28T00:29:16.000Z</time></trkpt>
        <trkpt lat="29.5653434" lon="103.4302161"><ele>601.77</ele><time>2026-06-28T00:29:24.000Z</time></trkpt>
        <trkpt lat="29.5653425" lon="103.4303205"><ele>601.25</ele><time>2026-06-28T00:29:32.000Z</time></trkpt>
        <trkpt lat="29.5653344" lon="103.4304413"><ele>600.45</ele><time>2026-06-28T00:29:42.000Z</time></trkpt>
        <trkpt lat="29.5653357" lon="103.4305572"><ele>600.04</ele><time>2026-06-28T00:29:50.000Z</time></trkpt>
        <trkpt lat="29.5653728" lon="103.4306547"><ele>599.78</ele><time>2026-06-28T00:29:58.000Z</time></trkpt>
        <trkpt lat="29.5653914" lon="103.4307606"><ele>599.84</ele><time>2026-06-28T00:30:08.000Z</time></trkpt>
        <trkpt lat="29.5654062" lon="103.4308779"><ele>599.4</ele><time>2026-06-28T00:30:18.000Z</time></trkpt>
        <trkpt lat="29.5654602" lon="103.4309673"><ele>598.71</ele><time>2026-06-28T00:30:26.000Z</time></trkpt>
        <trkpt lat="29.5655294" lon="103.4310554"><ele>598.16</ele><time>2026-06-28T00:30:34.000Z</time></trkpt>
        <trkpt lat="29.5655583" lon="103.4311646"><ele>597.72</ele><time>2026-06-28T00:30:46.000Z</time></trkpt>
        <trkpt lat="29.5655336" lon="103.4312662"><ele>597.43</ele><time>2026-06-28T00:30:54.000Z</time></trkpt>
        <trkpt lat="29.5655215" lon="103.4313786"><ele>597.09</ele><time>2026-06-28T00:31:04.000Z</time></trkpt>
        <trkpt lat="29.565496" lon="103.4315032"><ele>596.81</ele><time>2026-06-28T00:31:10.000Z</time></trkpt>
        <trkpt lat="29.5654684" lon="103.4316198"><ele>594.85</ele><time>2026-06-28T00:31:18.000Z</time></trkpt>
        <trkpt lat="29.5654277" lon="103.4317294"><ele>592.41</ele><time>2026-06-28T00:31:32.000Z</time></trkpt>
        <trkpt lat="29.5653833" lon="103.4318412"><ele>589.37</ele><time>2026-06-28T00:31:42.000Z</time></trkpt>
        <trkpt lat="29.5653394" lon="103.4319584"><ele>587.2</ele><time>2026-06-28T00:31:52.000Z</time></trkpt>
        <trkpt lat="29.565343" lon="103.4320776"><ele>585.68</ele><time>2026-06-28T00:32:02.000Z</time></trkpt>
        <trkpt lat="29.5653877" lon="103.4321835"><ele>584.81</ele><time>2026-06-28T00:32:10.000Z</time></trkpt>
        <trkpt lat="29.5654403" lon="103.4322829"><ele>583.39</ele><time>2026-06-28T00:32:18.000Z</time></trkpt>
        <trkpt lat="29.5654713" lon="103.4323899"><ele>581</ele><time>2026-06-28T00:32:26.000Z</time></trkpt>
        <trkpt lat="29.565484" lon="103.4325002"><ele>579.65</ele><time>2026-06-28T00:32:38.000Z</time></trkpt>
        <trkpt lat="29.5655222" lon="103.4325991"><ele>579.42</ele><time>2026-06-28T00:32:48.000Z</time></trkpt>
        <trkpt lat="29.5655822" lon="103.4326876"><ele>578.96</ele><time>2026-06-28T00:32:56.000Z</time></trkpt>
        <trkpt lat="29.5656544" lon="103.4327579"><ele>577.25</ele><time>2026-06-28T00:33:02.000Z</time></trkpt>
        <trkpt lat="29.5656905" lon="103.4328544"><ele>575.6</ele><time>2026-06-28T00:33:08.000Z</time></trkpt>
        <trkpt lat="29.5656814" lon="103.4329583"><ele>574.31</ele><time>2026-06-28T00:33:12.000Z</time></trkpt>
        <trkpt lat="29.5657033" lon="103.4330708"><ele>573.2</ele><time>2026-06-28T00:33:24.000Z</time></trkpt>
        <trkpt lat="29.5657403" lon="103.4331722"><ele>571.84</ele><time>2026-06-28T00:33:42.000Z</time></trkpt>
        <trkpt lat="29.5657189" lon="103.433272"><ele>567.92</ele><time>2026-06-28T00:33:54.000Z</time></trkpt>
        <trkpt lat="29.5656803" lon="103.4333715"><ele>565.12</ele><time>2026-06-28T00:34:04.000Z</time></trkpt>
        <trkpt lat="29.5657329" lon="103.4334512"><ele>563.03</ele><time>2026-06-28T00:34:08.000Z</time></trkpt>
        <trkpt lat="29.5657702" lon="103.4335443"><ele>560.52</ele><time>2026-06-28T00:34:16.000Z</time></trkpt>
        <trkpt lat="29.5658053" lon="103.4336471"><ele>558.37</ele><time>2026-06-28T00:34:30.000Z</time></trkpt>
        <trkpt lat="29.5657956" lon="103.4337527"><ele>557.83</ele><time>2026-06-28T00:34:38.000Z</time></trkpt>
        <trkpt lat="29.565782" lon="103.4338601"><ele>557.15</ele><time>2026-06-28T00:34:44.000Z</time></trkpt>
        <trkpt lat="29.5657588" lon="103.4339679"><ele>556.46</ele><time>2026-06-28T00:34:56.000Z</time></trkpt>
        <trkpt lat="29.56577" lon="103.4340791"><ele>557.25</ele><time>2026-06-28T00:35:12.000Z</time></trkpt>
        <trkpt lat="29.5657878" lon="103.4341966"><ele>558.18</ele><time>2026-06-28T00:35:28.000Z</time></trkpt>
        <trkpt lat="29.5657538" lon="103.4343008"><ele>558.92</ele><time>2026-06-28T00:35:42.000Z</time></trkpt>
        <trkpt lat="29.5656852" lon="103.4343734"><ele>560.01</ele><time>2026-06-28T00:35:54.000Z</time></trkpt>
        <trkpt lat="29.565604" lon="103.4344471"><ele>560.19</ele><time>2026-06-28T00:36:04.000Z</time></trkpt>
        <trkpt lat="29.5655535" lon="103.4345468"><ele>559.1</ele><time>2026-06-28T00:36:18.000Z</time></trkpt>
        <trkpt lat="29.5655734" lon="103.4346644"><ele>557.88</ele><time>2026-06-28T00:36:28.000Z</time></trkpt>
        <trkpt lat="29.5656286" lon="103.4347858"><ele>556.93</ele><time>2026-06-28T00:36:38.000Z</time></trkpt>
        <trkpt lat="29.5656873" lon="103.4348889"><ele>555.64</ele><time>2026-06-28T00:36:44.000Z</time></trkpt>
        <trkpt lat="29.5657469" lon="103.4349818"><ele>553.78</ele><time>2026-06-28T00:36:50.000Z</time></trkpt>
        <trkpt lat="29.5658171" lon="103.4350801"><ele>552.03</ele><time>2026-06-28T00:37:08.000Z</time></trkpt>
        <trkpt lat="29.5658812" lon="103.4351643"><ele>552.09</ele><time>2026-06-28T00:37:14.000Z</time></trkpt>
        <trkpt lat="29.5659551" lon="103.4352344"><ele>552.11</ele><time>2026-06-28T00:37:22.000Z</time></trkpt>
        <trkpt lat="29.5660045" lon="103.4353208"><ele>551.89</ele><time>2026-06-28T00:37:34.000Z</time></trkpt>
        <trkpt lat="29.5660396" lon="103.4354185"><ele>551.23</ele><time>2026-06-28T00:37:44.000Z</time></trkpt>
        <trkpt lat="29.5660749" lon="103.4355234"><ele>550.42</ele><time>2026-06-28T00:37:56.000Z</time></trkpt>
        <trkpt lat="29.5661066" lon="103.4356388"><ele>549.01</ele><time>2026-06-28T00:38:06.000Z</time></trkpt>
        <trkpt lat="29.5661396" lon="103.4357527"><ele>547.73</ele><time>2026-06-28T00:38:16.000Z</time></trkpt>
        <trkpt lat="29.5661889" lon="103.4358623"><ele>547.24</ele><time>2026-06-28T00:38:28.000Z</time></trkpt>
        <trkpt lat="29.5662389" lon="103.4359748"><ele>547.43</ele><time>2026-06-28T00:38:40.000Z</time></trkpt>
        <trkpt lat="29.5662898" lon="103.4360935"><ele>546.26</ele><time>2026-06-28T00:38:50.000Z</time></trkpt>
        <trkpt lat="29.5663194" lon="103.4362152"><ele>544.7</ele><time>2026-06-28T00:38:58.000Z</time></trkpt>
        <trkpt lat="29.5663562" lon="103.4363235"><ele>543.04</ele><time>2026-06-28T00:39:06.000Z</time></trkpt>
        <trkpt lat="29.566378" lon="103.4364272"><ele>541.72</ele><time>2026-06-28T00:39:16.000Z</time></trkpt>
        <trkpt lat="29.5664313" lon="103.436525"><ele>540.65</ele><time>2026-06-28T00:39:34.000Z</time></trkpt>
        <trkpt lat="29.5664756" lon="103.4366294"><ele>540.16</ele><time>2026-06-28T00:39:46.000Z</time></trkpt>
        <trkpt lat="29.5665318" lon="103.4367176"><ele>539.6</ele><time>2026-06-28T00:39:58.000Z</time></trkpt>
        <trkpt lat="29.5665834" lon="103.4368085"><ele>539</ele><time>2026-06-28T00:40:08.000Z</time></trkpt>
        <trkpt lat="29.5666381" lon="103.4369274"><ele>538.83</ele><time>2026-06-28T00:40:16.000Z</time></trkpt>
        <trkpt lat="29.5666807" lon="103.4370475"><ele>536.97</ele><time>2026-06-28T00:40:22.000Z</time></trkpt>
        <trkpt lat="29.5667298" lon="103.4371478"><ele>536.43</ele><time>2026-06-28T00:40:36.000Z</time></trkpt>
        <trkpt lat="29.5667954" lon="103.4372318"><ele>536.29</ele><time>2026-06-28T00:40:54.000Z</time></trkpt>
        <trkpt lat="29.5668548" lon="103.4373289"><ele>535.55</ele><time>2026-06-28T00:41:06.000Z</time></trkpt>
        <trkpt lat="29.566921" lon="103.437427"><ele>534.46</ele><time>2026-06-28T00:41:16.000Z</time></trkpt>
        <trkpt lat="29.5669793" lon="103.4375259"><ele>533.17</ele><time>2026-06-28T00:41:24.000Z</time></trkpt>
        <trkpt lat="29.5670349" lon="103.4376175"><ele>531.67</ele><time>2026-06-28T00:41:32.000Z</time></trkpt>
        <trkpt lat="29.5670861" lon="103.4377102"><ele>530.3</ele><time>2026-06-28T00:41:40.000Z</time></trkpt>
        <trkpt lat="29.5671364" lon="103.4378083"><ele>528.56</ele><time>2026-06-28T00:41:50.000Z</time></trkpt>
        <trkpt lat="29.5671892" lon="103.4379033"><ele>526.69</ele><time>2026-06-28T00:42:00.000Z</time></trkpt>
        <trkpt lat="29.5672311" lon="103.437997"><ele>524.84</ele><time>2026-06-28T00:42:10.000Z</time></trkpt>
        <trkpt lat="29.5672959" lon="103.43808"><ele>522.93</ele><time>2026-06-28T00:42:20.000Z</time></trkpt>
        <trkpt lat="29.5673607" lon="103.4381648"><ele>521.17</ele><time>2026-06-28T00:42:30.000Z</time></trkpt>
        <trkpt lat="29.5674276" lon="103.4382537"><ele>519.33</ele><time>2026-06-28T00:42:38.000Z</time></trkpt>
        <trkpt lat="29.5675003" lon="103.4383403"><ele>517.33</ele><time>2026-06-28T00:42:48.000Z</time></trkpt>
        <trkpt lat="29.5675647" lon="103.4384437"><ele>514.61</ele><time>2026-06-28T00:42:58.000Z</time></trkpt>
        <trkpt lat="29.5676142" lon="103.43855"><ele>512.2</ele><time>2026-06-28T00:43:08.000Z</time></trkpt>
        <trkpt lat="29.5676574" lon="103.4386538"><ele>510.08</ele><time>2026-06-28T00:43:18.000Z</time></trkpt>
        <trkpt lat="29.5677201" lon="103.4387481"><ele>507.55</ele><time>2026-06-28T00:43:28.000Z</time></trkpt>
        <trkpt lat="29.5677813" lon="103.4388406"><ele>505.62</ele><time>2026-06-28T00:43:36.000Z</time></trkpt>
        <trkpt lat="29.5678521" lon="103.4389358"><ele>504.2</ele><time>2026-06-28T00:43:46.000Z</time></trkpt>
        <trkpt lat="29.5679192" lon="103.4390299"><ele>502.68</ele><time>2026-06-28T00:43:56.000Z</time></trkpt>
        <trkpt lat="29.5679895" lon="103.4391159"><ele>500.96</ele><time>2026-06-28T00:44:06.000Z</time></trkpt>
        <trkpt lat="29.5680712" lon="103.4391967"><ele>499.23</ele><time>2026-06-28T00:44:16.000Z</time></trkpt>
        <trkpt lat="29.5681475" lon="103.4392618"><ele>497.78</ele><time>2026-06-28T00:44:24.000Z</time></trkpt>
        <trkpt lat="29.5682183" lon="103.4393452"><ele>496.73</ele><time>2026-06-28T00:44:34.000Z</time></trkpt>
        <trkpt lat="29.5682991" lon="103.4394204"><ele>495.74</ele><time>2026-06-28T00:44:44.000Z</time></trkpt>
        <trkpt lat="29.5683885" lon="103.4394839"><ele>495.88</ele><time>2026-06-28T00:44:54.000Z</time></trkpt>
        <trkpt lat="29.5684681" lon="103.4395458"><ele>495.48</ele><time>2026-06-28T00:45:02.000Z</time></trkpt>
        <trkpt lat="29.568535" lon="103.4396216"><ele>495.23</ele><time>2026-06-28T00:45:10.000Z</time></trkpt>
        <trkpt lat="29.5685932" lon="103.4397096"><ele>495.56</ele><time>2026-06-28T00:45:20.000Z</time></trkpt>
        <trkpt lat="29.5686555" lon="103.4397929"><ele>495.14</ele><time>2026-06-28T00:45:28.000Z</time></trkpt>
        <trkpt lat="29.5687174" lon="103.4398731"><ele>494.22</ele><time>2026-06-28T00:45:36.000Z</time></trkpt>
        <trkpt lat="29.5687708" lon="103.4399708"><ele>493.64</ele><time>2026-06-28T00:45:46.000Z</time></trkpt>
        <trkpt lat="29.5688216" lon="103.4400666"><ele>494.06</ele><time>2026-06-28T00:45:56.000Z</time></trkpt>
        <trkpt lat="29.5688777" lon="103.4401523"><ele>495.17</ele><time>2026-06-28T00:46:06.000Z</time></trkpt>
        <trkpt lat="29.5689263" lon="103.4402632"><ele>495.1</ele><time>2026-06-28T00:46:14.000Z</time></trkpt>
        <trkpt lat="29.5689638" lon="103.4403776"><ele>495.22</ele><time>2026-06-28T00:46:22.000Z</time></trkpt>
        <trkpt lat="29.5690012" lon="103.4404901"><ele>495.38</ele><time>2026-06-28T00:46:32.000Z</time></trkpt>
        <trkpt lat="29.5690262" lon="103.440606"><ele>495.36</ele><time>2026-06-28T00:46:48.000Z</time></trkpt>
        <trkpt lat="29.5690279" lon="103.4407183"><ele>494.51</ele><time>2026-06-28T00:46:58.000Z</time></trkpt>
        <trkpt lat="29.5690348" lon="103.4408318"><ele>494.33</ele><time>2026-06-28T00:47:08.000Z</time></trkpt>
        <trkpt lat="29.5690414" lon="103.440945"><ele>492.67</ele><time>2026-06-28T00:47:18.000Z</time></trkpt>
        <trkpt lat="29.5690532" lon="103.4410632"><ele>490.62</ele><time>2026-06-28T00:47:30.000Z</time></trkpt>
        <trkpt lat="29.5690766" lon="103.4411833"><ele>488.22</ele><time>2026-06-28T00:47:40.000Z</time></trkpt>
        <trkpt lat="29.5690827" lon="103.4412954"><ele>485.98</ele><time>2026-06-28T00:47:54.000Z</time></trkpt>
        <trkpt lat="29.5690802" lon="103.4414141"><ele>484.69</ele><time>2026-06-28T00:48:04.000Z</time></trkpt>
        <trkpt lat="29.5690489" lon="103.441515"><ele>486.41</ele><time>2026-06-28T00:48:42.000Z</time></trkpt>
        <trkpt lat="29.5690364" lon="103.4416238"><ele>487.28</ele><time>2026-06-28T00:48:52.000Z</time></trkpt>
        <trkpt lat="29.5690256" lon="103.4417365"><ele>486.39</ele><time>2026-06-28T00:49:02.000Z</time></trkpt>
        <trkpt lat="29.5690016" lon="103.4418469"><ele>485.5</ele><time>2026-06-28T00:49:10.000Z</time></trkpt>
        <trkpt lat="29.5689839" lon="103.4419582"><ele>484.96</ele><time>2026-06-28T00:49:18.000Z</time></trkpt>
        <trkpt lat="29.5689629" lon="103.442074"><ele>484.09</ele><time>2026-06-28T00:49:30.000Z</time></trkpt>
        <trkpt lat="29.5689316" lon="103.4422052"><ele>483.09</ele><time>2026-06-28T00:49:42.000Z</time></trkpt>
        <trkpt lat="29.568915" lon="103.4423252"><ele>483.07</ele><time>2026-06-28T00:49:54.000Z</time></trkpt>
        <trkpt lat="29.568895" lon="103.4424382"><ele>482.08</ele><time>2026-06-28T00:50:06.000Z</time></trkpt>
        <trkpt lat="29.5688806" lon="103.4425498"><ele>481.03</ele><time>2026-06-28T00:50:18.000Z</time></trkpt>
        <trkpt lat="29.5688437" lon="103.4426578"><ele>479.95</ele><time>2026-06-28T00:50:28.000Z</time></trkpt>
        <trkpt lat="29.5688142" lon="103.4427646"><ele>479.15</ele><time>2026-06-28T00:50:36.000Z</time></trkpt>
        <trkpt lat="29.5687949" lon="103.4428708"><ele>478.49</ele><time>2026-06-28T00:50:44.000Z</time></trkpt>
        <trkpt lat="29.56877" lon="103.4429825"><ele>478.16</ele><time>2026-06-28T00:50:54.000Z</time></trkpt>
        <trkpt lat="29.5687496" lon="103.4430869"><ele>477.36</ele><time>2026-06-28T00:51:04.000Z</time></trkpt>
        <trkpt lat="29.5687237" lon="103.4432067"><ele>475.97</ele><time>2026-06-28T00:51:14.000Z</time></trkpt>
        <trkpt lat="29.5686644" lon="103.4432918"><ele>475.31</ele><time>2026-06-28T00:51:28.000Z</time></trkpt>
        <trkpt lat="29.5685734" lon="103.4433301"><ele>475.39</ele><time>2026-06-28T00:51:42.000Z</time></trkpt>
        <trkpt lat="29.5684927" lon="103.4433977"><ele>475.56</ele><time>2026-06-28T00:51:54.000Z</time></trkpt>
        <trkpt lat="29.5684499" lon="103.4434944"><ele>475.92</ele><time>2026-06-28T00:52:04.000Z</time></trkpt>
        <trkpt lat="29.5684168" lon="103.4436012"><ele>475.71</ele><time>2026-06-28T00:52:26.000Z</time></trkpt>
        <trkpt lat="29.5684168" lon="103.4436012"><ele>475.71</ele><time>2026-06-28T00:52:29.000Z</time></trkpt>
      </trkseg>
  </trk>
</gpx>